<?xml version="1.0" encoding="UTF-8" standalone="no" ?>
<gpx xmlns="http://www.topografix.com/GPX/1/1" xmlns:xsi="http://www.w3.org/2001/XMLSchema-instance" xsi:schemaLocation="http://www.topografix.com/GPX/1/1 http://www.topografix.com/GPX/1/1/gpx.xsd" version="1.1" creator="VisuGPX - https://www.visugpx.com">
  <metadata>
    <name>Champagnat Cyclisme sur route</name>
  </metadata>
  <trk>
    <name><![CDATA[Champagnat Cyclisme sur route_1]]></name>
    <trkseg>
      <trkpt lat="46.4827" lon="5.36837">
        <ele>265.4</ele>
        <time>2022-05-28T11:11:11Z</time>
      </trkpt>
      <trkpt lat="46.48261" lon="5.36823">
        <ele>264.6</ele>
        <time>2022-05-28T11:11:12Z</time>
      </trkpt>
      <trkpt lat="46.48251" lon="5.36812">
        <ele>264</ele>
        <time>2022-05-28T11:11:13Z</time>
      </trkpt>
      <trkpt lat="46.4824" lon="5.36801">
        <ele>263</ele>
        <time>2022-05-28T11:11:14Z</time>
      </trkpt>
      <trkpt lat="46.48218" lon="5.36783">
        <ele>261.6</ele>
        <time>2022-05-28T11:11:16Z</time>
      </trkpt>
      <trkpt lat="46.48209" lon="5.36776">
        <ele>260.6</ele>
        <time>2022-05-28T11:11:17Z</time>
      </trkpt>
      <trkpt lat="46.48184" lon="5.36756">
        <ele>259.4</ele>
        <time>2022-05-28T11:11:19Z</time>
      </trkpt>
      <trkpt lat="46.48162" lon="5.36739">
        <ele>257.8</ele>
        <time>2022-05-28T11:11:21Z</time>
      </trkpt>
      <trkpt lat="46.48141" lon="5.36722">
        <ele>256.6</ele>
        <time>2022-05-28T11:11:23Z</time>
      </trkpt>
      <trkpt lat="46.48132" lon="5.36714">
        <ele>256</ele>
        <time>2022-05-28T11:11:24Z</time>
      </trkpt>
      <trkpt lat="46.48123" lon="5.36709">
        <ele>255</ele>
        <time>2022-05-28T11:11:25Z</time>
      </trkpt>
      <trkpt lat="46.48115" lon="5.36703">
        <ele>254</ele>
        <time>2022-05-28T11:11:26Z</time>
      </trkpt>
      <trkpt lat="46.48107" lon="5.3669">
        <ele>252.8</ele>
        <time>2022-05-28T11:11:28Z</time>
      </trkpt>
      <trkpt lat="46.48113" lon="5.36675">
        <ele>251.4</ele>
        <time>2022-05-28T11:11:30Z</time>
      </trkpt>
      <trkpt lat="46.48119" lon="5.3667">
        <ele>250.4</ele>
        <time>2022-05-28T11:11:31Z</time>
      </trkpt>
      <trkpt lat="46.4813" lon="5.3666">
        <ele>249</ele>
        <time>2022-05-28T11:11:33Z</time>
      </trkpt>
      <trkpt lat="46.48136" lon="5.36654">
        <ele>248.6</ele>
        <time>2022-05-28T11:11:34Z</time>
      </trkpt>
      <trkpt lat="46.48146" lon="5.36643">
        <ele>248.2</ele>
        <time>2022-05-28T11:11:36Z</time>
      </trkpt>
      <trkpt lat="46.48151" lon="5.36637">
        <ele>247.8</ele>
        <time>2022-05-28T11:11:37Z</time>
      </trkpt>
      <trkpt lat="46.48183" lon="5.36607">
        <ele>247.6</ele>
        <time>2022-05-28T11:11:43Z</time>
      </trkpt>
      <trkpt lat="46.48197" lon="5.36606">
        <ele>247.2</ele>
        <time>2022-05-28T11:11:45Z</time>
      </trkpt>
      <trkpt lat="46.48209" lon="5.36605">
        <ele>247</ele>
        <time>2022-05-28T11:11:47Z</time>
      </trkpt>
      <trkpt lat="46.48219" lon="5.36596">
        <ele>246.8</ele>
        <time>2022-05-28T11:11:49Z</time>
      </trkpt>
      <trkpt lat="46.48222" lon="5.36589">
        <ele>246.6</ele>
        <time>2022-05-28T11:11:50Z</time>
      </trkpt>
      <trkpt lat="46.48223" lon="5.36581">
        <ele>246.6</ele>
        <time>2022-05-28T11:11:51Z</time>
      </trkpt>
      <trkpt lat="46.48226" lon="5.36565">
        <ele>246.4</ele>
        <time>2022-05-28T11:11:53Z</time>
      </trkpt>
      <trkpt lat="46.48229" lon="5.36558">
        <ele>246.2</ele>
        <time>2022-05-28T11:11:54Z</time>
      </trkpt>
      <trkpt lat="46.48233" lon="5.36553">
        <ele>246</ele>
        <time>2022-05-28T11:11:55Z</time>
      </trkpt>
      <trkpt lat="46.48247" lon="5.36537">
        <ele>245.6</ele>
        <time>2022-05-28T11:11:58Z</time>
      </trkpt>
      <trkpt lat="46.48262" lon="5.36521">
        <ele>245.4</ele>
        <time>2022-05-28T11:12:01Z</time>
      </trkpt>
      <trkpt lat="46.48292" lon="5.36488">
        <ele>244.6</ele>
        <time>2022-05-28T11:12:07Z</time>
      </trkpt>
      <trkpt lat="46.48314" lon="5.36465">
        <ele>244.2</ele>
        <time>2022-05-28T11:12:11Z</time>
      </trkpt>
      <trkpt lat="46.4833" lon="5.36447">
        <ele>243.8</ele>
        <time>2022-05-28T11:12:14Z</time>
      </trkpt>
      <trkpt lat="46.48358" lon="5.36417">
        <ele>242.8</ele>
        <time>2022-05-28T11:12:19Z</time>
      </trkpt>
      <trkpt lat="46.48369" lon="5.36405">
        <ele>242.6</ele>
        <time>2022-05-28T11:12:21Z</time>
      </trkpt>
      <trkpt lat="46.48401" lon="5.3637">
        <ele>241.8</ele>
        <time>2022-05-28T11:12:27Z</time>
      </trkpt>
      <trkpt lat="46.48413" lon="5.36361">
        <ele>240.8</ele>
        <time>2022-05-28T11:12:29Z</time>
      </trkpt>
      <trkpt lat="46.48419" lon="5.36358">
        <ele>240.6</ele>
        <time>2022-05-28T11:12:30Z</time>
      </trkpt>
      <trkpt lat="46.48431" lon="5.36352">
        <ele>240.4</ele>
        <time>2022-05-28T11:12:32Z</time>
      </trkpt>
      <trkpt lat="46.4845" lon="5.36348">
        <ele>240</ele>
        <time>2022-05-28T11:12:35Z</time>
      </trkpt>
      <trkpt lat="46.48499" lon="5.36339">
        <ele>239.8</ele>
        <time>2022-05-28T11:12:43Z</time>
      </trkpt>
      <trkpt lat="46.48547" lon="5.36332">
        <ele>239.8</ele>
        <time>2022-05-28T11:12:51Z</time>
      </trkpt>
      <trkpt lat="46.48587" lon="5.36325">
        <ele>239.6</ele>
        <time>2022-05-28T11:12:57Z</time>
      </trkpt>
      <trkpt lat="46.48601" lon="5.36323">
        <ele>239.2</ele>
        <time>2022-05-28T11:12:59Z</time>
      </trkpt>
      <trkpt lat="46.48615" lon="5.3632">
        <ele>238.8</ele>
        <time>2022-05-28T11:13:01Z</time>
      </trkpt>
      <trkpt lat="46.48627" lon="5.36308">
        <ele>238.6</ele>
        <time>2022-05-28T11:13:03Z</time>
      </trkpt>
      <trkpt lat="46.48633" lon="5.36287">
        <ele>238</ele>
        <time>2022-05-28T11:13:05Z</time>
      </trkpt>
      <trkpt lat="46.48635" lon="5.36276">
        <ele>237.6</ele>
        <time>2022-05-28T11:13:06Z</time>
      </trkpt>
      <trkpt lat="46.48637" lon="5.36264">
        <ele>237.4</ele>
        <time>2022-05-28T11:13:07Z</time>
      </trkpt>
      <trkpt lat="46.4864" lon="5.36242">
        <ele>236.6</ele>
        <time>2022-05-28T11:13:09Z</time>
      </trkpt>
      <trkpt lat="46.48641" lon="5.3623">
        <ele>236</ele>
        <time>2022-05-28T11:13:10Z</time>
      </trkpt>
      <trkpt lat="46.48642" lon="5.36219">
        <ele>235.6</ele>
        <time>2022-05-28T11:13:11Z</time>
      </trkpt>
      <trkpt lat="46.48644" lon="5.36196">
        <ele>234.8</ele>
        <time>2022-05-28T11:13:13Z</time>
      </trkpt>
      <trkpt lat="46.48647" lon="5.36152">
        <ele>233.6</ele>
        <time>2022-05-28T11:13:17Z</time>
      </trkpt>
      <trkpt lat="46.48648" lon="5.36143">
        <ele>233.6</ele>
        <time>2022-05-28T11:13:18Z</time>
      </trkpt>
      <trkpt lat="46.4866" lon="5.36085">
        <ele>232.8</ele>
        <time>2022-05-28T11:13:24Z</time>
      </trkpt>
      <trkpt lat="46.48667" lon="5.36053">
        <ele>232.6</ele>
        <time>2022-05-28T11:13:28Z</time>
      </trkpt>
      <trkpt lat="46.48669" lon="5.36044">
        <ele>232.6</ele>
        <time>2022-05-28T11:13:29Z</time>
      </trkpt>
      <trkpt lat="46.4867" lon="5.36039">
        <ele>232.6</ele>
        <time>2022-05-28T11:13:30Z</time>
      </trkpt>
      <trkpt lat="46.48674" lon="5.36025">
        <ele>232.8</ele>
        <time>2022-05-28T11:13:33Z</time>
      </trkpt>
      <trkpt lat="46.4868" lon="5.36006">
        <ele>233.2</ele>
        <time>2022-05-28T11:13:38Z</time>
      </trkpt>
      <trkpt lat="46.48685" lon="5.35981">
        <ele>233.8</ele>
        <time>2022-05-28T11:13:43Z</time>
      </trkpt>
      <trkpt lat="46.48686" lon="5.35976">
        <ele>234</ele>
        <time>2022-05-28T11:13:44Z</time>
      </trkpt>
      <trkpt lat="46.48688" lon="5.35962">
        <ele>234.2</ele>
        <time>2022-05-28T11:13:46Z</time>
      </trkpt>
      <trkpt lat="46.48689" lon="5.35947">
        <ele>234.4</ele>
        <time>2022-05-28T11:13:48Z</time>
      </trkpt>
      <trkpt lat="46.48698" lon="5.35898">
        <ele>234.4</ele>
        <time>2022-05-28T11:13:54Z</time>
      </trkpt>
      <trkpt lat="46.48717" lon="5.35849">
        <ele>233.6</ele>
        <time>2022-05-28T11:14:00Z</time>
      </trkpt>
      <trkpt lat="46.48743" lon="5.35786">
        <ele>232.8</ele>
        <time>2022-05-28T11:14:08Z</time>
      </trkpt>
      <trkpt lat="46.4875" lon="5.3577">
        <ele>232.4</ele>
        <time>2022-05-28T11:14:10Z</time>
      </trkpt>
      <trkpt lat="46.48756" lon="5.35755">
        <ele>232</ele>
        <time>2022-05-28T11:14:12Z</time>
      </trkpt>
      <trkpt lat="46.48759" lon="5.35747">
        <ele>231.6</ele>
        <time>2022-05-28T11:14:13Z</time>
      </trkpt>
      <trkpt lat="46.48769" lon="5.35724">
        <ele>231.4</ele>
        <time>2022-05-28T11:14:16Z</time>
      </trkpt>
      <trkpt lat="46.48792" lon="5.35672">
        <ele>230.6</ele>
        <time>2022-05-28T11:14:23Z</time>
      </trkpt>
      <trkpt lat="46.48795" lon="5.35664">
        <ele>230.4</ele>
        <time>2022-05-28T11:14:24Z</time>
      </trkpt>
      <trkpt lat="46.48822" lon="5.35605">
        <ele>230.2</ele>
        <time>2022-05-28T11:14:32Z</time>
      </trkpt>
      <trkpt lat="46.48839" lon="5.3557">
        <ele>230.4</ele>
        <time>2022-05-28T11:14:37Z</time>
      </trkpt>
      <trkpt lat="46.48844" lon="5.35565">
        <ele>230.4</ele>
        <time>2022-05-28T11:14:38Z</time>
      </trkpt>
      <trkpt lat="46.4885" lon="5.35562">
        <ele>230.4</ele>
        <time>2022-05-28T11:14:39Z</time>
      </trkpt>
      <trkpt lat="46.48862" lon="5.35559">
        <ele>230.4</ele>
        <time>2022-05-28T11:14:41Z</time>
      </trkpt>
      <trkpt lat="46.48869" lon="5.35559">
        <ele>230.4</ele>
        <time>2022-05-28T11:14:42Z</time>
      </trkpt>
      <trkpt lat="46.48918" lon="5.35557">
        <ele>230.2</ele>
        <time>2022-05-28T11:14:49Z</time>
      </trkpt>
      <trkpt lat="46.48968" lon="5.35554">
        <ele>229.4</ele>
        <time>2022-05-28T11:14:56Z</time>
      </trkpt>
      <trkpt lat="46.49004" lon="5.35552">
        <ele>228.2</ele>
        <time>2022-05-28T11:15:01Z</time>
      </trkpt>
      <trkpt lat="46.49018" lon="5.35551">
        <ele>227.8</ele>
        <time>2022-05-28T11:15:03Z</time>
      </trkpt>
      <trkpt lat="46.49062" lon="5.35548">
        <ele>228</ele>
        <time>2022-05-28T11:15:10Z</time>
      </trkpt>
      <trkpt lat="46.49088" lon="5.35546">
        <ele>228.6</ele>
        <time>2022-05-28T11:15:15Z</time>
      </trkpt>
      <trkpt lat="46.49106" lon="5.35544">
        <ele>229.2</ele>
        <time>2022-05-28T11:15:19Z</time>
      </trkpt>
      <trkpt lat="46.4911" lon="5.35544">
        <ele>229.2</ele>
        <time>2022-05-28T11:15:20Z</time>
      </trkpt>
      <trkpt lat="46.49116" lon="5.35544">
        <ele>229.4</ele>
        <time>2022-05-28T11:15:21Z</time>
      </trkpt>
      <trkpt lat="46.49131" lon="5.35544">
        <ele>229.6</ele>
        <time>2022-05-28T11:15:24Z</time>
      </trkpt>
      <trkpt lat="46.49148" lon="5.35543">
        <ele>230.4</ele>
        <time>2022-05-28T11:15:27Z</time>
      </trkpt>
      <trkpt lat="46.49158" lon="5.35543">
        <ele>230.8</ele>
        <time>2022-05-28T11:15:29Z</time>
      </trkpt>
      <trkpt lat="46.49168" lon="5.35543">
        <ele>231</ele>
        <time>2022-05-28T11:15:31Z</time>
      </trkpt>
      <trkpt lat="46.49184" lon="5.35542">
        <ele>231.4</ele>
        <time>2022-05-28T11:15:34Z</time>
      </trkpt>
      <trkpt lat="46.49207" lon="5.35542">
        <ele>231.8</ele>
        <time>2022-05-28T11:15:38Z</time>
      </trkpt>
      <trkpt lat="46.49239" lon="5.3554">
        <ele>232.2</ele>
        <time>2022-05-28T11:15:43Z</time>
      </trkpt>
      <trkpt lat="46.49264" lon="5.35539">
        <ele>232.4</ele>
        <time>2022-05-28T11:15:47Z</time>
      </trkpt>
      <trkpt lat="46.49281" lon="5.35538">
        <ele>232.6</ele>
        <time>2022-05-28T11:15:50Z</time>
      </trkpt>
      <trkpt lat="46.49337" lon="5.35534">
        <ele>232.4</ele>
        <time>2022-05-28T11:15:59Z</time>
      </trkpt>
      <trkpt lat="46.49344" lon="5.35534">
        <ele>232.2</ele>
        <time>2022-05-28T11:16:00Z</time>
      </trkpt>
      <trkpt lat="46.49385" lon="5.35536">
        <ele>231.4</ele>
        <time>2022-05-28T11:16:06Z</time>
      </trkpt>
      <trkpt lat="46.49393" lon="5.35538">
        <ele>231.2</ele>
        <time>2022-05-28T11:16:07Z</time>
      </trkpt>
      <trkpt lat="46.49427" lon="5.3555">
        <ele>230.4</ele>
        <time>2022-05-28T11:16:12Z</time>
      </trkpt>
      <trkpt lat="46.49479" lon="5.35572">
        <ele>230.4</ele>
        <time>2022-05-28T11:16:20Z</time>
      </trkpt>
      <trkpt lat="46.49494" lon="5.35579">
        <ele>230.2</ele>
        <time>2022-05-28T11:16:22Z</time>
      </trkpt>
      <trkpt lat="46.49521" lon="5.35589">
        <ele>230</ele>
        <time>2022-05-28T11:16:26Z</time>
      </trkpt>
      <trkpt lat="46.49567" lon="5.35607">
        <ele>229.6</ele>
        <time>2022-05-28T11:16:33Z</time>
      </trkpt>
      <trkpt lat="46.4959" lon="5.35615">
        <ele>229</ele>
        <time>2022-05-28T11:16:36Z</time>
      </trkpt>
      <trkpt lat="46.49618" lon="5.35623">
        <ele>228.2</ele>
        <time>2022-05-28T11:16:40Z</time>
      </trkpt>
      <trkpt lat="46.49623" lon="5.35625">
        <ele>228</ele>
        <time>2022-05-28T11:16:41Z</time>
      </trkpt>
      <trkpt lat="46.49678" lon="5.35642">
        <ele>227</ele>
        <time>2022-05-28T11:16:49Z</time>
      </trkpt>
      <trkpt lat="46.49684" lon="5.35644">
        <ele>227</ele>
        <time>2022-05-28T11:16:50Z</time>
      </trkpt>
      <trkpt lat="46.4969" lon="5.35646">
        <ele>226.8</ele>
        <time>2022-05-28T11:16:51Z</time>
      </trkpt>
      <trkpt lat="46.49696" lon="5.35655">
        <ele>226.2</ele>
        <time>2022-05-28T11:16:53Z</time>
      </trkpt>
      <trkpt lat="46.49696" lon="5.35669">
        <ele>225.8</ele>
        <time>2022-05-28T11:16:55Z</time>
      </trkpt>
      <trkpt lat="46.49695" lon="5.35677">
        <ele>225.8</ele>
        <time>2022-05-28T11:16:56Z</time>
      </trkpt>
      <trkpt lat="46.4969" lon="5.35699">
        <ele>225</ele>
        <time>2022-05-28T11:16:59Z</time>
      </trkpt>
      <trkpt lat="46.49681" lon="5.35726">
        <ele>224.6</ele>
        <time>2022-05-28T11:17:02Z</time>
      </trkpt>
      <trkpt lat="46.49666" lon="5.35759">
        <ele>224</ele>
        <time>2022-05-28T11:17:06Z</time>
      </trkpt>
      <trkpt lat="46.49659" lon="5.35773">
        <ele>223.8</ele>
        <time>2022-05-28T11:17:08Z</time>
      </trkpt>
      <trkpt lat="46.49645" lon="5.35808">
        <ele>222.8</ele>
        <time>2022-05-28T11:17:12Z</time>
      </trkpt>
      <trkpt lat="46.49641" lon="5.35818">
        <ele>222.6</ele>
        <time>2022-05-28T11:17:13Z</time>
      </trkpt>
      <trkpt lat="46.49639" lon="5.35828">
        <ele>222.4</ele>
        <time>2022-05-28T11:17:14Z</time>
      </trkpt>
      <trkpt lat="46.49635" lon="5.35851">
        <ele>221.8</ele>
        <time>2022-05-28T11:17:16Z</time>
      </trkpt>
      <trkpt lat="46.49635" lon="5.35863">
        <ele>221.6</ele>
        <time>2022-05-28T11:17:17Z</time>
      </trkpt>
      <trkpt lat="46.49635" lon="5.35876">
        <ele>221.4</ele>
        <time>2022-05-28T11:17:18Z</time>
      </trkpt>
      <trkpt lat="46.4964" lon="5.35956">
        <ele>220.6</ele>
        <time>2022-05-28T11:17:25Z</time>
      </trkpt>
      <trkpt lat="46.49644" lon="5.36014">
        <ele>219.4</ele>
        <time>2022-05-28T11:17:31Z</time>
      </trkpt>
      <trkpt lat="46.49645" lon="5.36023">
        <ele>219.2</ele>
        <time>2022-05-28T11:17:32Z</time>
      </trkpt>
      <trkpt lat="46.49651" lon="5.36085">
        <ele>218.8</ele>
        <time>2022-05-28T11:17:39Z</time>
      </trkpt>
      <trkpt lat="46.49656" lon="5.36103">
        <ele>218.8</ele>
        <time>2022-05-28T11:17:41Z</time>
      </trkpt>
      <trkpt lat="46.49665" lon="5.36122">
        <ele>218.8</ele>
        <time>2022-05-28T11:17:44Z</time>
      </trkpt>
      <trkpt lat="46.49704" lon="5.36186">
        <ele>218.8</ele>
        <time>2022-05-28T11:17:54Z</time>
      </trkpt>
      <trkpt lat="46.49725" lon="5.36226">
        <ele>218.4</ele>
        <time>2022-05-28T11:18:00Z</time>
      </trkpt>
      <trkpt lat="46.49735" lon="5.36248">
        <ele>218.4</ele>
        <time>2022-05-28T11:18:03Z</time>
      </trkpt>
      <trkpt lat="46.49759" lon="5.363">
        <ele>218.6</ele>
        <time>2022-05-28T11:18:11Z</time>
      </trkpt>
      <trkpt lat="46.4977" lon="5.36326">
        <ele>219.6</ele>
        <time>2022-05-28T11:18:15Z</time>
      </trkpt>
      <trkpt lat="46.49777" lon="5.36344">
        <ele>220</ele>
        <time>2022-05-28T11:18:18Z</time>
      </trkpt>
      <trkpt lat="46.49779" lon="5.36349">
        <ele>220.4</ele>
        <time>2022-05-28T11:18:19Z</time>
      </trkpt>
      <trkpt lat="46.49782" lon="5.36355">
        <ele>220.6</ele>
        <time>2022-05-28T11:18:20Z</time>
      </trkpt>
      <trkpt lat="46.49784" lon="5.3636">
        <ele>220.8</ele>
        <time>2022-05-28T11:18:21Z</time>
      </trkpt>
      <trkpt lat="46.49793" lon="5.36383">
        <ele>221.6</ele>
        <time>2022-05-28T11:18:25Z</time>
      </trkpt>
      <trkpt lat="46.49795" lon="5.36387">
        <ele>221.6</ele>
        <time>2022-05-28T11:18:26Z</time>
      </trkpt>
      <trkpt lat="46.49802" lon="5.36407">
        <ele>222.6</ele>
        <time>2022-05-28T11:18:30Z</time>
      </trkpt>
      <trkpt lat="46.49807" lon="5.36418">
        <ele>223</ele>
        <time>2022-05-28T11:18:32Z</time>
      </trkpt>
      <trkpt lat="46.49825" lon="5.36459">
        <ele>224</ele>
        <time>2022-05-28T11:18:39Z</time>
      </trkpt>
      <trkpt lat="46.4983" lon="5.36469">
        <ele>224</ele>
        <time>2022-05-28T11:18:41Z</time>
      </trkpt>
      <trkpt lat="46.49862" lon="5.36517">
        <ele>224.6</ele>
        <time>2022-05-28T11:18:51Z</time>
      </trkpt>
      <trkpt lat="46.49868" lon="5.36526">
        <ele>225</ele>
        <time>2022-05-28T11:18:53Z</time>
      </trkpt>
      <trkpt lat="46.49891" lon="5.3656">
        <ele>225.6</ele>
        <time>2022-05-28T11:19:00Z</time>
      </trkpt>
      <trkpt lat="46.49897" lon="5.3657">
        <ele>226</ele>
        <time>2022-05-28T11:19:02Z</time>
      </trkpt>
      <trkpt lat="46.49916" lon="5.36608">
        <ele>226.4</ele>
        <time>2022-05-28T11:19:09Z</time>
      </trkpt>
      <trkpt lat="46.49918" lon="5.36613">
        <ele>226.6</ele>
        <time>2022-05-28T11:19:10Z</time>
      </trkpt>
      <trkpt lat="46.49922" lon="5.36625">
        <ele>226.8</ele>
        <time>2022-05-28T11:19:12Z</time>
      </trkpt>
      <trkpt lat="46.49927" lon="5.36635">
        <ele>227</ele>
        <time>2022-05-28T11:19:14Z</time>
      </trkpt>
      <trkpt lat="46.49931" lon="5.36646">
        <ele>227.2</ele>
        <time>2022-05-28T11:19:16Z</time>
      </trkpt>
      <trkpt lat="46.49938" lon="5.36673">
        <ele>227.6</ele>
        <time>2022-05-28T11:19:20Z</time>
      </trkpt>
      <trkpt lat="46.49948" lon="5.36727">
        <ele>227.6</ele>
        <time>2022-05-28T11:19:28Z</time>
      </trkpt>
      <trkpt lat="46.49955" lon="5.36765">
        <ele>228.2</ele>
        <time>2022-05-28T11:19:34Z</time>
      </trkpt>
      <trkpt lat="46.49957" lon="5.36778">
        <ele>228.6</ele>
        <time>2022-05-28T11:19:36Z</time>
      </trkpt>
      <trkpt lat="46.49962" lon="5.36803">
        <ele>229.2</ele>
        <time>2022-05-28T11:19:40Z</time>
      </trkpt>
      <trkpt lat="46.49974" lon="5.36868">
        <ele>230.2</ele>
        <time>2022-05-28T11:19:50Z</time>
      </trkpt>
      <trkpt lat="46.49975" lon="5.36876">
        <ele>230.4</ele>
        <time>2022-05-28T11:19:51Z</time>
      </trkpt>
      <trkpt lat="46.49984" lon="5.3692">
        <ele>231.2</ele>
        <time>2022-05-28T11:19:58Z</time>
      </trkpt>
      <trkpt lat="46.49986" lon="5.36933">
        <ele>231.4</ele>
        <time>2022-05-28T11:20:00Z</time>
      </trkpt>
      <trkpt lat="46.49993" lon="5.36971">
        <ele>232.6</ele>
        <time>2022-05-28T11:20:06Z</time>
      </trkpt>
      <trkpt lat="46.49998" lon="5.36996">
        <ele>233.4</ele>
        <time>2022-05-28T11:20:10Z</time>
      </trkpt>
      <trkpt lat="46.50003" lon="5.37021">
        <ele>233.8</ele>
        <time>2022-05-28T11:20:14Z</time>
      </trkpt>
      <trkpt lat="46.50004" lon="5.37027">
        <ele>234</ele>
        <time>2022-05-28T11:20:15Z</time>
      </trkpt>
      <trkpt lat="46.50015" lon="5.37083">
        <ele>235.2</ele>
        <time>2022-05-28T11:20:24Z</time>
      </trkpt>
      <trkpt lat="46.50016" lon="5.3709">
        <ele>235.2</ele>
        <time>2022-05-28T11:20:25Z</time>
      </trkpt>
      <trkpt lat="46.50028" lon="5.37153">
        <ele>236</ele>
        <time>2022-05-28T11:20:35Z</time>
      </trkpt>
      <trkpt lat="46.5003" lon="5.37164">
        <ele>236.2</ele>
        <time>2022-05-28T11:20:37Z</time>
      </trkpt>
      <trkpt lat="46.50036" lon="5.37188">
        <ele>236.6</ele>
        <time>2022-05-28T11:20:41Z</time>
      </trkpt>
      <trkpt lat="46.50042" lon="5.37219">
        <ele>237.2</ele>
        <time>2022-05-28T11:20:46Z</time>
      </trkpt>
      <trkpt lat="46.50048" lon="5.37251">
        <ele>238.6</ele>
        <time>2022-05-28T11:20:51Z</time>
      </trkpt>
      <trkpt lat="46.50049" lon="5.37257">
        <ele>238.6</ele>
        <time>2022-05-28T11:20:52Z</time>
      </trkpt>
      <trkpt lat="46.50052" lon="5.37277">
        <ele>238.8</ele>
        <time>2022-05-28T11:20:55Z</time>
      </trkpt>
      <trkpt lat="46.50056" lon="5.37296">
        <ele>239.6</ele>
        <time>2022-05-28T11:20:58Z</time>
      </trkpt>
      <trkpt lat="46.50067" lon="5.37355">
        <ele>240.6</ele>
        <time>2022-05-28T11:21:07Z</time>
      </trkpt>
      <trkpt lat="46.50068" lon="5.37362">
        <ele>241</ele>
        <time>2022-05-28T11:21:08Z</time>
      </trkpt>
      <trkpt lat="46.50078" lon="5.37409">
        <ele>241.6</ele>
        <time>2022-05-28T11:21:15Z</time>
      </trkpt>
      <trkpt lat="46.50082" lon="5.37422">
        <ele>241.8</ele>
        <time>2022-05-28T11:21:17Z</time>
      </trkpt>
      <trkpt lat="46.50102" lon="5.37465">
        <ele>242.4</ele>
        <time>2022-05-28T11:21:24Z</time>
      </trkpt>
      <trkpt lat="46.50132" lon="5.37521">
        <ele>242.6</ele>
        <time>2022-05-28T11:21:33Z</time>
      </trkpt>
      <trkpt lat="46.50143" lon="5.37574">
        <ele>242.6</ele>
        <time>2022-05-28T11:21:40Z</time>
      </trkpt>
      <trkpt lat="46.50144" lon="5.3759">
        <ele>242.8</ele>
        <time>2022-05-28T11:21:42Z</time>
      </trkpt>
      <trkpt lat="46.50146" lon="5.37632">
        <ele>243.4</ele>
        <time>2022-05-28T11:21:47Z</time>
      </trkpt>
      <trkpt lat="46.50147" lon="5.37648">
        <ele>243.4</ele>
        <time>2022-05-28T11:21:49Z</time>
      </trkpt>
      <trkpt lat="46.50147" lon="5.37663">
        <ele>243.6</ele>
        <time>2022-05-28T11:21:51Z</time>
      </trkpt>
      <trkpt lat="46.50147" lon="5.3767">
        <ele>243.6</ele>
        <time>2022-05-28T11:21:52Z</time>
      </trkpt>
      <trkpt lat="46.50152" lon="5.37697">
        <ele>243.8</ele>
        <time>2022-05-28T11:21:56Z</time>
      </trkpt>
      <trkpt lat="46.50153" lon="5.37703">
        <ele>244</ele>
        <time>2022-05-28T11:21:57Z</time>
      </trkpt>
      <trkpt lat="46.50155" lon="5.37708">
        <ele>244.2</ele>
        <time>2022-05-28T11:21:58Z</time>
      </trkpt>
      <trkpt lat="46.50162" lon="5.37729">
        <ele>245.2</ele>
        <time>2022-05-28T11:22:02Z</time>
      </trkpt>
      <trkpt lat="46.50165" lon="5.3774">
        <ele>245.6</ele>
        <time>2022-05-28T11:22:04Z</time>
      </trkpt>
      <trkpt lat="46.50167" lon="5.37745">
        <ele>245.8</ele>
        <time>2022-05-28T11:22:05Z</time>
      </trkpt>
      <trkpt lat="46.50173" lon="5.37752">
        <ele>246.2</ele>
        <time>2022-05-28T11:22:07Z</time>
      </trkpt>
      <trkpt lat="46.50196" lon="5.37762">
        <ele>247.2</ele>
        <time>2022-05-28T11:22:12Z</time>
      </trkpt>
      <trkpt lat="46.50201" lon="5.37765">
        <ele>247.2</ele>
        <time>2022-05-28T11:22:13Z</time>
      </trkpt>
      <trkpt lat="46.50229" lon="5.37784">
        <ele>247.4</ele>
        <time>2022-05-28T11:22:19Z</time>
      </trkpt>
      <trkpt lat="46.50251" lon="5.37805">
        <ele>247.8</ele>
        <time>2022-05-28T11:22:25Z</time>
      </trkpt>
      <trkpt lat="46.50264" lon="5.37818">
        <ele>248.4</ele>
        <time>2022-05-28T11:22:29Z</time>
      </trkpt>
      <trkpt lat="46.50268" lon="5.37823">
        <ele>248.6</ele>
        <time>2022-05-28T11:22:30Z</time>
      </trkpt>
      <trkpt lat="46.5029" lon="5.37846">
        <ele>249</ele>
        <time>2022-05-28T11:22:35Z</time>
      </trkpt>
      <trkpt lat="46.50294" lon="5.37851">
        <ele>249</ele>
        <time>2022-05-28T11:22:36Z</time>
      </trkpt>
      <trkpt lat="46.50318" lon="5.37873">
        <ele>249</ele>
        <time>2022-05-28T11:22:41Z</time>
      </trkpt>
      <trkpt lat="46.50342" lon="5.37899">
        <ele>249</ele>
        <time>2022-05-28T11:22:46Z</time>
      </trkpt>
      <trkpt lat="46.50346" lon="5.37905">
        <ele>249</ele>
        <time>2022-05-28T11:22:47Z</time>
      </trkpt>
      <trkpt lat="46.50349" lon="5.37912">
        <ele>249</ele>
        <time>2022-05-28T11:22:48Z</time>
      </trkpt>
      <trkpt lat="46.50357" lon="5.37941">
        <ele>248.8</ele>
        <time>2022-05-28T11:22:52Z</time>
      </trkpt>
      <trkpt lat="46.50358" lon="5.37949">
        <ele>248.8</ele>
        <time>2022-05-28T11:22:53Z</time>
      </trkpt>
      <trkpt lat="46.50359" lon="5.37965">
        <ele>249</ele>
        <time>2022-05-28T11:22:55Z</time>
      </trkpt>
      <trkpt lat="46.50357" lon="5.37981">
        <ele>249.2</ele>
        <time>2022-05-28T11:22:57Z</time>
      </trkpt>
      <trkpt lat="46.50354" lon="5.38015">
        <ele>249.2</ele>
        <time>2022-05-28T11:23:01Z</time>
      </trkpt>
      <trkpt lat="46.50356" lon="5.38031">
        <ele>249.2</ele>
        <time>2022-05-28T11:23:03Z</time>
      </trkpt>
      <trkpt lat="46.50361" lon="5.38043">
        <ele>249.2</ele>
        <time>2022-05-28T11:23:05Z</time>
      </trkpt>
      <trkpt lat="46.50364" lon="5.38046">
        <ele>249</ele>
        <time>2022-05-28T11:23:06Z</time>
      </trkpt>
      <trkpt lat="46.50375" lon="5.38051">
        <ele>248.8</ele>
        <time>2022-05-28T11:23:10Z</time>
      </trkpt>
      <trkpt lat="46.50379" lon="5.38049">
        <ele>248.8</ele>
        <time>2022-05-28T11:23:11Z</time>
      </trkpt>
      <trkpt lat="46.50387" lon="5.38039">
        <ele>248.6</ele>
        <time>2022-05-28T11:23:13Z</time>
      </trkpt>
      <trkpt lat="46.50405" lon="5.3801">
        <ele>248.4</ele>
        <time>2022-05-28T11:23:17Z</time>
      </trkpt>
      <trkpt lat="46.50425" lon="5.37975">
        <ele>247.4</ele>
        <time>2022-05-28T11:23:21Z</time>
      </trkpt>
      <trkpt lat="46.50438" lon="5.37953">
        <ele>246.6</ele>
        <time>2022-05-28T11:23:23Z</time>
      </trkpt>
      <trkpt lat="46.50444" lon="5.37943">
        <ele>246.4</ele>
        <time>2022-05-28T11:23:24Z</time>
      </trkpt>
      <trkpt lat="46.50452" lon="5.37934">
        <ele>246</ele>
        <time>2022-05-28T11:23:25Z</time>
      </trkpt>
      <trkpt lat="46.50466" lon="5.37917">
        <ele>245.6</ele>
        <time>2022-05-28T11:23:27Z</time>
      </trkpt>
      <trkpt lat="46.50472" lon="5.37908">
        <ele>245.4</ele>
        <time>2022-05-28T11:23:28Z</time>
      </trkpt>
      <trkpt lat="46.50496" lon="5.3787">
        <ele>244.6</ele>
        <time>2022-05-28T11:23:32Z</time>
      </trkpt>
      <trkpt lat="46.50509" lon="5.37851">
        <ele>244</ele>
        <time>2022-05-28T11:23:34Z</time>
      </trkpt>
      <trkpt lat="46.50522" lon="5.37831">
        <ele>243</ele>
        <time>2022-05-28T11:23:36Z</time>
      </trkpt>
      <trkpt lat="46.50535" lon="5.3781">
        <ele>241.6</ele>
        <time>2022-05-28T11:23:38Z</time>
      </trkpt>
      <trkpt lat="46.50548" lon="5.3779">
        <ele>240.8</ele>
        <time>2022-05-28T11:23:40Z</time>
      </trkpt>
      <trkpt lat="46.50554" lon="5.37779">
        <ele>240.2</ele>
        <time>2022-05-28T11:23:41Z</time>
      </trkpt>
      <trkpt lat="46.50575" lon="5.37748">
        <ele>238.8</ele>
        <time>2022-05-28T11:23:44Z</time>
      </trkpt>
      <trkpt lat="46.50588" lon="5.37728">
        <ele>238</ele>
        <time>2022-05-28T11:23:46Z</time>
      </trkpt>
      <trkpt lat="46.50594" lon="5.3772">
        <ele>237.6</ele>
        <time>2022-05-28T11:23:47Z</time>
      </trkpt>
      <trkpt lat="46.50614" lon="5.37687">
        <ele>236.6</ele>
        <time>2022-05-28T11:23:50Z</time>
      </trkpt>
      <trkpt lat="46.50633" lon="5.37659">
        <ele>235.4</ele>
        <time>2022-05-28T11:23:53Z</time>
      </trkpt>
      <trkpt lat="46.5066" lon="5.37619">
        <ele>234.4</ele>
        <time>2022-05-28T11:23:58Z</time>
      </trkpt>
      <trkpt lat="46.50693" lon="5.3757">
        <ele>233.4</ele>
        <time>2022-05-28T11:24:05Z</time>
      </trkpt>
      <trkpt lat="46.50705" lon="5.37569">
        <ele>233.2</ele>
        <time>2022-05-28T11:24:07Z</time>
      </trkpt>
      <trkpt lat="46.50718" lon="5.37587">
        <ele>233.2</ele>
        <time>2022-05-28T11:24:10Z</time>
      </trkpt>
      <trkpt lat="46.50734" lon="5.37618">
        <ele>232.4</ele>
        <time>2022-05-28T11:24:15Z</time>
      </trkpt>
      <trkpt lat="46.50738" lon="5.37639">
        <ele>232.4</ele>
        <time>2022-05-28T11:24:18Z</time>
      </trkpt>
      <trkpt lat="46.50739" lon="5.37646">
        <ele>232.4</ele>
        <time>2022-05-28T11:24:19Z</time>
      </trkpt>
      <trkpt lat="46.50741" lon="5.37691">
        <ele>233.6</ele>
        <time>2022-05-28T11:24:26Z</time>
      </trkpt>
      <trkpt lat="46.50741" lon="5.37697">
        <ele>233.8</ele>
        <time>2022-05-28T11:24:27Z</time>
      </trkpt>
      <trkpt lat="46.50744" lon="5.37721">
        <ele>234.6</ele>
        <time>2022-05-28T11:24:31Z</time>
      </trkpt>
      <trkpt lat="46.50746" lon="5.37742">
        <ele>235.2</ele>
        <time>2022-05-28T11:24:34Z</time>
      </trkpt>
      <trkpt lat="46.50748" lon="5.37756">
        <ele>235.4</ele>
        <time>2022-05-28T11:24:36Z</time>
      </trkpt>
      <trkpt lat="46.50749" lon="5.37764">
        <ele>235.8</ele>
        <time>2022-05-28T11:24:37Z</time>
      </trkpt>
      <trkpt lat="46.50755" lon="5.37793">
        <ele>236.2</ele>
        <time>2022-05-28T11:24:41Z</time>
      </trkpt>
      <trkpt lat="46.50761" lon="5.37812">
        <ele>236.6</ele>
        <time>2022-05-28T11:24:44Z</time>
      </trkpt>
      <trkpt lat="46.50766" lon="5.37823">
        <ele>236.8</ele>
        <time>2022-05-28T11:24:46Z</time>
      </trkpt>
      <trkpt lat="46.50771" lon="5.37835">
        <ele>237</ele>
        <time>2022-05-28T11:24:48Z</time>
      </trkpt>
      <trkpt lat="46.50788" lon="5.37861">
        <ele>237.6</ele>
        <time>2022-05-28T11:24:53Z</time>
      </trkpt>
      <trkpt lat="46.50795" lon="5.3787">
        <ele>237.8</ele>
        <time>2022-05-28T11:24:55Z</time>
      </trkpt>
      <trkpt lat="46.5081" lon="5.37888">
        <ele>238.2</ele>
        <time>2022-05-28T11:24:59Z</time>
      </trkpt>
      <trkpt lat="46.50824" lon="5.37897">
        <ele>238.6</ele>
        <time>2022-05-28T11:25:02Z</time>
      </trkpt>
      <trkpt lat="46.50829" lon="5.37899">
        <ele>238.6</ele>
        <time>2022-05-28T11:25:03Z</time>
      </trkpt>
      <trkpt lat="46.50856" lon="5.37902">
        <ele>239.4</ele>
        <time>2022-05-28T11:25:08Z</time>
      </trkpt>
      <trkpt lat="46.50861" lon="5.37903">
        <ele>240</ele>
        <time>2022-05-28T11:25:09Z</time>
      </trkpt>
      <trkpt lat="46.50903" lon="5.37905">
        <ele>240.2</ele>
        <time>2022-05-28T11:25:17Z</time>
      </trkpt>
      <trkpt lat="46.50946" lon="5.37894">
        <ele>240</ele>
        <time>2022-05-28T11:25:25Z</time>
      </trkpt>
      <trkpt lat="46.51001" lon="5.37881">
        <ele>240</ele>
        <time>2022-05-28T11:25:35Z</time>
      </trkpt>
      <trkpt lat="46.5106" lon="5.37872">
        <ele>239.6</ele>
        <time>2022-05-28T11:25:45Z</time>
      </trkpt>
      <trkpt lat="46.51079" lon="5.3787">
        <ele>238.6</ele>
        <time>2022-05-28T11:25:48Z</time>
      </trkpt>
      <trkpt lat="46.51104" lon="5.37862">
        <ele>237.6</ele>
        <time>2022-05-28T11:25:52Z</time>
      </trkpt>
      <trkpt lat="46.51142" lon="5.37838">
        <ele>236.6</ele>
        <time>2022-05-28T11:25:58Z</time>
      </trkpt>
      <trkpt lat="46.51148" lon="5.37833">
        <ele>236.4</ele>
        <time>2022-05-28T11:25:59Z</time>
      </trkpt>
      <trkpt lat="46.51173" lon="5.37815">
        <ele>235.4</ele>
        <time>2022-05-28T11:26:03Z</time>
      </trkpt>
      <trkpt lat="46.51187" lon="5.37809">
        <ele>235</ele>
        <time>2022-05-28T11:26:05Z</time>
      </trkpt>
      <trkpt lat="46.51223" lon="5.37804">
        <ele>234.2</ele>
        <time>2022-05-28T11:26:10Z</time>
      </trkpt>
      <trkpt lat="46.5123" lon="5.37803">
        <ele>234.2</ele>
        <time>2022-05-28T11:26:11Z</time>
      </trkpt>
      <trkpt lat="46.5125" lon="5.37799">
        <ele>233.4</ele>
        <time>2022-05-28T11:26:14Z</time>
      </trkpt>
      <trkpt lat="46.51262" lon="5.37794">
        <ele>233.2</ele>
        <time>2022-05-28T11:26:16Z</time>
      </trkpt>
      <trkpt lat="46.51269" lon="5.3779">
        <ele>233</ele>
        <time>2022-05-28T11:26:17Z</time>
      </trkpt>
      <trkpt lat="46.513" lon="5.37775">
        <ele>232</ele>
        <time>2022-05-28T11:26:22Z</time>
      </trkpt>
      <trkpt lat="46.51324" lon="5.37763">
        <ele>231.6</ele>
        <time>2022-05-28T11:26:26Z</time>
      </trkpt>
      <trkpt lat="46.51337" lon="5.37756">
        <ele>231.4</ele>
        <time>2022-05-28T11:26:28Z</time>
      </trkpt>
      <trkpt lat="46.51356" lon="5.37746">
        <ele>231</ele>
        <time>2022-05-28T11:26:31Z</time>
      </trkpt>
      <trkpt lat="46.51375" lon="5.37737">
        <ele>230.6</ele>
        <time>2022-05-28T11:26:34Z</time>
      </trkpt>
      <trkpt lat="46.51405" lon="5.37724">
        <ele>229.6</ele>
        <time>2022-05-28T11:26:39Z</time>
      </trkpt>
      <trkpt lat="46.5143" lon="5.37716">
        <ele>228.8</ele>
        <time>2022-05-28T11:26:43Z</time>
      </trkpt>
      <trkpt lat="46.51436" lon="5.37714">
        <ele>228.6</ele>
        <time>2022-05-28T11:26:44Z</time>
      </trkpt>
      <trkpt lat="46.51473" lon="5.37705">
        <ele>227.4</ele>
        <time>2022-05-28T11:26:50Z</time>
      </trkpt>
      <trkpt lat="46.51498" lon="5.37699">
        <ele>226.8</ele>
        <time>2022-05-28T11:26:54Z</time>
      </trkpt>
      <trkpt lat="46.51524" lon="5.37693">
        <ele>226.6</ele>
        <time>2022-05-28T11:26:58Z</time>
      </trkpt>
      <trkpt lat="46.51546" lon="5.37688">
        <ele>226.2</ele>
        <time>2022-05-28T11:27:01Z</time>
      </trkpt>
      <trkpt lat="46.51566" lon="5.37684">
        <ele>226.2</ele>
        <time>2022-05-28T11:27:04Z</time>
      </trkpt>
      <trkpt lat="46.51586" lon="5.37683">
        <ele>225.6</ele>
        <time>2022-05-28T11:27:07Z</time>
      </trkpt>
      <trkpt lat="46.51619" lon="5.37675">
        <ele>224.6</ele>
        <time>2022-05-28T11:27:12Z</time>
      </trkpt>
      <trkpt lat="46.5164" lon="5.37667">
        <ele>223.4</ele>
        <time>2022-05-28T11:27:15Z</time>
      </trkpt>
      <trkpt lat="46.51658" lon="5.37659">
        <ele>223</ele>
        <time>2022-05-28T11:27:18Z</time>
      </trkpt>
      <trkpt lat="46.51674" lon="5.37651">
        <ele>222.8</ele>
        <time>2022-05-28T11:27:21Z</time>
      </trkpt>
      <trkpt lat="46.5168" lon="5.37646">
        <ele>222.8</ele>
        <time>2022-05-28T11:27:22Z</time>
      </trkpt>
      <trkpt lat="46.5169" lon="5.37638">
        <ele>222.8</ele>
        <time>2022-05-28T11:27:24Z</time>
      </trkpt>
      <trkpt lat="46.51701" lon="5.37633">
        <ele>222.8</ele>
        <time>2022-05-28T11:27:26Z</time>
      </trkpt>
      <trkpt lat="46.51713" lon="5.37632">
        <ele>222.8</ele>
        <time>2022-05-28T11:27:28Z</time>
      </trkpt>
      <trkpt lat="46.51724" lon="5.37635">
        <ele>222.8</ele>
        <time>2022-05-28T11:27:30Z</time>
      </trkpt>
      <trkpt lat="46.5176" lon="5.37646">
        <ele>223</ele>
        <time>2022-05-28T11:27:37Z</time>
      </trkpt>
      <trkpt lat="46.51769" lon="5.37648">
        <ele>223.2</ele>
        <time>2022-05-28T11:27:39Z</time>
      </trkpt>
      <trkpt lat="46.51803" lon="5.37654">
        <ele>224.2</ele>
        <time>2022-05-28T11:27:46Z</time>
      </trkpt>
      <trkpt lat="46.51808" lon="5.37654">
        <ele>224.4</ele>
        <time>2022-05-28T11:27:47Z</time>
      </trkpt>
      <trkpt lat="46.5185" lon="5.37652">
        <ele>225.6</ele>
        <time>2022-05-28T11:27:55Z</time>
      </trkpt>
      <trkpt lat="46.5186" lon="5.37652">
        <ele>225.8</ele>
        <time>2022-05-28T11:27:57Z</time>
      </trkpt>
      <trkpt lat="46.51893" lon="5.3765">
        <ele>226.6</ele>
        <time>2022-05-28T11:28:03Z</time>
      </trkpt>
      <trkpt lat="46.51938" lon="5.37643">
        <ele>226.6</ele>
        <time>2022-05-28T11:28:11Z</time>
      </trkpt>
      <trkpt lat="46.51975" lon="5.37634">
        <ele>225.8</ele>
        <time>2022-05-28T11:28:18Z</time>
      </trkpt>
      <trkpt lat="46.52013" lon="5.37631">
        <ele>225.8</ele>
        <time>2022-05-28T11:28:26Z</time>
      </trkpt>
      <trkpt lat="46.52023" lon="5.37624">
        <ele>225.8</ele>
        <time>2022-05-28T11:28:30Z</time>
      </trkpt>
      <trkpt lat="46.52031" lon="5.37595">
        <ele>225.6</ele>
        <time>2022-05-28T11:28:34Z</time>
      </trkpt>
      <trkpt lat="46.52036" lon="5.37571">
        <ele>225.2</ele>
        <time>2022-05-28T11:28:37Z</time>
      </trkpt>
      <trkpt lat="46.52043" lon="5.3754">
        <ele>224.8</ele>
        <time>2022-05-28T11:28:41Z</time>
      </trkpt>
      <trkpt lat="46.52049" lon="5.37512">
        <ele>224.4</ele>
        <time>2022-05-28T11:28:45Z</time>
      </trkpt>
      <trkpt lat="46.52052" lon="5.37498">
        <ele>224.2</ele>
        <time>2022-05-28T11:28:47Z</time>
      </trkpt>
      <trkpt lat="46.52062" lon="5.37457">
        <ele>224.2</ele>
        <time>2022-05-28T11:28:53Z</time>
      </trkpt>
      <trkpt lat="46.52078" lon="5.3738">
        <ele>224.6</ele>
        <time>2022-05-28T11:29:03Z</time>
      </trkpt>
      <trkpt lat="46.52083" lon="5.37364">
        <ele>224.8</ele>
        <time>2022-05-28T11:29:05Z</time>
      </trkpt>
      <trkpt lat="46.5209" lon="5.37348">
        <ele>224.8</ele>
        <time>2022-05-28T11:29:07Z</time>
      </trkpt>
      <trkpt lat="46.52109" lon="5.37332">
        <ele>224.8</ele>
        <time>2022-05-28T11:29:10Z</time>
      </trkpt>
      <trkpt lat="46.5216" lon="5.37297">
        <ele>223.2</ele>
        <time>2022-05-28T11:29:17Z</time>
      </trkpt>
      <trkpt lat="46.52197" lon="5.3727">
        <ele>221.4</ele>
        <time>2022-05-28T11:29:22Z</time>
      </trkpt>
      <trkpt lat="46.5221" lon="5.3726">
        <ele>220.2</ele>
        <time>2022-05-28T11:29:24Z</time>
      </trkpt>
      <trkpt lat="46.52231" lon="5.37242">
        <ele>219</ele>
        <time>2022-05-28T11:29:27Z</time>
      </trkpt>
      <trkpt lat="46.52245" lon="5.37229">
        <ele>217.4</ele>
        <time>2022-05-28T11:29:29Z</time>
      </trkpt>
      <trkpt lat="46.52266" lon="5.37207">
        <ele>216.2</ele>
        <time>2022-05-28T11:29:32Z</time>
      </trkpt>
      <trkpt lat="46.52289" lon="5.37183">
        <ele>215</ele>
        <time>2022-05-28T11:29:35Z</time>
      </trkpt>
      <trkpt lat="46.5231" lon="5.37161">
        <ele>213.8</ele>
        <time>2022-05-28T11:29:38Z</time>
      </trkpt>
      <trkpt lat="46.52337" lon="5.37131">
        <ele>212.2</ele>
        <time>2022-05-28T11:29:42Z</time>
      </trkpt>
      <trkpt lat="46.52353" lon="5.37115">
        <ele>211.2</ele>
        <time>2022-05-28T11:29:44Z</time>
      </trkpt>
      <trkpt lat="46.52389" lon="5.37077">
        <ele>210</ele>
        <time>2022-05-28T11:29:49Z</time>
      </trkpt>
      <trkpt lat="46.52401" lon="5.37061">
        <ele>209.8</ele>
        <time>2022-05-28T11:29:51Z</time>
      </trkpt>
      <trkpt lat="46.52407" lon="5.37052">
        <ele>209</ele>
        <time>2022-05-28T11:29:52Z</time>
      </trkpt>
      <trkpt lat="46.52425" lon="5.37018">
        <ele>207.8</ele>
        <time>2022-05-28T11:29:56Z</time>
      </trkpt>
      <trkpt lat="46.5243" lon="5.37009">
        <ele>207.8</ele>
        <time>2022-05-28T11:29:57Z</time>
      </trkpt>
      <trkpt lat="46.52446" lon="5.36958">
        <ele>207.6</ele>
        <time>2022-05-28T11:30:02Z</time>
      </trkpt>
      <trkpt lat="46.52458" lon="5.36878">
        <ele>206.6</ele>
        <time>2022-05-28T11:30:10Z</time>
      </trkpt>
      <trkpt lat="46.52465" lon="5.36811">
        <ele>206.2</ele>
        <time>2022-05-28T11:30:17Z</time>
      </trkpt>
      <trkpt lat="46.52466" lon="5.36757">
        <ele>206.4</ele>
        <time>2022-05-28T11:30:23Z</time>
      </trkpt>
      <trkpt lat="46.52467" lon="5.36729">
        <ele>206.8</ele>
        <time>2022-05-28T11:30:27Z</time>
      </trkpt>
      <trkpt lat="46.52468" lon="5.36715">
        <ele>206.8</ele>
        <time>2022-05-28T11:30:29Z</time>
      </trkpt>
      <trkpt lat="46.5247" lon="5.36676">
        <ele>206.8</ele>
        <time>2022-05-28T11:30:34Z</time>
      </trkpt>
      <trkpt lat="46.52474" lon="5.36592">
        <ele>206.2</ele>
        <time>2022-05-28T11:30:44Z</time>
      </trkpt>
      <trkpt lat="46.52481" lon="5.36511">
        <ele>205.6</ele>
        <time>2022-05-28T11:30:53Z</time>
      </trkpt>
      <trkpt lat="46.52482" lon="5.36504">
        <ele>205.6</ele>
        <time>2022-05-28T11:30:54Z</time>
      </trkpt>
      <trkpt lat="46.52483" lon="5.36492">
        <ele>205.6</ele>
        <time>2022-05-28T11:30:55Z</time>
      </trkpt>
      <trkpt lat="46.52489" lon="5.36441">
        <ele>205.2</ele>
        <time>2022-05-28T11:31:01Z</time>
      </trkpt>
      <trkpt lat="46.52498" lon="5.36379">
        <ele>204.6</ele>
        <time>2022-05-28T11:31:08Z</time>
      </trkpt>
      <trkpt lat="46.52501" lon="5.36365">
        <ele>204.4</ele>
        <time>2022-05-28T11:31:10Z</time>
      </trkpt>
      <trkpt lat="46.52507" lon="5.36348">
        <ele>204.4</ele>
        <time>2022-05-28T11:31:12Z</time>
      </trkpt>
      <trkpt lat="46.5251" lon="5.36343">
        <ele>204.4</ele>
        <time>2022-05-28T11:31:13Z</time>
      </trkpt>
      <trkpt lat="46.52519" lon="5.36331">
        <ele>204.4</ele>
        <time>2022-05-28T11:31:15Z</time>
      </trkpt>
      <trkpt lat="46.5253" lon="5.36321">
        <ele>204.2</ele>
        <time>2022-05-28T11:31:17Z</time>
      </trkpt>
      <trkpt lat="46.52535" lon="5.36319">
        <ele>204.2</ele>
        <time>2022-05-28T11:31:18Z</time>
      </trkpt>
      <trkpt lat="46.52546" lon="5.36315">
        <ele>204.2</ele>
        <time>2022-05-28T11:31:20Z</time>
      </trkpt>
      <trkpt lat="46.52551" lon="5.36314">
        <ele>204.2</ele>
        <time>2022-05-28T11:31:21Z</time>
      </trkpt>
      <trkpt lat="46.5256" lon="5.36315">
        <ele>204.6</ele>
        <time>2022-05-28T11:31:23Z</time>
      </trkpt>
      <trkpt lat="46.52569" lon="5.36316">
        <ele>204.4</ele>
        <time>2022-05-28T11:31:25Z</time>
      </trkpt>
      <trkpt lat="46.52579" lon="5.36312">
        <ele>204.2</ele>
        <time>2022-05-28T11:31:27Z</time>
      </trkpt>
      <trkpt lat="46.52583" lon="5.36308">
        <ele>204.2</ele>
        <time>2022-05-28T11:31:28Z</time>
      </trkpt>
      <trkpt lat="46.52587" lon="5.36303">
        <ele>204.2</ele>
        <time>2022-05-28T11:31:29Z</time>
      </trkpt>
      <trkpt lat="46.52596" lon="5.36292">
        <ele>203.8</ele>
        <time>2022-05-28T11:31:31Z</time>
      </trkpt>
      <trkpt lat="46.52605" lon="5.36284">
        <ele>203.6</ele>
        <time>2022-05-28T11:31:33Z</time>
      </trkpt>
      <trkpt lat="46.5262" lon="5.36272">
        <ele>203.4</ele>
        <time>2022-05-28T11:31:36Z</time>
      </trkpt>
      <trkpt lat="46.52645" lon="5.36257">
        <ele>203.8</ele>
        <time>2022-05-28T11:31:41Z</time>
      </trkpt>
      <trkpt lat="46.5269" lon="5.36226">
        <ele>204.6</ele>
        <time>2022-05-28T11:31:50Z</time>
      </trkpt>
      <trkpt lat="46.52698" lon="5.36217">
        <ele>204.6</ele>
        <time>2022-05-28T11:31:52Z</time>
      </trkpt>
      <trkpt lat="46.52709" lon="5.36199">
        <ele>204.2</ele>
        <time>2022-05-28T11:31:55Z</time>
      </trkpt>
      <trkpt lat="46.52724" lon="5.36157">
        <ele>204</ele>
        <time>2022-05-28T11:32:01Z</time>
      </trkpt>
      <trkpt lat="46.52742" lon="5.361">
        <ele>204</ele>
        <time>2022-05-28T11:32:09Z</time>
      </trkpt>
      <trkpt lat="46.52757" lon="5.36058">
        <ele>204</ele>
        <time>2022-05-28T11:32:16Z</time>
      </trkpt>
      <trkpt lat="46.52764" lon="5.36043">
        <ele>204</ele>
        <time>2022-05-28T11:32:21Z</time>
      </trkpt>
      <trkpt lat="46.52763" lon="5.36037">
        <ele>203.6</ele>
        <time>2022-05-28T11:32:26Z</time>
      </trkpt>
      <trkpt lat="46.52767" lon="5.36041">
        <ele>203</ele>
        <time>2022-05-28T11:33:14Z</time>
      </trkpt>
      <trkpt lat="46.52774" lon="5.36041">
        <ele>203</ele>
        <time>2022-05-28T11:33:16Z</time>
      </trkpt>
      <trkpt lat="46.52794" lon="5.36048">
        <ele>203.6</ele>
        <time>2022-05-28T11:33:21Z</time>
      </trkpt>
      <trkpt lat="46.52812" lon="5.36054">
        <ele>205.2</ele>
        <time>2022-05-28T11:33:25Z</time>
      </trkpt>
      <trkpt lat="46.52826" lon="5.36058">
        <ele>206.2</ele>
        <time>2022-05-28T11:33:29Z</time>
      </trkpt>
      <trkpt lat="46.52835" lon="5.36061">
        <ele>207.4</ele>
        <time>2022-05-28T11:33:34Z</time>
      </trkpt>
      <trkpt lat="46.5285" lon="5.36065">
        <ele>208.2</ele>
        <time>2022-05-28T11:33:40Z</time>
      </trkpt>
      <trkpt lat="46.52856" lon="5.36064">
        <ele>208.2</ele>
        <time>2022-05-28T11:33:43Z</time>
      </trkpt>
      <trkpt lat="46.52859" lon="5.36062">
        <ele>208.2</ele>
        <time>2022-05-28T11:33:45Z</time>
      </trkpt>
      <trkpt lat="46.52865" lon="5.36066">
        <ele>208.2</ele>
        <time>2022-05-28T11:33:51Z</time>
      </trkpt>
      <trkpt lat="46.52867" lon="5.36066">
        <ele>208.2</ele>
        <time>2022-05-28T11:33:52Z</time>
      </trkpt>
      <trkpt lat="46.52871" lon="5.36064">
        <ele>208.2</ele>
        <time>2022-05-28T11:33:55Z</time>
      </trkpt>
      <trkpt lat="46.52882" lon="5.36068">
        <ele>208.4</ele>
        <time>2022-05-28T11:34:00Z</time>
      </trkpt>
      <trkpt lat="46.52887" lon="5.36069">
        <ele>208.6</ele>
        <time>2022-05-28T11:34:02Z</time>
      </trkpt>
      <trkpt lat="46.52903" lon="5.3607">
        <ele>209</ele>
        <time>2022-05-28T11:34:07Z</time>
      </trkpt>
      <trkpt lat="46.52926" lon="5.36075">
        <ele>209.6</ele>
        <time>2022-05-28T11:34:13Z</time>
      </trkpt>
      <trkpt lat="46.5293" lon="5.36076">
        <ele>209.8</ele>
        <time>2022-05-28T11:34:14Z</time>
      </trkpt>
      <trkpt lat="46.52946" lon="5.36082">
        <ele>210</ele>
        <time>2022-05-28T11:34:18Z</time>
      </trkpt>
      <trkpt lat="46.52953" lon="5.36088">
        <ele>210.4</ele>
        <time>2022-05-28T11:34:20Z</time>
      </trkpt>
      <trkpt lat="46.52956" lon="5.36091">
        <ele>210.6</ele>
        <time>2022-05-28T11:34:21Z</time>
      </trkpt>
      <trkpt lat="46.52958" lon="5.36095">
        <ele>210.8</ele>
        <time>2022-05-28T11:34:22Z</time>
      </trkpt>
      <trkpt lat="46.52967" lon="5.36112">
        <ele>211.4</ele>
        <time>2022-05-28T11:34:26Z</time>
      </trkpt>
      <trkpt lat="46.52972" lon="5.36121">
        <ele>211.8</ele>
        <time>2022-05-28T11:34:28Z</time>
      </trkpt>
      <trkpt lat="46.52989" lon="5.36137">
        <ele>212.2</ele>
        <time>2022-05-28T11:34:33Z</time>
      </trkpt>
      <trkpt lat="46.5301" lon="5.36141">
        <ele>212.8</ele>
        <time>2022-05-28T11:34:39Z</time>
      </trkpt>
      <trkpt lat="46.53021" lon="5.36143">
        <ele>213.8</ele>
        <time>2022-05-28T11:34:42Z</time>
      </trkpt>
      <trkpt lat="46.53039" lon="5.36145">
        <ele>215</ele>
        <time>2022-05-28T11:34:47Z</time>
      </trkpt>
      <trkpt lat="46.53062" lon="5.36136">
        <ele>215.8</ele>
        <time>2022-05-28T11:34:53Z</time>
      </trkpt>
      <trkpt lat="46.53066" lon="5.36133">
        <ele>216</ele>
        <time>2022-05-28T11:34:54Z</time>
      </trkpt>
      <trkpt lat="46.53086" lon="5.36115">
        <ele>217</ele>
        <time>2022-05-28T11:35:00Z</time>
      </trkpt>
      <trkpt lat="46.53089" lon="5.36111">
        <ele>217.2</ele>
        <time>2022-05-28T11:35:01Z</time>
      </trkpt>
      <trkpt lat="46.53102" lon="5.36086">
        <ele>217.8</ele>
        <time>2022-05-28T11:35:07Z</time>
      </trkpt>
      <trkpt lat="46.53109" lon="5.36071">
        <ele>218.2</ele>
        <time>2022-05-28T11:35:10Z</time>
      </trkpt>
      <trkpt lat="46.5313" lon="5.36034">
        <ele>219</ele>
        <time>2022-05-28T11:35:18Z</time>
      </trkpt>
      <trkpt lat="46.53139" lon="5.3602">
        <ele>219.4</ele>
        <time>2022-05-28T11:35:21Z</time>
      </trkpt>
      <trkpt lat="46.53154" lon="5.35995">
        <ele>219.6</ele>
        <time>2022-05-28T11:35:26Z</time>
      </trkpt>
      <trkpt lat="46.53159" lon="5.35985">
        <ele>219.8</ele>
        <time>2022-05-28T11:35:28Z</time>
      </trkpt>
      <trkpt lat="46.53169" lon="5.35964">
        <ele>220.2</ele>
        <time>2022-05-28T11:35:32Z</time>
      </trkpt>
      <trkpt lat="46.53172" lon="5.35959">
        <ele>220.4</ele>
        <time>2022-05-28T11:35:33Z</time>
      </trkpt>
      <trkpt lat="46.53187" lon="5.35934">
        <ele>221</ele>
        <time>2022-05-28T11:35:38Z</time>
      </trkpt>
      <trkpt lat="46.53195" lon="5.35927">
        <ele>221.2</ele>
        <time>2022-05-28T11:35:40Z</time>
      </trkpt>
      <trkpt lat="46.53205" lon="5.35922">
        <ele>221.4</ele>
        <time>2022-05-28T11:35:42Z</time>
      </trkpt>
      <trkpt lat="46.53215" lon="5.35918">
        <ele>221.6</ele>
        <time>2022-05-28T11:35:44Z</time>
      </trkpt>
      <trkpt lat="46.5322" lon="5.35917">
        <ele>221.6</ele>
        <time>2022-05-28T11:35:45Z</time>
      </trkpt>
      <trkpt lat="46.53262" lon="5.35899">
        <ele>222.2</ele>
        <time>2022-05-28T11:35:53Z</time>
      </trkpt>
      <trkpt lat="46.533" lon="5.35881">
        <ele>221.8</ele>
        <time>2022-05-28T11:36:00Z</time>
      </trkpt>
      <trkpt lat="46.53347" lon="5.35864">
        <ele>222.4</ele>
        <time>2022-05-28T11:36:09Z</time>
      </trkpt>
      <trkpt lat="46.53351" lon="5.35863">
        <ele>222.4</ele>
        <time>2022-05-28T11:36:10Z</time>
      </trkpt>
      <trkpt lat="46.53374" lon="5.35862">
        <ele>223</ele>
        <time>2022-05-28T11:36:15Z</time>
      </trkpt>
      <trkpt lat="46.53392" lon="5.35864">
        <ele>223.6</ele>
        <time>2022-05-28T11:36:19Z</time>
      </trkpt>
      <trkpt lat="46.53417" lon="5.35865">
        <ele>224.2</ele>
        <time>2022-05-28T11:36:24Z</time>
      </trkpt>
      <trkpt lat="46.53447" lon="5.3587">
        <ele>224.8</ele>
        <time>2022-05-28T11:36:30Z</time>
      </trkpt>
      <trkpt lat="46.53461" lon="5.3587">
        <ele>225.8</ele>
        <time>2022-05-28T11:36:33Z</time>
      </trkpt>
      <trkpt lat="46.53465" lon="5.35868">
        <ele>225.8</ele>
        <time>2022-05-28T11:36:34Z</time>
      </trkpt>
      <trkpt lat="46.53482" lon="5.3586">
        <ele>227</ele>
        <time>2022-05-28T11:36:38Z</time>
      </trkpt>
      <trkpt lat="46.53491" lon="5.35856">
        <ele>227.2</ele>
        <time>2022-05-28T11:36:40Z</time>
      </trkpt>
      <trkpt lat="46.53504" lon="5.3585">
        <ele>227.6</ele>
        <time>2022-05-28T11:36:43Z</time>
      </trkpt>
      <trkpt lat="46.53523" lon="5.35849">
        <ele>227.6</ele>
        <time>2022-05-28T11:36:47Z</time>
      </trkpt>
      <trkpt lat="46.53559" lon="5.35856">
        <ele>228.2</ele>
        <time>2022-05-28T11:36:54Z</time>
      </trkpt>
      <trkpt lat="46.53603" lon="5.3587">
        <ele>228.2</ele>
        <time>2022-05-28T11:37:02Z</time>
      </trkpt>
      <trkpt lat="46.53629" lon="5.3588">
        <ele>228</ele>
        <time>2022-05-28T11:37:07Z</time>
      </trkpt>
      <trkpt lat="46.53635" lon="5.35884">
        <ele>227.8</ele>
        <time>2022-05-28T11:37:09Z</time>
      </trkpt>
      <trkpt lat="46.53637" lon="5.35886">
        <ele>227</ele>
        <time>2022-05-28T11:37:13Z</time>
      </trkpt>
      <trkpt lat="46.53637" lon="5.35886">
        <ele>227</ele>
        <time>2022-05-28T11:37:14Z</time>
      </trkpt>
      <trkpt lat="46.53642" lon="5.35886">
        <ele>226.6</ele>
        <time>2022-05-28T11:37:19Z</time>
      </trkpt>
      <trkpt lat="46.53645" lon="5.35884">
        <ele>226.6</ele>
        <time>2022-05-28T11:37:20Z</time>
      </trkpt>
      <trkpt lat="46.53662" lon="5.3586">
        <ele>226.2</ele>
        <time>2022-05-28T11:37:25Z</time>
      </trkpt>
      <trkpt lat="46.53671" lon="5.35847">
        <ele>225.8</ele>
        <time>2022-05-28T11:37:27Z</time>
      </trkpt>
      <trkpt lat="46.53681" lon="5.35833">
        <ele>225.4</ele>
        <time>2022-05-28T11:37:29Z</time>
      </trkpt>
      <trkpt lat="46.53699" lon="5.35809">
        <ele>224.8</ele>
        <time>2022-05-28T11:37:32Z</time>
      </trkpt>
      <trkpt lat="46.5371" lon="5.35794">
        <ele>223.2</ele>
        <time>2022-05-28T11:37:34Z</time>
      </trkpt>
      <trkpt lat="46.53715" lon="5.35786">
        <ele>222.8</ele>
        <time>2022-05-28T11:37:35Z</time>
      </trkpt>
      <trkpt lat="46.53725" lon="5.35768">
        <ele>222.2</ele>
        <time>2022-05-28T11:37:37Z</time>
      </trkpt>
      <trkpt lat="46.53737" lon="5.35741">
        <ele>221.4</ele>
        <time>2022-05-28T11:37:40Z</time>
      </trkpt>
      <trkpt lat="46.53741" lon="5.35732">
        <ele>220.8</ele>
        <time>2022-05-28T11:37:41Z</time>
      </trkpt>
      <trkpt lat="46.53752" lon="5.35692">
        <ele>219.8</ele>
        <time>2022-05-28T11:37:45Z</time>
      </trkpt>
      <trkpt lat="46.53753" lon="5.35682">
        <ele>219.8</ele>
        <time>2022-05-28T11:37:46Z</time>
      </trkpt>
      <trkpt lat="46.53755" lon="5.3562">
        <ele>219.2</ele>
        <time>2022-05-28T11:37:52Z</time>
      </trkpt>
      <trkpt lat="46.5375" lon="5.3559">
        <ele>219.2</ele>
        <time>2022-05-28T11:37:55Z</time>
      </trkpt>
      <trkpt lat="46.53745" lon="5.35573">
        <ele>219</ele>
        <time>2022-05-28T11:37:57Z</time>
      </trkpt>
      <trkpt lat="46.53735" lon="5.35538">
        <ele>218.8</ele>
        <time>2022-05-28T11:38:01Z</time>
      </trkpt>
      <trkpt lat="46.5373" lon="5.35514">
        <ele>218.8</ele>
        <time>2022-05-28T11:38:04Z</time>
      </trkpt>
      <trkpt lat="46.53726" lon="5.3548">
        <ele>218.8</ele>
        <time>2022-05-28T11:38:08Z</time>
      </trkpt>
      <trkpt lat="46.53726" lon="5.35464">
        <ele>218.8</ele>
        <time>2022-05-28T11:38:10Z</time>
      </trkpt>
      <trkpt lat="46.53729" lon="5.3542">
        <ele>219.6</ele>
        <time>2022-05-28T11:38:16Z</time>
      </trkpt>
      <trkpt lat="46.53732" lon="5.354">
        <ele>219.8</ele>
        <time>2022-05-28T11:38:19Z</time>
      </trkpt>
      <trkpt lat="46.53736" lon="5.3538">
        <ele>220.2</ele>
        <time>2022-05-28T11:38:22Z</time>
      </trkpt>
      <trkpt lat="46.53746" lon="5.35337">
        <ele>221.2</ele>
        <time>2022-05-28T11:38:29Z</time>
      </trkpt>
      <trkpt lat="46.53764" lon="5.35299">
        <ele>222.2</ele>
        <time>2022-05-28T11:38:36Z</time>
      </trkpt>
      <trkpt lat="46.53782" lon="5.35273">
        <ele>223.4</ele>
        <time>2022-05-28T11:38:41Z</time>
      </trkpt>
      <trkpt lat="46.53789" lon="5.35264">
        <ele>223.8</ele>
        <time>2022-05-28T11:38:43Z</time>
      </trkpt>
      <trkpt lat="46.53827" lon="5.35223">
        <ele>224.2</ele>
        <time>2022-05-28T11:38:51Z</time>
      </trkpt>
      <trkpt lat="46.53877" lon="5.35188">
        <ele>224</ele>
        <time>2022-05-28T11:39:00Z</time>
      </trkpt>
      <trkpt lat="46.53882" lon="5.35185">
        <ele>224</ele>
        <time>2022-05-28T11:39:01Z</time>
      </trkpt>
      <trkpt lat="46.53932" lon="5.35149">
        <ele>223.2</ele>
        <time>2022-05-28T11:39:10Z</time>
      </trkpt>
      <trkpt lat="46.53938" lon="5.35144">
        <ele>223</ele>
        <time>2022-05-28T11:39:11Z</time>
      </trkpt>
      <trkpt lat="46.53962" lon="5.35117">
        <ele>222.6</ele>
        <time>2022-05-28T11:39:16Z</time>
      </trkpt>
      <trkpt lat="46.53967" lon="5.35112">
        <ele>222.6</ele>
        <time>2022-05-28T11:39:17Z</time>
      </trkpt>
      <trkpt lat="46.54013" lon="5.35059">
        <ele>221.6</ele>
        <time>2022-05-28T11:39:26Z</time>
      </trkpt>
      <trkpt lat="46.54019" lon="5.35053">
        <ele>221.4</ele>
        <time>2022-05-28T11:39:27Z</time>
      </trkpt>
      <trkpt lat="46.54058" lon="5.35025">
        <ele>220.4</ele>
        <time>2022-05-28T11:39:33Z</time>
      </trkpt>
      <trkpt lat="46.54065" lon="5.35021">
        <ele>219.8</ele>
        <time>2022-05-28T11:39:34Z</time>
      </trkpt>
      <trkpt lat="46.54087" lon="5.35011">
        <ele>219.2</ele>
        <time>2022-05-28T11:39:37Z</time>
      </trkpt>
      <trkpt lat="46.54109" lon="5.35003">
        <ele>218.8</ele>
        <time>2022-05-28T11:39:40Z</time>
      </trkpt>
      <trkpt lat="46.54137" lon="5.34987">
        <ele>218.4</ele>
        <time>2022-05-28T11:39:44Z</time>
      </trkpt>
      <trkpt lat="46.5415" lon="5.34976">
        <ele>218.4</ele>
        <time>2022-05-28T11:39:46Z</time>
      </trkpt>
      <trkpt lat="46.54161" lon="5.34962">
        <ele>218</ele>
        <time>2022-05-28T11:39:48Z</time>
      </trkpt>
      <trkpt lat="46.54191" lon="5.34927">
        <ele>217</ele>
        <time>2022-05-28T11:39:53Z</time>
      </trkpt>
      <trkpt lat="46.54227" lon="5.34894">
        <ele>216.2</ele>
        <time>2022-05-28T11:39:59Z</time>
      </trkpt>
      <trkpt lat="46.54232" lon="5.34887">
        <ele>216</ele>
        <time>2022-05-28T11:40:00Z</time>
      </trkpt>
      <trkpt lat="46.54236" lon="5.3488">
        <ele>215.8</ele>
        <time>2022-05-28T11:40:01Z</time>
      </trkpt>
      <trkpt lat="46.54252" lon="5.3485">
        <ele>215.4</ele>
        <time>2022-05-28T11:40:05Z</time>
      </trkpt>
      <trkpt lat="46.54274" lon="5.34819">
        <ele>214.8</ele>
        <time>2022-05-28T11:40:10Z</time>
      </trkpt>
      <trkpt lat="46.54279" lon="5.34813">
        <ele>214.8</ele>
        <time>2022-05-28T11:40:11Z</time>
      </trkpt>
      <trkpt lat="46.54308" lon="5.34782">
        <ele>213.8</ele>
        <time>2022-05-28T11:40:17Z</time>
      </trkpt>
      <trkpt lat="46.54322" lon="5.34768">
        <ele>213.8</ele>
        <time>2022-05-28T11:40:20Z</time>
      </trkpt>
      <trkpt lat="46.54355" lon="5.34746">
        <ele>213.8</ele>
        <time>2022-05-28T11:40:27Z</time>
      </trkpt>
      <trkpt lat="46.5436" lon="5.34744">
        <ele>213.8</ele>
        <time>2022-05-28T11:40:28Z</time>
      </trkpt>
      <trkpt lat="46.54379" lon="5.34739">
        <ele>214.2</ele>
        <time>2022-05-28T11:40:32Z</time>
      </trkpt>
      <trkpt lat="46.54397" lon="5.34732">
        <ele>214.8</ele>
        <time>2022-05-28T11:40:36Z</time>
      </trkpt>
      <trkpt lat="46.54405" lon="5.34729">
        <ele>214.8</ele>
        <time>2022-05-28T11:40:38Z</time>
      </trkpt>
      <trkpt lat="46.54409" lon="5.34727">
        <ele>215</ele>
        <time>2022-05-28T11:40:39Z</time>
      </trkpt>
      <trkpt lat="46.54451" lon="5.34702">
        <ele>215.2</ele>
        <time>2022-05-28T11:40:48Z</time>
      </trkpt>
      <trkpt lat="46.54482" lon="5.34679">
        <ele>214.6</ele>
        <time>2022-05-28T11:40:55Z</time>
      </trkpt>
      <trkpt lat="46.54493" lon="5.34666">
        <ele>214.4</ele>
        <time>2022-05-28T11:40:58Z</time>
      </trkpt>
      <trkpt lat="46.5452" lon="5.34624">
        <ele>214</ele>
        <time>2022-05-28T11:41:06Z</time>
      </trkpt>
      <trkpt lat="46.54524" lon="5.34619">
        <ele>213.8</ele>
        <time>2022-05-28T11:41:07Z</time>
      </trkpt>
      <trkpt lat="46.54532" lon="5.34609">
        <ele>213.8</ele>
        <time>2022-05-28T11:41:09Z</time>
      </trkpt>
      <trkpt lat="46.54543" lon="5.34598">
        <ele>213.8</ele>
        <time>2022-05-28T11:41:12Z</time>
      </trkpt>
      <trkpt lat="46.54547" lon="5.34595">
        <ele>213.8</ele>
        <time>2022-05-28T11:41:13Z</time>
      </trkpt>
      <trkpt lat="46.5456" lon="5.34584">
        <ele>214.2</ele>
        <time>2022-05-28T11:41:17Z</time>
      </trkpt>
      <trkpt lat="46.54572" lon="5.34571">
        <ele>215</ele>
        <time>2022-05-28T11:41:21Z</time>
      </trkpt>
      <trkpt lat="46.54578" lon="5.34566">
        <ele>215</ele>
        <time>2022-05-28T11:41:23Z</time>
      </trkpt>
      <trkpt lat="46.5459" lon="5.34556">
        <ele>216</ele>
        <time>2022-05-28T11:41:27Z</time>
      </trkpt>
      <trkpt lat="46.54601" lon="5.34545">
        <ele>217</ele>
        <time>2022-05-28T11:41:31Z</time>
      </trkpt>
      <trkpt lat="46.54605" lon="5.34542">
        <ele>217.2</ele>
        <time>2022-05-28T11:41:32Z</time>
      </trkpt>
      <trkpt lat="46.54615" lon="5.34533">
        <ele>218.4</ele>
        <time>2022-05-28T11:41:35Z</time>
      </trkpt>
      <trkpt lat="46.54632" lon="5.34521">
        <ele>219.4</ele>
        <time>2022-05-28T11:41:39Z</time>
      </trkpt>
      <trkpt lat="46.54636" lon="5.34518">
        <ele>219.6</ele>
        <time>2022-05-28T11:41:40Z</time>
      </trkpt>
      <trkpt lat="46.54662" lon="5.34497">
        <ele>220.2</ele>
        <time>2022-05-28T11:41:46Z</time>
      </trkpt>
      <trkpt lat="46.54699" lon="5.34475">
        <ele>220.6</ele>
        <time>2022-05-28T11:41:54Z</time>
      </trkpt>
      <trkpt lat="46.54709" lon="5.34471">
        <ele>220.6</ele>
        <time>2022-05-28T11:41:56Z</time>
      </trkpt>
      <trkpt lat="46.54743" lon="5.34461">
        <ele>221</ele>
        <time>2022-05-28T11:42:02Z</time>
      </trkpt>
      <trkpt lat="46.54787" lon="5.34448">
        <ele>220.6</ele>
        <time>2022-05-28T11:42:09Z</time>
      </trkpt>
      <trkpt lat="46.54828" lon="5.34431">
        <ele>220.2</ele>
        <time>2022-05-28T11:42:16Z</time>
      </trkpt>
      <trkpt lat="46.54865" lon="5.34411">
        <ele>220.6</ele>
        <time>2022-05-28T11:42:23Z</time>
      </trkpt>
      <trkpt lat="46.549" lon="5.34384">
        <ele>221</ele>
        <time>2022-05-28T11:42:30Z</time>
      </trkpt>
      <trkpt lat="46.54908" lon="5.34378">
        <ele>221.4</ele>
        <time>2022-05-28T11:42:32Z</time>
      </trkpt>
      <trkpt lat="46.54926" lon="5.34362">
        <ele>221.6</ele>
        <time>2022-05-28T11:42:36Z</time>
      </trkpt>
      <trkpt lat="46.54931" lon="5.34358">
        <ele>221.6</ele>
        <time>2022-05-28T11:42:37Z</time>
      </trkpt>
      <trkpt lat="46.54959" lon="5.34329">
        <ele>221.4</ele>
        <time>2022-05-28T11:42:43Z</time>
      </trkpt>
      <trkpt lat="46.54991" lon="5.34286">
        <ele>220.8</ele>
        <time>2022-05-28T11:42:50Z</time>
      </trkpt>
      <trkpt lat="46.55034" lon="5.3423">
        <ele>220</ele>
        <time>2022-05-28T11:42:59Z</time>
      </trkpt>
      <trkpt lat="46.55077" lon="5.34184">
        <ele>219.6</ele>
        <time>2022-05-28T11:43:07Z</time>
      </trkpt>
      <trkpt lat="46.55088" lon="5.34173">
        <ele>219.6</ele>
        <time>2022-05-28T11:43:09Z</time>
      </trkpt>
      <trkpt lat="46.55118" lon="5.34139">
        <ele>219.4</ele>
        <time>2022-05-28T11:43:15Z</time>
      </trkpt>
      <trkpt lat="46.55151" lon="5.34097">
        <ele>219.2</ele>
        <time>2022-05-28T11:43:22Z</time>
      </trkpt>
      <trkpt lat="46.55185" lon="5.34054">
        <ele>219</ele>
        <time>2022-05-28T11:43:30Z</time>
      </trkpt>
      <trkpt lat="46.55191" lon="5.34055">
        <ele>219</ele>
        <time>2022-05-28T11:43:32Z</time>
      </trkpt>
      <trkpt lat="46.55194" lon="5.34059">
        <ele>219</ele>
        <time>2022-05-28T11:43:33Z</time>
      </trkpt>
      <trkpt lat="46.55207" lon="5.34092">
        <ele>219</ele>
        <time>2022-05-28T11:43:39Z</time>
      </trkpt>
      <trkpt lat="46.55221" lon="5.34135">
        <ele>219.8</ele>
        <time>2022-05-28T11:43:45Z</time>
      </trkpt>
      <trkpt lat="46.55223" lon="5.34143">
        <ele>219.8</ele>
        <time>2022-05-28T11:43:46Z</time>
      </trkpt>
      <trkpt lat="46.55225" lon="5.34158">
        <ele>220</ele>
        <time>2022-05-28T11:43:48Z</time>
      </trkpt>
      <trkpt lat="46.55227" lon="5.34175">
        <ele>220</ele>
        <time>2022-05-28T11:43:50Z</time>
      </trkpt>
      <trkpt lat="46.55235" lon="5.34223">
        <ele>219.8</ele>
        <time>2022-05-28T11:43:55Z</time>
      </trkpt>
      <trkpt lat="46.5524" lon="5.3424">
        <ele>219.8</ele>
        <time>2022-05-28T11:43:57Z</time>
      </trkpt>
      <trkpt lat="46.55248" lon="5.34255">
        <ele>219.6</ele>
        <time>2022-05-28T11:43:59Z</time>
      </trkpt>
      <trkpt lat="46.55253" lon="5.34262">
        <ele>219.4</ele>
        <time>2022-05-28T11:44:00Z</time>
      </trkpt>
      <trkpt lat="46.5527" lon="5.34281">
        <ele>219.2</ele>
        <time>2022-05-28T11:44:03Z</time>
      </trkpt>
      <trkpt lat="46.55291" lon="5.34298">
        <ele>218.6</ele>
        <time>2022-05-28T11:44:06Z</time>
      </trkpt>
      <trkpt lat="46.55297" lon="5.34305">
        <ele>218.6</ele>
        <time>2022-05-28T11:44:07Z</time>
      </trkpt>
      <trkpt lat="46.55311" lon="5.3432">
        <ele>218.2</ele>
        <time>2022-05-28T11:44:09Z</time>
      </trkpt>
      <trkpt lat="46.55329" lon="5.34342">
        <ele>217.8</ele>
        <time>2022-05-28T11:44:12Z</time>
      </trkpt>
      <trkpt lat="46.55339" lon="5.34356">
        <ele>217.6</ele>
        <time>2022-05-28T11:44:14Z</time>
      </trkpt>
      <trkpt lat="46.55351" lon="5.34369">
        <ele>216.8</ele>
        <time>2022-05-28T11:44:16Z</time>
      </trkpt>
      <trkpt lat="46.55357" lon="5.34375">
        <ele>216.6</ele>
        <time>2022-05-28T11:44:17Z</time>
      </trkpt>
      <trkpt lat="46.55382" lon="5.34399">
        <ele>215.8</ele>
        <time>2022-05-28T11:44:21Z</time>
      </trkpt>
      <trkpt lat="46.55408" lon="5.34425">
        <ele>215.4</ele>
        <time>2022-05-28T11:44:25Z</time>
      </trkpt>
      <trkpt lat="46.55448" lon="5.34464">
        <ele>214.6</ele>
        <time>2022-05-28T11:44:32Z</time>
      </trkpt>
      <trkpt lat="46.55464" lon="5.3448">
        <ele>214.4</ele>
        <time>2022-05-28T11:44:35Z</time>
      </trkpt>
      <trkpt lat="46.5551" lon="5.34524">
        <ele>214.2</ele>
        <time>2022-05-28T11:44:44Z</time>
      </trkpt>
      <trkpt lat="46.55552" lon="5.34547">
        <ele>214.4</ele>
        <time>2022-05-28T11:44:51Z</time>
      </trkpt>
      <trkpt lat="46.55602" lon="5.34565">
        <ele>214.2</ele>
        <time>2022-05-28T11:44:59Z</time>
      </trkpt>
      <trkpt lat="46.55609" lon="5.34568">
        <ele>214</ele>
        <time>2022-05-28T11:45:00Z</time>
      </trkpt>
      <trkpt lat="46.55623" lon="5.34573">
        <ele>213.6</ele>
        <time>2022-05-28T11:45:02Z</time>
      </trkpt>
      <trkpt lat="46.55639" lon="5.34577">
        <ele>213.2</ele>
        <time>2022-05-28T11:45:04Z</time>
      </trkpt>
      <trkpt lat="46.55647" lon="5.34577">
        <ele>213</ele>
        <time>2022-05-28T11:45:05Z</time>
      </trkpt>
      <trkpt lat="46.55673" lon="5.34576">
        <ele>212.4</ele>
        <time>2022-05-28T11:45:08Z</time>
      </trkpt>
      <trkpt lat="46.55691" lon="5.34576">
        <ele>211.4</ele>
        <time>2022-05-28T11:45:10Z</time>
      </trkpt>
      <trkpt lat="46.557" lon="5.34576">
        <ele>210.8</ele>
        <time>2022-05-28T11:45:11Z</time>
      </trkpt>
      <trkpt lat="46.55728" lon="5.34581">
        <ele>209</ele>
        <time>2022-05-28T11:45:14Z</time>
      </trkpt>
      <trkpt lat="46.55744" lon="5.34584">
        <ele>208</ele>
        <time>2022-05-28T11:45:16Z</time>
      </trkpt>
      <trkpt lat="46.55774" lon="5.34591">
        <ele>206.4</ele>
        <time>2022-05-28T11:45:19Z</time>
      </trkpt>
      <trkpt lat="46.558" lon="5.34598">
        <ele>205.2</ele>
        <time>2022-05-28T11:45:22Z</time>
      </trkpt>
      <trkpt lat="46.55814" lon="5.34601">
        <ele>204.8</ele>
        <time>2022-05-28T11:45:24Z</time>
      </trkpt>
      <trkpt lat="46.55831" lon="5.34604">
        <ele>204.2</ele>
        <time>2022-05-28T11:45:26Z</time>
      </trkpt>
      <trkpt lat="46.55858" lon="5.34611">
        <ele>203.6</ele>
        <time>2022-05-28T11:45:30Z</time>
      </trkpt>
      <trkpt lat="46.55876" lon="5.34616">
        <ele>203</ele>
        <time>2022-05-28T11:45:33Z</time>
      </trkpt>
      <trkpt lat="46.55909" lon="5.34625">
        <ele>202.4</ele>
        <time>2022-05-28T11:45:38Z</time>
      </trkpt>
      <trkpt lat="46.55924" lon="5.34629">
        <ele>201.8</ele>
        <time>2022-05-28T11:45:40Z</time>
      </trkpt>
      <trkpt lat="46.55955" lon="5.34637">
        <ele>201.2</ele>
        <time>2022-05-28T11:45:45Z</time>
      </trkpt>
      <trkpt lat="46.55982" lon="5.34643">
        <ele>201.6</ele>
        <time>2022-05-28T11:45:50Z</time>
      </trkpt>
      <trkpt lat="46.55989" lon="5.34644">
        <ele>201.8</ele>
        <time>2022-05-28T11:45:51Z</time>
      </trkpt>
      <trkpt lat="46.56046" lon="5.34659">
        <ele>201.8</ele>
        <time>2022-05-28T11:46:01Z</time>
      </trkpt>
      <trkpt lat="46.56101" lon="5.34673">
        <ele>202.2</ele>
        <time>2022-05-28T11:46:11Z</time>
      </trkpt>
      <trkpt lat="46.56115" lon="5.34675">
        <ele>202.4</ele>
        <time>2022-05-28T11:46:14Z</time>
      </trkpt>
      <trkpt lat="46.56128" lon="5.34678">
        <ele>202.4</ele>
        <time>2022-05-28T11:46:17Z</time>
      </trkpt>
      <trkpt lat="46.56157" lon="5.34681">
        <ele>203</ele>
        <time>2022-05-28T11:46:24Z</time>
      </trkpt>
      <trkpt lat="46.56161" lon="5.34681">
        <ele>203</ele>
        <time>2022-05-28T11:46:25Z</time>
      </trkpt>
      <trkpt lat="46.56194" lon="5.34674">
        <ele>204</ele>
        <time>2022-05-28T11:46:33Z</time>
      </trkpt>
      <trkpt lat="46.56201" lon="5.34672">
        <ele>204.6</ele>
        <time>2022-05-28T11:46:35Z</time>
      </trkpt>
      <trkpt lat="46.56219" lon="5.34666">
        <ele>205.2</ele>
        <time>2022-05-28T11:46:40Z</time>
      </trkpt>
      <trkpt lat="46.5623" lon="5.34663">
        <ele>205.8</ele>
        <time>2022-05-28T11:46:43Z</time>
      </trkpt>
      <trkpt lat="46.56238" lon="5.34661">
        <ele>206.2</ele>
        <time>2022-05-28T11:46:45Z</time>
      </trkpt>
      <trkpt lat="46.56246" lon="5.3466">
        <ele>206.2</ele>
        <time>2022-05-28T11:46:47Z</time>
      </trkpt>
      <trkpt lat="46.56268" lon="5.34652">
        <ele>207</ele>
        <time>2022-05-28T11:46:53Z</time>
      </trkpt>
      <trkpt lat="46.56282" lon="5.34649">
        <ele>207.4</ele>
        <time>2022-05-28T11:46:57Z</time>
      </trkpt>
      <trkpt lat="46.56297" lon="5.34647">
        <ele>208.2</ele>
        <time>2022-05-28T11:47:01Z</time>
      </trkpt>
      <trkpt lat="46.563" lon="5.34647">
        <ele>208.4</ele>
        <time>2022-05-28T11:47:02Z</time>
      </trkpt>
      <trkpt lat="46.56315" lon="5.34648">
        <ele>209.8</ele>
        <time>2022-05-28T11:47:06Z</time>
      </trkpt>
      <trkpt lat="46.56327" lon="5.34652">
        <ele>210.2</ele>
        <time>2022-05-28T11:47:09Z</time>
      </trkpt>
      <trkpt lat="46.56353" lon="5.34663">
        <ele>210.8</ele>
        <time>2022-05-28T11:47:15Z</time>
      </trkpt>
      <trkpt lat="46.56366" lon="5.34669">
        <ele>210.8</ele>
        <time>2022-05-28T11:47:18Z</time>
      </trkpt>
      <trkpt lat="46.56401" lon="5.34678">
        <ele>211</ele>
        <time>2022-05-28T11:47:24Z</time>
      </trkpt>
      <trkpt lat="46.56432" lon="5.34691">
        <ele>210.6</ele>
        <time>2022-05-28T11:47:29Z</time>
      </trkpt>
      <trkpt lat="46.56457" lon="5.34706">
        <ele>209.8</ele>
        <time>2022-05-28T11:47:33Z</time>
      </trkpt>
      <trkpt lat="46.56484" lon="5.3472">
        <ele>209</ele>
        <time>2022-05-28T11:47:37Z</time>
      </trkpt>
      <trkpt lat="46.5649" lon="5.34724">
        <ele>208.6</ele>
        <time>2022-05-28T11:47:38Z</time>
      </trkpt>
      <trkpt lat="46.56524" lon="5.34744">
        <ele>207.4</ele>
        <time>2022-05-28T11:47:43Z</time>
      </trkpt>
      <trkpt lat="46.5653" lon="5.34747">
        <ele>207.2</ele>
        <time>2022-05-28T11:47:44Z</time>
      </trkpt>
      <trkpt lat="46.56553" lon="5.3476">
        <ele>206.4</ele>
        <time>2022-05-28T11:47:47Z</time>
      </trkpt>
      <trkpt lat="46.56561" lon="5.34764">
        <ele>206.2</ele>
        <time>2022-05-28T11:47:48Z</time>
      </trkpt>
      <trkpt lat="46.56577" lon="5.34772">
        <ele>205.4</ele>
        <time>2022-05-28T11:47:50Z</time>
      </trkpt>
      <trkpt lat="46.56586" lon="5.34774">
        <ele>205.2</ele>
        <time>2022-05-28T11:47:51Z</time>
      </trkpt>
      <trkpt lat="46.56595" lon="5.34772">
        <ele>204.8</ele>
        <time>2022-05-28T11:47:52Z</time>
      </trkpt>
      <trkpt lat="46.56603" lon="5.34767">
        <ele>204.6</ele>
        <time>2022-05-28T11:47:53Z</time>
      </trkpt>
      <trkpt lat="46.5661" lon="5.3476">
        <ele>203.8</ele>
        <time>2022-05-28T11:47:54Z</time>
      </trkpt>
      <trkpt lat="46.56622" lon="5.34738">
        <ele>202.8</ele>
        <time>2022-05-28T11:47:56Z</time>
      </trkpt>
      <trkpt lat="46.56627" lon="5.34727">
        <ele>202.2</ele>
        <time>2022-05-28T11:47:57Z</time>
      </trkpt>
      <trkpt lat="46.56637" lon="5.34705">
        <ele>201</ele>
        <time>2022-05-28T11:47:59Z</time>
      </trkpt>
      <trkpt lat="46.56644" lon="5.34696">
        <ele>200.6</ele>
        <time>2022-05-28T11:48:00Z</time>
      </trkpt>
      <trkpt lat="46.56652" lon="5.3469">
        <ele>199.8</ele>
        <time>2022-05-28T11:48:01Z</time>
      </trkpt>
      <trkpt lat="46.56668" lon="5.34684">
        <ele>199</ele>
        <time>2022-05-28T11:48:03Z</time>
      </trkpt>
      <trkpt lat="46.56684" lon="5.3468">
        <ele>198.6</ele>
        <time>2022-05-28T11:48:05Z</time>
      </trkpt>
      <trkpt lat="46.56713" lon="5.34671">
        <ele>198.4</ele>
        <time>2022-05-28T11:48:09Z</time>
      </trkpt>
      <trkpt lat="46.56739" lon="5.34659">
        <ele>198</ele>
        <time>2022-05-28T11:48:13Z</time>
      </trkpt>
      <trkpt lat="46.56746" lon="5.34658">
        <ele>197.8</ele>
        <time>2022-05-28T11:48:14Z</time>
      </trkpt>
      <trkpt lat="46.56753" lon="5.34658">
        <ele>197.8</ele>
        <time>2022-05-28T11:48:15Z</time>
      </trkpt>
      <trkpt lat="46.56764" lon="5.34665">
        <ele>197.6</ele>
        <time>2022-05-28T11:48:17Z</time>
      </trkpt>
      <trkpt lat="46.56772" lon="5.34678">
        <ele>197.2</ele>
        <time>2022-05-28T11:48:19Z</time>
      </trkpt>
      <trkpt lat="46.56775" lon="5.34686">
        <ele>197</ele>
        <time>2022-05-28T11:48:20Z</time>
      </trkpt>
      <trkpt lat="46.56779" lon="5.34703">
        <ele>196.8</ele>
        <time>2022-05-28T11:48:22Z</time>
      </trkpt>
      <trkpt lat="46.56785" lon="5.34728">
        <ele>196.6</ele>
        <time>2022-05-28T11:48:25Z</time>
      </trkpt>
      <trkpt lat="46.56801" lon="5.34803">
        <ele>196.8</ele>
        <time>2022-05-28T11:48:34Z</time>
      </trkpt>
      <trkpt lat="46.56802" lon="5.34811">
        <ele>196.8</ele>
        <time>2022-05-28T11:48:35Z</time>
      </trkpt>
      <trkpt lat="46.56814" lon="5.3488">
        <ele>197</ele>
        <time>2022-05-28T11:48:43Z</time>
      </trkpt>
      <trkpt lat="46.56827" lon="5.34948">
        <ele>197.4</ele>
        <time>2022-05-28T11:48:52Z</time>
      </trkpt>
      <trkpt lat="46.56833" lon="5.34974">
        <ele>197.8</ele>
        <time>2022-05-28T11:48:56Z</time>
      </trkpt>
      <trkpt lat="46.56837" lon="5.34986">
        <ele>198.2</ele>
        <time>2022-05-28T11:48:58Z</time>
      </trkpt>
      <trkpt lat="46.56843" lon="5.35003">
        <ele>198.8</ele>
        <time>2022-05-28T11:49:01Z</time>
      </trkpt>
      <trkpt lat="46.56846" lon="5.35008">
        <ele>199.2</ele>
        <time>2022-05-28T11:49:02Z</time>
      </trkpt>
      <trkpt lat="46.56851" lon="5.35019">
        <ele>199.6</ele>
        <time>2022-05-28T11:49:04Z</time>
      </trkpt>
      <trkpt lat="46.56856" lon="5.35029">
        <ele>200.2</ele>
        <time>2022-05-28T11:49:06Z</time>
      </trkpt>
      <trkpt lat="46.56865" lon="5.35048">
        <ele>201.4</ele>
        <time>2022-05-28T11:49:10Z</time>
      </trkpt>
      <trkpt lat="46.5687" lon="5.35059">
        <ele>202.2</ele>
        <time>2022-05-28T11:49:12Z</time>
      </trkpt>
      <trkpt lat="46.56872" lon="5.35064">
        <ele>202.6</ele>
        <time>2022-05-28T11:49:13Z</time>
      </trkpt>
      <trkpt lat="46.56882" lon="5.3509">
        <ele>203.6</ele>
        <time>2022-05-28T11:49:18Z</time>
      </trkpt>
      <trkpt lat="46.56888" lon="5.351">
        <ele>204</ele>
        <time>2022-05-28T11:49:20Z</time>
      </trkpt>
      <trkpt lat="46.56893" lon="5.35111">
        <ele>204.6</ele>
        <time>2022-05-28T11:49:22Z</time>
      </trkpt>
      <trkpt lat="46.569" lon="5.35125">
        <ele>205.6</ele>
        <time>2022-05-28T11:49:25Z</time>
      </trkpt>
      <trkpt lat="46.56902" lon="5.35129">
        <ele>205.8</ele>
        <time>2022-05-28T11:49:26Z</time>
      </trkpt>
      <trkpt lat="46.56904" lon="5.35134">
        <ele>206</ele>
        <time>2022-05-28T11:49:27Z</time>
      </trkpt>
      <trkpt lat="46.56916" lon="5.35154">
        <ele>207.2</ele>
        <time>2022-05-28T11:49:31Z</time>
      </trkpt>
      <trkpt lat="46.56922" lon="5.35163">
        <ele>207.8</ele>
        <time>2022-05-28T11:49:33Z</time>
      </trkpt>
      <trkpt lat="46.56926" lon="5.35167">
        <ele>208.2</ele>
        <time>2022-05-28T11:49:34Z</time>
      </trkpt>
      <trkpt lat="46.56946" lon="5.35183">
        <ele>208.6</ele>
        <time>2022-05-28T11:49:38Z</time>
      </trkpt>
      <trkpt lat="46.56963" lon="5.35199">
        <ele>208.4</ele>
        <time>2022-05-28T11:49:41Z</time>
      </trkpt>
      <trkpt lat="46.56968" lon="5.35207">
        <ele>208.4</ele>
        <time>2022-05-28T11:49:42Z</time>
      </trkpt>
      <trkpt lat="46.56971" lon="5.35216">
        <ele>208.2</ele>
        <time>2022-05-28T11:49:43Z</time>
      </trkpt>
      <trkpt lat="46.56977" lon="5.35238">
        <ele>207.8</ele>
        <time>2022-05-28T11:49:45Z</time>
      </trkpt>
      <trkpt lat="46.56979" lon="5.35249">
        <ele>207.4</ele>
        <time>2022-05-28T11:49:46Z</time>
      </trkpt>
      <trkpt lat="46.56982" lon="5.35261">
        <ele>207</ele>
        <time>2022-05-28T11:49:47Z</time>
      </trkpt>
      <trkpt lat="46.56987" lon="5.35284">
        <ele>206</ele>
        <time>2022-05-28T11:49:49Z</time>
      </trkpt>
      <trkpt lat="46.56997" lon="5.35317">
        <ele>205</ele>
        <time>2022-05-28T11:49:52Z</time>
      </trkpt>
      <trkpt lat="46.57013" lon="5.35368">
        <ele>203.8</ele>
        <time>2022-05-28T11:49:57Z</time>
      </trkpt>
      <trkpt lat="46.5702" lon="5.35389">
        <ele>203.6</ele>
        <time>2022-05-28T11:49:59Z</time>
      </trkpt>
      <trkpt lat="46.57034" lon="5.35437">
        <ele>202.8</ele>
        <time>2022-05-28T11:50:04Z</time>
      </trkpt>
      <trkpt lat="46.57035" lon="5.35447">
        <ele>202.6</ele>
        <time>2022-05-28T11:50:05Z</time>
      </trkpt>
      <trkpt lat="46.57041" lon="5.35514">
        <ele>202.2</ele>
        <time>2022-05-28T11:50:12Z</time>
      </trkpt>
      <trkpt lat="46.57044" lon="5.35556">
        <ele>201.6</ele>
        <time>2022-05-28T11:50:16Z</time>
      </trkpt>
      <trkpt lat="46.57049" lon="5.35602">
        <ele>201.2</ele>
        <time>2022-05-28T11:50:20Z</time>
      </trkpt>
      <trkpt lat="46.57055" lon="5.3562">
        <ele>201</ele>
        <time>2022-05-28T11:50:22Z</time>
      </trkpt>
      <trkpt lat="46.57065" lon="5.35638">
        <ele>201</ele>
        <time>2022-05-28T11:50:24Z</time>
      </trkpt>
      <trkpt lat="46.57091" lon="5.3567">
        <ele>200.6</ele>
        <time>2022-05-28T11:50:29Z</time>
      </trkpt>
      <trkpt lat="46.57103" lon="5.35688">
        <ele>200.6</ele>
        <time>2022-05-28T11:50:32Z</time>
      </trkpt>
      <trkpt lat="46.57116" lon="5.35708">
        <ele>200.8</ele>
        <time>2022-05-28T11:50:35Z</time>
      </trkpt>
      <trkpt lat="46.57143" lon="5.35736">
        <ele>200.6</ele>
        <time>2022-05-28T11:50:41Z</time>
      </trkpt>
      <trkpt lat="46.57193" lon="5.35767">
        <ele>200.6</ele>
        <time>2022-05-28T11:50:50Z</time>
      </trkpt>
      <trkpt lat="46.57199" lon="5.35771">
        <ele>200.6</ele>
        <time>2022-05-28T11:50:51Z</time>
      </trkpt>
      <trkpt lat="46.57252" lon="5.35804">
        <ele>201.2</ele>
        <time>2022-05-28T11:51:01Z</time>
      </trkpt>
      <trkpt lat="46.57283" lon="5.35824">
        <ele>202</ele>
        <time>2022-05-28T11:51:07Z</time>
      </trkpt>
      <trkpt lat="46.57299" lon="5.35832">
        <ele>202.6</ele>
        <time>2022-05-28T11:51:10Z</time>
      </trkpt>
      <trkpt lat="46.57313" lon="5.35837">
        <ele>203</ele>
        <time>2022-05-28T11:51:13Z</time>
      </trkpt>
      <trkpt lat="46.5734" lon="5.35839">
        <ele>203.2</ele>
        <time>2022-05-28T11:51:18Z</time>
      </trkpt>
      <trkpt lat="46.57349" lon="5.35836">
        <ele>203.2</ele>
        <time>2022-05-28T11:51:20Z</time>
      </trkpt>
      <trkpt lat="46.57358" lon="5.35829">
        <ele>203.4</ele>
        <time>2022-05-28T11:51:22Z</time>
      </trkpt>
      <trkpt lat="46.57362" lon="5.35825">
        <ele>203.4</ele>
        <time>2022-05-28T11:51:23Z</time>
      </trkpt>
      <trkpt lat="46.57381" lon="5.35796">
        <ele>203.4</ele>
        <time>2022-05-28T11:51:29Z</time>
      </trkpt>
      <trkpt lat="46.57384" lon="5.35792">
        <ele>203.4</ele>
        <time>2022-05-28T11:51:30Z</time>
      </trkpt>
      <trkpt lat="46.57397" lon="5.35766">
        <ele>203.4</ele>
        <time>2022-05-28T11:51:35Z</time>
      </trkpt>
      <trkpt lat="46.574" lon="5.3576">
        <ele>203.4</ele>
        <time>2022-05-28T11:51:36Z</time>
      </trkpt>
      <trkpt lat="46.57404" lon="5.35756">
        <ele>203.6</ele>
        <time>2022-05-28T11:51:37Z</time>
      </trkpt>
      <trkpt lat="46.57418" lon="5.35744">
        <ele>204</ele>
        <time>2022-05-28T11:51:40Z</time>
      </trkpt>
      <trkpt lat="46.57424" lon="5.3574">
        <ele>204.2</ele>
        <time>2022-05-28T11:51:41Z</time>
      </trkpt>
      <trkpt lat="46.5745" lon="5.35724">
        <ele>203.8</ele>
        <time>2022-05-28T11:51:45Z</time>
      </trkpt>
      <trkpt lat="46.57487" lon="5.357">
        <ele>202.6</ele>
        <time>2022-05-28T11:51:50Z</time>
      </trkpt>
      <trkpt lat="46.57511" lon="5.35685">
        <ele>201.6</ele>
        <time>2022-05-28T11:51:53Z</time>
      </trkpt>
      <trkpt lat="46.57518" lon="5.3568">
        <ele>201.2</ele>
        <time>2022-05-28T11:51:54Z</time>
      </trkpt>
      <trkpt lat="46.57533" lon="5.35667">
        <ele>199.8</ele>
        <time>2022-05-28T11:51:56Z</time>
      </trkpt>
      <trkpt lat="46.57546" lon="5.35652">
        <ele>198.4</ele>
        <time>2022-05-28T11:51:58Z</time>
      </trkpt>
      <trkpt lat="46.5757" lon="5.35616">
        <ele>196.8</ele>
        <time>2022-05-28T11:52:02Z</time>
      </trkpt>
      <trkpt lat="46.57576" lon="5.35608">
        <ele>196.6</ele>
        <time>2022-05-28T11:52:03Z</time>
      </trkpt>
      <trkpt lat="46.57583" lon="5.356">
        <ele>196.2</ele>
        <time>2022-05-28T11:52:04Z</time>
      </trkpt>
      <trkpt lat="46.57597" lon="5.35589">
        <ele>195.8</ele>
        <time>2022-05-28T11:52:06Z</time>
      </trkpt>
      <trkpt lat="46.57605" lon="5.35583">
        <ele>195.6</ele>
        <time>2022-05-28T11:52:07Z</time>
      </trkpt>
      <trkpt lat="46.57635" lon="5.35553">
        <ele>195.4</ele>
        <time>2022-05-28T11:52:12Z</time>
      </trkpt>
      <trkpt lat="46.57652" lon="5.35536">
        <ele>195.2</ele>
        <time>2022-05-28T11:52:15Z</time>
      </trkpt>
      <trkpt lat="46.57669" lon="5.35524">
        <ele>195</ele>
        <time>2022-05-28T11:52:18Z</time>
      </trkpt>
      <trkpt lat="46.57694" lon="5.35506">
        <ele>195</ele>
        <time>2022-05-28T11:52:23Z</time>
      </trkpt>
      <trkpt lat="46.57724" lon="5.35487">
        <ele>195.6</ele>
        <time>2022-05-28T11:52:30Z</time>
      </trkpt>
      <trkpt lat="46.5774" lon="5.35475">
        <ele>196.8</ele>
        <time>2022-05-28T11:52:34Z</time>
      </trkpt>
      <trkpt lat="46.57747" lon="5.35471">
        <ele>197.4</ele>
        <time>2022-05-28T11:52:36Z</time>
      </trkpt>
      <trkpt lat="46.57758" lon="5.35463">
        <ele>197.8</ele>
        <time>2022-05-28T11:52:39Z</time>
      </trkpt>
      <trkpt lat="46.57766" lon="5.35457">
        <ele>199</ele>
        <time>2022-05-28T11:52:42Z</time>
      </trkpt>
      <trkpt lat="46.57768" lon="5.35455">
        <ele>199.4</ele>
        <time>2022-05-28T11:52:43Z</time>
      </trkpt>
      <trkpt lat="46.57778" lon="5.35448">
        <ele>200.4</ele>
        <time>2022-05-28T11:52:46Z</time>
      </trkpt>
      <trkpt lat="46.57788" lon="5.3544">
        <ele>200.8</ele>
        <time>2022-05-28T11:52:49Z</time>
      </trkpt>
      <trkpt lat="46.57795" lon="5.35435">
        <ele>201.8</ele>
        <time>2022-05-28T11:52:51Z</time>
      </trkpt>
      <trkpt lat="46.57808" lon="5.35428">
        <ele>203</ele>
        <time>2022-05-28T11:52:55Z</time>
      </trkpt>
      <trkpt lat="46.57811" lon="5.35428">
        <ele>203.6</ele>
        <time>2022-05-28T11:52:56Z</time>
      </trkpt>
      <trkpt lat="46.57818" lon="5.35432">
        <ele>204.2</ele>
        <time>2022-05-28T11:52:58Z</time>
      </trkpt>
      <trkpt lat="46.57821" lon="5.35436">
        <ele>204.4</ele>
        <time>2022-05-28T11:52:59Z</time>
      </trkpt>
      <trkpt lat="46.57822" lon="5.3544">
        <ele>204.8</ele>
        <time>2022-05-28T11:53:00Z</time>
      </trkpt>
      <trkpt lat="46.57826" lon="5.35469">
        <ele>205.2</ele>
        <time>2022-05-28T11:53:05Z</time>
      </trkpt>
      <trkpt lat="46.57828" lon="5.35481">
        <ele>205.4</ele>
        <time>2022-05-28T11:53:07Z</time>
      </trkpt>
      <trkpt lat="46.57832" lon="5.35501">
        <ele>205.6</ele>
        <time>2022-05-28T11:53:10Z</time>
      </trkpt>
      <trkpt lat="46.57837" lon="5.35517">
        <ele>205.6</ele>
        <time>2022-05-28T11:53:12Z</time>
      </trkpt>
      <trkpt lat="46.57858" lon="5.35563">
        <ele>204.6</ele>
        <time>2022-05-28T11:53:17Z</time>
      </trkpt>
      <trkpt lat="46.57866" lon="5.35579">
        <ele>204</ele>
        <time>2022-05-28T11:53:19Z</time>
      </trkpt>
      <trkpt lat="46.5787" lon="5.35591">
        <ele>203.6</ele>
        <time>2022-05-28T11:53:20Z</time>
      </trkpt>
      <trkpt lat="46.57876" lon="5.35612">
        <ele>203</ele>
        <time>2022-05-28T11:53:22Z</time>
      </trkpt>
      <trkpt lat="46.57878" lon="5.35622">
        <ele>202.8</ele>
        <time>2022-05-28T11:53:23Z</time>
      </trkpt>
      <trkpt lat="46.57883" lon="5.35659">
        <ele>202.4</ele>
        <time>2022-05-28T11:53:27Z</time>
      </trkpt>
      <trkpt lat="46.57887" lon="5.35685">
        <ele>202.6</ele>
        <time>2022-05-28T11:53:30Z</time>
      </trkpt>
      <trkpt lat="46.57889" lon="5.35692">
        <ele>202.8</ele>
        <time>2022-05-28T11:53:31Z</time>
      </trkpt>
      <trkpt lat="46.57895" lon="5.35706">
        <ele>203.2</ele>
        <time>2022-05-28T11:53:33Z</time>
      </trkpt>
      <trkpt lat="46.57919" lon="5.35755">
        <ele>203.6</ele>
        <time>2022-05-28T11:53:40Z</time>
      </trkpt>
      <trkpt lat="46.57926" lon="5.35769">
        <ele>203.6</ele>
        <time>2022-05-28T11:53:42Z</time>
      </trkpt>
      <trkpt lat="46.57934" lon="5.35795">
        <ele>203.6</ele>
        <time>2022-05-28T11:53:45Z</time>
      </trkpt>
      <trkpt lat="46.57938" lon="5.35814">
        <ele>203.6</ele>
        <time>2022-05-28T11:53:47Z</time>
      </trkpt>
      <trkpt lat="46.57938" lon="5.35833">
        <ele>203.6</ele>
        <time>2022-05-28T11:53:49Z</time>
      </trkpt>
      <trkpt lat="46.57926" lon="5.3588">
        <ele>202.8</ele>
        <time>2022-05-28T11:53:54Z</time>
      </trkpt>
      <trkpt lat="46.57911" lon="5.35946">
        <ele>202.2</ele>
        <time>2022-05-28T11:54:01Z</time>
      </trkpt>
      <trkpt lat="46.5791" lon="5.35957">
        <ele>202</ele>
        <time>2022-05-28T11:54:02Z</time>
      </trkpt>
      <trkpt lat="46.57912" lon="5.35968">
        <ele>201.6</ele>
        <time>2022-05-28T11:54:03Z</time>
      </trkpt>
      <trkpt lat="46.57914" lon="5.35976">
        <ele>201.6</ele>
        <time>2022-05-28T11:54:04Z</time>
      </trkpt>
      <trkpt lat="46.57926" lon="5.35994">
        <ele>201</ele>
        <time>2022-05-28T11:54:06Z</time>
      </trkpt>
      <trkpt lat="46.57932" lon="5.35999">
        <ele>200.4</ele>
        <time>2022-05-28T11:54:07Z</time>
      </trkpt>
      <trkpt lat="46.57958" lon="5.3602">
        <ele>199.6</ele>
        <time>2022-05-28T11:54:11Z</time>
      </trkpt>
      <trkpt lat="46.57963" lon="5.36025">
        <ele>199.4</ele>
        <time>2022-05-28T11:54:12Z</time>
      </trkpt>
      <trkpt lat="46.57967" lon="5.3603">
        <ele>199.2</ele>
        <time>2022-05-28T11:54:13Z</time>
      </trkpt>
      <trkpt lat="46.57977" lon="5.36044">
        <ele>199.2</ele>
        <time>2022-05-28T11:54:15Z</time>
      </trkpt>
      <trkpt lat="46.57984" lon="5.36055">
        <ele>199.2</ele>
        <time>2022-05-28T11:54:17Z</time>
      </trkpt>
      <trkpt lat="46.57996" lon="5.36074">
        <ele>199.6</ele>
        <time>2022-05-28T11:54:20Z</time>
      </trkpt>
      <trkpt lat="46.58002" lon="5.36088">
        <ele>200</ele>
        <time>2022-05-28T11:54:22Z</time>
      </trkpt>
      <trkpt lat="46.58017" lon="5.36128">
        <ele>200.6</ele>
        <time>2022-05-28T11:54:28Z</time>
      </trkpt>
      <trkpt lat="46.58021" lon="5.36144">
        <ele>200.8</ele>
        <time>2022-05-28T11:54:30Z</time>
      </trkpt>
      <trkpt lat="46.58023" lon="5.36158">
        <ele>201</ele>
        <time>2022-05-28T11:54:32Z</time>
      </trkpt>
      <trkpt lat="46.58021" lon="5.36176">
        <ele>201.2</ele>
        <time>2022-05-28T11:54:34Z</time>
      </trkpt>
      <trkpt lat="46.58017" lon="5.36211">
        <ele>201.6</ele>
        <time>2022-05-28T11:54:38Z</time>
      </trkpt>
      <trkpt lat="46.58015" lon="5.3622">
        <ele>201.6</ele>
        <time>2022-05-28T11:54:39Z</time>
      </trkpt>
      <trkpt lat="46.58016" lon="5.3623">
        <ele>201.6</ele>
        <time>2022-05-28T11:54:40Z</time>
      </trkpt>
      <trkpt lat="46.58017" lon="5.36239">
        <ele>201.6</ele>
        <time>2022-05-28T11:54:41Z</time>
      </trkpt>
      <trkpt lat="46.58018" lon="5.36257">
        <ele>201.8</ele>
        <time>2022-05-28T11:54:43Z</time>
      </trkpt>
      <trkpt lat="46.58018" lon="5.36274">
        <ele>202</ele>
        <time>2022-05-28T11:54:45Z</time>
      </trkpt>
      <trkpt lat="46.58018" lon="5.36283">
        <ele>202</ele>
        <time>2022-05-28T11:54:46Z</time>
      </trkpt>
      <trkpt lat="46.58019" lon="5.36292">
        <ele>202</ele>
        <time>2022-05-28T11:54:47Z</time>
      </trkpt>
      <trkpt lat="46.58025" lon="5.36319">
        <ele>202</ele>
        <time>2022-05-28T11:54:50Z</time>
      </trkpt>
      <trkpt lat="46.5803" lon="5.36334">
        <ele>202.2</ele>
        <time>2022-05-28T11:54:52Z</time>
      </trkpt>
      <trkpt lat="46.58041" lon="5.36358">
        <ele>202</ele>
        <time>2022-05-28T11:54:55Z</time>
      </trkpt>
      <trkpt lat="46.58051" lon="5.36377">
        <ele>202</ele>
        <time>2022-05-28T11:54:58Z</time>
      </trkpt>
      <trkpt lat="46.58065" lon="5.36393">
        <ele>202</ele>
        <time>2022-05-28T11:55:01Z</time>
      </trkpt>
      <trkpt lat="46.58074" lon="5.36405">
        <ele>202</ele>
        <time>2022-05-28T11:55:03Z</time>
      </trkpt>
      <trkpt lat="46.58082" lon="5.36415">
        <ele>202</ele>
        <time>2022-05-28T11:55:05Z</time>
      </trkpt>
      <trkpt lat="46.58085" lon="5.36422">
        <ele>202.2</ele>
        <time>2022-05-28T11:55:06Z</time>
      </trkpt>
      <trkpt lat="46.58088" lon="5.36426">
        <ele>202.2</ele>
        <time>2022-05-28T11:55:07Z</time>
      </trkpt>
      <trkpt lat="46.581" lon="5.36445">
        <ele>202.2</ele>
        <time>2022-05-28T11:55:10Z</time>
      </trkpt>
      <trkpt lat="46.5811" lon="5.36467">
        <ele>202.8</ele>
        <time>2022-05-28T11:55:13Z</time>
      </trkpt>
      <trkpt lat="46.58116" lon="5.3648">
        <ele>203.2</ele>
        <time>2022-05-28T11:55:15Z</time>
      </trkpt>
      <trkpt lat="46.58118" lon="5.36488">
        <ele>203.2</ele>
        <time>2022-05-28T11:55:16Z</time>
      </trkpt>
      <trkpt lat="46.58123" lon="5.36504">
        <ele>203.4</ele>
        <time>2022-05-28T11:55:18Z</time>
      </trkpt>
      <trkpt lat="46.58126" lon="5.36521">
        <ele>203.4</ele>
        <time>2022-05-28T11:55:20Z</time>
      </trkpt>
      <trkpt lat="46.58127" lon="5.36539">
        <ele>203.6</ele>
        <time>2022-05-28T11:55:22Z</time>
      </trkpt>
      <trkpt lat="46.58127" lon="5.36555">
        <ele>203.6</ele>
        <time>2022-05-28T11:55:24Z</time>
      </trkpt>
      <trkpt lat="46.58126" lon="5.36591">
        <ele>203.6</ele>
        <time>2022-05-28T11:55:28Z</time>
      </trkpt>
      <trkpt lat="46.58137" lon="5.36631">
        <ele>204.2</ele>
        <time>2022-05-28T11:55:33Z</time>
      </trkpt>
      <trkpt lat="46.58163" lon="5.36695">
        <ele>204</ele>
        <time>2022-05-28T11:55:42Z</time>
      </trkpt>
      <trkpt lat="46.58193" lon="5.36763">
        <ele>203.4</ele>
        <time>2022-05-28T11:55:51Z</time>
      </trkpt>
      <trkpt lat="46.58215" lon="5.36819">
        <ele>203.8</ele>
        <time>2022-05-28T11:55:59Z</time>
      </trkpt>
      <trkpt lat="46.58242" lon="5.36888">
        <ele>204</ele>
        <time>2022-05-28T11:56:09Z</time>
      </trkpt>
      <trkpt lat="46.58246" lon="5.36901">
        <ele>204.2</ele>
        <time>2022-05-28T11:56:11Z</time>
      </trkpt>
      <trkpt lat="46.58251" lon="5.36915">
        <ele>204.4</ele>
        <time>2022-05-28T11:56:13Z</time>
      </trkpt>
      <trkpt lat="46.58255" lon="5.36927">
        <ele>204.8</ele>
        <time>2022-05-28T11:56:15Z</time>
      </trkpt>
      <trkpt lat="46.58277" lon="5.36972">
        <ele>206</ele>
        <time>2022-05-28T11:56:22Z</time>
      </trkpt>
      <trkpt lat="46.58281" lon="5.36978">
        <ele>206</ele>
        <time>2022-05-28T11:56:23Z</time>
      </trkpt>
      <trkpt lat="46.58289" lon="5.36987">
        <ele>206</ele>
        <time>2022-05-28T11:56:25Z</time>
      </trkpt>
      <trkpt lat="46.58298" lon="5.36992">
        <ele>206.4</ele>
        <time>2022-05-28T11:56:27Z</time>
      </trkpt>
      <trkpt lat="46.58337" lon="5.37009">
        <ele>207</ele>
        <time>2022-05-28T11:56:35Z</time>
      </trkpt>
      <trkpt lat="46.58342" lon="5.37011">
        <ele>207</ele>
        <time>2022-05-28T11:56:36Z</time>
      </trkpt>
      <trkpt lat="46.5835" lon="5.37016">
        <ele>207.2</ele>
        <time>2022-05-28T11:56:38Z</time>
      </trkpt>
      <trkpt lat="46.58372" lon="5.37027">
        <ele>208</ele>
        <time>2022-05-28T11:56:43Z</time>
      </trkpt>
      <trkpt lat="46.58376" lon="5.37029">
        <ele>208.2</ele>
        <time>2022-05-28T11:56:44Z</time>
      </trkpt>
      <trkpt lat="46.58403" lon="5.37041">
        <ele>209.4</ele>
        <time>2022-05-28T11:56:50Z</time>
      </trkpt>
      <trkpt lat="46.5842" lon="5.3705">
        <ele>210.2</ele>
        <time>2022-05-28T11:56:54Z</time>
      </trkpt>
      <trkpt lat="46.58434" lon="5.37057">
        <ele>210.8</ele>
        <time>2022-05-28T11:56:57Z</time>
      </trkpt>
      <trkpt lat="46.58451" lon="5.37065">
        <ele>211.6</ele>
        <time>2022-05-28T11:57:01Z</time>
      </trkpt>
      <trkpt lat="46.58456" lon="5.37067">
        <ele>212</ele>
        <time>2022-05-28T11:57:02Z</time>
      </trkpt>
      <trkpt lat="46.5848" lon="5.37084">
        <ele>213.2</ele>
        <time>2022-05-28T11:57:08Z</time>
      </trkpt>
      <trkpt lat="46.58509" lon="5.37111">
        <ele>214.2</ele>
        <time>2022-05-28T11:57:15Z</time>
      </trkpt>
      <trkpt lat="46.58513" lon="5.37116">
        <ele>214.4</ele>
        <time>2022-05-28T11:57:16Z</time>
      </trkpt>
      <trkpt lat="46.58542" lon="5.37154">
        <ele>214.4</ele>
        <time>2022-05-28T11:57:22Z</time>
      </trkpt>
      <trkpt lat="46.58547" lon="5.37162">
        <ele>214.4</ele>
        <time>2022-05-28T11:57:23Z</time>
      </trkpt>
      <trkpt lat="46.58561" lon="5.37196">
        <ele>213.8</ele>
        <time>2022-05-28T11:57:27Z</time>
      </trkpt>
      <trkpt lat="46.58587" lon="5.37267">
        <ele>213.4</ele>
        <time>2022-05-28T11:57:35Z</time>
      </trkpt>
      <trkpt lat="46.58589" lon="5.37276">
        <ele>213.4</ele>
        <time>2022-05-28T11:57:36Z</time>
      </trkpt>
      <trkpt lat="46.58595" lon="5.373">
        <ele>213.2</ele>
        <time>2022-05-28T11:57:39Z</time>
      </trkpt>
      <trkpt lat="46.58609" lon="5.37361">
        <ele>212.8</ele>
        <time>2022-05-28T11:57:46Z</time>
      </trkpt>
      <trkpt lat="46.58628" lon="5.37438">
        <ele>212.6</ele>
        <time>2022-05-28T11:57:55Z</time>
      </trkpt>
      <trkpt lat="46.58649" lon="5.37485">
        <ele>212.2</ele>
        <time>2022-05-28T11:58:01Z</time>
      </trkpt>
      <trkpt lat="46.58665" lon="5.37511">
        <ele>212.2</ele>
        <time>2022-05-28T11:58:05Z</time>
      </trkpt>
      <trkpt lat="46.58678" lon="5.37531">
        <ele>212.2</ele>
        <time>2022-05-28T11:58:08Z</time>
      </trkpt>
      <trkpt lat="46.58707" lon="5.37569">
        <ele>213.2</ele>
        <time>2022-05-28T11:58:15Z</time>
      </trkpt>
      <trkpt lat="46.58711" lon="5.37575">
        <ele>213.6</ele>
        <time>2022-05-28T11:58:16Z</time>
      </trkpt>
      <trkpt lat="46.58727" lon="5.37596">
        <ele>214.2</ele>
        <time>2022-05-28T11:58:20Z</time>
      </trkpt>
      <trkpt lat="46.58743" lon="5.37617">
        <ele>214.6</ele>
        <time>2022-05-28T11:58:24Z</time>
      </trkpt>
      <trkpt lat="46.58765" lon="5.37648">
        <ele>215.4</ele>
        <time>2022-05-28T11:58:30Z</time>
      </trkpt>
      <trkpt lat="46.58768" lon="5.37652">
        <ele>215.6</ele>
        <time>2022-05-28T11:58:31Z</time>
      </trkpt>
      <trkpt lat="46.58793" lon="5.37696">
        <ele>216.2</ele>
        <time>2022-05-28T11:58:38Z</time>
      </trkpt>
      <trkpt lat="46.58803" lon="5.37715">
        <ele>216.6</ele>
        <time>2022-05-28T11:58:41Z</time>
      </trkpt>
      <trkpt lat="46.58825" lon="5.3776">
        <ele>217.8</ele>
        <time>2022-05-28T11:58:48Z</time>
      </trkpt>
      <trkpt lat="46.58862" lon="5.37829">
        <ele>218</ele>
        <time>2022-05-28T11:58:59Z</time>
      </trkpt>
      <trkpt lat="46.58889" lon="5.37864">
        <ele>218</ele>
        <time>2022-05-28T11:59:06Z</time>
      </trkpt>
      <trkpt lat="46.58922" lon="5.37889">
        <ele>218</ele>
        <time>2022-05-28T11:59:12Z</time>
      </trkpt>
      <trkpt lat="46.58949" lon="5.3791">
        <ele>217.8</ele>
        <time>2022-05-28T11:59:17Z</time>
      </trkpt>
      <trkpt lat="46.58957" lon="5.37922">
        <ele>217.8</ele>
        <time>2022-05-28T11:59:19Z</time>
      </trkpt>
      <trkpt lat="46.58976" lon="5.37969">
        <ele>217.6</ele>
        <time>2022-05-28T11:59:25Z</time>
      </trkpt>
      <trkpt lat="46.59" lon="5.38035">
        <ele>216.6</ele>
        <time>2022-05-28T11:59:33Z</time>
      </trkpt>
      <trkpt lat="46.59008" lon="5.3806">
        <ele>216.6</ele>
        <time>2022-05-28T11:59:36Z</time>
      </trkpt>
      <trkpt lat="46.59035" lon="5.38133">
        <ele>216</ele>
        <time>2022-05-28T11:59:45Z</time>
      </trkpt>
      <trkpt lat="46.5906" lon="5.38202">
        <ele>216</ele>
        <time>2022-05-28T11:59:54Z</time>
      </trkpt>
      <trkpt lat="46.59083" lon="5.38266">
        <ele>216</ele>
        <time>2022-05-28T12:00:02Z</time>
      </trkpt>
      <trkpt lat="46.59086" lon="5.38274">
        <ele>216</ele>
        <time>2022-05-28T12:00:03Z</time>
      </trkpt>
      <trkpt lat="46.59106" lon="5.38338">
        <ele>215.8</ele>
        <time>2022-05-28T12:00:11Z</time>
      </trkpt>
      <trkpt lat="46.59114" lon="5.38363">
        <ele>215.6</ele>
        <time>2022-05-28T12:00:14Z</time>
      </trkpt>
      <trkpt lat="46.59126" lon="5.38402">
        <ele>215.2</ele>
        <time>2022-05-28T12:00:19Z</time>
      </trkpt>
      <trkpt lat="46.5914" lon="5.38443">
        <ele>215.2</ele>
        <time>2022-05-28T12:00:25Z</time>
      </trkpt>
      <trkpt lat="46.59142" lon="5.38449">
        <ele>215.2</ele>
        <time>2022-05-28T12:00:26Z</time>
      </trkpt>
      <trkpt lat="46.59158" lon="5.3848">
        <ele>215.4</ele>
        <time>2022-05-28T12:00:31Z</time>
      </trkpt>
      <trkpt lat="46.59191" lon="5.38524">
        <ele>216.4</ele>
        <time>2022-05-28T12:00:39Z</time>
      </trkpt>
      <trkpt lat="46.59195" lon="5.38528">
        <ele>216.8</ele>
        <time>2022-05-28T12:00:40Z</time>
      </trkpt>
      <trkpt lat="46.59206" lon="5.38542">
        <ele>218.2</ele>
        <time>2022-05-28T12:00:43Z</time>
      </trkpt>
      <trkpt lat="46.59219" lon="5.38555">
        <ele>218.8</ele>
        <time>2022-05-28T12:00:46Z</time>
      </trkpt>
      <trkpt lat="46.59233" lon="5.3857">
        <ele>219.4</ele>
        <time>2022-05-28T12:00:49Z</time>
      </trkpt>
      <trkpt lat="46.59259" lon="5.38598">
        <ele>219.8</ele>
        <time>2022-05-28T12:00:54Z</time>
      </trkpt>
      <trkpt lat="46.593" lon="5.38642">
        <ele>218.4</ele>
        <time>2022-05-28T12:01:02Z</time>
      </trkpt>
      <trkpt lat="46.59344" lon="5.38688">
        <ele>217.8</ele>
        <time>2022-05-28T12:01:11Z</time>
      </trkpt>
      <trkpt lat="46.5938" lon="5.38728">
        <ele>218.2</ele>
        <time>2022-05-28T12:01:19Z</time>
      </trkpt>
      <trkpt lat="46.59427" lon="5.38779">
        <ele>218.6</ele>
        <time>2022-05-28T12:01:29Z</time>
      </trkpt>
      <trkpt lat="46.59432" lon="5.38785">
        <ele>218.8</ele>
        <time>2022-05-28T12:01:30Z</time>
      </trkpt>
      <trkpt lat="46.59439" lon="5.38799">
        <ele>218.8</ele>
        <time>2022-05-28T12:01:32Z</time>
      </trkpt>
      <trkpt lat="46.59441" lon="5.38807">
        <ele>218.8</ele>
        <time>2022-05-28T12:01:33Z</time>
      </trkpt>
      <trkpt lat="46.59447" lon="5.38831">
        <ele>218.8</ele>
        <time>2022-05-28T12:01:36Z</time>
      </trkpt>
      <trkpt lat="46.59448" lon="5.38848">
        <ele>218.8</ele>
        <time>2022-05-28T12:01:38Z</time>
      </trkpt>
      <trkpt lat="46.59449" lon="5.38874">
        <ele>218.8</ele>
        <time>2022-05-28T12:01:41Z</time>
      </trkpt>
      <trkpt lat="46.59452" lon="5.38892">
        <ele>218.8</ele>
        <time>2022-05-28T12:01:43Z</time>
      </trkpt>
      <trkpt lat="46.59453" lon="5.38901">
        <ele>218.8</ele>
        <time>2022-05-28T12:01:44Z</time>
      </trkpt>
      <trkpt lat="46.59456" lon="5.3891">
        <ele>218.8</ele>
        <time>2022-05-28T12:01:45Z</time>
      </trkpt>
      <trkpt lat="46.59469" lon="5.38944">
        <ele>218.8</ele>
        <time>2022-05-28T12:01:49Z</time>
      </trkpt>
      <trkpt lat="46.59475" lon="5.38962">
        <ele>218.8</ele>
        <time>2022-05-28T12:01:51Z</time>
      </trkpt>
      <trkpt lat="46.5948" lon="5.38989">
        <ele>218.4</ele>
        <time>2022-05-28T12:01:54Z</time>
      </trkpt>
      <trkpt lat="46.5949" lon="5.39069">
        <ele>218.2</ele>
        <time>2022-05-28T12:02:03Z</time>
      </trkpt>
      <trkpt lat="46.59497" lon="5.39138">
        <ele>218.4</ele>
        <time>2022-05-28T12:02:11Z</time>
      </trkpt>
      <trkpt lat="46.59506" lon="5.39183">
        <ele>218.8</ele>
        <time>2022-05-28T12:02:17Z</time>
      </trkpt>
      <trkpt lat="46.5951" lon="5.39191">
        <ele>219</ele>
        <time>2022-05-28T12:02:18Z</time>
      </trkpt>
      <trkpt lat="46.59518" lon="5.39202">
        <ele>219</ele>
        <time>2022-05-28T12:02:20Z</time>
      </trkpt>
      <trkpt lat="46.59527" lon="5.3921">
        <ele>219.2</ele>
        <time>2022-05-28T12:02:22Z</time>
      </trkpt>
      <trkpt lat="46.59539" lon="5.39213">
        <ele>219.2</ele>
        <time>2022-05-28T12:02:24Z</time>
      </trkpt>
      <trkpt lat="46.5955" lon="5.39213">
        <ele>219.4</ele>
        <time>2022-05-28T12:02:26Z</time>
      </trkpt>
      <trkpt lat="46.59562" lon="5.39211">
        <ele>219.6</ele>
        <time>2022-05-28T12:02:28Z</time>
      </trkpt>
      <trkpt lat="46.59579" lon="5.39206">
        <ele>219.8</ele>
        <time>2022-05-28T12:02:31Z</time>
      </trkpt>
      <trkpt lat="46.59584" lon="5.39204">
        <ele>219.8</ele>
        <time>2022-05-28T12:02:32Z</time>
      </trkpt>
      <trkpt lat="46.5959" lon="5.39201">
        <ele>220</ele>
        <time>2022-05-28T12:02:33Z</time>
      </trkpt>
      <trkpt lat="46.59617" lon="5.39189">
        <ele>220.2</ele>
        <time>2022-05-28T12:02:38Z</time>
      </trkpt>
      <trkpt lat="46.59629" lon="5.39188">
        <ele>220.4</ele>
        <time>2022-05-28T12:02:40Z</time>
      </trkpt>
      <trkpt lat="46.59662" lon="5.39193">
        <ele>220.6</ele>
        <time>2022-05-28T12:02:46Z</time>
      </trkpt>
      <trkpt lat="46.59666" lon="5.39194">
        <ele>220.8</ele>
        <time>2022-05-28T12:02:47Z</time>
      </trkpt>
      <trkpt lat="46.59695" lon="5.39201">
        <ele>221.2</ele>
        <time>2022-05-28T12:02:53Z</time>
      </trkpt>
      <trkpt lat="46.59701" lon="5.39202">
        <ele>221.2</ele>
        <time>2022-05-28T12:02:54Z</time>
      </trkpt>
      <trkpt lat="46.59714" lon="5.39204">
        <ele>221.4</ele>
        <time>2022-05-28T12:02:57Z</time>
      </trkpt>
      <trkpt lat="46.59724" lon="5.3921">
        <ele>221.4</ele>
        <time>2022-05-28T12:02:59Z</time>
      </trkpt>
      <trkpt lat="46.59728" lon="5.39215">
        <ele>221.4</ele>
        <time>2022-05-28T12:03:00Z</time>
      </trkpt>
      <trkpt lat="46.59735" lon="5.39223">
        <ele>221.4</ele>
        <time>2022-05-28T12:03:02Z</time>
      </trkpt>
      <trkpt lat="46.59744" lon="5.39226">
        <ele>221.4</ele>
        <time>2022-05-28T12:03:04Z</time>
      </trkpt>
      <trkpt lat="46.59756" lon="5.39215">
        <ele>221.2</ele>
        <time>2022-05-28T12:03:07Z</time>
      </trkpt>
      <trkpt lat="46.59761" lon="5.39211">
        <ele>221</ele>
        <time>2022-05-28T12:03:08Z</time>
      </trkpt>
      <trkpt lat="46.59781" lon="5.39201">
        <ele>220.8</ele>
        <time>2022-05-28T12:03:12Z</time>
      </trkpt>
      <trkpt lat="46.59813" lon="5.39194">
        <ele>220.6</ele>
        <time>2022-05-28T12:03:18Z</time>
      </trkpt>
      <trkpt lat="46.59818" lon="5.39195">
        <ele>220.6</ele>
        <time>2022-05-28T12:03:19Z</time>
      </trkpt>
      <trkpt lat="46.59855" lon="5.392">
        <ele>220.8</ele>
        <time>2022-05-28T12:03:26Z</time>
      </trkpt>
      <trkpt lat="46.59866" lon="5.392">
        <ele>220.6</ele>
        <time>2022-05-28T12:03:28Z</time>
      </trkpt>
      <trkpt lat="46.59892" lon="5.39196">
        <ele>220.4</ele>
        <time>2022-05-28T12:03:33Z</time>
      </trkpt>
      <trkpt lat="46.59924" lon="5.39187">
        <ele>219.8</ele>
        <time>2022-05-28T12:03:40Z</time>
      </trkpt>
      <trkpt lat="46.59929" lon="5.39187">
        <ele>219.8</ele>
        <time>2022-05-28T12:03:41Z</time>
      </trkpt>
      <trkpt lat="46.59935" lon="5.39187">
        <ele>219.6</ele>
        <time>2022-05-28T12:03:42Z</time>
      </trkpt>
      <trkpt lat="46.59959" lon="5.39186">
        <ele>218.8</ele>
        <time>2022-05-28T12:03:46Z</time>
      </trkpt>
      <trkpt lat="46.59972" lon="5.39186">
        <ele>218.4</ele>
        <time>2022-05-28T12:03:48Z</time>
      </trkpt>
      <trkpt lat="46.59996" lon="5.39194">
        <ele>217.8</ele>
        <time>2022-05-28T12:03:52Z</time>
      </trkpt>
      <trkpt lat="46.60008" lon="5.39201">
        <ele>217.4</ele>
        <time>2022-05-28T12:03:54Z</time>
      </trkpt>
      <trkpt lat="46.60013" lon="5.39205">
        <ele>217.4</ele>
        <time>2022-05-28T12:03:55Z</time>
      </trkpt>
      <trkpt lat="46.60025" lon="5.39216">
        <ele>217.2</ele>
        <time>2022-05-28T12:03:57Z</time>
      </trkpt>
      <trkpt lat="46.6003" lon="5.39223">
        <ele>217</ele>
        <time>2022-05-28T12:03:58Z</time>
      </trkpt>
      <trkpt lat="46.60039" lon="5.3924">
        <ele>216.8</ele>
        <time>2022-05-28T12:04:00Z</time>
      </trkpt>
      <trkpt lat="46.60043" lon="5.3925">
        <ele>216.6</ele>
        <time>2022-05-28T12:04:01Z</time>
      </trkpt>
      <trkpt lat="46.60049" lon="5.39272">
        <ele>216</ele>
        <time>2022-05-28T12:04:03Z</time>
      </trkpt>
      <trkpt lat="46.60052" lon="5.39298">
        <ele>215.2</ele>
        <time>2022-05-28T12:04:05Z</time>
      </trkpt>
      <trkpt lat="46.60052" lon="5.39311">
        <ele>215</ele>
        <time>2022-05-28T12:04:06Z</time>
      </trkpt>
      <trkpt lat="46.60051" lon="5.39338">
        <ele>213.8</ele>
        <time>2022-05-28T12:04:08Z</time>
      </trkpt>
      <trkpt lat="46.6005" lon="5.39351">
        <ele>213.4</ele>
        <time>2022-05-28T12:04:09Z</time>
      </trkpt>
      <trkpt lat="46.60046" lon="5.39375">
        <ele>212.6</ele>
        <time>2022-05-28T12:04:11Z</time>
      </trkpt>
      <trkpt lat="46.6004" lon="5.39407">
        <ele>211.4</ele>
        <time>2022-05-28T12:04:14Z</time>
      </trkpt>
      <trkpt lat="46.60036" lon="5.39428">
        <ele>211.2</ele>
        <time>2022-05-28T12:04:16Z</time>
      </trkpt>
      <trkpt lat="46.60034" lon="5.3945">
        <ele>211.2</ele>
        <time>2022-05-28T12:04:18Z</time>
      </trkpt>
      <trkpt lat="46.60035" lon="5.3947">
        <ele>211.2</ele>
        <time>2022-05-28T12:04:20Z</time>
      </trkpt>
      <trkpt lat="46.60038" lon="5.39489">
        <ele>211.2</ele>
        <time>2022-05-28T12:04:22Z</time>
      </trkpt>
      <trkpt lat="46.60044" lon="5.39508">
        <ele>211.2</ele>
        <time>2022-05-28T12:04:24Z</time>
      </trkpt>
      <trkpt lat="46.6007" lon="5.39564">
        <ele>210.4</ele>
        <time>2022-05-28T12:04:30Z</time>
      </trkpt>
      <trkpt lat="46.60082" lon="5.39593">
        <ele>209</ele>
        <time>2022-05-28T12:04:33Z</time>
      </trkpt>
      <trkpt lat="46.60087" lon="5.39615">
        <ele>208.2</ele>
        <time>2022-05-28T12:04:35Z</time>
      </trkpt>
      <trkpt lat="46.60088" lon="5.39627">
        <ele>208</ele>
        <time>2022-05-28T12:04:36Z</time>
      </trkpt>
      <trkpt lat="46.60089" lon="5.39638">
        <ele>207.6</ele>
        <time>2022-05-28T12:04:37Z</time>
      </trkpt>
      <trkpt lat="46.60086" lon="5.39662">
        <ele>207</ele>
        <time>2022-05-28T12:04:39Z</time>
      </trkpt>
      <trkpt lat="46.60083" lon="5.39673">
        <ele>206.6</ele>
        <time>2022-05-28T12:04:40Z</time>
      </trkpt>
      <trkpt lat="46.60079" lon="5.39682">
        <ele>206.4</ele>
        <time>2022-05-28T12:04:41Z</time>
      </trkpt>
      <trkpt lat="46.60069" lon="5.39704">
        <ele>205.6</ele>
        <time>2022-05-28T12:04:43Z</time>
      </trkpt>
      <trkpt lat="46.60065" lon="5.39714">
        <ele>204.8</ele>
        <time>2022-05-28T12:04:44Z</time>
      </trkpt>
      <trkpt lat="46.60062" lon="5.39736">
        <ele>203.6</ele>
        <time>2022-05-28T12:04:46Z</time>
      </trkpt>
      <trkpt lat="46.60066" lon="5.39758">
        <ele>203.2</ele>
        <time>2022-05-28T12:04:48Z</time>
      </trkpt>
      <trkpt lat="46.60071" lon="5.39771">
        <ele>203</ele>
        <time>2022-05-28T12:04:49Z</time>
      </trkpt>
      <trkpt lat="46.60091" lon="5.39817">
        <ele>202.4</ele>
        <time>2022-05-28T12:04:54Z</time>
      </trkpt>
      <trkpt lat="46.60097" lon="5.39825">
        <ele>202.4</ele>
        <time>2022-05-28T12:04:55Z</time>
      </trkpt>
      <trkpt lat="46.60126" lon="5.39853">
        <ele>202.4</ele>
        <time>2022-05-28T12:05:00Z</time>
      </trkpt>
      <trkpt lat="46.60159" lon="5.39882">
        <ele>202.6</ele>
        <time>2022-05-28T12:05:06Z</time>
      </trkpt>
      <trkpt lat="46.60172" lon="5.39899">
        <ele>202.4</ele>
        <time>2022-05-28T12:05:09Z</time>
      </trkpt>
      <trkpt lat="46.60179" lon="5.39913">
        <ele>202.2</ele>
        <time>2022-05-28T12:05:11Z</time>
      </trkpt>
      <trkpt lat="46.60184" lon="5.39929">
        <ele>202</ele>
        <time>2022-05-28T12:05:13Z</time>
      </trkpt>
      <trkpt lat="46.60186" lon="5.39945">
        <ele>202</ele>
        <time>2022-05-28T12:05:15Z</time>
      </trkpt>
      <trkpt lat="46.60188" lon="5.39999">
        <ele>202.4</ele>
        <time>2022-05-28T12:05:22Z</time>
      </trkpt>
      <trkpt lat="46.60188" lon="5.40014">
        <ele>203</ele>
        <time>2022-05-28T12:05:24Z</time>
      </trkpt>
      <trkpt lat="46.6019" lon="5.40043">
        <ele>203.4</ele>
        <time>2022-05-28T12:05:28Z</time>
      </trkpt>
      <trkpt lat="46.6019" lon="5.40049">
        <ele>203.6</ele>
        <time>2022-05-28T12:05:29Z</time>
      </trkpt>
      <trkpt lat="46.60191" lon="5.4011">
        <ele>204.6</ele>
        <time>2022-05-28T12:05:37Z</time>
      </trkpt>
      <trkpt lat="46.6019" lon="5.40123">
        <ele>204.8</ele>
        <time>2022-05-28T12:05:39Z</time>
      </trkpt>
      <trkpt lat="46.60185" lon="5.40151">
        <ele>205.4</ele>
        <time>2022-05-28T12:05:43Z</time>
      </trkpt>
      <trkpt lat="46.60182" lon="5.40167">
        <ele>205.8</ele>
        <time>2022-05-28T12:05:45Z</time>
      </trkpt>
      <trkpt lat="46.60175" lon="5.40201">
        <ele>206.2</ele>
        <time>2022-05-28T12:05:49Z</time>
      </trkpt>
      <trkpt lat="46.60176" lon="5.40226">
        <ele>206.2</ele>
        <time>2022-05-28T12:05:52Z</time>
      </trkpt>
      <trkpt lat="46.60178" lon="5.40235">
        <ele>206.2</ele>
        <time>2022-05-28T12:05:53Z</time>
      </trkpt>
      <trkpt lat="46.6018" lon="5.40243">
        <ele>206.2</ele>
        <time>2022-05-28T12:05:54Z</time>
      </trkpt>
      <trkpt lat="46.60192" lon="5.40275">
        <ele>206.2</ele>
        <time>2022-05-28T12:05:58Z</time>
      </trkpt>
      <trkpt lat="46.60216" lon="5.40343">
        <ele>206.2</ele>
        <time>2022-05-28T12:06:07Z</time>
      </trkpt>
      <trkpt lat="46.6022" lon="5.40367">
        <ele>206.4</ele>
        <time>2022-05-28T12:06:10Z</time>
      </trkpt>
      <trkpt lat="46.60221" lon="5.40385">
        <ele>206.4</ele>
        <time>2022-05-28T12:06:12Z</time>
      </trkpt>
      <trkpt lat="46.6022" lon="5.40393">
        <ele>206.4</ele>
        <time>2022-05-28T12:06:13Z</time>
      </trkpt>
      <trkpt lat="46.60218" lon="5.40451">
        <ele>206</ele>
        <time>2022-05-28T12:06:18Z</time>
      </trkpt>
      <trkpt lat="46.60222" lon="5.40506">
        <ele>204.6</ele>
        <time>2022-05-28T12:06:22Z</time>
      </trkpt>
      <trkpt lat="46.60228" lon="5.40531">
        <ele>203.6</ele>
        <time>2022-05-28T12:06:24Z</time>
      </trkpt>
      <trkpt lat="46.60235" lon="5.40568">
        <ele>202.4</ele>
        <time>2022-05-28T12:06:27Z</time>
      </trkpt>
      <trkpt lat="46.60235" lon="5.4058">
        <ele>202.2</ele>
        <time>2022-05-28T12:06:28Z</time>
      </trkpt>
      <trkpt lat="46.60235" lon="5.40592">
        <ele>202</ele>
        <time>2022-05-28T12:06:29Z</time>
      </trkpt>
      <trkpt lat="46.6023" lon="5.40615">
        <ele>202</ele>
        <time>2022-05-28T12:06:31Z</time>
      </trkpt>
      <trkpt lat="46.60221" lon="5.40636">
        <ele>202</ele>
        <time>2022-05-28T12:06:33Z</time>
      </trkpt>
      <trkpt lat="46.60212" lon="5.40651">
        <ele>201.8</ele>
        <time>2022-05-28T12:06:35Z</time>
      </trkpt>
      <trkpt lat="46.60182" lon="5.40703">
        <ele>201.2</ele>
        <time>2022-05-28T12:06:41Z</time>
      </trkpt>
      <trkpt lat="46.60178" lon="5.40713">
        <ele>201</ele>
        <time>2022-05-28T12:06:42Z</time>
      </trkpt>
      <trkpt lat="46.60173" lon="5.40734">
        <ele>200.8</ele>
        <time>2022-05-28T12:06:44Z</time>
      </trkpt>
      <trkpt lat="46.60172" lon="5.40757">
        <ele>200.6</ele>
        <time>2022-05-28T12:06:46Z</time>
      </trkpt>
      <trkpt lat="46.60174" lon="5.40779">
        <ele>200.6</ele>
        <time>2022-05-28T12:06:48Z</time>
      </trkpt>
      <trkpt lat="46.6018" lon="5.40799">
        <ele>200.4</ele>
        <time>2022-05-28T12:06:50Z</time>
      </trkpt>
      <trkpt lat="46.60195" lon="5.40824">
        <ele>200.8</ele>
        <time>2022-05-28T12:06:53Z</time>
      </trkpt>
      <trkpt lat="46.60227" lon="5.40855">
        <ele>201.2</ele>
        <time>2022-05-28T12:06:59Z</time>
      </trkpt>
      <trkpt lat="46.60253" lon="5.40873">
        <ele>201.6</ele>
        <time>2022-05-28T12:07:04Z</time>
      </trkpt>
      <trkpt lat="46.60267" lon="5.40883">
        <ele>202.2</ele>
        <time>2022-05-28T12:07:07Z</time>
      </trkpt>
      <trkpt lat="46.60284" lon="5.40899">
        <ele>202.4</ele>
        <time>2022-05-28T12:07:11Z</time>
      </trkpt>
      <trkpt lat="46.60295" lon="5.40911">
        <ele>202.8</ele>
        <time>2022-05-28T12:07:14Z</time>
      </trkpt>
      <trkpt lat="46.603" lon="5.40919">
        <ele>203</ele>
        <time>2022-05-28T12:07:16Z</time>
      </trkpt>
      <trkpt lat="46.60303" lon="5.40924">
        <ele>203.2</ele>
        <time>2022-05-28T12:07:17Z</time>
      </trkpt>
      <trkpt lat="46.60306" lon="5.4093">
        <ele>203.2</ele>
        <time>2022-05-28T12:07:18Z</time>
      </trkpt>
      <trkpt lat="46.60318" lon="5.40953">
        <ele>204.4</ele>
        <time>2022-05-28T12:07:23Z</time>
      </trkpt>
      <trkpt lat="46.60323" lon="5.40962">
        <ele>204.8</ele>
        <time>2022-05-28T12:07:25Z</time>
      </trkpt>
      <trkpt lat="46.60328" lon="5.40972">
        <ele>205.4</ele>
        <time>2022-05-28T12:07:27Z</time>
      </trkpt>
      <trkpt lat="46.60337" lon="5.40987">
        <ele>206.6</ele>
        <time>2022-05-28T12:07:31Z</time>
      </trkpt>
      <trkpt lat="46.6034" lon="5.4099">
        <ele>207</ele>
        <time>2022-05-28T12:07:32Z</time>
      </trkpt>
      <trkpt lat="46.60345" lon="5.40995">
        <ele>207.6</ele>
        <time>2022-05-28T12:07:34Z</time>
      </trkpt>
      <trkpt lat="46.60354" lon="5.41002">
        <ele>209</ele>
        <time>2022-05-28T12:07:37Z</time>
      </trkpt>
      <trkpt lat="46.60359" lon="5.41005">
        <ele>209.4</ele>
        <time>2022-05-28T12:07:39Z</time>
      </trkpt>
      <trkpt lat="46.60368" lon="5.41012">
        <ele>210</ele>
        <time>2022-05-28T12:07:42Z</time>
      </trkpt>
      <trkpt lat="46.60382" lon="5.41022">
        <ele>211.2</ele>
        <time>2022-05-28T12:07:46Z</time>
      </trkpt>
      <trkpt lat="46.60391" lon="5.4103">
        <ele>211.6</ele>
        <time>2022-05-28T12:07:49Z</time>
      </trkpt>
      <trkpt lat="46.604" lon="5.41041">
        <ele>212.2</ele>
        <time>2022-05-28T12:07:52Z</time>
      </trkpt>
      <trkpt lat="46.6041" lon="5.41058">
        <ele>212.6</ele>
        <time>2022-05-28T12:07:56Z</time>
      </trkpt>
      <trkpt lat="46.60415" lon="5.41073">
        <ele>213.2</ele>
        <time>2022-05-28T12:07:59Z</time>
      </trkpt>
      <trkpt lat="46.60423" lon="5.41095">
        <ele>213.8</ele>
        <time>2022-05-28T12:08:03Z</time>
      </trkpt>
      <trkpt lat="46.60429" lon="5.41108">
        <ele>214</ele>
        <time>2022-05-28T12:08:05Z</time>
      </trkpt>
      <trkpt lat="46.60441" lon="5.41125">
        <ele>213.8</ele>
        <time>2022-05-28T12:08:08Z</time>
      </trkpt>
      <trkpt lat="46.60452" lon="5.41132">
        <ele>213.8</ele>
        <time>2022-05-28T12:08:10Z</time>
      </trkpt>
      <trkpt lat="46.60469" lon="5.41138">
        <ele>213.6</ele>
        <time>2022-05-28T12:08:13Z</time>
      </trkpt>
      <trkpt lat="46.60509" lon="5.41142">
        <ele>212.8</ele>
        <time>2022-05-28T12:08:19Z</time>
      </trkpt>
      <trkpt lat="46.60531" lon="5.41143">
        <ele>212</ele>
        <time>2022-05-28T12:08:22Z</time>
      </trkpt>
      <trkpt lat="46.60561" lon="5.41147">
        <ele>211</ele>
        <time>2022-05-28T12:08:26Z</time>
      </trkpt>
      <trkpt lat="46.60603" lon="5.41157">
        <ele>210</ele>
        <time>2022-05-28T12:08:32Z</time>
      </trkpt>
      <trkpt lat="46.60617" lon="5.41162">
        <ele>209.6</ele>
        <time>2022-05-28T12:08:34Z</time>
      </trkpt>
      <trkpt lat="46.60638" lon="5.41168">
        <ele>208.6</ele>
        <time>2022-05-28T12:08:37Z</time>
      </trkpt>
      <trkpt lat="46.60671" lon="5.4118">
        <ele>207.6</ele>
        <time>2022-05-28T12:08:42Z</time>
      </trkpt>
      <trkpt lat="46.60684" lon="5.41185">
        <ele>207.6</ele>
        <time>2022-05-28T12:08:44Z</time>
      </trkpt>
      <trkpt lat="46.6069" lon="5.41189">
        <ele>207.6</ele>
        <time>2022-05-28T12:08:45Z</time>
      </trkpt>
      <trkpt lat="46.607" lon="5.412">
        <ele>207.4</ele>
        <time>2022-05-28T12:08:47Z</time>
      </trkpt>
      <trkpt lat="46.60732" lon="5.41241">
        <ele>206.6</ele>
        <time>2022-05-28T12:08:54Z</time>
      </trkpt>
      <trkpt lat="46.60767" lon="5.4128">
        <ele>206.6</ele>
        <time>2022-05-28T12:09:02Z</time>
      </trkpt>
      <trkpt lat="46.60806" lon="5.41319">
        <ele>206.4</ele>
        <time>2022-05-28T12:09:09Z</time>
      </trkpt>
      <trkpt lat="46.60832" lon="5.41336">
        <ele>205.4</ele>
        <time>2022-05-28T12:09:13Z</time>
      </trkpt>
      <trkpt lat="46.60841" lon="5.41338">
        <ele>204.8</ele>
        <time>2022-05-28T12:09:15Z</time>
      </trkpt>
      <trkpt lat="46.60845" lon="5.41338">
        <ele>204.6</ele>
        <time>2022-05-28T12:09:16Z</time>
      </trkpt>
      <trkpt lat="46.6085" lon="5.41337">
        <ele>204</ele>
        <time>2022-05-28T12:09:17Z</time>
      </trkpt>
      <trkpt lat="46.60862" lon="5.41325">
        <ele>202.8</ele>
        <time>2022-05-28T12:09:21Z</time>
      </trkpt>
      <trkpt lat="46.60875" lon="5.41306">
        <ele>201.6</ele>
        <time>2022-05-28T12:09:25Z</time>
      </trkpt>
      <trkpt lat="46.60886" lon="5.41291">
        <ele>201.4</ele>
        <time>2022-05-28T12:09:28Z</time>
      </trkpt>
      <trkpt lat="46.60907" lon="5.41265">
        <ele>200.6</ele>
        <time>2022-05-28T12:09:33Z</time>
      </trkpt>
      <trkpt lat="46.6092" lon="5.4125">
        <ele>200.2</ele>
        <time>2022-05-28T12:09:36Z</time>
      </trkpt>
      <trkpt lat="46.60953" lon="5.41214">
        <ele>200</ele>
        <time>2022-05-28T12:09:43Z</time>
      </trkpt>
      <trkpt lat="46.60958" lon="5.41209">
        <ele>200</ele>
        <time>2022-05-28T12:09:44Z</time>
      </trkpt>
      <trkpt lat="46.61001" lon="5.41171">
        <ele>199.6</ele>
        <time>2022-05-28T12:09:52Z</time>
      </trkpt>
      <trkpt lat="46.61006" lon="5.41167">
        <ele>199.4</ele>
        <time>2022-05-28T12:09:53Z</time>
      </trkpt>
      <trkpt lat="46.61017" lon="5.4116">
        <ele>199.2</ele>
        <time>2022-05-28T12:09:55Z</time>
      </trkpt>
      <trkpt lat="46.61028" lon="5.41156">
        <ele>199.2</ele>
        <time>2022-05-28T12:09:57Z</time>
      </trkpt>
      <trkpt lat="46.61033" lon="5.41155">
        <ele>199</ele>
        <time>2022-05-28T12:09:58Z</time>
      </trkpt>
      <trkpt lat="46.61043" lon="5.41155">
        <ele>199</ele>
        <time>2022-05-28T12:10:00Z</time>
      </trkpt>
      <trkpt lat="46.61048" lon="5.41158">
        <ele>199</ele>
        <time>2022-05-28T12:10:01Z</time>
      </trkpt>
      <trkpt lat="46.61051" lon="5.41163">
        <ele>199</ele>
        <time>2022-05-28T12:10:02Z</time>
      </trkpt>
      <trkpt lat="46.61055" lon="5.41178">
        <ele>199</ele>
        <time>2022-05-28T12:10:04Z</time>
      </trkpt>
      <trkpt lat="46.61071" lon="5.41236">
        <ele>199</ele>
        <time>2022-05-28T12:10:12Z</time>
      </trkpt>
      <trkpt lat="46.61078" lon="5.41249">
        <ele>199.2</ele>
        <time>2022-05-28T12:10:14Z</time>
      </trkpt>
      <trkpt lat="46.61104" lon="5.41298">
        <ele>199.2</ele>
        <time>2022-05-28T12:10:22Z</time>
      </trkpt>
      <trkpt lat="46.61115" lon="5.41334">
        <ele>199.2</ele>
        <time>2022-05-28T12:10:27Z</time>
      </trkpt>
      <trkpt lat="46.6112" lon="5.41381">
        <ele>198.6</ele>
        <time>2022-05-28T12:10:33Z</time>
      </trkpt>
      <trkpt lat="46.61121" lon="5.41389">
        <ele>198.6</ele>
        <time>2022-05-28T12:10:34Z</time>
      </trkpt>
      <trkpt lat="46.61123" lon="5.41414">
        <ele>198.4</ele>
        <time>2022-05-28T12:10:37Z</time>
      </trkpt>
      <trkpt lat="46.61128" lon="5.41438">
        <ele>198.2</ele>
        <time>2022-05-28T12:10:40Z</time>
      </trkpt>
      <trkpt lat="46.61145" lon="5.4149">
        <ele>198.8</ele>
        <time>2022-05-28T12:10:47Z</time>
      </trkpt>
      <trkpt lat="46.6117" lon="5.41535">
        <ele>199</ele>
        <time>2022-05-28T12:10:54Z</time>
      </trkpt>
      <trkpt lat="46.61209" lon="5.41596">
        <ele>199</ele>
        <time>2022-05-28T12:11:04Z</time>
      </trkpt>
      <trkpt lat="46.61232" lon="5.41643">
        <ele>199</ele>
        <time>2022-05-28T12:11:11Z</time>
      </trkpt>
      <trkpt lat="46.61245" lon="5.41671">
        <ele>199.2</ele>
        <time>2022-05-28T12:11:15Z</time>
      </trkpt>
      <trkpt lat="46.61258" lon="5.41696">
        <ele>199</ele>
        <time>2022-05-28T12:11:19Z</time>
      </trkpt>
      <trkpt lat="46.61277" lon="5.41726">
        <ele>199</ele>
        <time>2022-05-28T12:11:24Z</time>
      </trkpt>
      <trkpt lat="46.61292" lon="5.41748">
        <ele>198.8</ele>
        <time>2022-05-28T12:11:28Z</time>
      </trkpt>
      <trkpt lat="46.61332" lon="5.41803">
        <ele>198.8</ele>
        <time>2022-05-28T12:11:38Z</time>
      </trkpt>
      <trkpt lat="46.61359" lon="5.41839">
        <ele>199.6</ele>
        <time>2022-05-28T12:11:45Z</time>
      </trkpt>
      <trkpt lat="46.61363" lon="5.41844">
        <ele>199.6</ele>
        <time>2022-05-28T12:11:46Z</time>
      </trkpt>
      <trkpt lat="46.61386" lon="5.41871">
        <ele>200.2</ele>
        <time>2022-05-28T12:11:52Z</time>
      </trkpt>
      <trkpt lat="46.61405" lon="5.41894">
        <ele>200.4</ele>
        <time>2022-05-28T12:11:57Z</time>
      </trkpt>
      <trkpt lat="46.61408" lon="5.41899">
        <ele>200.4</ele>
        <time>2022-05-28T12:11:58Z</time>
      </trkpt>
      <trkpt lat="46.61432" lon="5.4195">
        <ele>200</ele>
        <time>2022-05-28T12:12:06Z</time>
      </trkpt>
      <trkpt lat="46.61462" lon="5.42016">
        <ele>200.6</ele>
        <time>2022-05-28T12:12:16Z</time>
      </trkpt>
      <trkpt lat="46.61476" lon="5.42043">
        <ele>200.8</ele>
        <time>2022-05-28T12:12:20Z</time>
      </trkpt>
      <trkpt lat="46.61484" lon="5.42054">
        <ele>200.8</ele>
        <time>2022-05-28T12:12:22Z</time>
      </trkpt>
      <trkpt lat="46.61504" lon="5.42081">
        <ele>200.6</ele>
        <time>2022-05-28T12:12:27Z</time>
      </trkpt>
      <trkpt lat="46.6151" lon="5.42093">
        <ele>200.4</ele>
        <time>2022-05-28T12:12:29Z</time>
      </trkpt>
      <trkpt lat="46.61532" lon="5.42158">
        <ele>200.8</ele>
        <time>2022-05-28T12:12:38Z</time>
      </trkpt>
      <trkpt lat="46.6155" lon="5.42225">
        <ele>201</ele>
        <time>2022-05-28T12:12:47Z</time>
      </trkpt>
      <trkpt lat="46.61555" lon="5.42249">
        <ele>201</ele>
        <time>2022-05-28T12:12:50Z</time>
      </trkpt>
      <trkpt lat="46.61563" lon="5.42303">
        <ele>201</ele>
        <time>2022-05-28T12:12:57Z</time>
      </trkpt>
      <trkpt lat="46.6157" lon="5.42375">
        <ele>201.6</ele>
        <time>2022-05-28T12:13:06Z</time>
      </trkpt>
      <trkpt lat="46.61573" lon="5.42398">
        <ele>201.6</ele>
        <time>2022-05-28T12:13:08Z</time>
      </trkpt>
      <trkpt lat="46.61576" lon="5.42413">
        <ele>201.4</ele>
        <time>2022-05-28T12:13:10Z</time>
      </trkpt>
      <trkpt lat="46.61578" lon="5.42421">
        <ele>201.4</ele>
        <time>2022-05-28T12:13:12Z</time>
      </trkpt>
      <trkpt lat="46.61582" lon="5.42435">
        <ele>201.4</ele>
        <time>2022-05-28T12:13:13Z</time>
      </trkpt>
      <trkpt lat="46.6159" lon="5.42455">
        <ele>201.4</ele>
        <time>2022-05-28T12:13:17Z</time>
      </trkpt>
      <trkpt lat="46.61607" lon="5.42499">
        <ele>202</ele>
        <time>2022-05-28T12:13:23Z</time>
      </trkpt>
      <trkpt lat="46.61613" lon="5.42508">
        <ele>202.2</ele>
        <time>2022-05-28T12:13:25Z</time>
      </trkpt>
      <trkpt lat="46.61636" lon="5.42527">
        <ele>203</ele>
        <time>2022-05-28T12:13:31Z</time>
      </trkpt>
      <trkpt lat="46.6164" lon="5.4253">
        <ele>203</ele>
        <time>2022-05-28T12:13:32Z</time>
      </trkpt>
      <trkpt lat="46.61665" lon="5.42547">
        <ele>204</ele>
        <time>2022-05-28T12:13:39Z</time>
      </trkpt>
      <trkpt lat="46.61676" lon="5.42555">
        <ele>204.4</ele>
        <time>2022-05-28T12:13:41Z</time>
      </trkpt>
      <trkpt lat="46.61689" lon="5.42567">
        <ele>205.2</ele>
        <time>2022-05-28T12:13:45Z</time>
      </trkpt>
      <trkpt lat="46.61703" lon="5.42582">
        <ele>206.4</ele>
        <time>2022-05-28T12:13:49Z</time>
      </trkpt>
      <trkpt lat="46.61724" lon="5.42606">
        <ele>207.6</ele>
        <time>2022-05-28T12:13:55Z</time>
      </trkpt>
      <trkpt lat="46.61728" lon="5.42612">
        <ele>207.8</ele>
        <time>2022-05-28T12:13:56Z</time>
      </trkpt>
      <trkpt lat="46.6173" lon="5.42617">
        <ele>208</ele>
        <time>2022-05-28T12:13:57Z</time>
      </trkpt>
      <trkpt lat="46.61734" lon="5.42628">
        <ele>208.2</ele>
        <time>2022-05-28T12:13:59Z</time>
      </trkpt>
      <trkpt lat="46.61736" lon="5.42634">
        <ele>208.4</ele>
        <time>2022-05-28T12:14:01Z</time>
      </trkpt>
      <trkpt lat="46.61736" lon="5.42646">
        <ele>208.6</ele>
        <time>2022-05-28T12:14:02Z</time>
      </trkpt>
      <trkpt lat="46.61735" lon="5.42652">
        <ele>208.6</ele>
        <time>2022-05-28T12:14:03Z</time>
      </trkpt>
      <trkpt lat="46.61732" lon="5.42657">
        <ele>208.8</ele>
        <time>2022-05-28T12:14:04Z</time>
      </trkpt>
      <trkpt lat="46.61723" lon="5.42659">
        <ele>208.8</ele>
        <time>2022-05-28T12:14:06Z</time>
      </trkpt>
      <trkpt lat="46.61717" lon="5.42659">
        <ele>208.8</ele>
        <time>2022-05-28T12:14:07Z</time>
      </trkpt>
      <trkpt lat="46.61692" lon="5.4266">
        <ele>208.6</ele>
        <time>2022-05-28T12:14:11Z</time>
      </trkpt>
      <trkpt lat="46.61686" lon="5.42663">
        <ele>208.6</ele>
        <time>2022-05-28T12:14:12Z</time>
      </trkpt>
      <trkpt lat="46.61672" lon="5.42672">
        <ele>207.8</ele>
        <time>2022-05-28T12:14:14Z</time>
      </trkpt>
      <trkpt lat="46.61666" lon="5.42678">
        <ele>207.6</ele>
        <time>2022-05-28T12:14:15Z</time>
      </trkpt>
      <trkpt lat="46.61659" lon="5.42685">
        <ele>207.2</ele>
        <time>2022-05-28T12:14:16Z</time>
      </trkpt>
      <trkpt lat="46.61647" lon="5.42696">
        <ele>206.2</ele>
        <time>2022-05-28T12:14:18Z</time>
      </trkpt>
      <trkpt lat="46.61625" lon="5.42716">
        <ele>205</ele>
        <time>2022-05-28T12:14:21Z</time>
      </trkpt>
      <trkpt lat="46.61617" lon="5.42722">
        <ele>204.8</ele>
        <time>2022-05-28T12:14:22Z</time>
      </trkpt>
      <trkpt lat="46.61567" lon="5.42765">
        <ele>203.8</ele>
        <time>2022-05-28T12:14:29Z</time>
      </trkpt>
      <trkpt lat="46.6156" lon="5.4277">
        <ele>203.8</ele>
        <time>2022-05-28T12:14:30Z</time>
      </trkpt>
      <trkpt lat="46.61522" lon="5.428">
        <ele>202.8</ele>
        <time>2022-05-28T12:14:36Z</time>
      </trkpt>
      <trkpt lat="46.61474" lon="5.42837">
        <ele>202.2</ele>
        <time>2022-05-28T12:14:44Z</time>
      </trkpt>
      <trkpt lat="46.61435" lon="5.42875">
        <ele>201.6</ele>
        <time>2022-05-28T12:14:51Z</time>
      </trkpt>
      <trkpt lat="46.6143" lon="5.42881">
        <ele>201.6</ele>
        <time>2022-05-28T12:14:52Z</time>
      </trkpt>
      <trkpt lat="46.61415" lon="5.429">
        <ele>201.4</ele>
        <time>2022-05-28T12:14:55Z</time>
      </trkpt>
      <trkpt lat="46.61401" lon="5.42921">
        <ele>201.6</ele>
        <time>2022-05-28T12:14:58Z</time>
      </trkpt>
      <trkpt lat="46.61373" lon="5.42961">
        <ele>202.4</ele>
        <time>2022-05-28T12:15:05Z</time>
      </trkpt>
      <trkpt lat="46.61362" lon="5.42973">
        <ele>203.2</ele>
        <time>2022-05-28T12:15:08Z</time>
      </trkpt>
      <trkpt lat="46.61347" lon="5.42989">
        <ele>204.2</ele>
        <time>2022-05-28T12:15:12Z</time>
      </trkpt>
      <trkpt lat="46.61338" lon="5.43003">
        <ele>205</ele>
        <time>2022-05-28T12:15:15Z</time>
      </trkpt>
      <trkpt lat="46.61337" lon="5.43007">
        <ele>205.4</ele>
        <time>2022-05-28T12:15:16Z</time>
      </trkpt>
      <trkpt lat="46.61335" lon="5.43013">
        <ele>205.6</ele>
        <time>2022-05-28T12:15:17Z</time>
      </trkpt>
      <trkpt lat="46.61335" lon="5.43026">
        <ele>206.2</ele>
        <time>2022-05-28T12:15:19Z</time>
      </trkpt>
      <trkpt lat="46.61338" lon="5.43036">
        <ele>206.6</ele>
        <time>2022-05-28T12:15:21Z</time>
      </trkpt>
      <trkpt lat="46.61348" lon="5.43059">
        <ele>207.6</ele>
        <time>2022-05-28T12:15:25Z</time>
      </trkpt>
      <trkpt lat="46.61351" lon="5.43064">
        <ele>207.8</ele>
        <time>2022-05-28T12:15:26Z</time>
      </trkpt>
      <trkpt lat="46.61359" lon="5.43073">
        <ele>208.2</ele>
        <time>2022-05-28T12:15:28Z</time>
      </trkpt>
      <trkpt lat="46.61374" lon="5.43088">
        <ele>208.6</ele>
        <time>2022-05-28T12:15:31Z</time>
      </trkpt>
      <trkpt lat="46.61384" lon="5.43099">
        <ele>209</ele>
        <time>2022-05-28T12:15:33Z</time>
      </trkpt>
      <trkpt lat="46.61389" lon="5.43106">
        <ele>209</ele>
        <time>2022-05-28T12:15:34Z</time>
      </trkpt>
      <trkpt lat="46.61405" lon="5.43136">
        <ele>208.6</ele>
        <time>2022-05-28T12:15:38Z</time>
      </trkpt>
      <trkpt lat="46.61422" lon="5.43178">
        <ele>207.6</ele>
        <time>2022-05-28T12:15:43Z</time>
      </trkpt>
      <trkpt lat="46.61425" lon="5.43188">
        <ele>207.2</ele>
        <time>2022-05-28T12:15:44Z</time>
      </trkpt>
      <trkpt lat="46.61425" lon="5.43197">
        <ele>207</ele>
        <time>2022-05-28T12:15:45Z</time>
      </trkpt>
      <trkpt lat="46.61421" lon="5.43216">
        <ele>206.4</ele>
        <time>2022-05-28T12:15:47Z</time>
      </trkpt>
      <trkpt lat="46.61413" lon="5.43232">
        <ele>206.2</ele>
        <time>2022-05-28T12:15:49Z</time>
      </trkpt>
      <trkpt lat="46.61404" lon="5.43246">
        <ele>206</ele>
        <time>2022-05-28T12:15:51Z</time>
      </trkpt>
      <trkpt lat="46.61373" lon="5.43306">
        <ele>206</ele>
        <time>2022-05-28T12:15:59Z</time>
      </trkpt>
      <trkpt lat="46.61355" lon="5.4336">
        <ele>206.2</ele>
        <time>2022-05-28T12:16:06Z</time>
      </trkpt>
      <trkpt lat="46.61352" lon="5.43387">
        <ele>206.2</ele>
        <time>2022-05-28T12:16:09Z</time>
      </trkpt>
      <trkpt lat="46.61353" lon="5.43406">
        <ele>206.2</ele>
        <time>2022-05-28T12:16:11Z</time>
      </trkpt>
      <trkpt lat="46.61358" lon="5.43483">
        <ele>206.2</ele>
        <time>2022-05-28T12:16:20Z</time>
      </trkpt>
      <trkpt lat="46.61353" lon="5.43563">
        <ele>206.8</ele>
        <time>2022-05-28T12:16:29Z</time>
      </trkpt>
      <trkpt lat="46.6135" lon="5.43599">
        <ele>206.8</ele>
        <time>2022-05-28T12:16:33Z</time>
      </trkpt>
      <trkpt lat="46.6135" lon="5.4364">
        <ele>207</ele>
        <time>2022-05-28T12:16:38Z</time>
      </trkpt>
      <trkpt lat="46.6135" lon="5.43675">
        <ele>207.4</ele>
        <time>2022-05-28T12:16:42Z</time>
      </trkpt>
      <trkpt lat="46.61351" lon="5.43728">
        <ele>207.6</ele>
        <time>2022-05-28T12:16:48Z</time>
      </trkpt>
      <trkpt lat="46.61358" lon="5.4381">
        <ele>207.8</ele>
        <time>2022-05-28T12:16:58Z</time>
      </trkpt>
      <trkpt lat="46.61369" lon="5.43872">
        <ele>208.6</ele>
        <time>2022-05-28T12:17:06Z</time>
      </trkpt>
      <trkpt lat="46.61374" lon="5.43903">
        <ele>209.8</ele>
        <time>2022-05-28T12:17:10Z</time>
      </trkpt>
      <trkpt lat="46.61378" lon="5.43936">
        <ele>211</ele>
        <time>2022-05-28T12:17:14Z</time>
      </trkpt>
      <trkpt lat="46.61389" lon="5.44007">
        <ele>212</ele>
        <time>2022-05-28T12:17:22Z</time>
      </trkpt>
      <trkpt lat="46.61388" lon="5.44051">
        <ele>212</ele>
        <time>2022-05-28T12:17:27Z</time>
      </trkpt>
      <trkpt lat="46.61379" lon="5.44114">
        <ele>211.6</ele>
        <time>2022-05-28T12:17:34Z</time>
      </trkpt>
      <trkpt lat="46.61362" lon="5.44155">
        <ele>211.2</ele>
        <time>2022-05-28T12:17:40Z</time>
      </trkpt>
      <trkpt lat="46.61336" lon="5.44211">
        <ele>211.2</ele>
        <time>2022-05-28T12:17:48Z</time>
      </trkpt>
      <trkpt lat="46.61326" lon="5.44252">
        <ele>211.2</ele>
        <time>2022-05-28T12:17:53Z</time>
      </trkpt>
      <trkpt lat="46.61323" lon="5.44269">
        <ele>211.2</ele>
        <time>2022-05-28T12:17:55Z</time>
      </trkpt>
      <trkpt lat="46.61321" lon="5.44304">
        <ele>211</ele>
        <time>2022-05-28T12:17:59Z</time>
      </trkpt>
      <trkpt lat="46.6132" lon="5.44313">
        <ele>211</ele>
        <time>2022-05-28T12:18:00Z</time>
      </trkpt>
      <trkpt lat="46.61317" lon="5.44339">
        <ele>211</ele>
        <time>2022-05-28T12:18:03Z</time>
      </trkpt>
      <trkpt lat="46.61307" lon="5.444">
        <ele>211.4</ele>
        <time>2022-05-28T12:18:11Z</time>
      </trkpt>
      <trkpt lat="46.61296" lon="5.44455">
        <ele>211.8</ele>
        <time>2022-05-28T12:18:18Z</time>
      </trkpt>
      <trkpt lat="46.61289" lon="5.44485">
        <ele>212</ele>
        <time>2022-05-28T12:18:22Z</time>
      </trkpt>
      <trkpt lat="46.61281" lon="5.4452">
        <ele>212.8</ele>
        <time>2022-05-28T12:18:27Z</time>
      </trkpt>
      <trkpt lat="46.61278" lon="5.44532">
        <ele>213.2</ele>
        <time>2022-05-28T12:18:29Z</time>
      </trkpt>
      <trkpt lat="46.61268" lon="5.44572">
        <ele>214.2</ele>
        <time>2022-05-28T12:18:35Z</time>
      </trkpt>
      <trkpt lat="46.61267" lon="5.44578">
        <ele>214.2</ele>
        <time>2022-05-28T12:18:36Z</time>
      </trkpt>
      <trkpt lat="46.61256" lon="5.44624">
        <ele>215.2</ele>
        <time>2022-05-28T12:18:43Z</time>
      </trkpt>
      <trkpt lat="46.61252" lon="5.44642">
        <ele>215.8</ele>
        <time>2022-05-28T12:18:46Z</time>
      </trkpt>
      <trkpt lat="46.6125" lon="5.44655">
        <ele>216.6</ele>
        <time>2022-05-28T12:18:48Z</time>
      </trkpt>
      <trkpt lat="46.61247" lon="5.44673">
        <ele>217.6</ele>
        <time>2022-05-28T12:18:51Z</time>
      </trkpt>
      <trkpt lat="46.61243" lon="5.44695">
        <ele>218.6</ele>
        <time>2022-05-28T12:18:55Z</time>
      </trkpt>
      <trkpt lat="46.61242" lon="5.44706">
        <ele>219</ele>
        <time>2022-05-28T12:18:57Z</time>
      </trkpt>
      <trkpt lat="46.61238" lon="5.44737">
        <ele>219.8</ele>
        <time>2022-05-28T12:19:02Z</time>
      </trkpt>
      <trkpt lat="46.61234" lon="5.44779">
        <ele>220.8</ele>
        <time>2022-05-28T12:19:09Z</time>
      </trkpt>
      <trkpt lat="46.61232" lon="5.44791">
        <ele>221.4</ele>
        <time>2022-05-28T12:19:11Z</time>
      </trkpt>
      <trkpt lat="46.61231" lon="5.44797">
        <ele>221.8</ele>
        <time>2022-05-28T12:19:12Z</time>
      </trkpt>
      <trkpt lat="46.61223" lon="5.44827">
        <ele>222.8</ele>
        <time>2022-05-28T12:19:17Z</time>
      </trkpt>
      <trkpt lat="46.61217" lon="5.44844">
        <ele>223.4</ele>
        <time>2022-05-28T12:19:20Z</time>
      </trkpt>
      <trkpt lat="46.6121" lon="5.4486">
        <ele>223.8</ele>
        <time>2022-05-28T12:19:23Z</time>
      </trkpt>
      <trkpt lat="46.61205" lon="5.4487">
        <ele>224</ele>
        <time>2022-05-28T12:19:25Z</time>
      </trkpt>
      <trkpt lat="46.61201" lon="5.44875">
        <ele>224.2</ele>
        <time>2022-05-28T12:19:26Z</time>
      </trkpt>
      <trkpt lat="46.61198" lon="5.4488">
        <ele>224.2</ele>
        <time>2022-05-28T12:19:27Z</time>
      </trkpt>
      <trkpt lat="46.61169" lon="5.44907">
        <ele>224.8</ele>
        <time>2022-05-28T12:19:34Z</time>
      </trkpt>
      <trkpt lat="46.61136" lon="5.44938">
        <ele>225</ele>
        <time>2022-05-28T12:19:42Z</time>
      </trkpt>
      <trkpt lat="46.61128" lon="5.44948">
        <ele>225</ele>
        <time>2022-05-28T12:19:44Z</time>
      </trkpt>
      <trkpt lat="46.61122" lon="5.44959">
        <ele>225</ele>
        <time>2022-05-28T12:19:46Z</time>
      </trkpt>
      <trkpt lat="46.61119" lon="5.44965">
        <ele>225.2</ele>
        <time>2022-05-28T12:19:47Z</time>
      </trkpt>
      <trkpt lat="46.61109" lon="5.45007">
        <ele>225.8</ele>
        <time>2022-05-28T12:19:53Z</time>
      </trkpt>
      <trkpt lat="46.61104" lon="5.45046">
        <ele>226.2</ele>
        <time>2022-05-28T12:19:58Z</time>
      </trkpt>
      <trkpt lat="46.61101" lon="5.45085">
        <ele>226.6</ele>
        <time>2022-05-28T12:20:03Z</time>
      </trkpt>
      <trkpt lat="46.61093" lon="5.45153">
        <ele>227.4</ele>
        <time>2022-05-28T12:20:12Z</time>
      </trkpt>
      <trkpt lat="46.61092" lon="5.45161">
        <ele>227.6</ele>
        <time>2022-05-28T12:20:13Z</time>
      </trkpt>
      <trkpt lat="46.61084" lon="5.45203">
        <ele>228</ele>
        <time>2022-05-28T12:20:18Z</time>
      </trkpt>
      <trkpt lat="46.61078" lon="5.45226">
        <ele>228</ele>
        <time>2022-05-28T12:20:21Z</time>
      </trkpt>
      <trkpt lat="46.6106" lon="5.45292">
        <ele>228</ele>
        <time>2022-05-28T12:20:29Z</time>
      </trkpt>
      <trkpt lat="46.61048" lon="5.45356">
        <ele>228.8</ele>
        <time>2022-05-28T12:20:37Z</time>
      </trkpt>
      <trkpt lat="46.61047" lon="5.45364">
        <ele>229</ele>
        <time>2022-05-28T12:20:38Z</time>
      </trkpt>
      <trkpt lat="46.61043" lon="5.45422">
        <ele>229.8</ele>
        <time>2022-05-28T12:20:45Z</time>
      </trkpt>
      <trkpt lat="46.61037" lon="5.45497">
        <ele>230.2</ele>
        <time>2022-05-28T12:20:54Z</time>
      </trkpt>
      <trkpt lat="46.61034" lon="5.45551">
        <ele>230.8</ele>
        <time>2022-05-28T12:21:00Z</time>
      </trkpt>
      <trkpt lat="46.61033" lon="5.4556">
        <ele>231</ele>
        <time>2022-05-28T12:21:01Z</time>
      </trkpt>
      <trkpt lat="46.61018" lon="5.45633">
        <ele>231.8</ele>
        <time>2022-05-28T12:21:10Z</time>
      </trkpt>
      <trkpt lat="46.61013" lon="5.45656">
        <ele>232</ele>
        <time>2022-05-28T12:21:13Z</time>
      </trkpt>
      <trkpt lat="46.61003" lon="5.45698">
        <ele>232.2</ele>
        <time>2022-05-28T12:21:18Z</time>
      </trkpt>
      <trkpt lat="46.60987" lon="5.4576">
        <ele>232.4</ele>
        <time>2022-05-28T12:21:26Z</time>
      </trkpt>
      <trkpt lat="46.60965" lon="5.45835">
        <ele>232.6</ele>
        <time>2022-05-28T12:21:35Z</time>
      </trkpt>
      <trkpt lat="46.6096" lon="5.45851">
        <ele>232.6</ele>
        <time>2022-05-28T12:21:37Z</time>
      </trkpt>
      <trkpt lat="46.60946" lon="5.45924">
        <ele>232.4</ele>
        <time>2022-05-28T12:21:45Z</time>
      </trkpt>
      <trkpt lat="46.60937" lon="5.45995">
        <ele>232.2</ele>
        <time>2022-05-28T12:21:52Z</time>
      </trkpt>
      <trkpt lat="46.60928" lon="5.46023">
        <ele>232</ele>
        <time>2022-05-28T12:21:55Z</time>
      </trkpt>
      <trkpt lat="46.60925" lon="5.4603">
        <ele>232.2</ele>
        <time>2022-05-28T12:21:56Z</time>
      </trkpt>
      <trkpt lat="46.60895" lon="5.46079">
        <ele>231.4</ele>
        <time>2022-05-28T12:22:02Z</time>
      </trkpt>
      <trkpt lat="46.60883" lon="5.46097">
        <ele>231.2</ele>
        <time>2022-05-28T12:22:04Z</time>
      </trkpt>
      <trkpt lat="46.60853" lon="5.46139">
        <ele>230.2</ele>
        <time>2022-05-28T12:22:09Z</time>
      </trkpt>
      <trkpt lat="46.60847" lon="5.46148">
        <ele>229.8</ele>
        <time>2022-05-28T12:22:10Z</time>
      </trkpt>
      <trkpt lat="46.60816" lon="5.46185">
        <ele>228.6</ele>
        <time>2022-05-28T12:22:14Z</time>
      </trkpt>
      <trkpt lat="46.60809" lon="5.46192">
        <ele>228.2</ele>
        <time>2022-05-28T12:22:15Z</time>
      </trkpt>
      <trkpt lat="46.60791" lon="5.4621">
        <ele>227.6</ele>
        <time>2022-05-28T12:22:17Z</time>
      </trkpt>
      <trkpt lat="46.60767" lon="5.46237">
        <ele>226.4</ele>
        <time>2022-05-28T12:22:20Z</time>
      </trkpt>
      <trkpt lat="46.60757" lon="5.46249">
        <ele>226.2</ele>
        <time>2022-05-28T12:22:21Z</time>
      </trkpt>
      <trkpt lat="46.60749" lon="5.46259">
        <ele>225</ele>
        <time>2022-05-28T12:22:22Z</time>
      </trkpt>
      <trkpt lat="46.60734" lon="5.46278">
        <ele>223.8</ele>
        <time>2022-05-28T12:22:24Z</time>
      </trkpt>
      <trkpt lat="46.60705" lon="5.46312">
        <ele>223</ele>
        <time>2022-05-28T12:22:27Z</time>
      </trkpt>
      <trkpt lat="46.60697" lon="5.46319">
        <ele>222.8</ele>
        <time>2022-05-28T12:22:28Z</time>
      </trkpt>
      <trkpt lat="46.60677" lon="5.46336">
        <ele>221.8</ele>
        <time>2022-05-28T12:22:30Z</time>
      </trkpt>
      <trkpt lat="46.60658" lon="5.46356">
        <ele>220.8</ele>
        <time>2022-05-28T12:22:32Z</time>
      </trkpt>
      <trkpt lat="46.6064" lon="5.46382">
        <ele>219.6</ele>
        <time>2022-05-28T12:22:34Z</time>
      </trkpt>
      <trkpt lat="46.60627" lon="5.46405">
        <ele>219</ele>
        <time>2022-05-28T12:22:36Z</time>
      </trkpt>
      <trkpt lat="46.60615" lon="5.46431">
        <ele>218.6</ele>
        <time>2022-05-28T12:22:38Z</time>
      </trkpt>
      <trkpt lat="46.60602" lon="5.46455">
        <ele>217.8</ele>
        <time>2022-05-28T12:22:40Z</time>
      </trkpt>
      <trkpt lat="46.60586" lon="5.46473">
        <ele>217.4</ele>
        <time>2022-05-28T12:22:42Z</time>
      </trkpt>
      <trkpt lat="46.60577" lon="5.4648">
        <ele>217.2</ele>
        <time>2022-05-28T12:22:43Z</time>
      </trkpt>
      <trkpt lat="46.60542" lon="5.46498">
        <ele>216.8</ele>
        <time>2022-05-28T12:22:47Z</time>
      </trkpt>
      <trkpt lat="46.60534" lon="5.46502">
        <ele>216.6</ele>
        <time>2022-05-28T12:22:48Z</time>
      </trkpt>
      <trkpt lat="46.60521" lon="5.46514">
        <ele>216.4</ele>
        <time>2022-05-28T12:22:50Z</time>
      </trkpt>
      <trkpt lat="46.60515" lon="5.46522">
        <ele>216.4</ele>
        <time>2022-05-28T12:22:51Z</time>
      </trkpt>
      <trkpt lat="46.60494" lon="5.46556">
        <ele>216</ele>
        <time>2022-05-28T12:22:55Z</time>
      </trkpt>
      <trkpt lat="46.60466" lon="5.46614">
        <ele>216.2</ele>
        <time>2022-05-28T12:23:02Z</time>
      </trkpt>
      <trkpt lat="46.60452" lon="5.46639">
        <ele>216.6</ele>
        <time>2022-05-28T12:23:06Z</time>
      </trkpt>
      <trkpt lat="46.6044" lon="5.46651">
        <ele>216.6</ele>
        <time>2022-05-28T12:23:11Z</time>
      </trkpt>
      <trkpt lat="46.60431" lon="5.46651">
        <ele>217</ele>
        <time>2022-05-28T12:23:17Z</time>
      </trkpt>
      <trkpt lat="46.60426" lon="5.46663">
        <ele>217</ele>
        <time>2022-05-28T12:23:21Z</time>
      </trkpt>
      <trkpt lat="46.60426" lon="5.46683">
        <ele>217.2</ele>
        <time>2022-05-28T12:23:24Z</time>
      </trkpt>
      <trkpt lat="46.60425" lon="5.46688">
        <ele>217.2</ele>
        <time>2022-05-28T12:23:25Z</time>
      </trkpt>
      <trkpt lat="46.60423" lon="5.46725">
        <ele>217.2</ele>
        <time>2022-05-28T12:23:30Z</time>
      </trkpt>
      <trkpt lat="46.60423" lon="5.46731">
        <ele>217.2</ele>
        <time>2022-05-28T12:23:31Z</time>
      </trkpt>
      <trkpt lat="46.60422" lon="5.4674">
        <ele>217.2</ele>
        <time>2022-05-28T12:23:32Z</time>
      </trkpt>
      <trkpt lat="46.60422" lon="5.46763">
        <ele>217.2</ele>
        <time>2022-05-28T12:23:35Z</time>
      </trkpt>
      <trkpt lat="46.60421" lon="5.46769">
        <ele>217.2</ele>
        <time>2022-05-28T12:23:36Z</time>
      </trkpt>
      <trkpt lat="46.60417" lon="5.46805">
        <ele>217.6</ele>
        <time>2022-05-28T12:23:41Z</time>
      </trkpt>
      <trkpt lat="46.60414" lon="5.46819">
        <ele>217.6</ele>
        <time>2022-05-28T12:23:43Z</time>
      </trkpt>
      <trkpt lat="46.60401" lon="5.46865">
        <ele>218.6</ele>
        <time>2022-05-28T12:23:50Z</time>
      </trkpt>
      <trkpt lat="46.604" lon="5.46871">
        <ele>218.6</ele>
        <time>2022-05-28T12:23:51Z</time>
      </trkpt>
      <trkpt lat="46.6039" lon="5.46906">
        <ele>219</ele>
        <time>2022-05-28T12:23:57Z</time>
      </trkpt>
      <trkpt lat="46.60389" lon="5.46912">
        <ele>219</ele>
        <time>2022-05-28T12:23:58Z</time>
      </trkpt>
      <trkpt lat="46.6038" lon="5.46946">
        <ele>219.2</ele>
        <time>2022-05-28T12:24:05Z</time>
      </trkpt>
      <trkpt lat="46.60377" lon="5.46953">
        <ele>219.4</ele>
        <time>2022-05-28T12:24:07Z</time>
      </trkpt>
      <trkpt lat="46.60374" lon="5.46957">
        <ele>219.4</ele>
        <time>2022-05-28T12:24:09Z</time>
      </trkpt>
      <trkpt lat="46.60368" lon="5.46969">
        <ele>219.6</ele>
        <time>2022-05-28T12:24:14Z</time>
      </trkpt>
      <trkpt lat="46.60367" lon="5.46971">
        <ele>219.6</ele>
        <time>2022-05-28T12:24:15Z</time>
      </trkpt>
      <trkpt lat="46.60367" lon="5.46973">
        <ele>219.6</ele>
        <time>2022-05-28T12:24:18Z</time>
      </trkpt>
      <trkpt lat="46.60367" lon="5.46973">
        <ele>219.6</ele>
        <time>2022-05-28T12:24:19Z</time>
      </trkpt>
      <trkpt lat="46.60368" lon="5.4698">
        <ele>219</ele>
        <time>2022-05-28T12:25:24Z</time>
      </trkpt>
      <trkpt lat="46.60367" lon="5.46986">
        <ele>219</ele>
        <time>2022-05-28T12:25:26Z</time>
      </trkpt>
      <trkpt lat="46.60361" lon="5.47008">
        <ele>219.6</ele>
        <time>2022-05-28T12:25:31Z</time>
      </trkpt>
      <trkpt lat="46.60353" lon="5.47048">
        <ele>220.4</ele>
        <time>2022-05-28T12:25:38Z</time>
      </trkpt>
      <trkpt lat="46.60352" lon="5.47054">
        <ele>220.6</ele>
        <time>2022-05-28T12:25:39Z</time>
      </trkpt>
      <trkpt lat="46.60349" lon="5.47071">
        <ele>220.8</ele>
        <time>2022-05-28T12:25:42Z</time>
      </trkpt>
      <trkpt lat="46.60345" lon="5.47089">
        <ele>221.2</ele>
        <time>2022-05-28T12:25:45Z</time>
      </trkpt>
      <trkpt lat="46.60337" lon="5.47141">
        <ele>221.8</ele>
        <time>2022-05-28T12:25:54Z</time>
      </trkpt>
      <trkpt lat="46.60334" lon="5.47153">
        <ele>222</ele>
        <time>2022-05-28T12:25:56Z</time>
      </trkpt>
      <trkpt lat="46.6033" lon="5.47182">
        <ele>223.2</ele>
        <time>2022-05-28T12:26:01Z</time>
      </trkpt>
      <trkpt lat="46.60328" lon="5.47194">
        <ele>223.4</ele>
        <time>2022-05-28T12:26:03Z</time>
      </trkpt>
      <trkpt lat="46.60325" lon="5.47218">
        <ele>224.4</ele>
        <time>2022-05-28T12:26:07Z</time>
      </trkpt>
      <trkpt lat="46.60318" lon="5.4725">
        <ele>225</ele>
        <time>2022-05-28T12:26:12Z</time>
      </trkpt>
      <trkpt lat="46.60307" lon="5.4729">
        <ele>225.4</ele>
        <time>2022-05-28T12:26:19Z</time>
      </trkpt>
      <trkpt lat="46.60305" lon="5.47296">
        <ele>225.4</ele>
        <time>2022-05-28T12:26:20Z</time>
      </trkpt>
      <trkpt lat="46.60299" lon="5.4732">
        <ele>226.2</ele>
        <time>2022-05-28T12:26:24Z</time>
      </trkpt>
      <trkpt lat="46.60296" lon="5.47331">
        <ele>226.8</ele>
        <time>2022-05-28T12:26:26Z</time>
      </trkpt>
      <trkpt lat="46.60288" lon="5.47366">
        <ele>227.8</ele>
        <time>2022-05-28T12:26:32Z</time>
      </trkpt>
      <trkpt lat="46.60288" lon="5.47372">
        <ele>227.8</ele>
        <time>2022-05-28T12:26:33Z</time>
      </trkpt>
      <trkpt lat="46.60287" lon="5.4738">
        <ele>228</ele>
        <time>2022-05-28T12:26:34Z</time>
      </trkpt>
      <trkpt lat="46.60288" lon="5.47414">
        <ele>228.6</ele>
        <time>2022-05-28T12:26:39Z</time>
      </trkpt>
      <trkpt lat="46.60288" lon="5.47421">
        <ele>228.6</ele>
        <time>2022-05-28T12:26:40Z</time>
      </trkpt>
      <trkpt lat="46.60288" lon="5.47429">
        <ele>228.8</ele>
        <time>2022-05-28T12:26:41Z</time>
      </trkpt>
      <trkpt lat="46.60287" lon="5.47444">
        <ele>228.8</ele>
        <time>2022-05-28T12:26:43Z</time>
      </trkpt>
      <trkpt lat="46.60287" lon="5.47464">
        <ele>229</ele>
        <time>2022-05-28T12:26:46Z</time>
      </trkpt>
      <trkpt lat="46.60286" lon="5.47505">
        <ele>229.8</ele>
        <time>2022-05-28T12:26:53Z</time>
      </trkpt>
      <trkpt lat="46.60284" lon="5.4754">
        <ele>231</ele>
        <time>2022-05-28T12:26:59Z</time>
      </trkpt>
      <trkpt lat="46.60283" lon="5.47545">
        <ele>231.2</ele>
        <time>2022-05-28T12:27:00Z</time>
      </trkpt>
      <trkpt lat="46.60275" lon="5.47581">
        <ele>231.6</ele>
        <time>2022-05-28T12:27:06Z</time>
      </trkpt>
      <trkpt lat="46.60271" lon="5.47593">
        <ele>231.6</ele>
        <time>2022-05-28T12:27:08Z</time>
      </trkpt>
      <trkpt lat="46.6026" lon="5.47612">
        <ele>231.6</ele>
        <time>2022-05-28T12:27:12Z</time>
      </trkpt>
      <trkpt lat="46.60251" lon="5.47619">
        <ele>231.8</ele>
        <time>2022-05-28T12:27:14Z</time>
      </trkpt>
      <trkpt lat="46.60242" lon="5.47623">
        <ele>231.6</ele>
        <time>2022-05-28T12:27:16Z</time>
      </trkpt>
      <trkpt lat="46.60237" lon="5.47624">
        <ele>231.6</ele>
        <time>2022-05-28T12:27:17Z</time>
      </trkpt>
      <trkpt lat="46.60217" lon="5.47627">
        <ele>231.6</ele>
        <time>2022-05-28T12:27:21Z</time>
      </trkpt>
      <trkpt lat="46.60178" lon="5.47641">
        <ele>231.2</ele>
        <time>2022-05-28T12:27:28Z</time>
      </trkpt>
      <trkpt lat="46.60145" lon="5.4767">
        <ele>231.4</ele>
        <time>2022-05-28T12:27:35Z</time>
      </trkpt>
      <trkpt lat="46.60113" lon="5.47703">
        <ele>232</ele>
        <time>2022-05-28T12:27:42Z</time>
      </trkpt>
      <trkpt lat="46.60109" lon="5.47709">
        <ele>232</ele>
        <time>2022-05-28T12:27:43Z</time>
      </trkpt>
      <trkpt lat="46.60102" lon="5.4772">
        <ele>232</ele>
        <time>2022-05-28T12:27:45Z</time>
      </trkpt>
      <trkpt lat="46.60079" lon="5.47755">
        <ele>233</ele>
        <time>2022-05-28T12:27:52Z</time>
      </trkpt>
      <trkpt lat="46.60076" lon="5.4776">
        <ele>233.4</ele>
        <time>2022-05-28T12:27:53Z</time>
      </trkpt>
      <trkpt lat="46.60068" lon="5.47784">
        <ele>234.2</ele>
        <time>2022-05-28T12:27:57Z</time>
      </trkpt>
      <trkpt lat="46.60066" lon="5.47791">
        <ele>234.4</ele>
        <time>2022-05-28T12:27:58Z</time>
      </trkpt>
      <trkpt lat="46.60065" lon="5.47798">
        <ele>234.8</ele>
        <time>2022-05-28T12:27:59Z</time>
      </trkpt>
      <trkpt lat="46.60064" lon="5.47817">
        <ele>235.2</ele>
        <time>2022-05-28T12:28:02Z</time>
      </trkpt>
      <trkpt lat="46.60064" lon="5.47824">
        <ele>235.2</ele>
        <time>2022-05-28T12:28:03Z</time>
      </trkpt>
      <trkpt lat="46.60064" lon="5.4783">
        <ele>235.6</ele>
        <time>2022-05-28T12:28:04Z</time>
      </trkpt>
      <trkpt lat="46.60063" lon="5.47836">
        <ele>235.8</ele>
        <time>2022-05-28T12:28:05Z</time>
      </trkpt>
      <trkpt lat="46.60063" lon="5.47849">
        <ele>236.4</ele>
        <time>2022-05-28T12:28:07Z</time>
      </trkpt>
      <trkpt lat="46.60062" lon="5.47855">
        <ele>237</ele>
        <time>2022-05-28T12:28:08Z</time>
      </trkpt>
      <trkpt lat="46.60061" lon="5.4786">
        <ele>237.4</ele>
        <time>2022-05-28T12:28:09Z</time>
      </trkpt>
      <trkpt lat="46.60057" lon="5.47872">
        <ele>237.8</ele>
        <time>2022-05-28T12:28:11Z</time>
      </trkpt>
      <trkpt lat="46.60055" lon="5.47877">
        <ele>238.2</ele>
        <time>2022-05-28T12:28:12Z</time>
      </trkpt>
      <trkpt lat="46.60048" lon="5.47889">
        <ele>238.8</ele>
        <time>2022-05-28T12:28:14Z</time>
      </trkpt>
      <trkpt lat="46.60039" lon="5.47899">
        <ele>239</ele>
        <time>2022-05-28T12:28:16Z</time>
      </trkpt>
      <trkpt lat="46.60023" lon="5.47916">
        <ele>239</ele>
        <time>2022-05-28T12:28:19Z</time>
      </trkpt>
      <trkpt lat="46.60018" lon="5.47923">
        <ele>239</ele>
        <time>2022-05-28T12:28:20Z</time>
      </trkpt>
      <trkpt lat="46.60007" lon="5.47947">
        <ele>238.2</ele>
        <time>2022-05-28T12:28:23Z</time>
      </trkpt>
      <trkpt lat="46.60004" lon="5.47956">
        <ele>237.8</ele>
        <time>2022-05-28T12:28:24Z</time>
      </trkpt>
      <trkpt lat="46.60002" lon="5.4797">
        <ele>237.6</ele>
        <time>2022-05-28T12:28:26Z</time>
      </trkpt>
      <trkpt lat="46.60004" lon="5.47985">
        <ele>237.6</ele>
        <time>2022-05-28T12:28:28Z</time>
      </trkpt>
      <trkpt lat="46.60006" lon="5.47999">
        <ele>237.6</ele>
        <time>2022-05-28T12:28:30Z</time>
      </trkpt>
      <trkpt lat="46.6001" lon="5.48018">
        <ele>237.8</ele>
        <time>2022-05-28T12:28:33Z</time>
      </trkpt>
      <trkpt lat="46.60015" lon="5.48029">
        <ele>237.8</ele>
        <time>2022-05-28T12:28:35Z</time>
      </trkpt>
      <trkpt lat="46.60023" lon="5.48046">
        <ele>238.2</ele>
        <time>2022-05-28T12:28:38Z</time>
      </trkpt>
      <trkpt lat="46.60026" lon="5.48058">
        <ele>238.8</ele>
        <time>2022-05-28T12:28:40Z</time>
      </trkpt>
      <trkpt lat="46.60027" lon="5.48071">
        <ele>239</ele>
        <time>2022-05-28T12:28:42Z</time>
      </trkpt>
      <trkpt lat="46.60028" lon="5.48076">
        <ele>239.4</ele>
        <time>2022-05-28T12:28:43Z</time>
      </trkpt>
      <trkpt lat="46.60028" lon="5.48094">
        <ele>239.6</ele>
        <time>2022-05-28T12:28:45Z</time>
      </trkpt>
      <trkpt lat="46.60028" lon="5.48122">
        <ele>239.6</ele>
        <time>2022-05-28T12:28:48Z</time>
      </trkpt>
      <trkpt lat="46.60033" lon="5.48172">
        <ele>239</ele>
        <time>2022-05-28T12:28:52Z</time>
      </trkpt>
      <trkpt lat="46.60034" lon="5.48203">
        <ele>238.2</ele>
        <time>2022-05-28T12:28:54Z</time>
      </trkpt>
      <trkpt lat="46.60032" lon="5.48217">
        <ele>237.4</ele>
        <time>2022-05-28T12:28:55Z</time>
      </trkpt>
      <trkpt lat="46.6003" lon="5.48231">
        <ele>237</ele>
        <time>2022-05-28T12:28:56Z</time>
      </trkpt>
      <trkpt lat="46.60022" lon="5.48259">
        <ele>235.6</ele>
        <time>2022-05-28T12:28:58Z</time>
      </trkpt>
      <trkpt lat="46.60018" lon="5.48273">
        <ele>235.2</ele>
        <time>2022-05-28T12:28:59Z</time>
      </trkpt>
      <trkpt lat="46.60014" lon="5.48286">
        <ele>234.4</ele>
        <time>2022-05-28T12:29:00Z</time>
      </trkpt>
      <trkpt lat="46.60006" lon="5.48312">
        <ele>233.2</ele>
        <time>2022-05-28T12:29:02Z</time>
      </trkpt>
      <trkpt lat="46.59996" lon="5.4835">
        <ele>232.2</ele>
        <time>2022-05-28T12:29:05Z</time>
      </trkpt>
      <trkpt lat="46.59993" lon="5.48362">
        <ele>231.8</ele>
        <time>2022-05-28T12:29:06Z</time>
      </trkpt>
      <trkpt lat="46.59969" lon="5.48438">
        <ele>231.4</ele>
        <time>2022-05-28T12:29:13Z</time>
      </trkpt>
      <trkpt lat="46.59959" lon="5.48467">
        <ele>231.2</ele>
        <time>2022-05-28T12:29:16Z</time>
      </trkpt>
      <trkpt lat="46.59948" lon="5.48506">
        <ele>231</ele>
        <time>2022-05-28T12:29:20Z</time>
      </trkpt>
      <trkpt lat="46.59935" lon="5.48564">
        <ele>230.6</ele>
        <time>2022-05-28T12:29:26Z</time>
      </trkpt>
      <trkpt lat="46.59928" lon="5.48629">
        <ele>230.6</ele>
        <time>2022-05-28T12:29:33Z</time>
      </trkpt>
      <trkpt lat="46.59928" lon="5.48682">
        <ele>230.6</ele>
        <time>2022-05-28T12:29:39Z</time>
      </trkpt>
      <trkpt lat="46.59924" lon="5.48738">
        <ele>231.4</ele>
        <time>2022-05-28T12:29:46Z</time>
      </trkpt>
      <trkpt lat="46.59925" lon="5.48752">
        <ele>231.6</ele>
        <time>2022-05-28T12:29:48Z</time>
      </trkpt>
      <trkpt lat="46.59924" lon="5.48765">
        <ele>231.8</ele>
        <time>2022-05-28T12:29:50Z</time>
      </trkpt>
      <trkpt lat="46.59919" lon="5.48793">
        <ele>232</ele>
        <time>2022-05-28T12:29:54Z</time>
      </trkpt>
      <trkpt lat="46.59917" lon="5.488">
        <ele>232</ele>
        <time>2022-05-28T12:29:55Z</time>
      </trkpt>
      <trkpt lat="46.59901" lon="5.48847">
        <ele>232</ele>
        <time>2022-05-28T12:30:02Z</time>
      </trkpt>
      <trkpt lat="46.5989" lon="5.48881">
        <ele>232.2</ele>
        <time>2022-05-28T12:30:07Z</time>
      </trkpt>
      <trkpt lat="46.59884" lon="5.48902">
        <ele>232.2</ele>
        <time>2022-05-28T12:30:10Z</time>
      </trkpt>
      <trkpt lat="46.59876" lon="5.48958">
        <ele>232.6</ele>
        <time>2022-05-28T12:30:18Z</time>
      </trkpt>
      <trkpt lat="46.5987" lon="5.48997">
        <ele>233.2</ele>
        <time>2022-05-28T12:30:24Z</time>
      </trkpt>
      <trkpt lat="46.59869" lon="5.49019">
        <ele>234</ele>
        <time>2022-05-28T12:30:27Z</time>
      </trkpt>
      <trkpt lat="46.59869" lon="5.49026">
        <ele>234.4</ele>
        <time>2022-05-28T12:30:28Z</time>
      </trkpt>
      <trkpt lat="46.59871" lon="5.49047">
        <ele>235.2</ele>
        <time>2022-05-28T12:30:31Z</time>
      </trkpt>
      <trkpt lat="46.59873" lon="5.49068">
        <ele>235.8</ele>
        <time>2022-05-28T12:30:34Z</time>
      </trkpt>
      <trkpt lat="46.59882" lon="5.4913">
        <ele>236.2</ele>
        <time>2022-05-28T12:30:42Z</time>
      </trkpt>
      <trkpt lat="46.59889" lon="5.49177">
        <ele>236.2</ele>
        <time>2022-05-28T12:30:48Z</time>
      </trkpt>
      <trkpt lat="46.59893" lon="5.49194">
        <ele>235.8</ele>
        <time>2022-05-28T12:30:50Z</time>
      </trkpt>
      <trkpt lat="46.59902" lon="5.49232">
        <ele>235.6</ele>
        <time>2022-05-28T12:30:55Z</time>
      </trkpt>
      <trkpt lat="46.59902" lon="5.49249">
        <ele>235.4</ele>
        <time>2022-05-28T12:30:57Z</time>
      </trkpt>
      <trkpt lat="46.59898" lon="5.49301">
        <ele>235.2</ele>
        <time>2022-05-28T12:31:04Z</time>
      </trkpt>
      <trkpt lat="46.59899" lon="5.49318">
        <ele>235.2</ele>
        <time>2022-05-28T12:31:06Z</time>
      </trkpt>
      <trkpt lat="46.59903" lon="5.49337">
        <ele>235.4</ele>
        <time>2022-05-28T12:31:09Z</time>
      </trkpt>
      <trkpt lat="46.59914" lon="5.49376">
        <ele>236.2</ele>
        <time>2022-05-28T12:31:14Z</time>
      </trkpt>
      <trkpt lat="46.59915" lon="5.49384">
        <ele>236.2</ele>
        <time>2022-05-28T12:31:15Z</time>
      </trkpt>
      <trkpt lat="46.59918" lon="5.49398">
        <ele>236.2</ele>
        <time>2022-05-28T12:31:17Z</time>
      </trkpt>
      <trkpt lat="46.59925" lon="5.49427">
        <ele>236.4</ele>
        <time>2022-05-28T12:31:21Z</time>
      </trkpt>
      <trkpt lat="46.59925" lon="5.49433">
        <ele>236.4</ele>
        <time>2022-05-28T12:31:22Z</time>
      </trkpt>
      <trkpt lat="46.59923" lon="5.49491">
        <ele>236.4</ele>
        <time>2022-05-28T12:31:30Z</time>
      </trkpt>
      <trkpt lat="46.59924" lon="5.49504">
        <ele>237</ele>
        <time>2022-05-28T12:31:32Z</time>
      </trkpt>
      <trkpt lat="46.59926" lon="5.4952">
        <ele>237.2</ele>
        <time>2022-05-28T12:31:35Z</time>
      </trkpt>
      <trkpt lat="46.59927" lon="5.49525">
        <ele>237.6</ele>
        <time>2022-05-28T12:31:36Z</time>
      </trkpt>
      <trkpt lat="46.59934" lon="5.49547">
        <ele>238.4</ele>
        <time>2022-05-28T12:31:40Z</time>
      </trkpt>
      <trkpt lat="46.59936" lon="5.49551">
        <ele>238.4</ele>
        <time>2022-05-28T12:31:41Z</time>
      </trkpt>
      <trkpt lat="46.59944" lon="5.49595">
        <ele>239.4</ele>
        <time>2022-05-28T12:31:49Z</time>
      </trkpt>
      <trkpt lat="46.59947" lon="5.49637">
        <ele>240</ele>
        <time>2022-05-28T12:31:55Z</time>
      </trkpt>
      <trkpt lat="46.59948" lon="5.49688">
        <ele>240.2</ele>
        <time>2022-05-28T12:32:02Z</time>
      </trkpt>
      <trkpt lat="46.59947" lon="5.49714">
        <ele>240.4</ele>
        <time>2022-05-28T12:32:06Z</time>
      </trkpt>
      <trkpt lat="46.59946" lon="5.49749">
        <ele>241</ele>
        <time>2022-05-28T12:32:11Z</time>
      </trkpt>
      <trkpt lat="46.59942" lon="5.49775">
        <ele>241.4</ele>
        <time>2022-05-28T12:32:15Z</time>
      </trkpt>
      <trkpt lat="46.59938" lon="5.498">
        <ele>242.2</ele>
        <time>2022-05-28T12:32:19Z</time>
      </trkpt>
      <trkpt lat="46.59936" lon="5.49811">
        <ele>242.6</ele>
        <time>2022-05-28T12:32:21Z</time>
      </trkpt>
      <trkpt lat="46.59929" lon="5.49841">
        <ele>243.4</ele>
        <time>2022-05-28T12:32:26Z</time>
      </trkpt>
      <trkpt lat="46.59927" lon="5.49852">
        <ele>243.6</ele>
        <time>2022-05-28T12:32:28Z</time>
      </trkpt>
      <trkpt lat="46.59921" lon="5.49897">
        <ele>244.4</ele>
        <time>2022-05-28T12:32:35Z</time>
      </trkpt>
      <trkpt lat="46.5992" lon="5.49915">
        <ele>244.6</ele>
        <time>2022-05-28T12:32:38Z</time>
      </trkpt>
      <trkpt lat="46.5992" lon="5.49922">
        <ele>245.2</ele>
        <time>2022-05-28T12:32:39Z</time>
      </trkpt>
      <trkpt lat="46.5992" lon="5.49941">
        <ele>245.8</ele>
        <time>2022-05-28T12:32:42Z</time>
      </trkpt>
      <trkpt lat="46.59921" lon="5.49974">
        <ele>246.4</ele>
        <time>2022-05-28T12:32:47Z</time>
      </trkpt>
      <trkpt lat="46.5992" lon="5.49986">
        <ele>246.8</ele>
        <time>2022-05-28T12:32:49Z</time>
      </trkpt>
      <trkpt lat="46.59919" lon="5.49991">
        <ele>246.8</ele>
        <time>2022-05-28T12:32:50Z</time>
      </trkpt>
      <trkpt lat="46.59916" lon="5.50004">
        <ele>247</ele>
        <time>2022-05-28T12:32:52Z</time>
      </trkpt>
      <trkpt lat="46.59908" lon="5.50024">
        <ele>247.6</ele>
        <time>2022-05-28T12:32:56Z</time>
      </trkpt>
      <trkpt lat="46.59901" lon="5.50035">
        <ele>248</ele>
        <time>2022-05-28T12:32:58Z</time>
      </trkpt>
      <trkpt lat="46.59884" lon="5.50071">
        <ele>249</ele>
        <time>2022-05-28T12:33:05Z</time>
      </trkpt>
      <trkpt lat="46.59872" lon="5.50098">
        <ele>250</ele>
        <time>2022-05-28T12:33:11Z</time>
      </trkpt>
      <trkpt lat="46.5987" lon="5.50102">
        <ele>250.2</ele>
        <time>2022-05-28T12:33:12Z</time>
      </trkpt>
      <trkpt lat="46.59855" lon="5.50122">
        <ele>251.6</ele>
        <time>2022-05-28T12:33:18Z</time>
      </trkpt>
      <trkpt lat="46.59842" lon="5.50138">
        <ele>252.8</ele>
        <time>2022-05-28T12:33:23Z</time>
      </trkpt>
      <trkpt lat="46.59835" lon="5.50147">
        <ele>253.8</ele>
        <time>2022-05-28T12:33:26Z</time>
      </trkpt>
      <trkpt lat="46.59816" lon="5.50172">
        <ele>255</ele>
        <time>2022-05-28T12:33:33Z</time>
      </trkpt>
      <trkpt lat="46.59813" lon="5.50175">
        <ele>255.2</ele>
        <time>2022-05-28T12:33:34Z</time>
      </trkpt>
      <trkpt lat="46.59795" lon="5.50195">
        <ele>256</ele>
        <time>2022-05-28T12:33:40Z</time>
      </trkpt>
      <trkpt lat="46.59784" lon="5.50204">
        <ele>256.2</ele>
        <time>2022-05-28T12:33:43Z</time>
      </trkpt>
      <trkpt lat="46.59766" lon="5.50212">
        <ele>257</ele>
        <time>2022-05-28T12:33:48Z</time>
      </trkpt>
      <trkpt lat="46.59743" lon="5.5022">
        <ele>257.6</ele>
        <time>2022-05-28T12:33:53Z</time>
      </trkpt>
      <trkpt lat="46.59719" lon="5.50228">
        <ele>257.6</ele>
        <time>2022-05-28T12:33:58Z</time>
      </trkpt>
      <trkpt lat="46.59711" lon="5.50234">
        <ele>257.8</ele>
        <time>2022-05-28T12:34:00Z</time>
      </trkpt>
      <trkpt lat="46.59688" lon="5.50248">
        <ele>258.2</ele>
        <time>2022-05-28T12:34:06Z</time>
      </trkpt>
      <trkpt lat="46.59683" lon="5.50256">
        <ele>258.8</ele>
        <time>2022-05-28T12:34:08Z</time>
      </trkpt>
      <trkpt lat="46.59681" lon="5.50267">
        <ele>259.4</ele>
        <time>2022-05-28T12:34:10Z</time>
      </trkpt>
      <trkpt lat="46.59686" lon="5.5029">
        <ele>259.8</ele>
        <time>2022-05-28T12:34:15Z</time>
      </trkpt>
      <trkpt lat="46.59697" lon="5.50302">
        <ele>260.4</ele>
        <time>2022-05-28T12:34:19Z</time>
      </trkpt>
      <trkpt lat="46.597" lon="5.50303">
        <ele>260.6</ele>
        <time>2022-05-28T12:34:20Z</time>
      </trkpt>
      <trkpt lat="46.5971" lon="5.50301">
        <ele>261.6</ele>
        <time>2022-05-28T12:34:23Z</time>
      </trkpt>
      <trkpt lat="46.5972" lon="5.50295">
        <ele>262.2</ele>
        <time>2022-05-28T12:34:26Z</time>
      </trkpt>
      <trkpt lat="46.59732" lon="5.50288">
        <ele>262.6</ele>
        <time>2022-05-28T12:34:30Z</time>
      </trkpt>
      <trkpt lat="46.59747" lon="5.50278">
        <ele>263</ele>
        <time>2022-05-28T12:34:35Z</time>
      </trkpt>
      <trkpt lat="46.59756" lon="5.50272">
        <ele>263.8</ele>
        <time>2022-05-28T12:34:38Z</time>
      </trkpt>
      <trkpt lat="46.59764" lon="5.50266">
        <ele>264.8</ele>
        <time>2022-05-28T12:34:41Z</time>
      </trkpt>
      <trkpt lat="46.59775" lon="5.50258">
        <ele>266</ele>
        <time>2022-05-28T12:34:45Z</time>
      </trkpt>
      <trkpt lat="46.59778" lon="5.50256">
        <ele>266.2</ele>
        <time>2022-05-28T12:34:46Z</time>
      </trkpt>
      <trkpt lat="46.59793" lon="5.50245">
        <ele>267.2</ele>
        <time>2022-05-28T12:34:51Z</time>
      </trkpt>
      <trkpt lat="46.59807" lon="5.50235">
        <ele>268.2</ele>
        <time>2022-05-28T12:34:56Z</time>
      </trkpt>
      <trkpt lat="46.5981" lon="5.50234">
        <ele>268.2</ele>
        <time>2022-05-28T12:34:57Z</time>
      </trkpt>
      <trkpt lat="46.59831" lon="5.5022">
        <ele>269.4</ele>
        <time>2022-05-28T12:35:04Z</time>
      </trkpt>
      <trkpt lat="46.59846" lon="5.50211">
        <ele>270.6</ele>
        <time>2022-05-28T12:35:09Z</time>
      </trkpt>
      <trkpt lat="46.59857" lon="5.50205">
        <ele>271.4</ele>
        <time>2022-05-28T12:35:13Z</time>
      </trkpt>
      <trkpt lat="46.59876" lon="5.50197">
        <ele>273</ele>
        <time>2022-05-28T12:35:19Z</time>
      </trkpt>
      <trkpt lat="46.59879" lon="5.50196">
        <ele>273.2</ele>
        <time>2022-05-28T12:35:20Z</time>
      </trkpt>
      <trkpt lat="46.59895" lon="5.50192">
        <ele>274</ele>
        <time>2022-05-28T12:35:25Z</time>
      </trkpt>
      <trkpt lat="46.59907" lon="5.50191">
        <ele>275.6</ele>
        <time>2022-05-28T12:35:29Z</time>
      </trkpt>
      <trkpt lat="46.5991" lon="5.50191">
        <ele>275.8</ele>
        <time>2022-05-28T12:35:30Z</time>
      </trkpt>
      <trkpt lat="46.5992" lon="5.5019">
        <ele>276.4</ele>
        <time>2022-05-28T12:35:33Z</time>
      </trkpt>
      <trkpt lat="46.59942" lon="5.50187">
        <ele>277.8</ele>
        <time>2022-05-28T12:35:40Z</time>
      </trkpt>
      <trkpt lat="46.59948" lon="5.50187">
        <ele>278.2</ele>
        <time>2022-05-28T12:35:42Z</time>
      </trkpt>
      <trkpt lat="46.59958" lon="5.50189">
        <ele>278.6</ele>
        <time>2022-05-28T12:35:45Z</time>
      </trkpt>
      <trkpt lat="46.59967" lon="5.50196">
        <ele>279.2</ele>
        <time>2022-05-28T12:35:48Z</time>
      </trkpt>
      <trkpt lat="46.59975" lon="5.50217">
        <ele>279.8</ele>
        <time>2022-05-28T12:35:53Z</time>
      </trkpt>
      <trkpt lat="46.59976" lon="5.50221">
        <ele>280</ele>
        <time>2022-05-28T12:35:54Z</time>
      </trkpt>
      <trkpt lat="46.59986" lon="5.50246">
        <ele>281</ele>
        <time>2022-05-28T12:36:00Z</time>
      </trkpt>
      <trkpt lat="46.59996" lon="5.5026">
        <ele>282</ele>
        <time>2022-05-28T12:36:04Z</time>
      </trkpt>
      <trkpt lat="46.60006" lon="5.50271">
        <ele>283</ele>
        <time>2022-05-28T12:36:08Z</time>
      </trkpt>
      <trkpt lat="46.60009" lon="5.50273">
        <ele>283.2</ele>
        <time>2022-05-28T12:36:09Z</time>
      </trkpt>
      <trkpt lat="46.60023" lon="5.50284">
        <ele>284.4</ele>
        <time>2022-05-28T12:36:14Z</time>
      </trkpt>
      <trkpt lat="46.60032" lon="5.50288">
        <ele>285.2</ele>
        <time>2022-05-28T12:36:17Z</time>
      </trkpt>
      <trkpt lat="46.60035" lon="5.50289">
        <ele>285.4</ele>
        <time>2022-05-28T12:36:18Z</time>
      </trkpt>
      <trkpt lat="46.60053" lon="5.50292">
        <ele>286.6</ele>
        <time>2022-05-28T12:36:24Z</time>
      </trkpt>
      <trkpt lat="46.60056" lon="5.50293">
        <ele>287</ele>
        <time>2022-05-28T12:36:25Z</time>
      </trkpt>
      <trkpt lat="46.6007" lon="5.50292">
        <ele>287.6</ele>
        <time>2022-05-28T12:36:29Z</time>
      </trkpt>
      <trkpt lat="46.6009" lon="5.50293">
        <ele>288.4</ele>
        <time>2022-05-28T12:36:35Z</time>
      </trkpt>
      <trkpt lat="46.60093" lon="5.50293">
        <ele>288.4</ele>
        <time>2022-05-28T12:36:36Z</time>
      </trkpt>
      <trkpt lat="46.60109" lon="5.503">
        <ele>289.8</ele>
        <time>2022-05-28T12:36:41Z</time>
      </trkpt>
      <trkpt lat="46.60118" lon="5.50305">
        <ele>290.4</ele>
        <time>2022-05-28T12:36:44Z</time>
      </trkpt>
      <trkpt lat="46.60124" lon="5.50309">
        <ele>290.8</ele>
        <time>2022-05-28T12:36:46Z</time>
      </trkpt>
      <trkpt lat="46.60142" lon="5.5032">
        <ele>291.6</ele>
        <time>2022-05-28T12:36:52Z</time>
      </trkpt>
      <trkpt lat="46.60148" lon="5.50324">
        <ele>292.2</ele>
        <time>2022-05-28T12:36:54Z</time>
      </trkpt>
      <trkpt lat="46.6015" lon="5.50326">
        <ele>292.8</ele>
        <time>2022-05-28T12:36:55Z</time>
      </trkpt>
      <trkpt lat="46.60159" lon="5.50332">
        <ele>293.4</ele>
        <time>2022-05-28T12:36:58Z</time>
      </trkpt>
      <trkpt lat="46.60177" lon="5.50344">
        <ele>294.4</ele>
        <time>2022-05-28T12:37:04Z</time>
      </trkpt>
      <trkpt lat="46.6019" lon="5.50351">
        <ele>295.2</ele>
        <time>2022-05-28T12:37:08Z</time>
      </trkpt>
      <trkpt lat="46.60192" lon="5.50352">
        <ele>295.6</ele>
        <time>2022-05-28T12:37:09Z</time>
      </trkpt>
      <trkpt lat="46.60208" lon="5.50358">
        <ele>296.6</ele>
        <time>2022-05-28T12:37:14Z</time>
      </trkpt>
      <trkpt lat="46.60215" lon="5.50359">
        <ele>297</ele>
        <time>2022-05-28T12:37:16Z</time>
      </trkpt>
      <trkpt lat="46.60228" lon="5.50361">
        <ele>297.6</ele>
        <time>2022-05-28T12:37:20Z</time>
      </trkpt>
      <trkpt lat="46.60238" lon="5.50362">
        <ele>298.2</ele>
        <time>2022-05-28T12:37:23Z</time>
      </trkpt>
      <trkpt lat="46.60249" lon="5.50363">
        <ele>298.6</ele>
        <time>2022-05-28T12:37:26Z</time>
      </trkpt>
      <trkpt lat="46.60266" lon="5.50363">
        <ele>299.6</ele>
        <time>2022-05-28T12:37:31Z</time>
      </trkpt>
      <trkpt lat="46.60269" lon="5.50365">
        <ele>299.8</ele>
        <time>2022-05-28T12:37:32Z</time>
      </trkpt>
      <trkpt lat="46.60286" lon="5.50377">
        <ele>300.8</ele>
        <time>2022-05-28T12:37:38Z</time>
      </trkpt>
      <trkpt lat="46.60292" lon="5.50383">
        <ele>301</ele>
        <time>2022-05-28T12:37:40Z</time>
      </trkpt>
      <trkpt lat="46.60302" lon="5.50396">
        <ele>302</ele>
        <time>2022-05-28T12:37:44Z</time>
      </trkpt>
      <trkpt lat="46.60304" lon="5.50399">
        <ele>302.4</ele>
        <time>2022-05-28T12:37:45Z</time>
      </trkpt>
      <trkpt lat="46.60313" lon="5.50409">
        <ele>303.2</ele>
        <time>2022-05-28T12:37:48Z</time>
      </trkpt>
      <trkpt lat="46.60331" lon="5.50425">
        <ele>304</ele>
        <time>2022-05-28T12:37:54Z</time>
      </trkpt>
      <trkpt lat="46.60334" lon="5.50427">
        <ele>304.2</ele>
        <time>2022-05-28T12:37:55Z</time>
      </trkpt>
      <trkpt lat="46.60339" lon="5.50433">
        <ele>304.4</ele>
        <time>2022-05-28T12:37:57Z</time>
      </trkpt>
      <trkpt lat="46.60346" lon="5.50445">
        <ele>305.2</ele>
        <time>2022-05-28T12:38:00Z</time>
      </trkpt>
      <trkpt lat="46.60349" lon="5.5045">
        <ele>305.2</ele>
        <time>2022-05-28T12:38:01Z</time>
      </trkpt>
      <trkpt lat="46.60353" lon="5.50468">
        <ele>305.8</ele>
        <time>2022-05-28T12:38:05Z</time>
      </trkpt>
      <trkpt lat="46.60356" lon="5.50478">
        <ele>306.4</ele>
        <time>2022-05-28T12:38:07Z</time>
      </trkpt>
      <trkpt lat="46.60365" lon="5.50504">
        <ele>307.4</ele>
        <time>2022-05-28T12:38:13Z</time>
      </trkpt>
      <trkpt lat="46.60367" lon="5.50509">
        <ele>307.4</ele>
        <time>2022-05-28T12:38:14Z</time>
      </trkpt>
      <trkpt lat="46.6038" lon="5.50532">
        <ele>308.4</ele>
        <time>2022-05-28T12:38:20Z</time>
      </trkpt>
      <trkpt lat="46.60391" lon="5.5055">
        <ele>309</ele>
        <time>2022-05-28T12:38:25Z</time>
      </trkpt>
      <trkpt lat="46.60396" lon="5.50557">
        <ele>309.4</ele>
        <time>2022-05-28T12:38:27Z</time>
      </trkpt>
      <trkpt lat="46.60409" lon="5.50571">
        <ele>310.8</ele>
        <time>2022-05-28T12:38:32Z</time>
      </trkpt>
      <trkpt lat="46.60421" lon="5.50582">
        <ele>312</ele>
        <time>2022-05-28T12:38:36Z</time>
      </trkpt>
      <trkpt lat="46.6043" lon="5.50591">
        <ele>312.6</ele>
        <time>2022-05-28T12:38:40Z</time>
      </trkpt>
      <trkpt lat="46.60435" lon="5.50595">
        <ele>313</ele>
        <time>2022-05-28T12:38:42Z</time>
      </trkpt>
      <trkpt lat="46.60438" lon="5.50597">
        <ele>313.2</ele>
        <time>2022-05-28T12:38:43Z</time>
      </trkpt>
      <trkpt lat="46.60448" lon="5.50606">
        <ele>313.8</ele>
        <time>2022-05-28T12:38:47Z</time>
      </trkpt>
      <trkpt lat="46.60453" lon="5.5061">
        <ele>314</ele>
        <time>2022-05-28T12:38:49Z</time>
      </trkpt>
      <trkpt lat="46.60466" lon="5.50619">
        <ele>315.2</ele>
        <time>2022-05-28T12:38:54Z</time>
      </trkpt>
      <trkpt lat="46.60471" lon="5.50622">
        <ele>315.6</ele>
        <time>2022-05-28T12:38:56Z</time>
      </trkpt>
      <trkpt lat="46.60477" lon="5.50626">
        <ele>316.2</ele>
        <time>2022-05-28T12:38:58Z</time>
      </trkpt>
      <trkpt lat="46.60489" lon="5.50634">
        <ele>317.2</ele>
        <time>2022-05-28T12:39:03Z</time>
      </trkpt>
      <trkpt lat="46.60492" lon="5.50636">
        <ele>317.6</ele>
        <time>2022-05-28T12:39:04Z</time>
      </trkpt>
      <trkpt lat="46.60504" lon="5.50642">
        <ele>318.8</ele>
        <time>2022-05-28T12:39:09Z</time>
      </trkpt>
      <trkpt lat="46.6051" lon="5.50645">
        <ele>319.4</ele>
        <time>2022-05-28T12:39:11Z</time>
      </trkpt>
      <trkpt lat="46.60518" lon="5.50648">
        <ele>320</ele>
        <time>2022-05-28T12:39:14Z</time>
      </trkpt>
      <trkpt lat="46.60534" lon="5.50652">
        <ele>320.4</ele>
        <time>2022-05-28T12:39:19Z</time>
      </trkpt>
      <trkpt lat="46.60543" lon="5.50654">
        <ele>321</ele>
        <time>2022-05-28T12:39:22Z</time>
      </trkpt>
      <trkpt lat="46.60561" lon="5.50654">
        <ele>322.2</ele>
        <time>2022-05-28T12:39:28Z</time>
      </trkpt>
      <trkpt lat="46.60582" lon="5.50649">
        <ele>323.2</ele>
        <time>2022-05-28T12:39:35Z</time>
      </trkpt>
      <trkpt lat="46.60588" lon="5.50647">
        <ele>323.6</ele>
        <time>2022-05-28T12:39:37Z</time>
      </trkpt>
      <trkpt lat="46.60602" lon="5.50643">
        <ele>324.4</ele>
        <time>2022-05-28T12:39:42Z</time>
      </trkpt>
      <trkpt lat="46.60607" lon="5.50642">
        <ele>325</ele>
        <time>2022-05-28T12:39:44Z</time>
      </trkpt>
      <trkpt lat="46.60616" lon="5.50641">
        <ele>325.6</ele>
        <time>2022-05-28T12:39:47Z</time>
      </trkpt>
      <trkpt lat="46.60627" lon="5.50642">
        <ele>326.2</ele>
        <time>2022-05-28T12:39:51Z</time>
      </trkpt>
      <trkpt lat="46.60639" lon="5.50644">
        <ele>326.8</ele>
        <time>2022-05-28T12:39:55Z</time>
      </trkpt>
      <trkpt lat="46.60656" lon="5.50647">
        <ele>327.8</ele>
        <time>2022-05-28T12:40:01Z</time>
      </trkpt>
      <trkpt lat="46.60663" lon="5.50648">
        <ele>328.6</ele>
        <time>2022-05-28T12:40:03Z</time>
      </trkpt>
      <trkpt lat="46.60668" lon="5.50649">
        <ele>329</ele>
        <time>2022-05-28T12:40:05Z</time>
      </trkpt>
      <trkpt lat="46.60686" lon="5.50652">
        <ele>330.2</ele>
        <time>2022-05-28T12:40:11Z</time>
      </trkpt>
      <trkpt lat="46.60689" lon="5.50652">
        <ele>330.4</ele>
        <time>2022-05-28T12:40:12Z</time>
      </trkpt>
      <trkpt lat="46.60716" lon="5.50651">
        <ele>331.4</ele>
        <time>2022-05-28T12:40:21Z</time>
      </trkpt>
      <trkpt lat="46.60725" lon="5.5065">
        <ele>331.8</ele>
        <time>2022-05-28T12:40:24Z</time>
      </trkpt>
      <trkpt lat="46.60737" lon="5.50648">
        <ele>332.4</ele>
        <time>2022-05-28T12:40:28Z</time>
      </trkpt>
      <trkpt lat="46.60752" lon="5.50646">
        <ele>333.6</ele>
        <time>2022-05-28T12:40:33Z</time>
      </trkpt>
      <trkpt lat="46.60768" lon="5.50648">
        <ele>334.8</ele>
        <time>2022-05-28T12:40:38Z</time>
      </trkpt>
      <trkpt lat="46.60774" lon="5.50649">
        <ele>335.2</ele>
        <time>2022-05-28T12:40:40Z</time>
      </trkpt>
      <trkpt lat="46.60785" lon="5.50655">
        <ele>336</ele>
        <time>2022-05-28T12:40:44Z</time>
      </trkpt>
      <trkpt lat="46.60793" lon="5.50661">
        <ele>336.4</ele>
        <time>2022-05-28T12:40:47Z</time>
      </trkpt>
      <trkpt lat="46.60803" lon="5.5067">
        <ele>337</ele>
        <time>2022-05-28T12:40:51Z</time>
      </trkpt>
      <trkpt lat="46.60817" lon="5.50686">
        <ele>338</ele>
        <time>2022-05-28T12:40:57Z</time>
      </trkpt>
      <trkpt lat="46.60822" lon="5.507">
        <ele>339.2</ele>
        <time>2022-05-28T12:41:01Z</time>
      </trkpt>
      <trkpt lat="46.60821" lon="5.50705">
        <ele>339.2</ele>
        <time>2022-05-28T12:41:02Z</time>
      </trkpt>
      <trkpt lat="46.60812" lon="5.50715">
        <ele>339.8</ele>
        <time>2022-05-28T12:41:06Z</time>
      </trkpt>
      <trkpt lat="46.60806" lon="5.50715">
        <ele>340.4</ele>
        <time>2022-05-28T12:41:08Z</time>
      </trkpt>
      <trkpt lat="46.60791" lon="5.50714">
        <ele>341.2</ele>
        <time>2022-05-28T12:41:12Z</time>
      </trkpt>
      <trkpt lat="46.60784" lon="5.50714">
        <ele>341.6</ele>
        <time>2022-05-28T12:41:14Z</time>
      </trkpt>
      <trkpt lat="46.60766" lon="5.50712">
        <ele>342.6</ele>
        <time>2022-05-28T12:41:19Z</time>
      </trkpt>
      <trkpt lat="46.60734" lon="5.50715">
        <ele>343.8</ele>
        <time>2022-05-28T12:41:28Z</time>
      </trkpt>
      <trkpt lat="46.60731" lon="5.50716">
        <ele>344</ele>
        <time>2022-05-28T12:41:29Z</time>
      </trkpt>
      <trkpt lat="46.60711" lon="5.50725">
        <ele>345</ele>
        <time>2022-05-28T12:41:35Z</time>
      </trkpt>
      <trkpt lat="46.60701" lon="5.5073">
        <ele>345.6</ele>
        <time>2022-05-28T12:41:38Z</time>
      </trkpt>
      <trkpt lat="46.60687" lon="5.50738">
        <ele>346</ele>
        <time>2022-05-28T12:41:42Z</time>
      </trkpt>
      <trkpt lat="46.60667" lon="5.50749">
        <ele>346.6</ele>
        <time>2022-05-28T12:41:48Z</time>
      </trkpt>
      <trkpt lat="46.60652" lon="5.50756">
        <ele>347.4</ele>
        <time>2022-05-28T12:41:52Z</time>
      </trkpt>
      <trkpt lat="46.60629" lon="5.50764">
        <ele>348.4</ele>
        <time>2022-05-28T12:41:58Z</time>
      </trkpt>
      <trkpt lat="46.60625" lon="5.50765">
        <ele>348.4</ele>
        <time>2022-05-28T12:41:59Z</time>
      </trkpt>
      <trkpt lat="46.60597" lon="5.50768">
        <ele>349.6</ele>
        <time>2022-05-28T12:42:06Z</time>
      </trkpt>
      <trkpt lat="46.6058" lon="5.5077">
        <ele>350.4</ele>
        <time>2022-05-28T12:42:10Z</time>
      </trkpt>
      <trkpt lat="46.60568" lon="5.5077">
        <ele>350.8</ele>
        <time>2022-05-28T12:42:13Z</time>
      </trkpt>
      <trkpt lat="46.60553" lon="5.50771">
        <ele>351.6</ele>
        <time>2022-05-28T12:42:17Z</time>
      </trkpt>
      <trkpt lat="46.60545" lon="5.50772">
        <ele>352</ele>
        <time>2022-05-28T12:42:19Z</time>
      </trkpt>
      <trkpt lat="46.6053" lon="5.50773">
        <ele>352.8</ele>
        <time>2022-05-28T12:42:23Z</time>
      </trkpt>
      <trkpt lat="46.60526" lon="5.50773">
        <ele>353.2</ele>
        <time>2022-05-28T12:42:24Z</time>
      </trkpt>
      <trkpt lat="46.60515" lon="5.50773">
        <ele>353.6</ele>
        <time>2022-05-28T12:42:27Z</time>
      </trkpt>
      <trkpt lat="46.60503" lon="5.50773">
        <ele>354.2</ele>
        <time>2022-05-28T12:42:30Z</time>
      </trkpt>
      <trkpt lat="46.60483" lon="5.50771">
        <ele>355.4</ele>
        <time>2022-05-28T12:42:35Z</time>
      </trkpt>
      <trkpt lat="46.60479" lon="5.5077">
        <ele>355.8</ele>
        <time>2022-05-28T12:42:36Z</time>
      </trkpt>
      <trkpt lat="46.60464" lon="5.50766">
        <ele>356.6</ele>
        <time>2022-05-28T12:42:40Z</time>
      </trkpt>
      <trkpt lat="46.60445" lon="5.50763">
        <ele>357.8</ele>
        <time>2022-05-28T12:42:45Z</time>
      </trkpt>
      <trkpt lat="46.60432" lon="5.5076">
        <ele>358</ele>
        <time>2022-05-28T12:42:48Z</time>
      </trkpt>
      <trkpt lat="46.6042" lon="5.50757">
        <ele>358.8</ele>
        <time>2022-05-28T12:42:51Z</time>
      </trkpt>
      <trkpt lat="46.60408" lon="5.50752">
        <ele>359.4</ele>
        <time>2022-05-28T12:42:54Z</time>
      </trkpt>
      <trkpt lat="46.60396" lon="5.50747">
        <ele>360</ele>
        <time>2022-05-28T12:42:57Z</time>
      </trkpt>
      <trkpt lat="46.60373" lon="5.50736">
        <ele>361.2</ele>
        <time>2022-05-28T12:43:03Z</time>
      </trkpt>
      <trkpt lat="46.60348" lon="5.50727">
        <ele>362.2</ele>
        <time>2022-05-28T12:43:09Z</time>
      </trkpt>
      <trkpt lat="46.60326" lon="5.50724">
        <ele>363.2</ele>
        <time>2022-05-28T12:43:14Z</time>
      </trkpt>
      <trkpt lat="46.60309" lon="5.50723">
        <ele>364.2</ele>
        <time>2022-05-28T12:43:18Z</time>
      </trkpt>
      <trkpt lat="46.60305" lon="5.50723">
        <ele>364.4</ele>
        <time>2022-05-28T12:43:19Z</time>
      </trkpt>
      <trkpt lat="46.60284" lon="5.50725">
        <ele>365.4</ele>
        <time>2022-05-28T12:43:24Z</time>
      </trkpt>
      <trkpt lat="46.60268" lon="5.50726">
        <ele>366.2</ele>
        <time>2022-05-28T12:43:28Z</time>
      </trkpt>
      <trkpt lat="46.6026" lon="5.50726">
        <ele>366.4</ele>
        <time>2022-05-28T12:43:30Z</time>
      </trkpt>
      <trkpt lat="46.60236" lon="5.50725">
        <ele>367.6</ele>
        <time>2022-05-28T12:43:36Z</time>
      </trkpt>
      <trkpt lat="46.60232" lon="5.50724">
        <ele>367.8</ele>
        <time>2022-05-28T12:43:37Z</time>
      </trkpt>
      <trkpt lat="46.60217" lon="5.50719">
        <ele>368.6</ele>
        <time>2022-05-28T12:43:41Z</time>
      </trkpt>
      <trkpt lat="46.60198" lon="5.50711">
        <ele>370</ele>
        <time>2022-05-28T12:43:46Z</time>
      </trkpt>
      <trkpt lat="46.60179" lon="5.50705">
        <ele>371</ele>
        <time>2022-05-28T12:43:52Z</time>
      </trkpt>
      <trkpt lat="46.60164" lon="5.50699">
        <ele>372.2</ele>
        <time>2022-05-28T12:43:57Z</time>
      </trkpt>
      <trkpt lat="46.60156" lon="5.50696">
        <ele>372.8</ele>
        <time>2022-05-28T12:43:59Z</time>
      </trkpt>
      <trkpt lat="46.60145" lon="5.5069">
        <ele>373.4</ele>
        <time>2022-05-28T12:44:02Z</time>
      </trkpt>
      <trkpt lat="46.60131" lon="5.5068">
        <ele>374.4</ele>
        <time>2022-05-28T12:44:06Z</time>
      </trkpt>
      <trkpt lat="46.60123" lon="5.50675">
        <ele>374.6</ele>
        <time>2022-05-28T12:44:08Z</time>
      </trkpt>
      <trkpt lat="46.60103" lon="5.50656">
        <ele>376</ele>
        <time>2022-05-28T12:44:13Z</time>
      </trkpt>
      <trkpt lat="46.60095" lon="5.50649">
        <ele>376.4</ele>
        <time>2022-05-28T12:44:15Z</time>
      </trkpt>
      <trkpt lat="46.60088" lon="5.50641">
        <ele>376.8</ele>
        <time>2022-05-28T12:44:17Z</time>
      </trkpt>
      <trkpt lat="46.60084" lon="5.50637">
        <ele>377.2</ele>
        <time>2022-05-28T12:44:18Z</time>
      </trkpt>
      <trkpt lat="46.60067" lon="5.50619">
        <ele>377.8</ele>
        <time>2022-05-28T12:44:23Z</time>
      </trkpt>
      <trkpt lat="46.6006" lon="5.50612">
        <ele>378.2</ele>
        <time>2022-05-28T12:44:25Z</time>
      </trkpt>
      <trkpt lat="46.60043" lon="5.50594">
        <ele>379.2</ele>
        <time>2022-05-28T12:44:30Z</time>
      </trkpt>
      <trkpt lat="46.6003" lon="5.5058">
        <ele>380</ele>
        <time>2022-05-28T12:44:34Z</time>
      </trkpt>
      <trkpt lat="46.60027" lon="5.50577">
        <ele>380.2</ele>
        <time>2022-05-28T12:44:35Z</time>
      </trkpt>
      <trkpt lat="46.60007" lon="5.50558">
        <ele>381.4</ele>
        <time>2022-05-28T12:44:41Z</time>
      </trkpt>
      <trkpt lat="46.60003" lon="5.50556">
        <ele>381.4</ele>
        <time>2022-05-28T12:44:42Z</time>
      </trkpt>
      <trkpt lat="46.59981" lon="5.50543">
        <ele>382.6</ele>
        <time>2022-05-28T12:44:48Z</time>
      </trkpt>
      <trkpt lat="46.59971" lon="5.5054">
        <ele>383.4</ele>
        <time>2022-05-28T12:44:51Z</time>
      </trkpt>
      <trkpt lat="46.59967" lon="5.50539">
        <ele>383.8</ele>
        <time>2022-05-28T12:44:52Z</time>
      </trkpt>
      <trkpt lat="46.59947" lon="5.5054">
        <ele>384.4</ele>
        <time>2022-05-28T12:44:57Z</time>
      </trkpt>
      <trkpt lat="46.59937" lon="5.50548">
        <ele>384.8</ele>
        <time>2022-05-28T12:45:00Z</time>
      </trkpt>
      <trkpt lat="46.59933" lon="5.50556">
        <ele>385</ele>
        <time>2022-05-28T12:45:02Z</time>
      </trkpt>
      <trkpt lat="46.59931" lon="5.50574">
        <ele>385.2</ele>
        <time>2022-05-28T12:45:05Z</time>
      </trkpt>
      <trkpt lat="46.59938" lon="5.50587">
        <ele>385.6</ele>
        <time>2022-05-28T12:45:08Z</time>
      </trkpt>
      <trkpt lat="46.59941" lon="5.50589">
        <ele>386</ele>
        <time>2022-05-28T12:45:09Z</time>
      </trkpt>
      <trkpt lat="46.59946" lon="5.5059">
        <ele>386.2</ele>
        <time>2022-05-28T12:45:10Z</time>
      </trkpt>
      <trkpt lat="46.59954" lon="5.50588">
        <ele>386.6</ele>
        <time>2022-05-28T12:45:12Z</time>
      </trkpt>
      <trkpt lat="46.59958" lon="5.50586">
        <ele>387</ele>
        <time>2022-05-28T12:45:13Z</time>
      </trkpt>
      <trkpt lat="46.59969" lon="5.5058">
        <ele>387.6</ele>
        <time>2022-05-28T12:45:16Z</time>
      </trkpt>
      <trkpt lat="46.59977" lon="5.50578">
        <ele>388</ele>
        <time>2022-05-28T12:45:18Z</time>
      </trkpt>
      <trkpt lat="46.59981" lon="5.50579">
        <ele>388.2</ele>
        <time>2022-05-28T12:45:19Z</time>
      </trkpt>
      <trkpt lat="46.59985" lon="5.5058">
        <ele>388.4</ele>
        <time>2022-05-28T12:45:20Z</time>
      </trkpt>
      <trkpt lat="46.59996" lon="5.50587">
        <ele>389.2</ele>
        <time>2022-05-28T12:45:23Z</time>
      </trkpt>
      <trkpt lat="46.59999" lon="5.50591">
        <ele>389.4</ele>
        <time>2022-05-28T12:45:24Z</time>
      </trkpt>
      <trkpt lat="46.60008" lon="5.50601">
        <ele>390.4</ele>
        <time>2022-05-28T12:45:27Z</time>
      </trkpt>
      <trkpt lat="46.60021" lon="5.50613">
        <ele>391.6</ele>
        <time>2022-05-28T12:45:31Z</time>
      </trkpt>
      <trkpt lat="46.60033" lon="5.50627">
        <ele>392.4</ele>
        <time>2022-05-28T12:45:35Z</time>
      </trkpt>
      <trkpt lat="46.60035" lon="5.50632">
        <ele>392.6</ele>
        <time>2022-05-28T12:45:36Z</time>
      </trkpt>
      <trkpt lat="46.60035" lon="5.50642">
        <ele>393.4</ele>
        <time>2022-05-28T12:45:38Z</time>
      </trkpt>
      <trkpt lat="46.60033" lon="5.50646">
        <ele>393.8</ele>
        <time>2022-05-28T12:45:39Z</time>
      </trkpt>
      <trkpt lat="46.60029" lon="5.50648">
        <ele>393.8</ele>
        <time>2022-05-28T12:45:40Z</time>
      </trkpt>
      <trkpt lat="46.60026" lon="5.50648">
        <ele>394</ele>
        <time>2022-05-28T12:45:41Z</time>
      </trkpt>
      <trkpt lat="46.60016" lon="5.5064">
        <ele>394.2</ele>
        <time>2022-05-28T12:45:44Z</time>
      </trkpt>
      <trkpt lat="46.60001" lon="5.5062">
        <ele>394.4</ele>
        <time>2022-05-28T12:45:49Z</time>
      </trkpt>
      <trkpt lat="46.59994" lon="5.50614">
        <ele>394.8</ele>
        <time>2022-05-28T12:45:51Z</time>
      </trkpt>
      <trkpt lat="46.59985" lon="5.50608">
        <ele>395</ele>
        <time>2022-05-28T12:45:53Z</time>
      </trkpt>
      <trkpt lat="46.59981" lon="5.50606">
        <ele>395</ele>
        <time>2022-05-28T12:45:54Z</time>
      </trkpt>
      <trkpt lat="46.59972" lon="5.50604">
        <ele>395.6</ele>
        <time>2022-05-28T12:45:56Z</time>
      </trkpt>
      <trkpt lat="46.59968" lon="5.50604">
        <ele>395.8</ele>
        <time>2022-05-28T12:45:57Z</time>
      </trkpt>
      <trkpt lat="46.59964" lon="5.50605">
        <ele>396.2</ele>
        <time>2022-05-28T12:45:58Z</time>
      </trkpt>
      <trkpt lat="46.59957" lon="5.50612">
        <ele>397</ele>
        <time>2022-05-28T12:46:00Z</time>
      </trkpt>
      <trkpt lat="46.59954" lon="5.50617">
        <ele>397.2</ele>
        <time>2022-05-28T12:46:01Z</time>
      </trkpt>
      <trkpt lat="46.59952" lon="5.50622">
        <ele>397.6</ele>
        <time>2022-05-28T12:46:02Z</time>
      </trkpt>
      <trkpt lat="46.59949" lon="5.5064">
        <ele>398.2</ele>
        <time>2022-05-28T12:46:05Z</time>
      </trkpt>
      <trkpt lat="46.59948" lon="5.50646">
        <ele>398.2</ele>
        <time>2022-05-28T12:46:06Z</time>
      </trkpt>
      <trkpt lat="46.59944" lon="5.50674">
        <ele>399.4</ele>
        <time>2022-05-28T12:46:11Z</time>
      </trkpt>
      <trkpt lat="46.59941" lon="5.50689">
        <ele>400</ele>
        <time>2022-05-28T12:46:14Z</time>
      </trkpt>
      <trkpt lat="46.59938" lon="5.50699">
        <ele>400.4</ele>
        <time>2022-05-28T12:46:16Z</time>
      </trkpt>
      <trkpt lat="46.59928" lon="5.50728">
        <ele>401.6</ele>
        <time>2022-05-28T12:46:22Z</time>
      </trkpt>
      <trkpt lat="46.59926" lon="5.50733">
        <ele>401.8</ele>
        <time>2022-05-28T12:46:23Z</time>
      </trkpt>
      <trkpt lat="46.5992" lon="5.50746">
        <ele>402.6</ele>
        <time>2022-05-28T12:46:26Z</time>
      </trkpt>
      <trkpt lat="46.59909" lon="5.50766">
        <ele>403.8</ele>
        <time>2022-05-28T12:46:31Z</time>
      </trkpt>
      <trkpt lat="46.59907" lon="5.5077">
        <ele>404</ele>
        <time>2022-05-28T12:46:32Z</time>
      </trkpt>
      <trkpt lat="46.59898" lon="5.50789">
        <ele>404.8</ele>
        <time>2022-05-28T12:46:37Z</time>
      </trkpt>
      <trkpt lat="46.59888" lon="5.5081">
        <ele>405.6</ele>
        <time>2022-05-28T12:46:42Z</time>
      </trkpt>
      <trkpt lat="46.59886" lon="5.50817">
        <ele>406</ele>
        <time>2022-05-28T12:46:44Z</time>
      </trkpt>
      <trkpt lat="46.59881" lon="5.50838">
        <ele>406.8</ele>
        <time>2022-05-28T12:46:49Z</time>
      </trkpt>
      <trkpt lat="46.5988" lon="5.50847">
        <ele>407.2</ele>
        <time>2022-05-28T12:46:51Z</time>
      </trkpt>
      <trkpt lat="46.59882" lon="5.50866">
        <ele>408.2</ele>
        <time>2022-05-28T12:46:55Z</time>
      </trkpt>
      <trkpt lat="46.59883" lon="5.5087">
        <ele>408.6</ele>
        <time>2022-05-28T12:46:56Z</time>
      </trkpt>
      <trkpt lat="46.59893" lon="5.50891">
        <ele>409</ele>
        <time>2022-05-28T12:47:01Z</time>
      </trkpt>
      <trkpt lat="46.59907" lon="5.50905">
        <ele>409.6</ele>
        <time>2022-05-28T12:47:06Z</time>
      </trkpt>
      <trkpt lat="46.59913" lon="5.50913">
        <ele>410.4</ele>
        <time>2022-05-28T12:47:08Z</time>
      </trkpt>
      <trkpt lat="46.59915" lon="5.50917">
        <ele>410.8</ele>
        <time>2022-05-28T12:47:09Z</time>
      </trkpt>
      <trkpt lat="46.59921" lon="5.50935">
        <ele>411.8</ele>
        <time>2022-05-28T12:47:13Z</time>
      </trkpt>
      <trkpt lat="46.59921" lon="5.50939">
        <ele>412</ele>
        <time>2022-05-28T12:47:14Z</time>
      </trkpt>
      <trkpt lat="46.5992" lon="5.50962">
        <ele>412.8</ele>
        <time>2022-05-28T12:47:19Z</time>
      </trkpt>
      <trkpt lat="46.59919" lon="5.50968">
        <ele>413</ele>
        <time>2022-05-28T12:47:20Z</time>
      </trkpt>
      <trkpt lat="46.59914" lon="5.50985">
        <ele>414</ele>
        <time>2022-05-28T12:47:24Z</time>
      </trkpt>
      <trkpt lat="46.59908" lon="5.51002">
        <ele>415.2</ele>
        <time>2022-05-28T12:47:28Z</time>
      </trkpt>
      <trkpt lat="46.59898" lon="5.5102">
        <ele>416.4</ele>
        <time>2022-05-28T12:47:33Z</time>
      </trkpt>
      <trkpt lat="46.59895" lon="5.51024">
        <ele>416.4</ele>
        <time>2022-05-28T12:47:34Z</time>
      </trkpt>
      <trkpt lat="46.59883" lon="5.51031">
        <ele>417</ele>
        <time>2022-05-28T12:47:38Z</time>
      </trkpt>
      <trkpt lat="46.59877" lon="5.51034">
        <ele>417.2</ele>
        <time>2022-05-28T12:47:40Z</time>
      </trkpt>
      <trkpt lat="46.59857" lon="5.51041">
        <ele>418.2</ele>
        <time>2022-05-28T12:47:46Z</time>
      </trkpt>
      <trkpt lat="46.59854" lon="5.51042">
        <ele>418.4</ele>
        <time>2022-05-28T12:47:47Z</time>
      </trkpt>
      <trkpt lat="46.59834" lon="5.5105">
        <ele>419.4</ele>
        <time>2022-05-28T12:47:53Z</time>
      </trkpt>
      <trkpt lat="46.59825" lon="5.51052">
        <ele>420</ele>
        <time>2022-05-28T12:47:56Z</time>
      </trkpt>
      <trkpt lat="46.59815" lon="5.51054">
        <ele>420.6</ele>
        <time>2022-05-28T12:47:59Z</time>
      </trkpt>
      <trkpt lat="46.59798" lon="5.51061">
        <ele>421.4</ele>
        <time>2022-05-28T12:48:04Z</time>
      </trkpt>
      <trkpt lat="46.59795" lon="5.51062">
        <ele>421.6</ele>
        <time>2022-05-28T12:48:05Z</time>
      </trkpt>
      <trkpt lat="46.59782" lon="5.51063">
        <ele>422.4</ele>
        <time>2022-05-28T12:48:09Z</time>
      </trkpt>
      <trkpt lat="46.59779" lon="5.51062">
        <ele>422.8</ele>
        <time>2022-05-28T12:48:10Z</time>
      </trkpt>
      <trkpt lat="46.59767" lon="5.5106">
        <ele>423.6</ele>
        <time>2022-05-28T12:48:14Z</time>
      </trkpt>
      <trkpt lat="46.59764" lon="5.5106">
        <ele>424.2</ele>
        <time>2022-05-28T12:48:15Z</time>
      </trkpt>
      <trkpt lat="46.59755" lon="5.51057">
        <ele>424.8</ele>
        <time>2022-05-28T12:48:18Z</time>
      </trkpt>
      <trkpt lat="46.59748" lon="5.51055">
        <ele>425.2</ele>
        <time>2022-05-28T12:48:20Z</time>
      </trkpt>
      <trkpt lat="46.59736" lon="5.51052">
        <ele>425.8</ele>
        <time>2022-05-28T12:48:24Z</time>
      </trkpt>
      <trkpt lat="46.59728" lon="5.5105">
        <ele>426.4</ele>
        <time>2022-05-28T12:48:27Z</time>
      </trkpt>
      <trkpt lat="46.59716" lon="5.51046">
        <ele>426.6</ele>
        <time>2022-05-28T12:48:30Z</time>
      </trkpt>
      <trkpt lat="46.59705" lon="5.51042">
        <ele>427.4</ele>
        <time>2022-05-28T12:48:33Z</time>
      </trkpt>
      <trkpt lat="46.59693" lon="5.5104">
        <ele>428.2</ele>
        <time>2022-05-28T12:48:36Z</time>
      </trkpt>
      <trkpt lat="46.59683" lon="5.51037">
        <ele>428.4</ele>
        <time>2022-05-28T12:48:38Z</time>
      </trkpt>
      <trkpt lat="46.59672" lon="5.51034">
        <ele>429</ele>
        <time>2022-05-28T12:48:41Z</time>
      </trkpt>
      <trkpt lat="46.59663" lon="5.51032">
        <ele>429.6</ele>
        <time>2022-05-28T12:48:43Z</time>
      </trkpt>
      <trkpt lat="46.59646" lon="5.51025">
        <ele>430.2</ele>
        <time>2022-05-28T12:48:47Z</time>
      </trkpt>
      <trkpt lat="46.59638" lon="5.51021">
        <ele>430.6</ele>
        <time>2022-05-28T12:48:49Z</time>
      </trkpt>
      <trkpt lat="46.59621" lon="5.5101">
        <ele>431.6</ele>
        <time>2022-05-28T12:48:53Z</time>
      </trkpt>
      <trkpt lat="46.59616" lon="5.51008">
        <ele>431.8</ele>
        <time>2022-05-28T12:48:54Z</time>
      </trkpt>
      <trkpt lat="46.59598" lon="5.51">
        <ele>433.2</ele>
        <time>2022-05-28T12:48:59Z</time>
      </trkpt>
      <trkpt lat="46.59593" lon="5.50998">
        <ele>433.4</ele>
        <time>2022-05-28T12:49:00Z</time>
      </trkpt>
      <trkpt lat="46.59583" lon="5.50994">
        <ele>434.4</ele>
        <time>2022-05-28T12:49:03Z</time>
      </trkpt>
      <trkpt lat="46.59567" lon="5.5099">
        <ele>435.2</ele>
        <time>2022-05-28T12:49:07Z</time>
      </trkpt>
      <trkpt lat="46.59564" lon="5.50989">
        <ele>435.4</ele>
        <time>2022-05-28T12:49:08Z</time>
      </trkpt>
      <trkpt lat="46.59545" lon="5.50985">
        <ele>436.8</ele>
        <time>2022-05-28T12:49:13Z</time>
      </trkpt>
      <trkpt lat="46.59537" lon="5.50985">
        <ele>437.2</ele>
        <time>2022-05-28T12:49:15Z</time>
      </trkpt>
      <trkpt lat="46.59527" lon="5.50985">
        <ele>437.8</ele>
        <time>2022-05-28T12:49:18Z</time>
      </trkpt>
      <trkpt lat="46.59514" lon="5.50986">
        <ele>438.4</ele>
        <time>2022-05-28T12:49:22Z</time>
      </trkpt>
      <trkpt lat="46.59507" lon="5.50986">
        <ele>439</ele>
        <time>2022-05-28T12:49:24Z</time>
      </trkpt>
      <trkpt lat="46.59492" lon="5.50987">
        <ele>440</ele>
        <time>2022-05-28T12:49:28Z</time>
      </trkpt>
      <trkpt lat="46.59485" lon="5.50989">
        <ele>440.4</ele>
        <time>2022-05-28T12:49:30Z</time>
      </trkpt>
      <trkpt lat="46.59471" lon="5.50995">
        <ele>441.2</ele>
        <time>2022-05-28T12:49:34Z</time>
      </trkpt>
      <trkpt lat="46.59454" lon="5.51007">
        <ele>442.2</ele>
        <time>2022-05-28T12:49:39Z</time>
      </trkpt>
      <trkpt lat="46.59437" lon="5.51027">
        <ele>442.8</ele>
        <time>2022-05-28T12:49:45Z</time>
      </trkpt>
      <trkpt lat="46.59434" lon="5.51036">
        <ele>443.2</ele>
        <time>2022-05-28T12:49:47Z</time>
      </trkpt>
      <trkpt lat="46.59427" lon="5.51062">
        <ele>444.2</ele>
        <time>2022-05-28T12:49:52Z</time>
      </trkpt>
      <trkpt lat="46.59426" lon="5.51067">
        <ele>444.2</ele>
        <time>2022-05-28T12:49:53Z</time>
      </trkpt>
      <trkpt lat="46.5942" lon="5.51093">
        <ele>445.4</ele>
        <time>2022-05-28T12:49:58Z</time>
      </trkpt>
      <trkpt lat="46.59417" lon="5.51113">
        <ele>446.4</ele>
        <time>2022-05-28T12:50:02Z</time>
      </trkpt>
      <trkpt lat="46.59416" lon="5.51123">
        <ele>446.8</ele>
        <time>2022-05-28T12:50:04Z</time>
      </trkpt>
      <trkpt lat="46.59417" lon="5.51143">
        <ele>447.4</ele>
        <time>2022-05-28T12:50:08Z</time>
      </trkpt>
      <trkpt lat="46.59418" lon="5.51148">
        <ele>447.8</ele>
        <time>2022-05-28T12:50:09Z</time>
      </trkpt>
      <trkpt lat="46.59423" lon="5.51169">
        <ele>448.8</ele>
        <time>2022-05-28T12:50:13Z</time>
      </trkpt>
      <trkpt lat="46.59427" lon="5.51191">
        <ele>449.8</ele>
        <time>2022-05-28T12:50:17Z</time>
      </trkpt>
      <trkpt lat="46.59428" lon="5.51196">
        <ele>450</ele>
        <time>2022-05-28T12:50:18Z</time>
      </trkpt>
      <trkpt lat="46.59425" lon="5.51223">
        <ele>451</ele>
        <time>2022-05-28T12:50:23Z</time>
      </trkpt>
      <trkpt lat="46.59424" lon="5.51228">
        <ele>451.2</ele>
        <time>2022-05-28T12:50:24Z</time>
      </trkpt>
      <trkpt lat="46.59421" lon="5.51253">
        <ele>452.2</ele>
        <time>2022-05-28T12:50:29Z</time>
      </trkpt>
      <trkpt lat="46.59421" lon="5.51258">
        <ele>452.6</ele>
        <time>2022-05-28T12:50:30Z</time>
      </trkpt>
      <trkpt lat="46.59424" lon="5.51268">
        <ele>453.4</ele>
        <time>2022-05-28T12:50:32Z</time>
      </trkpt>
      <trkpt lat="46.5943" lon="5.51282">
        <ele>454</ele>
        <time>2022-05-28T12:50:35Z</time>
      </trkpt>
      <trkpt lat="46.59436" lon="5.51289">
        <ele>454.4</ele>
        <time>2022-05-28T12:50:37Z</time>
      </trkpt>
      <trkpt lat="46.59444" lon="5.51301">
        <ele>455.6</ele>
        <time>2022-05-28T12:50:40Z</time>
      </trkpt>
      <trkpt lat="46.59453" lon="5.51313">
        <ele>456</ele>
        <time>2022-05-28T12:50:43Z</time>
      </trkpt>
      <trkpt lat="46.59457" lon="5.51322">
        <ele>456.6</ele>
        <time>2022-05-28T12:50:45Z</time>
      </trkpt>
      <trkpt lat="46.59471" lon="5.51343">
        <ele>457.2</ele>
        <time>2022-05-28T12:50:50Z</time>
      </trkpt>
      <trkpt lat="46.59479" lon="5.51354">
        <ele>457.8</ele>
        <time>2022-05-28T12:50:53Z</time>
      </trkpt>
      <trkpt lat="46.59488" lon="5.51365">
        <ele>458</ele>
        <time>2022-05-28T12:50:56Z</time>
      </trkpt>
      <trkpt lat="46.59515" lon="5.51382">
        <ele>458.4</ele>
        <time>2022-05-28T12:51:02Z</time>
      </trkpt>
      <trkpt lat="46.59556" lon="5.51394">
        <ele>458.2</ele>
        <time>2022-05-28T12:51:09Z</time>
      </trkpt>
      <trkpt lat="46.59591" lon="5.51398">
        <ele>457.2</ele>
        <time>2022-05-28T12:51:14Z</time>
      </trkpt>
      <trkpt lat="46.59598" lon="5.514">
        <ele>457</ele>
        <time>2022-05-28T12:51:15Z</time>
      </trkpt>
      <trkpt lat="46.59618" lon="5.51413">
        <ele>456.8</ele>
        <time>2022-05-28T12:51:18Z</time>
      </trkpt>
      <trkpt lat="46.59642" lon="5.51434">
        <ele>456.8</ele>
        <time>2022-05-28T12:51:23Z</time>
      </trkpt>
      <trkpt lat="46.59663" lon="5.51449">
        <ele>457.8</ele>
        <time>2022-05-28T12:51:28Z</time>
      </trkpt>
      <trkpt lat="46.59668" lon="5.51451">
        <ele>458</ele>
        <time>2022-05-28T12:51:29Z</time>
      </trkpt>
      <trkpt lat="46.59683" lon="5.51459">
        <ele>459</ele>
        <time>2022-05-28T12:51:33Z</time>
      </trkpt>
      <trkpt lat="46.59692" lon="5.51463">
        <ele>459.4</ele>
        <time>2022-05-28T12:51:35Z</time>
      </trkpt>
      <trkpt lat="46.597" lon="5.51467">
        <ele>459.6</ele>
        <time>2022-05-28T12:51:37Z</time>
      </trkpt>
      <trkpt lat="46.59712" lon="5.51472">
        <ele>460.2</ele>
        <time>2022-05-28T12:51:40Z</time>
      </trkpt>
      <trkpt lat="46.5972" lon="5.51475">
        <ele>461</ele>
        <time>2022-05-28T12:51:42Z</time>
      </trkpt>
      <trkpt lat="46.59725" lon="5.51477">
        <ele>461.2</ele>
        <time>2022-05-28T12:51:43Z</time>
      </trkpt>
      <trkpt lat="46.59738" lon="5.51483">
        <ele>462.2</ele>
        <time>2022-05-28T12:51:46Z</time>
      </trkpt>
      <trkpt lat="46.59742" lon="5.51485">
        <ele>462.4</ele>
        <time>2022-05-28T12:51:47Z</time>
      </trkpt>
      <trkpt lat="46.59752" lon="5.51489">
        <ele>462.4</ele>
        <time>2022-05-28T12:51:49Z</time>
      </trkpt>
      <trkpt lat="46.59761" lon="5.51489">
        <ele>462.6</ele>
        <time>2022-05-28T12:51:51Z</time>
      </trkpt>
      <trkpt lat="46.59767" lon="5.51488">
        <ele>462.6</ele>
        <time>2022-05-28T12:51:52Z</time>
      </trkpt>
      <trkpt lat="46.59772" lon="5.51485">
        <ele>462.8</ele>
        <time>2022-05-28T12:51:53Z</time>
      </trkpt>
      <trkpt lat="46.59791" lon="5.51468">
        <ele>462.6</ele>
        <time>2022-05-28T12:51:57Z</time>
      </trkpt>
      <trkpt lat="46.59809" lon="5.51454">
        <ele>462.6</ele>
        <time>2022-05-28T12:52:01Z</time>
      </trkpt>
      <trkpt lat="46.59821" lon="5.51447">
        <ele>462.6</ele>
        <time>2022-05-28T12:52:04Z</time>
      </trkpt>
      <trkpt lat="46.59842" lon="5.51436">
        <ele>462.8</ele>
        <time>2022-05-28T12:52:09Z</time>
      </trkpt>
      <trkpt lat="46.59846" lon="5.51434">
        <ele>463.2</ele>
        <time>2022-05-28T12:52:10Z</time>
      </trkpt>
      <trkpt lat="46.59858" lon="5.51427">
        <ele>464.2</ele>
        <time>2022-05-28T12:52:14Z</time>
      </trkpt>
      <trkpt lat="46.59862" lon="5.51425">
        <ele>464.6</ele>
        <time>2022-05-28T12:52:15Z</time>
      </trkpt>
      <trkpt lat="46.59877" lon="5.51418">
        <ele>465.8</ele>
        <time>2022-05-28T12:52:18Z</time>
      </trkpt>
      <trkpt lat="46.59881" lon="5.51416">
        <ele>466.2</ele>
        <time>2022-05-28T12:52:19Z</time>
      </trkpt>
      <trkpt lat="46.599" lon="5.51411">
        <ele>467</ele>
        <time>2022-05-28T12:52:23Z</time>
      </trkpt>
      <trkpt lat="46.59906" lon="5.51411">
        <ele>467.2</ele>
        <time>2022-05-28T12:52:24Z</time>
      </trkpt>
      <trkpt lat="46.5993" lon="5.51412">
        <ele>467.2</ele>
        <time>2022-05-28T12:52:28Z</time>
      </trkpt>
      <trkpt lat="46.5994" lon="5.51416">
        <ele>467</ele>
        <time>2022-05-28T12:52:30Z</time>
      </trkpt>
      <trkpt lat="46.59953" lon="5.51427">
        <ele>466.6</ele>
        <time>2022-05-28T12:52:32Z</time>
      </trkpt>
      <trkpt lat="46.59963" lon="5.51441">
        <ele>466.4</ele>
        <time>2022-05-28T12:52:34Z</time>
      </trkpt>
      <trkpt lat="46.59966" lon="5.5145">
        <ele>466.4</ele>
        <time>2022-05-28T12:52:35Z</time>
      </trkpt>
      <trkpt lat="46.59972" lon="5.51474">
        <ele>465.8</ele>
        <time>2022-05-28T12:52:38Z</time>
      </trkpt>
      <trkpt lat="46.59975" lon="5.51491">
        <ele>465.6</ele>
        <time>2022-05-28T12:52:40Z</time>
      </trkpt>
      <trkpt lat="46.59979" lon="5.51531">
        <ele>465.4</ele>
        <time>2022-05-28T12:52:45Z</time>
      </trkpt>
      <trkpt lat="46.5998" lon="5.51543">
        <ele>465.4</ele>
        <time>2022-05-28T12:52:47Z</time>
      </trkpt>
      <trkpt lat="46.59979" lon="5.51582">
        <ele>466</ele>
        <time>2022-05-28T12:52:53Z</time>
      </trkpt>
      <trkpt lat="46.59978" lon="5.51589">
        <ele>466.4</ele>
        <time>2022-05-28T12:52:54Z</time>
      </trkpt>
      <trkpt lat="46.59972" lon="5.51613">
        <ele>467</ele>
        <time>2022-05-28T12:52:58Z</time>
      </trkpt>
      <trkpt lat="46.5997" lon="5.51618">
        <ele>467.2</ele>
        <time>2022-05-28T12:52:59Z</time>
      </trkpt>
      <trkpt lat="46.59964" lon="5.51629">
        <ele>468.2</ele>
        <time>2022-05-28T12:53:01Z</time>
      </trkpt>
      <trkpt lat="46.59962" lon="5.51633">
        <ele>468.4</ele>
        <time>2022-05-28T12:53:02Z</time>
      </trkpt>
      <trkpt lat="46.59954" lon="5.51646">
        <ele>469.4</ele>
        <time>2022-05-28T12:53:05Z</time>
      </trkpt>
      <trkpt lat="46.59946" lon="5.51659">
        <ele>470.6</ele>
        <time>2022-05-28T12:53:08Z</time>
      </trkpt>
      <trkpt lat="46.59931" lon="5.51684">
        <ele>471.8</ele>
        <time>2022-05-28T12:53:14Z</time>
      </trkpt>
      <trkpt lat="46.59923" lon="5.51701">
        <ele>472.8</ele>
        <time>2022-05-28T12:53:18Z</time>
      </trkpt>
      <trkpt lat="46.59919" lon="5.51715">
        <ele>474</ele>
        <time>2022-05-28T12:53:21Z</time>
      </trkpt>
      <trkpt lat="46.59911" lon="5.51748">
        <ele>475</ele>
        <time>2022-05-28T12:53:27Z</time>
      </trkpt>
      <trkpt lat="46.59909" lon="5.51759">
        <ele>475.8</ele>
        <time>2022-05-28T12:53:29Z</time>
      </trkpt>
      <trkpt lat="46.59906" lon="5.5177">
        <ele>476.2</ele>
        <time>2022-05-28T12:53:31Z</time>
      </trkpt>
      <trkpt lat="46.59898" lon="5.5179">
        <ele>477</ele>
        <time>2022-05-28T12:53:35Z</time>
      </trkpt>
      <trkpt lat="46.59892" lon="5.51798">
        <ele>477.2</ele>
        <time>2022-05-28T12:53:37Z</time>
      </trkpt>
      <trkpt lat="46.59875" lon="5.51821">
        <ele>478</ele>
        <time>2022-05-28T12:53:43Z</time>
      </trkpt>
      <trkpt lat="46.59868" lon="5.51829">
        <ele>478.4</ele>
        <time>2022-05-28T12:53:45Z</time>
      </trkpt>
      <trkpt lat="46.59865" lon="5.51833">
        <ele>478.6</ele>
        <time>2022-05-28T12:53:46Z</time>
      </trkpt>
      <trkpt lat="46.59851" lon="5.51847">
        <ele>479.2</ele>
        <time>2022-05-28T12:53:50Z</time>
      </trkpt>
      <trkpt lat="46.59839" lon="5.51857">
        <ele>479.4</ele>
        <time>2022-05-28T12:53:53Z</time>
      </trkpt>
      <trkpt lat="46.59816" lon="5.51875">
        <ele>480.6</ele>
        <time>2022-05-28T12:53:59Z</time>
      </trkpt>
      <trkpt lat="46.59783" lon="5.51892">
        <ele>481.6</ele>
        <time>2022-05-28T12:54:08Z</time>
      </trkpt>
      <trkpt lat="46.59768" lon="5.51899">
        <ele>482.8</ele>
        <time>2022-05-28T12:54:12Z</time>
      </trkpt>
      <trkpt lat="46.59749" lon="5.51909">
        <ele>483.8</ele>
        <time>2022-05-28T12:54:17Z</time>
      </trkpt>
      <trkpt lat="46.59745" lon="5.51911">
        <ele>483.8</ele>
        <time>2022-05-28T12:54:18Z</time>
      </trkpt>
      <trkpt lat="46.59731" lon="5.51918">
        <ele>484.6</ele>
        <time>2022-05-28T12:54:23Z</time>
      </trkpt>
      <trkpt lat="46.59723" lon="5.51921">
        <ele>485</ele>
        <time>2022-05-28T12:54:26Z</time>
      </trkpt>
      <trkpt lat="46.59717" lon="5.51923">
        <ele>485.2</ele>
        <time>2022-05-28T12:54:29Z</time>
      </trkpt>
      <trkpt lat="46.59715" lon="5.51923">
        <ele>485.4</ele>
        <time>2022-05-28T12:54:33Z</time>
      </trkpt>
      <trkpt lat="46.59709" lon="5.51924">
        <ele>484.8</ele>
        <time>2022-05-28T12:57:02Z</time>
      </trkpt>
      <trkpt lat="46.59706" lon="5.51924">
        <ele>484.8</ele>
        <time>2022-05-28T12:57:04Z</time>
      </trkpt>
      <trkpt lat="46.59694" lon="5.51919">
        <ele>484.8</ele>
        <time>2022-05-28T12:57:08Z</time>
      </trkpt>
      <trkpt lat="46.59675" lon="5.51918">
        <ele>485</ele>
        <time>2022-05-28T12:57:13Z</time>
      </trkpt>
      <trkpt lat="46.59664" lon="5.51934">
        <ele>485.2</ele>
        <time>2022-05-28T12:57:17Z</time>
      </trkpt>
      <trkpt lat="46.59658" lon="5.51957">
        <ele>485.8</ele>
        <time>2022-05-28T12:57:21Z</time>
      </trkpt>
      <trkpt lat="46.59654" lon="5.51961">
        <ele>485.8</ele>
        <time>2022-05-28T12:57:22Z</time>
      </trkpt>
      <trkpt lat="46.5965" lon="5.51965">
        <ele>486</ele>
        <time>2022-05-28T12:57:23Z</time>
      </trkpt>
      <trkpt lat="46.5964" lon="5.51969">
        <ele>486</ele>
        <time>2022-05-28T12:57:25Z</time>
      </trkpt>
      <trkpt lat="46.59634" lon="5.5197">
        <ele>486</ele>
        <time>2022-05-28T12:57:26Z</time>
      </trkpt>
      <trkpt lat="46.59597" lon="5.51973">
        <ele>486</ele>
        <time>2022-05-28T12:57:32Z</time>
      </trkpt>
      <trkpt lat="46.59545" lon="5.51976">
        <ele>485</ele>
        <time>2022-05-28T12:57:39Z</time>
      </trkpt>
      <trkpt lat="46.59528" lon="5.51977">
        <ele>484.6</ele>
        <time>2022-05-28T12:57:41Z</time>
      </trkpt>
      <trkpt lat="46.59485" lon="5.51981">
        <ele>483.4</ele>
        <time>2022-05-28T12:57:46Z</time>
      </trkpt>
      <trkpt lat="46.59476" lon="5.51981">
        <ele>483.2</ele>
        <time>2022-05-28T12:57:47Z</time>
      </trkpt>
      <trkpt lat="46.59438" lon="5.51985">
        <ele>482.2</ele>
        <time>2022-05-28T12:57:51Z</time>
      </trkpt>
      <trkpt lat="46.59411" lon="5.51987">
        <ele>481.4</ele>
        <time>2022-05-28T12:57:54Z</time>
      </trkpt>
      <trkpt lat="46.59402" lon="5.51987">
        <ele>480.8</ele>
        <time>2022-05-28T12:57:55Z</time>
      </trkpt>
      <trkpt lat="46.59384" lon="5.51988">
        <ele>480.4</ele>
        <time>2022-05-28T12:57:57Z</time>
      </trkpt>
      <trkpt lat="46.59359" lon="5.51988">
        <ele>479.8</ele>
        <time>2022-05-28T12:58:00Z</time>
      </trkpt>
      <trkpt lat="46.5935" lon="5.51989">
        <ele>479.8</ele>
        <time>2022-05-28T12:58:01Z</time>
      </trkpt>
      <trkpt lat="46.59292" lon="5.51987">
        <ele>479.4</ele>
        <time>2022-05-28T12:58:08Z</time>
      </trkpt>
      <trkpt lat="46.59236" lon="5.5198">
        <ele>479.4</ele>
        <time>2022-05-28T12:58:15Z</time>
      </trkpt>
      <trkpt lat="46.59212" lon="5.51976">
        <ele>479.4</ele>
        <time>2022-05-28T12:58:18Z</time>
      </trkpt>
      <trkpt lat="46.59165" lon="5.51967">
        <ele>480.2</ele>
        <time>2022-05-28T12:58:25Z</time>
      </trkpt>
      <trkpt lat="46.59146" lon="5.51962">
        <ele>481</ele>
        <time>2022-05-28T12:58:28Z</time>
      </trkpt>
      <trkpt lat="46.59121" lon="5.51957">
        <ele>481.4</ele>
        <time>2022-05-28T12:58:32Z</time>
      </trkpt>
      <trkpt lat="46.5908" lon="5.51949">
        <ele>482.2</ele>
        <time>2022-05-28T12:58:39Z</time>
      </trkpt>
      <trkpt lat="46.59068" lon="5.51947">
        <ele>482.2</ele>
        <time>2022-05-28T12:58:41Z</time>
      </trkpt>
      <trkpt lat="46.59016" lon="5.51942">
        <ele>482.2</ele>
        <time>2022-05-28T12:58:50Z</time>
      </trkpt>
      <trkpt lat="46.58973" lon="5.51942">
        <ele>482.2</ele>
        <time>2022-05-28T12:58:57Z</time>
      </trkpt>
      <trkpt lat="46.58925" lon="5.51938">
        <ele>481.8</ele>
        <time>2022-05-28T12:59:04Z</time>
      </trkpt>
      <trkpt lat="46.58873" lon="5.51926">
        <ele>482.2</ele>
        <time>2022-05-28T12:59:12Z</time>
      </trkpt>
      <trkpt lat="46.58831" lon="5.51919">
        <ele>483.2</ele>
        <time>2022-05-28T12:59:19Z</time>
      </trkpt>
      <trkpt lat="46.58819" lon="5.51918">
        <ele>483.4</ele>
        <time>2022-05-28T12:59:21Z</time>
      </trkpt>
      <trkpt lat="46.5876" lon="5.51917">
        <ele>483.8</ele>
        <time>2022-05-28T12:59:30Z</time>
      </trkpt>
      <trkpt lat="46.5872" lon="5.51907">
        <ele>483.8</ele>
        <time>2022-05-28T12:59:36Z</time>
      </trkpt>
      <trkpt lat="46.587" lon="5.51897">
        <ele>483.6</ele>
        <time>2022-05-28T12:59:39Z</time>
      </trkpt>
      <trkpt lat="46.5868" lon="5.51884">
        <ele>483.4</ele>
        <time>2022-05-28T12:59:42Z</time>
      </trkpt>
      <trkpt lat="46.58626" lon="5.51848">
        <ele>482.2</ele>
        <time>2022-05-28T12:59:50Z</time>
      </trkpt>
      <trkpt lat="46.58619" lon="5.51845">
        <ele>482</ele>
        <time>2022-05-28T12:59:51Z</time>
      </trkpt>
      <trkpt lat="46.58602" lon="5.51838">
        <ele>481.8</ele>
        <time>2022-05-28T12:59:53Z</time>
      </trkpt>
      <trkpt lat="46.58588" lon="5.51833">
        <ele>481.6</ele>
        <time>2022-05-28T12:59:55Z</time>
      </trkpt>
      <trkpt lat="46.58545" lon="5.51817">
        <ele>481</ele>
        <time>2022-05-28T13:00:00Z</time>
      </trkpt>
      <trkpt lat="46.58536" lon="5.51813">
        <ele>480.6</ele>
        <time>2022-05-28T13:00:01Z</time>
      </trkpt>
      <trkpt lat="46.58519" lon="5.51806">
        <ele>479.8</ele>
        <time>2022-05-28T13:00:03Z</time>
      </trkpt>
      <trkpt lat="46.58474" lon="5.5179">
        <ele>478.8</ele>
        <time>2022-05-28T13:00:08Z</time>
      </trkpt>
      <trkpt lat="46.58465" lon="5.51787">
        <ele>478.8</ele>
        <time>2022-05-28T13:00:09Z</time>
      </trkpt>
      <trkpt lat="46.5842" lon="5.51775">
        <ele>477.8</ele>
        <time>2022-05-28T13:00:14Z</time>
      </trkpt>
      <trkpt lat="46.5837" lon="5.51758">
        <ele>477.2</ele>
        <time>2022-05-28T13:00:19Z</time>
      </trkpt>
      <trkpt lat="46.5836" lon="5.51753">
        <ele>476.8</ele>
        <time>2022-05-28T13:00:20Z</time>
      </trkpt>
      <trkpt lat="46.5834" lon="5.51743">
        <ele>475.6</ele>
        <time>2022-05-28T13:00:22Z</time>
      </trkpt>
      <trkpt lat="46.58321" lon="5.51731">
        <ele>475</ele>
        <time>2022-05-28T13:00:24Z</time>
      </trkpt>
      <trkpt lat="46.58311" lon="5.51723">
        <ele>474.6</ele>
        <time>2022-05-28T13:00:25Z</time>
      </trkpt>
      <trkpt lat="46.58279" lon="5.51697">
        <ele>473.6</ele>
        <time>2022-05-28T13:00:29Z</time>
      </trkpt>
      <trkpt lat="46.58271" lon="5.5169">
        <ele>473.4</ele>
        <time>2022-05-28T13:00:30Z</time>
      </trkpt>
      <trkpt lat="46.58225" lon="5.5166">
        <ele>473.2</ele>
        <time>2022-05-28T13:00:36Z</time>
      </trkpt>
      <trkpt lat="46.58177" lon="5.5164">
        <ele>473</ele>
        <time>2022-05-28T13:00:42Z</time>
      </trkpt>
      <trkpt lat="46.58169" lon="5.51639">
        <ele>472.6</ele>
        <time>2022-05-28T13:00:43Z</time>
      </trkpt>
      <trkpt lat="46.58161" lon="5.51637">
        <ele>472.4</ele>
        <time>2022-05-28T13:00:44Z</time>
      </trkpt>
      <trkpt lat="46.58128" lon="5.51628">
        <ele>471.6</ele>
        <time>2022-05-28T13:00:48Z</time>
      </trkpt>
      <trkpt lat="46.58112" lon="5.51625">
        <ele>471</ele>
        <time>2022-05-28T13:00:50Z</time>
      </trkpt>
      <trkpt lat="46.58067" lon="5.51614">
        <ele>470.2</ele>
        <time>2022-05-28T13:00:55Z</time>
      </trkpt>
      <trkpt lat="46.58058" lon="5.51612">
        <ele>470</ele>
        <time>2022-05-28T13:00:56Z</time>
      </trkpt>
      <trkpt lat="46.58011" lon="5.51601">
        <ele>469</ele>
        <time>2022-05-28T13:01:01Z</time>
      </trkpt>
      <trkpt lat="46.58001" lon="5.51598">
        <ele>468</ele>
        <time>2022-05-28T13:01:02Z</time>
      </trkpt>
      <trkpt lat="46.57992" lon="5.51595">
        <ele>467.8</ele>
        <time>2022-05-28T13:01:03Z</time>
      </trkpt>
      <trkpt lat="46.57943" lon="5.51578">
        <ele>466.6</ele>
        <time>2022-05-28T13:01:08Z</time>
      </trkpt>
      <trkpt lat="46.57922" lon="5.5157">
        <ele>466</ele>
        <time>2022-05-28T13:01:10Z</time>
      </trkpt>
      <trkpt lat="46.57912" lon="5.51567">
        <ele>465.4</ele>
        <time>2022-05-28T13:01:11Z</time>
      </trkpt>
      <trkpt lat="46.5788" lon="5.51554">
        <ele>464.4</ele>
        <time>2022-05-28T13:01:14Z</time>
      </trkpt>
      <trkpt lat="46.57858" lon="5.51546">
        <ele>463.2</ele>
        <time>2022-05-28T13:01:16Z</time>
      </trkpt>
      <trkpt lat="46.57846" lon="5.51542">
        <ele>462.6</ele>
        <time>2022-05-28T13:01:17Z</time>
      </trkpt>
      <trkpt lat="46.57835" lon="5.51537">
        <ele>461.8</ele>
        <time>2022-05-28T13:01:18Z</time>
      </trkpt>
      <trkpt lat="46.57812" lon="5.51529">
        <ele>460.6</ele>
        <time>2022-05-28T13:01:20Z</time>
      </trkpt>
      <trkpt lat="46.57789" lon="5.51521">
        <ele>459.2</ele>
        <time>2022-05-28T13:01:22Z</time>
      </trkpt>
      <trkpt lat="46.57765" lon="5.51512">
        <ele>458</ele>
        <time>2022-05-28T13:01:24Z</time>
      </trkpt>
      <trkpt lat="46.57741" lon="5.51503">
        <ele>457</ele>
        <time>2022-05-28T13:01:26Z</time>
      </trkpt>
      <trkpt lat="46.57705" lon="5.51489">
        <ele>455.4</ele>
        <time>2022-05-28T13:01:29Z</time>
      </trkpt>
      <trkpt lat="46.57681" lon="5.51477">
        <ele>454.6</ele>
        <time>2022-05-28T13:01:31Z</time>
      </trkpt>
      <trkpt lat="46.5767" lon="5.51469">
        <ele>454</ele>
        <time>2022-05-28T13:01:32Z</time>
      </trkpt>
      <trkpt lat="46.5765" lon="5.51451">
        <ele>453.2</ele>
        <time>2022-05-28T13:01:34Z</time>
      </trkpt>
      <trkpt lat="46.57633" lon="5.5143">
        <ele>452.4</ele>
        <time>2022-05-28T13:01:36Z</time>
      </trkpt>
      <trkpt lat="46.57618" lon="5.51409">
        <ele>452</ele>
        <time>2022-05-28T13:01:38Z</time>
      </trkpt>
      <trkpt lat="46.57605" lon="5.51389">
        <ele>451.8</ele>
        <time>2022-05-28T13:01:40Z</time>
      </trkpt>
      <trkpt lat="46.57588" lon="5.51361">
        <ele>451.6</ele>
        <time>2022-05-28T13:01:43Z</time>
      </trkpt>
      <trkpt lat="46.57558" lon="5.51315">
        <ele>453</ele>
        <time>2022-05-28T13:01:49Z</time>
      </trkpt>
      <trkpt lat="46.57541" lon="5.51291">
        <ele>453.8</ele>
        <time>2022-05-28T13:01:53Z</time>
      </trkpt>
      <trkpt lat="46.57534" lon="5.5128">
        <ele>454.4</ele>
        <time>2022-05-28T13:01:55Z</time>
      </trkpt>
      <trkpt lat="46.57525" lon="5.5127">
        <ele>454.8</ele>
        <time>2022-05-28T13:01:57Z</time>
      </trkpt>
      <trkpt lat="46.57512" lon="5.51258">
        <ele>456.4</ele>
        <time>2022-05-28T13:02:00Z</time>
      </trkpt>
      <trkpt lat="46.57508" lon="5.51255">
        <ele>456.6</ele>
        <time>2022-05-28T13:02:01Z</time>
      </trkpt>
      <trkpt lat="46.57494" lon="5.51246">
        <ele>457.6</ele>
        <time>2022-05-28T13:02:04Z</time>
      </trkpt>
      <trkpt lat="46.57469" lon="5.5123">
        <ele>458.4</ele>
        <time>2022-05-28T13:02:10Z</time>
      </trkpt>
      <trkpt lat="46.57464" lon="5.51228">
        <ele>458.6</ele>
        <time>2022-05-28T13:02:11Z</time>
      </trkpt>
      <trkpt lat="46.57435" lon="5.5121">
        <ele>459.6</ele>
        <time>2022-05-28T13:02:18Z</time>
      </trkpt>
      <trkpt lat="46.57427" lon="5.51205">
        <ele>460</ele>
        <time>2022-05-28T13:02:20Z</time>
      </trkpt>
      <trkpt lat="46.57415" lon="5.51198">
        <ele>460.8</ele>
        <time>2022-05-28T13:02:23Z</time>
      </trkpt>
      <trkpt lat="46.57394" lon="5.51185">
        <ele>461.8</ele>
        <time>2022-05-28T13:02:28Z</time>
      </trkpt>
      <trkpt lat="46.57386" lon="5.51179">
        <ele>462.2</ele>
        <time>2022-05-28T13:02:30Z</time>
      </trkpt>
      <trkpt lat="46.57374" lon="5.51171">
        <ele>462.8</ele>
        <time>2022-05-28T13:02:33Z</time>
      </trkpt>
      <trkpt lat="46.57357" lon="5.5116">
        <ele>463.8</ele>
        <time>2022-05-28T13:02:37Z</time>
      </trkpt>
      <trkpt lat="46.57344" lon="5.51152">
        <ele>464.4</ele>
        <time>2022-05-28T13:02:40Z</time>
      </trkpt>
      <trkpt lat="46.57339" lon="5.5115">
        <ele>465</ele>
        <time>2022-05-28T13:02:41Z</time>
      </trkpt>
      <trkpt lat="46.57323" lon="5.51142">
        <ele>465.8</ele>
        <time>2022-05-28T13:02:45Z</time>
      </trkpt>
      <trkpt lat="46.57319" lon="5.5114">
        <ele>466.2</ele>
        <time>2022-05-28T13:02:46Z</time>
      </trkpt>
      <trkpt lat="46.57311" lon="5.51138">
        <ele>466.6</ele>
        <time>2022-05-28T13:02:48Z</time>
      </trkpt>
      <trkpt lat="46.57296" lon="5.51134">
        <ele>467.2</ele>
        <time>2022-05-28T13:02:52Z</time>
      </trkpt>
      <trkpt lat="46.57277" lon="5.51129">
        <ele>468.4</ele>
        <time>2022-05-28T13:02:57Z</time>
      </trkpt>
      <trkpt lat="46.57269" lon="5.51126">
        <ele>468.8</ele>
        <time>2022-05-28T13:02:59Z</time>
      </trkpt>
      <trkpt lat="46.57248" lon="5.51116">
        <ele>469.4</ele>
        <time>2022-05-28T13:03:05Z</time>
      </trkpt>
      <trkpt lat="46.57234" lon="5.51105">
        <ele>470.4</ele>
        <time>2022-05-28T13:03:09Z</time>
      </trkpt>
      <trkpt lat="46.57231" lon="5.51102">
        <ele>470.6</ele>
        <time>2022-05-28T13:03:10Z</time>
      </trkpt>
      <trkpt lat="46.5722" lon="5.51089">
        <ele>471.6</ele>
        <time>2022-05-28T13:03:14Z</time>
      </trkpt>
      <trkpt lat="46.57209" lon="5.51075">
        <ele>472.4</ele>
        <time>2022-05-28T13:03:18Z</time>
      </trkpt>
      <trkpt lat="46.57206" lon="5.5107">
        <ele>472.8</ele>
        <time>2022-05-28T13:03:19Z</time>
      </trkpt>
      <trkpt lat="46.57189" lon="5.51047">
        <ele>473.8</ele>
        <time>2022-05-28T13:03:25Z</time>
      </trkpt>
      <trkpt lat="46.57179" lon="5.51037">
        <ele>474.4</ele>
        <time>2022-05-28T13:03:28Z</time>
      </trkpt>
      <trkpt lat="46.57168" lon="5.51027">
        <ele>475</ele>
        <time>2022-05-28T13:03:31Z</time>
      </trkpt>
      <trkpt lat="46.57149" lon="5.51013">
        <ele>475.8</ele>
        <time>2022-05-28T13:03:36Z</time>
      </trkpt>
      <trkpt lat="46.57145" lon="5.51011">
        <ele>476</ele>
        <time>2022-05-28T13:03:37Z</time>
      </trkpt>
      <trkpt lat="46.57133" lon="5.51005">
        <ele>477.2</ele>
        <time>2022-05-28T13:03:40Z</time>
      </trkpt>
      <trkpt lat="46.57106" lon="5.50994">
        <ele>478.2</ele>
        <time>2022-05-28T13:03:46Z</time>
      </trkpt>
      <trkpt lat="46.57074" lon="5.50981">
        <ele>479.4</ele>
        <time>2022-05-28T13:03:53Z</time>
      </trkpt>
      <trkpt lat="46.57056" lon="5.50971">
        <ele>480</ele>
        <time>2022-05-28T13:03:57Z</time>
      </trkpt>
      <trkpt lat="46.57047" lon="5.50964">
        <ele>480.4</ele>
        <time>2022-05-28T13:03:59Z</time>
      </trkpt>
      <trkpt lat="46.57023" lon="5.50941">
        <ele>481.2</ele>
        <time>2022-05-28T13:04:05Z</time>
      </trkpt>
      <trkpt lat="46.57016" lon="5.50932">
        <ele>481.8</ele>
        <time>2022-05-28T13:04:07Z</time>
      </trkpt>
      <trkpt lat="46.57007" lon="5.50917">
        <ele>482.4</ele>
        <time>2022-05-28T13:04:10Z</time>
      </trkpt>
      <trkpt lat="46.57001" lon="5.50907">
        <ele>483.2</ele>
        <time>2022-05-28T13:04:12Z</time>
      </trkpt>
      <trkpt lat="46.5699" lon="5.50886">
        <ele>484.2</ele>
        <time>2022-05-28T13:04:16Z</time>
      </trkpt>
      <trkpt lat="46.56983" lon="5.5087">
        <ele>485.2</ele>
        <time>2022-05-28T13:04:19Z</time>
      </trkpt>
      <trkpt lat="46.56981" lon="5.50864">
        <ele>485.4</ele>
        <time>2022-05-28T13:04:20Z</time>
      </trkpt>
      <trkpt lat="46.56975" lon="5.50847">
        <ele>486.6</ele>
        <time>2022-05-28T13:04:23Z</time>
      </trkpt>
      <trkpt lat="46.5697" lon="5.50829">
        <ele>487.2</ele>
        <time>2022-05-28T13:04:26Z</time>
      </trkpt>
      <trkpt lat="46.56968" lon="5.50817">
        <ele>487.6</ele>
        <time>2022-05-28T13:04:28Z</time>
      </trkpt>
      <trkpt lat="46.56967" lon="5.50811">
        <ele>487.8</ele>
        <time>2022-05-28T13:04:29Z</time>
      </trkpt>
      <trkpt lat="46.5696" lon="5.5078">
        <ele>489</ele>
        <time>2022-05-28T13:04:34Z</time>
      </trkpt>
      <trkpt lat="46.56955" lon="5.50756">
        <ele>490.4</ele>
        <time>2022-05-28T13:04:38Z</time>
      </trkpt>
      <trkpt lat="46.56954" lon="5.5075">
        <ele>490.4</ele>
        <time>2022-05-28T13:04:39Z</time>
      </trkpt>
      <trkpt lat="46.56947" lon="5.50721">
        <ele>491.6</ele>
        <time>2022-05-28T13:04:44Z</time>
      </trkpt>
      <trkpt lat="46.56939" lon="5.50699">
        <ele>492.6</ele>
        <time>2022-05-28T13:04:48Z</time>
      </trkpt>
      <trkpt lat="46.56935" lon="5.50688">
        <ele>493.2</ele>
        <time>2022-05-28T13:04:50Z</time>
      </trkpt>
      <trkpt lat="46.5693" lon="5.50678">
        <ele>494</ele>
        <time>2022-05-28T13:04:52Z</time>
      </trkpt>
      <trkpt lat="46.5692" lon="5.50658">
        <ele>494.8</ele>
        <time>2022-05-28T13:04:56Z</time>
      </trkpt>
      <trkpt lat="46.56917" lon="5.50653">
        <ele>495</ele>
        <time>2022-05-28T13:04:57Z</time>
      </trkpt>
      <trkpt lat="46.56914" lon="5.50649">
        <ele>495.2</ele>
        <time>2022-05-28T13:04:58Z</time>
      </trkpt>
      <trkpt lat="46.56904" lon="5.50635">
        <ele>496.2</ele>
        <time>2022-05-28T13:05:01Z</time>
      </trkpt>
      <trkpt lat="46.56889" lon="5.5062">
        <ele>497.2</ele>
        <time>2022-05-28T13:05:05Z</time>
      </trkpt>
      <trkpt lat="46.56882" lon="5.50613">
        <ele>497.6</ele>
        <time>2022-05-28T13:05:07Z</time>
      </trkpt>
      <trkpt lat="46.5685" lon="5.50592">
        <ele>498.2</ele>
        <time>2022-05-28T13:05:14Z</time>
      </trkpt>
      <trkpt lat="46.56845" lon="5.50589">
        <ele>498.6</ele>
        <time>2022-05-28T13:05:15Z</time>
      </trkpt>
      <trkpt lat="46.56804" lon="5.5057">
        <ele>499</ele>
        <time>2022-05-28T13:05:22Z</time>
      </trkpt>
      <trkpt lat="46.56753" lon="5.50549">
        <ele>498.4</ele>
        <time>2022-05-28T13:05:30Z</time>
      </trkpt>
      <trkpt lat="46.56699" lon="5.50526">
        <ele>498.2</ele>
        <time>2022-05-28T13:05:38Z</time>
      </trkpt>
      <trkpt lat="46.56693" lon="5.50523">
        <ele>498.2</ele>
        <time>2022-05-28T13:05:39Z</time>
      </trkpt>
      <trkpt lat="46.56637" lon="5.50502">
        <ele>498.2</ele>
        <time>2022-05-28T13:05:48Z</time>
      </trkpt>
      <trkpt lat="46.56597" lon="5.50486">
        <ele>498.2</ele>
        <time>2022-05-28T13:05:55Z</time>
      </trkpt>
      <trkpt lat="46.56547" lon="5.50466">
        <ele>498.4</ele>
        <time>2022-05-28T13:06:04Z</time>
      </trkpt>
      <trkpt lat="46.565" lon="5.50445">
        <ele>498.8</ele>
        <time>2022-05-28T13:06:12Z</time>
      </trkpt>
      <trkpt lat="46.5645" lon="5.50413">
        <ele>498.8</ele>
        <time>2022-05-28T13:06:20Z</time>
      </trkpt>
      <trkpt lat="46.564" lon="5.50371">
        <ele>498</ele>
        <time>2022-05-28T13:06:27Z</time>
      </trkpt>
      <trkpt lat="46.56367" lon="5.50342">
        <ele>497</ele>
        <time>2022-05-28T13:06:31Z</time>
      </trkpt>
      <trkpt lat="46.5635" lon="5.50326">
        <ele>496.4</ele>
        <time>2022-05-28T13:06:33Z</time>
      </trkpt>
      <trkpt lat="46.56332" lon="5.50309">
        <ele>496</ele>
        <time>2022-05-28T13:06:35Z</time>
      </trkpt>
      <trkpt lat="46.56296" lon="5.50277">
        <ele>495</ele>
        <time>2022-05-28T13:06:39Z</time>
      </trkpt>
      <trkpt lat="46.56287" lon="5.50269">
        <ele>494.6</ele>
        <time>2022-05-28T13:06:40Z</time>
      </trkpt>
      <trkpt lat="46.56261" lon="5.50245">
        <ele>494</ele>
        <time>2022-05-28T13:06:43Z</time>
      </trkpt>
      <trkpt lat="46.56233" lon="5.50221">
        <ele>492.6</ele>
        <time>2022-05-28T13:06:46Z</time>
      </trkpt>
      <trkpt lat="46.56215" lon="5.50205">
        <ele>491.4</ele>
        <time>2022-05-28T13:06:48Z</time>
      </trkpt>
      <trkpt lat="46.56198" lon="5.5019">
        <ele>490.6</ele>
        <time>2022-05-28T13:06:50Z</time>
      </trkpt>
      <trkpt lat="46.56187" lon="5.50181">
        <ele>490.4</ele>
        <time>2022-05-28T13:06:51Z</time>
      </trkpt>
      <trkpt lat="46.56152" lon="5.50156">
        <ele>489</ele>
        <time>2022-05-28T13:06:55Z</time>
      </trkpt>
      <trkpt lat="46.56134" lon="5.50145">
        <ele>488.6</ele>
        <time>2022-05-28T13:06:57Z</time>
      </trkpt>
      <trkpt lat="46.56097" lon="5.50125">
        <ele>488</ele>
        <time>2022-05-28T13:07:01Z</time>
      </trkpt>
      <trkpt lat="46.56072" lon="5.50112">
        <ele>487.6</ele>
        <time>2022-05-28T13:07:04Z</time>
      </trkpt>
      <trkpt lat="46.56025" lon="5.50087">
        <ele>487.6</ele>
        <time>2022-05-28T13:07:10Z</time>
      </trkpt>
      <trkpt lat="46.55973" lon="5.50064">
        <ele>487.4</ele>
        <time>2022-05-28T13:07:17Z</time>
      </trkpt>
      <trkpt lat="46.55964" lon="5.5006">
        <ele>487.4</ele>
        <time>2022-05-28T13:07:18Z</time>
      </trkpt>
      <trkpt lat="46.55934" lon="5.50049">
        <ele>486.8</ele>
        <time>2022-05-28T13:07:22Z</time>
      </trkpt>
      <trkpt lat="46.55905" lon="5.50033">
        <ele>486.6</ele>
        <time>2022-05-28T13:07:26Z</time>
      </trkpt>
      <trkpt lat="46.55868" lon="5.49997">
        <ele>486.6</ele>
        <time>2022-05-28T13:07:32Z</time>
      </trkpt>
      <trkpt lat="46.55824" lon="5.49948">
        <ele>486.8</ele>
        <time>2022-05-28T13:07:40Z</time>
      </trkpt>
      <trkpt lat="46.55819" lon="5.49942">
        <ele>486.8</ele>
        <time>2022-05-28T13:07:41Z</time>
      </trkpt>
      <trkpt lat="46.55775" lon="5.49892">
        <ele>487</ele>
        <time>2022-05-28T13:07:49Z</time>
      </trkpt>
      <trkpt lat="46.55743" lon="5.49847">
        <ele>487.8</ele>
        <time>2022-05-28T13:07:56Z</time>
      </trkpt>
      <trkpt lat="46.55727" lon="5.49821">
        <ele>488</ele>
        <time>2022-05-28T13:08:00Z</time>
      </trkpt>
      <trkpt lat="46.55723" lon="5.49814">
        <ele>488</ele>
        <time>2022-05-28T13:08:01Z</time>
      </trkpt>
      <trkpt lat="46.5572" lon="5.49807">
        <ele>488.2</ele>
        <time>2022-05-28T13:08:02Z</time>
      </trkpt>
      <trkpt lat="46.5569" lon="5.49756">
        <ele>488.6</ele>
        <time>2022-05-28T13:08:10Z</time>
      </trkpt>
      <trkpt lat="46.55672" lon="5.49729">
        <ele>488.8</ele>
        <time>2022-05-28T13:08:15Z</time>
      </trkpt>
      <trkpt lat="46.55669" lon="5.49723">
        <ele>489</ele>
        <time>2022-05-28T13:08:16Z</time>
      </trkpt>
      <trkpt lat="46.55654" lon="5.497">
        <ele>489.2</ele>
        <time>2022-05-28T13:08:20Z</time>
      </trkpt>
      <trkpt lat="46.55639" lon="5.49679">
        <ele>489.2</ele>
        <time>2022-05-28T13:08:24Z</time>
      </trkpt>
      <trkpt lat="46.55635" lon="5.49675">
        <ele>489.2</ele>
        <time>2022-05-28T13:08:25Z</time>
      </trkpt>
      <trkpt lat="46.55628" lon="5.49665">
        <ele>489</ele>
        <time>2022-05-28T13:08:28Z</time>
      </trkpt>
      <trkpt lat="46.55615" lon="5.49648">
        <ele>489</ele>
        <time>2022-05-28T13:08:35Z</time>
      </trkpt>
      <trkpt lat="46.55604" lon="5.49632">
        <ele>489.2</ele>
        <time>2022-05-28T13:08:39Z</time>
      </trkpt>
      <trkpt lat="46.55588" lon="5.49612">
        <ele>489</ele>
        <time>2022-05-28T13:08:44Z</time>
      </trkpt>
      <trkpt lat="46.55563" lon="5.49577">
        <ele>488.8</ele>
        <time>2022-05-28T13:08:51Z</time>
      </trkpt>
      <trkpt lat="46.55531" lon="5.49534">
        <ele>489.8</ele>
        <time>2022-05-28T13:08:59Z</time>
      </trkpt>
      <trkpt lat="46.55523" lon="5.49525">
        <ele>490</ele>
        <time>2022-05-28T13:09:01Z</time>
      </trkpt>
      <trkpt lat="46.55518" lon="5.49519">
        <ele>490.2</ele>
        <time>2022-05-28T13:09:02Z</time>
      </trkpt>
      <trkpt lat="46.5551" lon="5.49508">
        <ele>490.4</ele>
        <time>2022-05-28T13:09:04Z</time>
      </trkpt>
      <trkpt lat="46.55476" lon="5.49466">
        <ele>490.8</ele>
        <time>2022-05-28T13:09:12Z</time>
      </trkpt>
      <trkpt lat="46.55473" lon="5.49462">
        <ele>490.8</ele>
        <time>2022-05-28T13:09:13Z</time>
      </trkpt>
      <trkpt lat="46.55466" lon="5.49453">
        <ele>491.2</ele>
        <time>2022-05-28T13:09:15Z</time>
      </trkpt>
      <trkpt lat="46.5546" lon="5.49445">
        <ele>491.4</ele>
        <time>2022-05-28T13:09:17Z</time>
      </trkpt>
      <trkpt lat="46.5545" lon="5.49433">
        <ele>492.2</ele>
        <time>2022-05-28T13:09:20Z</time>
      </trkpt>
      <trkpt lat="46.55443" lon="5.49423">
        <ele>492.8</ele>
        <time>2022-05-28T13:09:23Z</time>
      </trkpt>
      <trkpt lat="46.55436" lon="5.49414">
        <ele>493.2</ele>
        <time>2022-05-28T13:09:26Z</time>
      </trkpt>
      <trkpt lat="46.55431" lon="5.4941">
        <ele>493.6</ele>
        <time>2022-05-28T13:09:28Z</time>
      </trkpt>
      <trkpt lat="46.55418" lon="5.49396">
        <ele>494.4</ele>
        <time>2022-05-28T13:09:33Z</time>
      </trkpt>
      <trkpt lat="46.55412" lon="5.49389">
        <ele>494.4</ele>
        <time>2022-05-28T13:09:35Z</time>
      </trkpt>
      <trkpt lat="46.55386" lon="5.49367">
        <ele>495</ele>
        <time>2022-05-28T13:09:42Z</time>
      </trkpt>
      <trkpt lat="46.55374" lon="5.4936">
        <ele>495.4</ele>
        <time>2022-05-28T13:09:45Z</time>
      </trkpt>
      <trkpt lat="46.55349" lon="5.49348">
        <ele>495.8</ele>
        <time>2022-05-28T13:09:51Z</time>
      </trkpt>
      <trkpt lat="46.55311" lon="5.49338">
        <ele>496.2</ele>
        <time>2022-05-28T13:09:59Z</time>
      </trkpt>
      <trkpt lat="46.55287" lon="5.49331">
        <ele>496.2</ele>
        <time>2022-05-28T13:10:04Z</time>
      </trkpt>
      <trkpt lat="46.55278" lon="5.49327">
        <ele>496.4</ele>
        <time>2022-05-28T13:10:06Z</time>
      </trkpt>
      <trkpt lat="46.55274" lon="5.49323">
        <ele>496.4</ele>
        <time>2022-05-28T13:10:07Z</time>
      </trkpt>
      <trkpt lat="46.55267" lon="5.49316">
        <ele>496.4</ele>
        <time>2022-05-28T13:10:09Z</time>
      </trkpt>
      <trkpt lat="46.55251" lon="5.49296">
        <ele>497</ele>
        <time>2022-05-28T13:10:14Z</time>
      </trkpt>
      <trkpt lat="46.5525" lon="5.49291">
        <ele>497.2</ele>
        <time>2022-05-28T13:10:15Z</time>
      </trkpt>
      <trkpt lat="46.55253" lon="5.4928">
        <ele>497.4</ele>
        <time>2022-05-28T13:10:17Z</time>
      </trkpt>
      <trkpt lat="46.5526" lon="5.49268">
        <ele>497.4</ele>
        <time>2022-05-28T13:10:19Z</time>
      </trkpt>
      <trkpt lat="46.55274" lon="5.49246">
        <ele>497.6</ele>
        <time>2022-05-28T13:10:23Z</time>
      </trkpt>
      <trkpt lat="46.55304" lon="5.49196">
        <ele>497.2</ele>
        <time>2022-05-28T13:10:30Z</time>
      </trkpt>
      <trkpt lat="46.55324" lon="5.49146">
        <ele>496.6</ele>
        <time>2022-05-28T13:10:36Z</time>
      </trkpt>
      <trkpt lat="46.55336" lon="5.49125">
        <ele>496.4</ele>
        <time>2022-05-28T13:10:39Z</time>
      </trkpt>
      <trkpt lat="46.5534" lon="5.49119">
        <ele>496.4</ele>
        <time>2022-05-28T13:10:40Z</time>
      </trkpt>
      <trkpt lat="46.55345" lon="5.49116">
        <ele>496.4</ele>
        <time>2022-05-28T13:10:41Z</time>
      </trkpt>
      <trkpt lat="46.55355" lon="5.4911">
        <ele>496.4</ele>
        <time>2022-05-28T13:10:43Z</time>
      </trkpt>
      <trkpt lat="46.55368" lon="5.49107">
        <ele>496.6</ele>
        <time>2022-05-28T13:10:46Z</time>
      </trkpt>
      <trkpt lat="46.55373" lon="5.49106">
        <ele>497</ele>
        <time>2022-05-28T13:10:47Z</time>
      </trkpt>
      <trkpt lat="46.55385" lon="5.49104">
        <ele>497.8</ele>
        <time>2022-05-28T13:10:50Z</time>
      </trkpt>
      <trkpt lat="46.55388" lon="5.49103">
        <ele>498</ele>
        <time>2022-05-28T13:10:51Z</time>
      </trkpt>
      <trkpt lat="46.55391" lon="5.49101">
        <ele>498.6</ele>
        <time>2022-05-28T13:10:52Z</time>
      </trkpt>
      <trkpt lat="46.55395" lon="5.49101">
        <ele>499</ele>
        <time>2022-05-28T13:10:53Z</time>
      </trkpt>
      <trkpt lat="46.5542" lon="5.49101">
        <ele>500</ele>
        <time>2022-05-28T13:10:59Z</time>
      </trkpt>
      <trkpt lat="46.55424" lon="5.49104">
        <ele>500.2</ele>
        <time>2022-05-28T13:11:00Z</time>
      </trkpt>
      <trkpt lat="46.5544" lon="5.49118">
        <ele>501.2</ele>
        <time>2022-05-28T13:11:04Z</time>
      </trkpt>
      <trkpt lat="46.5545" lon="5.49128">
        <ele>501.4</ele>
        <time>2022-05-28T13:11:07Z</time>
      </trkpt>
      <trkpt lat="46.55467" lon="5.49146">
        <ele>502.2</ele>
        <time>2022-05-28T13:11:12Z</time>
      </trkpt>
      <trkpt lat="46.55474" lon="5.49155">
        <ele>502.2</ele>
        <time>2022-05-28T13:11:14Z</time>
      </trkpt>
      <trkpt lat="46.55505" lon="5.49188">
        <ele>502.2</ele>
        <time>2022-05-28T13:11:22Z</time>
      </trkpt>
      <trkpt lat="46.55537" lon="5.4921">
        <ele>501.4</ele>
        <time>2022-05-28T13:11:29Z</time>
      </trkpt>
      <trkpt lat="46.5558" lon="5.49232">
        <ele>500.2</ele>
        <time>2022-05-28T13:11:37Z</time>
      </trkpt>
      <trkpt lat="46.55606" lon="5.49245">
        <ele>499.2</ele>
        <time>2022-05-28T13:11:41Z</time>
      </trkpt>
      <trkpt lat="46.55624" lon="5.49255">
        <ele>499</ele>
        <time>2022-05-28T13:11:44Z</time>
      </trkpt>
      <trkpt lat="46.55647" lon="5.49267">
        <ele>498.2</ele>
        <time>2022-05-28T13:11:48Z</time>
      </trkpt>
      <trkpt lat="46.55671" lon="5.49283">
        <ele>497.2</ele>
        <time>2022-05-28T13:11:52Z</time>
      </trkpt>
      <trkpt lat="46.55677" lon="5.49288">
        <ele>497</ele>
        <time>2022-05-28T13:11:53Z</time>
      </trkpt>
      <trkpt lat="46.55684" lon="5.49292">
        <ele>496.6</ele>
        <time>2022-05-28T13:11:54Z</time>
      </trkpt>
      <trkpt lat="46.55698" lon="5.49291">
        <ele>496</ele>
        <time>2022-05-28T13:11:56Z</time>
      </trkpt>
      <trkpt lat="46.55706" lon="5.4927">
        <ele>495.2</ele>
        <time>2022-05-28T13:11:59Z</time>
      </trkpt>
      <trkpt lat="46.557" lon="5.49262">
        <ele>494.8</ele>
        <time>2022-05-28T13:12:00Z</time>
      </trkpt>
      <trkpt lat="46.55694" lon="5.49254">
        <ele>494.6</ele>
        <time>2022-05-28T13:12:01Z</time>
      </trkpt>
      <trkpt lat="46.55674" lon="5.49224">
        <ele>493.4</ele>
        <time>2022-05-28T13:12:04Z</time>
      </trkpt>
      <trkpt lat="46.55669" lon="5.49212">
        <ele>493</ele>
        <time>2022-05-28T13:12:05Z</time>
      </trkpt>
      <trkpt lat="46.55665" lon="5.49198">
        <ele>492.2</ele>
        <time>2022-05-28T13:12:06Z</time>
      </trkpt>
      <trkpt lat="46.55664" lon="5.4917">
        <ele>491</ele>
        <time>2022-05-28T13:12:08Z</time>
      </trkpt>
      <trkpt lat="46.55668" lon="5.4914">
        <ele>490.4</ele>
        <time>2022-05-28T13:12:10Z</time>
      </trkpt>
      <trkpt lat="46.55672" lon="5.49126">
        <ele>489.6</ele>
        <time>2022-05-28T13:12:11Z</time>
      </trkpt>
      <trkpt lat="46.55678" lon="5.49113">
        <ele>489</ele>
        <time>2022-05-28T13:12:12Z</time>
      </trkpt>
      <trkpt lat="46.55684" lon="5.49101">
        <ele>488</ele>
        <time>2022-05-28T13:12:13Z</time>
      </trkpt>
      <trkpt lat="46.55691" lon="5.49089">
        <ele>486.8</ele>
        <time>2022-05-28T13:12:14Z</time>
      </trkpt>
      <trkpt lat="46.55699" lon="5.49078">
        <ele>486.4</ele>
        <time>2022-05-28T13:12:15Z</time>
      </trkpt>
      <trkpt lat="46.55707" lon="5.49068">
        <ele>485.6</ele>
        <time>2022-05-28T13:12:16Z</time>
      </trkpt>
      <trkpt lat="46.55725" lon="5.4905">
        <ele>484.2</ele>
        <time>2022-05-28T13:12:18Z</time>
      </trkpt>
      <trkpt lat="46.5576" lon="5.49014">
        <ele>483.2</ele>
        <time>2022-05-28T13:12:22Z</time>
      </trkpt>
      <trkpt lat="46.55767" lon="5.49002">
        <ele>482.4</ele>
        <time>2022-05-28T13:12:23Z</time>
      </trkpt>
      <trkpt lat="46.55773" lon="5.48988">
        <ele>482.4</ele>
        <time>2022-05-28T13:12:24Z</time>
      </trkpt>
      <trkpt lat="46.55778" lon="5.48973">
        <ele>481.6</ele>
        <time>2022-05-28T13:12:25Z</time>
      </trkpt>
      <trkpt lat="46.55782" lon="5.48958">
        <ele>480.8</ele>
        <time>2022-05-28T13:12:26Z</time>
      </trkpt>
      <trkpt lat="46.55785" lon="5.48943">
        <ele>480.2</ele>
        <time>2022-05-28T13:12:27Z</time>
      </trkpt>
      <trkpt lat="46.55788" lon="5.48924">
        <ele>479.2</ele>
        <time>2022-05-28T13:12:28Z</time>
      </trkpt>
      <trkpt lat="46.5579" lon="5.48911">
        <ele>479</ele>
        <time>2022-05-28T13:12:29Z</time>
      </trkpt>
      <trkpt lat="46.5579" lon="5.48895">
        <ele>477.8</ele>
        <time>2022-05-28T13:12:30Z</time>
      </trkpt>
      <trkpt lat="46.55787" lon="5.48846">
        <ele>476.6</ele>
        <time>2022-05-28T13:12:33Z</time>
      </trkpt>
      <trkpt lat="46.55786" lon="5.48829">
        <ele>475.8</ele>
        <time>2022-05-28T13:12:34Z</time>
      </trkpt>
      <trkpt lat="46.55785" lon="5.48812">
        <ele>475.4</ele>
        <time>2022-05-28T13:12:35Z</time>
      </trkpt>
      <trkpt lat="46.55783" lon="5.48779">
        <ele>474.4</ele>
        <time>2022-05-28T13:12:37Z</time>
      </trkpt>
      <trkpt lat="46.55781" lon="5.48746">
        <ele>473.4</ele>
        <time>2022-05-28T13:12:39Z</time>
      </trkpt>
      <trkpt lat="46.55778" lon="5.48716">
        <ele>472.4</ele>
        <time>2022-05-28T13:12:41Z</time>
      </trkpt>
      <trkpt lat="46.55776" lon="5.48702">
        <ele>472.2</ele>
        <time>2022-05-28T13:12:42Z</time>
      </trkpt>
      <trkpt lat="46.55776" lon="5.48689">
        <ele>471.6</ele>
        <time>2022-05-28T13:12:43Z</time>
      </trkpt>
      <trkpt lat="46.55778" lon="5.48676">
        <ele>471.4</ele>
        <time>2022-05-28T13:12:44Z</time>
      </trkpt>
      <trkpt lat="46.5578" lon="5.48665">
        <ele>471.4</ele>
        <time>2022-05-28T13:12:45Z</time>
      </trkpt>
      <trkpt lat="46.5579" lon="5.48647">
        <ele>471.2</ele>
        <time>2022-05-28T13:12:47Z</time>
      </trkpt>
      <trkpt lat="46.55795" lon="5.4864">
        <ele>471</ele>
        <time>2022-05-28T13:12:48Z</time>
      </trkpt>
      <trkpt lat="46.55826" lon="5.48594">
        <ele>470.8</ele>
        <time>2022-05-28T13:12:54Z</time>
      </trkpt>
      <trkpt lat="46.55848" lon="5.4856">
        <ele>470.6</ele>
        <time>2022-05-28T13:12:59Z</time>
      </trkpt>
      <trkpt lat="46.55865" lon="5.48534">
        <ele>470.6</ele>
        <time>2022-05-28T13:13:03Z</time>
      </trkpt>
      <trkpt lat="46.55874" lon="5.48527">
        <ele>470.6</ele>
        <time>2022-05-28T13:13:05Z</time>
      </trkpt>
      <trkpt lat="46.55897" lon="5.48514">
        <ele>471</ele>
        <time>2022-05-28T13:13:10Z</time>
      </trkpt>
      <trkpt lat="46.55902" lon="5.48513">
        <ele>471.2</ele>
        <time>2022-05-28T13:13:11Z</time>
      </trkpt>
      <trkpt lat="46.55923" lon="5.48508">
        <ele>472</ele>
        <time>2022-05-28T13:13:16Z</time>
      </trkpt>
      <trkpt lat="46.55927" lon="5.48508">
        <ele>472.2</ele>
        <time>2022-05-28T13:13:17Z</time>
      </trkpt>
      <trkpt lat="46.55945" lon="5.48507">
        <ele>473.6</ele>
        <time>2022-05-28T13:13:21Z</time>
      </trkpt>
      <trkpt lat="46.55953" lon="5.48508">
        <ele>473.8</ele>
        <time>2022-05-28T13:13:23Z</time>
      </trkpt>
      <trkpt lat="46.55957" lon="5.48507">
        <ele>474</ele>
        <time>2022-05-28T13:13:24Z</time>
      </trkpt>
      <trkpt lat="46.55969" lon="5.48508">
        <ele>474.6</ele>
        <time>2022-05-28T13:13:27Z</time>
      </trkpt>
      <trkpt lat="46.5599" lon="5.4851">
        <ele>475.4</ele>
        <time>2022-05-28T13:13:32Z</time>
      </trkpt>
      <trkpt lat="46.55999" lon="5.48513">
        <ele>475.6</ele>
        <time>2022-05-28T13:13:34Z</time>
      </trkpt>
      <trkpt lat="46.56011" lon="5.48518">
        <ele>476</ele>
        <time>2022-05-28T13:13:37Z</time>
      </trkpt>
      <trkpt lat="46.56015" lon="5.48521">
        <ele>476</ele>
        <time>2022-05-28T13:13:38Z</time>
      </trkpt>
      <trkpt lat="46.56052" lon="5.48545">
        <ele>476.6</ele>
        <time>2022-05-28T13:13:46Z</time>
      </trkpt>
      <trkpt lat="46.5609" lon="5.48558">
        <ele>476.4</ele>
        <time>2022-05-28T13:13:54Z</time>
      </trkpt>
      <trkpt lat="46.56135" lon="5.48565">
        <ele>475.6</ele>
        <time>2022-05-28T13:14:03Z</time>
      </trkpt>
      <trkpt lat="46.5614" lon="5.48566">
        <ele>475.6</ele>
        <time>2022-05-28T13:14:04Z</time>
      </trkpt>
      <trkpt lat="46.56155" lon="5.48574">
        <ele>475.6</ele>
        <time>2022-05-28T13:14:07Z</time>
      </trkpt>
      <trkpt lat="46.56163" lon="5.48582">
        <ele>475.6</ele>
        <time>2022-05-28T13:14:09Z</time>
      </trkpt>
      <trkpt lat="46.56186" lon="5.48618">
        <ele>475.6</ele>
        <time>2022-05-28T13:14:15Z</time>
      </trkpt>
      <trkpt lat="46.56196" lon="5.48628">
        <ele>475.6</ele>
        <time>2022-05-28T13:14:17Z</time>
      </trkpt>
      <trkpt lat="46.56207" lon="5.48635">
        <ele>475.8</ele>
        <time>2022-05-28T13:14:19Z</time>
      </trkpt>
      <trkpt lat="46.56212" lon="5.48638">
        <ele>475.8</ele>
        <time>2022-05-28T13:14:20Z</time>
      </trkpt>
      <trkpt lat="46.56222" lon="5.48643">
        <ele>475.8</ele>
        <time>2022-05-28T13:14:22Z</time>
      </trkpt>
      <trkpt lat="46.56232" lon="5.48648">
        <ele>475.8</ele>
        <time>2022-05-28T13:14:24Z</time>
      </trkpt>
      <trkpt lat="46.56275" lon="5.48667">
        <ele>476</ele>
        <time>2022-05-28T13:14:31Z</time>
      </trkpt>
      <trkpt lat="46.56281" lon="5.48671">
        <ele>476</ele>
        <time>2022-05-28T13:14:32Z</time>
      </trkpt>
      <trkpt lat="46.56312" lon="5.48707">
        <ele>476</ele>
        <time>2022-05-28T13:14:38Z</time>
      </trkpt>
      <trkpt lat="46.56335" lon="5.4874">
        <ele>475.8</ele>
        <time>2022-05-28T13:14:43Z</time>
      </trkpt>
      <trkpt lat="46.56346" lon="5.48748">
        <ele>475.8</ele>
        <time>2022-05-28T13:14:45Z</time>
      </trkpt>
      <trkpt lat="46.56358" lon="5.4875">
        <ele>475.6</ele>
        <time>2022-05-28T13:14:47Z</time>
      </trkpt>
      <trkpt lat="46.5637" lon="5.48746">
        <ele>475.6</ele>
        <time>2022-05-28T13:14:49Z</time>
      </trkpt>
      <trkpt lat="46.56381" lon="5.48739">
        <ele>475.6</ele>
        <time>2022-05-28T13:14:51Z</time>
      </trkpt>
      <trkpt lat="46.56408" lon="5.48721">
        <ele>475.8</ele>
        <time>2022-05-28T13:14:56Z</time>
      </trkpt>
      <trkpt lat="46.56414" lon="5.48719">
        <ele>475.8</ele>
        <time>2022-05-28T13:14:57Z</time>
      </trkpt>
      <trkpt lat="46.56433" lon="5.48717">
        <ele>475.8</ele>
        <time>2022-05-28T13:15:00Z</time>
      </trkpt>
      <trkpt lat="46.56452" lon="5.4872">
        <ele>475.8</ele>
        <time>2022-05-28T13:15:03Z</time>
      </trkpt>
      <trkpt lat="46.56494" lon="5.48736">
        <ele>475.8</ele>
        <time>2022-05-28T13:15:10Z</time>
      </trkpt>
      <trkpt lat="46.56531" lon="5.48757">
        <ele>475.6</ele>
        <time>2022-05-28T13:15:16Z</time>
      </trkpt>
      <trkpt lat="46.56536" lon="5.48763">
        <ele>475.4</ele>
        <time>2022-05-28T13:15:17Z</time>
      </trkpt>
      <trkpt lat="46.5654" lon="5.48769">
        <ele>475.4</ele>
        <time>2022-05-28T13:15:18Z</time>
      </trkpt>
      <trkpt lat="46.56548" lon="5.48785">
        <ele>475.4</ele>
        <time>2022-05-28T13:15:20Z</time>
      </trkpt>
      <trkpt lat="46.5655" lon="5.48793">
        <ele>475.4</ele>
        <time>2022-05-28T13:15:21Z</time>
      </trkpt>
      <trkpt lat="46.56562" lon="5.48835">
        <ele>475.4</ele>
        <time>2022-05-28T13:15:26Z</time>
      </trkpt>
      <trkpt lat="46.56565" lon="5.48843">
        <ele>475.4</ele>
        <time>2022-05-28T13:15:27Z</time>
      </trkpt>
      <trkpt lat="46.56575" lon="5.48865">
        <ele>475.4</ele>
        <time>2022-05-28T13:15:30Z</time>
      </trkpt>
      <trkpt lat="46.56579" lon="5.48871">
        <ele>475.4</ele>
        <time>2022-05-28T13:15:31Z</time>
      </trkpt>
      <trkpt lat="46.56589" lon="5.48882">
        <ele>475.4</ele>
        <time>2022-05-28T13:15:33Z</time>
      </trkpt>
      <trkpt lat="46.56594" lon="5.48886">
        <ele>475.6</ele>
        <time>2022-05-28T13:15:34Z</time>
      </trkpt>
      <trkpt lat="46.56606" lon="5.48895">
        <ele>475.6</ele>
        <time>2022-05-28T13:15:36Z</time>
      </trkpt>
      <trkpt lat="46.56647" lon="5.48917">
        <ele>475.8</ele>
        <time>2022-05-28T13:15:43Z</time>
      </trkpt>
      <trkpt lat="46.56686" lon="5.48933">
        <ele>476</ele>
        <time>2022-05-28T13:15:50Z</time>
      </trkpt>
      <trkpt lat="46.56721" lon="5.48949">
        <ele>476.4</ele>
        <time>2022-05-28T13:15:57Z</time>
      </trkpt>
      <trkpt lat="46.56758" lon="5.48972">
        <ele>477.2</ele>
        <time>2022-05-28T13:16:05Z</time>
      </trkpt>
      <trkpt lat="46.56763" lon="5.48976">
        <ele>477.2</ele>
        <time>2022-05-28T13:16:06Z</time>
      </trkpt>
      <trkpt lat="46.56795" lon="5.49">
        <ele>477.6</ele>
        <time>2022-05-28T13:16:13Z</time>
      </trkpt>
      <trkpt lat="46.56804" lon="5.49008">
        <ele>477.8</ele>
        <time>2022-05-28T13:16:15Z</time>
      </trkpt>
      <trkpt lat="46.56813" lon="5.49018">
        <ele>478.2</ele>
        <time>2022-05-28T13:16:17Z</time>
      </trkpt>
      <trkpt lat="46.56827" lon="5.49039">
        <ele>479</ele>
        <time>2022-05-28T13:16:21Z</time>
      </trkpt>
      <trkpt lat="46.56831" lon="5.49046">
        <ele>479.2</ele>
        <time>2022-05-28T13:16:22Z</time>
      </trkpt>
      <trkpt lat="46.56847" lon="5.49086">
        <ele>479.8</ele>
        <time>2022-05-28T13:16:28Z</time>
      </trkpt>
      <trkpt lat="46.56855" lon="5.49107">
        <ele>480.2</ele>
        <time>2022-05-28T13:16:31Z</time>
      </trkpt>
      <trkpt lat="46.56863" lon="5.4912">
        <ele>480.4</ele>
        <time>2022-05-28T13:16:33Z</time>
      </trkpt>
      <trkpt lat="46.56868" lon="5.49125">
        <ele>480.4</ele>
        <time>2022-05-28T13:16:34Z</time>
      </trkpt>
      <trkpt lat="46.56874" lon="5.49128">
        <ele>480.4</ele>
        <time>2022-05-28T13:16:35Z</time>
      </trkpt>
      <trkpt lat="46.5689" lon="5.49131">
        <ele>481</ele>
        <time>2022-05-28T13:16:38Z</time>
      </trkpt>
      <trkpt lat="46.569" lon="5.49132">
        <ele>481.4</ele>
        <time>2022-05-28T13:16:40Z</time>
      </trkpt>
      <trkpt lat="46.56918" lon="5.49135">
        <ele>482</ele>
        <time>2022-05-28T13:16:44Z</time>
      </trkpt>
      <trkpt lat="46.56923" lon="5.49136">
        <ele>482.6</ele>
        <time>2022-05-28T13:16:45Z</time>
      </trkpt>
      <trkpt lat="46.56951" lon="5.49148">
        <ele>483.2</ele>
        <time>2022-05-28T13:16:51Z</time>
      </trkpt>
      <trkpt lat="46.56974" lon="5.49159">
        <ele>483.6</ele>
        <time>2022-05-28T13:16:56Z</time>
      </trkpt>
      <trkpt lat="46.56984" lon="5.49164">
        <ele>483.6</ele>
        <time>2022-05-28T13:16:58Z</time>
      </trkpt>
      <trkpt lat="46.57018" lon="5.49186">
        <ele>484.2</ele>
        <time>2022-05-28T13:17:06Z</time>
      </trkpt>
      <trkpt lat="46.57025" lon="5.49196">
        <ele>484.8</ele>
        <time>2022-05-28T13:17:08Z</time>
      </trkpt>
      <trkpt lat="46.57038" lon="5.49217">
        <ele>485.4</ele>
        <time>2022-05-28T13:17:12Z</time>
      </trkpt>
      <trkpt lat="46.57049" lon="5.49228">
        <ele>485.6</ele>
        <time>2022-05-28T13:17:15Z</time>
      </trkpt>
      <trkpt lat="46.57059" lon="5.49233">
        <ele>485.8</ele>
        <time>2022-05-28T13:17:17Z</time>
      </trkpt>
      <trkpt lat="46.57064" lon="5.49234">
        <ele>485.8</ele>
        <time>2022-05-28T13:17:18Z</time>
      </trkpt>
      <trkpt lat="46.57084" lon="5.49237">
        <ele>486</ele>
        <time>2022-05-28T13:17:22Z</time>
      </trkpt>
      <trkpt lat="46.57115" lon="5.49243">
        <ele>486.6</ele>
        <time>2022-05-28T13:17:28Z</time>
      </trkpt>
      <trkpt lat="46.57125" lon="5.49246">
        <ele>487</ele>
        <time>2022-05-28T13:17:30Z</time>
      </trkpt>
      <trkpt lat="46.5715" lon="5.49257">
        <ele>488.2</ele>
        <time>2022-05-28T13:17:35Z</time>
      </trkpt>
      <trkpt lat="46.57154" lon="5.4926">
        <ele>488.4</ele>
        <time>2022-05-28T13:17:36Z</time>
      </trkpt>
      <trkpt lat="46.57189" lon="5.49277">
        <ele>489.2</ele>
        <time>2022-05-28T13:17:43Z</time>
      </trkpt>
      <trkpt lat="46.57227" lon="5.49283">
        <ele>489.8</ele>
        <time>2022-05-28T13:17:50Z</time>
      </trkpt>
      <trkpt lat="46.57259" lon="5.49285">
        <ele>490</ele>
        <time>2022-05-28T13:17:56Z</time>
      </trkpt>
      <trkpt lat="46.57275" lon="5.49287">
        <ele>490.2</ele>
        <time>2022-05-28T13:17:59Z</time>
      </trkpt>
      <trkpt lat="46.57306" lon="5.49292">
        <ele>491.2</ele>
        <time>2022-05-28T13:18:05Z</time>
      </trkpt>
      <trkpt lat="46.57327" lon="5.49298">
        <ele>492.2</ele>
        <time>2022-05-28T13:18:09Z</time>
      </trkpt>
      <trkpt lat="46.57332" lon="5.49299">
        <ele>492.4</ele>
        <time>2022-05-28T13:18:10Z</time>
      </trkpt>
      <trkpt lat="46.57356" lon="5.49309">
        <ele>493.2</ele>
        <time>2022-05-28T13:18:15Z</time>
      </trkpt>
      <trkpt lat="46.57375" lon="5.49317">
        <ele>493.4</ele>
        <time>2022-05-28T13:18:19Z</time>
      </trkpt>
      <trkpt lat="46.57411" lon="5.49329">
        <ele>494</ele>
        <time>2022-05-28T13:18:26Z</time>
      </trkpt>
      <trkpt lat="46.57437" lon="5.4933">
        <ele>494.2</ele>
        <time>2022-05-28T13:18:31Z</time>
      </trkpt>
      <trkpt lat="46.57457" lon="5.49329">
        <ele>494.6</ele>
        <time>2022-05-28T13:18:35Z</time>
      </trkpt>
      <trkpt lat="46.57477" lon="5.49326">
        <ele>495.2</ele>
        <time>2022-05-28T13:18:39Z</time>
      </trkpt>
      <trkpt lat="46.5748" lon="5.49326">
        <ele>495.8</ele>
        <time>2022-05-28T13:18:40Z</time>
      </trkpt>
      <trkpt lat="46.57489" lon="5.49326">
        <ele>496</ele>
        <time>2022-05-28T13:18:42Z</time>
      </trkpt>
      <trkpt lat="46.57509" lon="5.49326">
        <ele>496.8</ele>
        <time>2022-05-28T13:18:46Z</time>
      </trkpt>
      <trkpt lat="46.5753" lon="5.49331">
        <ele>497.6</ele>
        <time>2022-05-28T13:18:51Z</time>
      </trkpt>
      <trkpt lat="46.57543" lon="5.49336">
        <ele>498</ele>
        <time>2022-05-28T13:18:54Z</time>
      </trkpt>
      <trkpt lat="46.57578" lon="5.4935">
        <ele>499</ele>
        <time>2022-05-28T13:19:02Z</time>
      </trkpt>
      <trkpt lat="46.57587" lon="5.49353">
        <ele>499.4</ele>
        <time>2022-05-28T13:19:04Z</time>
      </trkpt>
      <trkpt lat="46.57597" lon="5.49356">
        <ele>500</ele>
        <time>2022-05-28T13:19:06Z</time>
      </trkpt>
      <trkpt lat="46.57601" lon="5.49357">
        <ele>500</ele>
        <time>2022-05-28T13:19:07Z</time>
      </trkpt>
      <trkpt lat="46.57611" lon="5.49359">
        <ele>500.4</ele>
        <time>2022-05-28T13:19:09Z</time>
      </trkpt>
      <trkpt lat="46.57617" lon="5.49359">
        <ele>500.6</ele>
        <time>2022-05-28T13:19:10Z</time>
      </trkpt>
      <trkpt lat="46.57625" lon="5.49357">
        <ele>501</ele>
        <time>2022-05-28T13:19:12Z</time>
      </trkpt>
      <trkpt lat="46.57634" lon="5.49352">
        <ele>501.4</ele>
        <time>2022-05-28T13:19:14Z</time>
      </trkpt>
      <trkpt lat="46.57638" lon="5.49349">
        <ele>501.6</ele>
        <time>2022-05-28T13:19:15Z</time>
      </trkpt>
      <trkpt lat="46.57642" lon="5.49346">
        <ele>501.6</ele>
        <time>2022-05-28T13:19:16Z</time>
      </trkpt>
      <trkpt lat="46.57648" lon="5.49338">
        <ele>502</ele>
        <time>2022-05-28T13:19:18Z</time>
      </trkpt>
      <trkpt lat="46.57651" lon="5.49332">
        <ele>502</ele>
        <time>2022-05-28T13:19:19Z</time>
      </trkpt>
      <trkpt lat="46.57652" lon="5.49326">
        <ele>502.2</ele>
        <time>2022-05-28T13:19:20Z</time>
      </trkpt>
      <trkpt lat="46.57654" lon="5.49314">
        <ele>502.4</ele>
        <time>2022-05-28T13:19:22Z</time>
      </trkpt>
      <trkpt lat="46.57654" lon="5.49307">
        <ele>502.4</ele>
        <time>2022-05-28T13:19:23Z</time>
      </trkpt>
      <trkpt lat="46.57651" lon="5.49288">
        <ele>503.2</ele>
        <time>2022-05-28T13:19:26Z</time>
      </trkpt>
      <trkpt lat="46.57645" lon="5.49261">
        <ele>503.8</ele>
        <time>2022-05-28T13:19:30Z</time>
      </trkpt>
      <trkpt lat="46.57639" lon="5.49244">
        <ele>504.2</ele>
        <time>2022-05-28T13:19:33Z</time>
      </trkpt>
      <trkpt lat="46.57627" lon="5.49217">
        <ele>505.6</ele>
        <time>2022-05-28T13:19:38Z</time>
      </trkpt>
      <trkpt lat="46.57625" lon="5.49212">
        <ele>505.8</ele>
        <time>2022-05-28T13:19:39Z</time>
      </trkpt>
      <trkpt lat="46.57615" lon="5.49193">
        <ele>507</ele>
        <time>2022-05-28T13:19:43Z</time>
      </trkpt>
      <trkpt lat="46.57606" lon="5.49171">
        <ele>508.2</ele>
        <time>2022-05-28T13:19:47Z</time>
      </trkpt>
      <trkpt lat="46.57604" lon="5.49166">
        <ele>508.6</ele>
        <time>2022-05-28T13:19:48Z</time>
      </trkpt>
      <trkpt lat="46.57595" lon="5.49144">
        <ele>509.6</ele>
        <time>2022-05-28T13:19:52Z</time>
      </trkpt>
      <trkpt lat="46.57582" lon="5.49104">
        <ele>510.2</ele>
        <time>2022-05-28T13:19:59Z</time>
      </trkpt>
      <trkpt lat="46.57579" lon="5.49094">
        <ele>510.4</ele>
        <time>2022-05-28T13:20:01Z</time>
      </trkpt>
      <trkpt lat="46.57574" lon="5.49072">
        <ele>511.4</ele>
        <time>2022-05-28T13:20:05Z</time>
      </trkpt>
      <trkpt lat="46.57571" lon="5.49054">
        <ele>512.4</ele>
        <time>2022-05-28T13:20:08Z</time>
      </trkpt>
      <trkpt lat="46.57566" lon="5.49026">
        <ele>513.6</ele>
        <time>2022-05-28T13:20:13Z</time>
      </trkpt>
      <trkpt lat="46.57557" lon="5.48998">
        <ele>514.6</ele>
        <time>2022-05-28T13:20:18Z</time>
      </trkpt>
      <trkpt lat="46.57544" lon="5.48967">
        <ele>515.8</ele>
        <time>2022-05-28T13:20:24Z</time>
      </trkpt>
      <trkpt lat="46.57537" lon="5.48953">
        <ele>516.8</ele>
        <time>2022-05-28T13:20:27Z</time>
      </trkpt>
      <trkpt lat="46.57532" lon="5.48945">
        <ele>517</ele>
        <time>2022-05-28T13:20:29Z</time>
      </trkpt>
      <trkpt lat="46.57512" lon="5.48914">
        <ele>518</ele>
        <time>2022-05-28T13:20:36Z</time>
      </trkpt>
      <trkpt lat="46.5751" lon="5.48908">
        <ele>518</ele>
        <time>2022-05-28T13:20:37Z</time>
      </trkpt>
      <trkpt lat="46.5751" lon="5.48902">
        <ele>518.2</ele>
        <time>2022-05-28T13:20:38Z</time>
      </trkpt>
      <trkpt lat="46.57512" lon="5.48897">
        <ele>518.4</ele>
        <time>2022-05-28T13:20:39Z</time>
      </trkpt>
      <trkpt lat="46.57514" lon="5.48894">
        <ele>518.8</ele>
        <time>2022-05-28T13:20:40Z</time>
      </trkpt>
      <trkpt lat="46.57521" lon="5.48893">
        <ele>519</ele>
        <time>2022-05-28T13:20:42Z</time>
      </trkpt>
      <trkpt lat="46.57525" lon="5.48895">
        <ele>519.2</ele>
        <time>2022-05-28T13:20:43Z</time>
      </trkpt>
      <trkpt lat="46.57539" lon="5.48908">
        <ele>520.6</ele>
        <time>2022-05-28T13:20:47Z</time>
      </trkpt>
      <trkpt lat="46.57549" lon="5.48918">
        <ele>522</ele>
        <time>2022-05-28T13:20:50Z</time>
      </trkpt>
      <trkpt lat="46.57556" lon="5.48924">
        <ele>522.4</ele>
        <time>2022-05-28T13:20:52Z</time>
      </trkpt>
      <trkpt lat="46.57563" lon="5.4893">
        <ele>523.2</ele>
        <time>2022-05-28T13:20:54Z</time>
      </trkpt>
      <trkpt lat="46.57567" lon="5.48933">
        <ele>523.4</ele>
        <time>2022-05-28T13:20:55Z</time>
      </trkpt>
      <trkpt lat="46.57574" lon="5.48937">
        <ele>524.2</ele>
        <time>2022-05-28T13:20:57Z</time>
      </trkpt>
      <trkpt lat="46.57592" lon="5.48946">
        <ele>525.4</ele>
        <time>2022-05-28T13:21:02Z</time>
      </trkpt>
      <trkpt lat="46.57596" lon="5.48947">
        <ele>525.6</ele>
        <time>2022-05-28T13:21:03Z</time>
      </trkpt>
      <trkpt lat="46.57612" lon="5.48948">
        <ele>526.4</ele>
        <time>2022-05-28T13:21:07Z</time>
      </trkpt>
      <trkpt lat="46.57623" lon="5.48945">
        <ele>526.8</ele>
        <time>2022-05-28T13:21:10Z</time>
      </trkpt>
      <trkpt lat="46.57638" lon="5.48941">
        <ele>527.6</ele>
        <time>2022-05-28T13:21:14Z</time>
      </trkpt>
      <trkpt lat="46.5765" lon="5.48938">
        <ele>528.6</ele>
        <time>2022-05-28T13:21:17Z</time>
      </trkpt>
      <trkpt lat="46.57658" lon="5.48936">
        <ele>528.8</ele>
        <time>2022-05-28T13:21:19Z</time>
      </trkpt>
      <trkpt lat="46.57677" lon="5.48934">
        <ele>529.6</ele>
        <time>2022-05-28T13:21:24Z</time>
      </trkpt>
      <trkpt lat="46.57696" lon="5.48933">
        <ele>530.8</ele>
        <time>2022-05-28T13:21:29Z</time>
      </trkpt>
      <trkpt lat="46.57713" lon="5.48931">
        <ele>532</ele>
        <time>2022-05-28T13:21:33Z</time>
      </trkpt>
      <trkpt lat="46.57726" lon="5.4893">
        <ele>532.6</ele>
        <time>2022-05-28T13:21:36Z</time>
      </trkpt>
      <trkpt lat="46.57738" lon="5.48929">
        <ele>533.2</ele>
        <time>2022-05-28T13:21:39Z</time>
      </trkpt>
      <trkpt lat="46.57742" lon="5.48929">
        <ele>533.6</ele>
        <time>2022-05-28T13:21:40Z</time>
      </trkpt>
      <trkpt lat="46.5775" lon="5.48928">
        <ele>533.8</ele>
        <time>2022-05-28T13:21:42Z</time>
      </trkpt>
      <trkpt lat="46.57754" lon="5.48928">
        <ele>534</ele>
        <time>2022-05-28T13:21:43Z</time>
      </trkpt>
      <trkpt lat="46.57761" lon="5.48927">
        <ele>534.4</ele>
        <time>2022-05-28T13:21:45Z</time>
      </trkpt>
      <trkpt lat="46.57781" lon="5.48925">
        <ele>535.4</ele>
        <time>2022-05-28T13:21:50Z</time>
      </trkpt>
      <trkpt lat="46.57807" lon="5.48921">
        <ele>535.8</ele>
        <time>2022-05-28T13:21:56Z</time>
      </trkpt>
      <trkpt lat="46.57821" lon="5.48919">
        <ele>536</ele>
        <time>2022-05-28T13:21:59Z</time>
      </trkpt>
      <trkpt lat="46.5783" lon="5.48917">
        <ele>536</ele>
        <time>2022-05-28T13:22:01Z</time>
      </trkpt>
      <trkpt lat="46.57875" lon="5.48908">
        <ele>535.2</ele>
        <time>2022-05-28T13:22:10Z</time>
      </trkpt>
      <trkpt lat="46.57889" lon="5.48905">
        <ele>534.6</ele>
        <time>2022-05-28T13:22:12Z</time>
      </trkpt>
      <trkpt lat="46.57899" lon="5.48902">
        <ele>534.4</ele>
        <time>2022-05-28T13:22:13Z</time>
      </trkpt>
      <trkpt lat="46.57916" lon="5.489">
        <ele>533.8</ele>
        <time>2022-05-28T13:22:15Z</time>
      </trkpt>
      <trkpt lat="46.57937" lon="5.48901">
        <ele>533.2</ele>
        <time>2022-05-28T13:22:17Z</time>
      </trkpt>
      <trkpt lat="46.57947" lon="5.48902">
        <ele>532.6</ele>
        <time>2022-05-28T13:22:18Z</time>
      </trkpt>
      <trkpt lat="46.57958" lon="5.48903">
        <ele>532</ele>
        <time>2022-05-28T13:22:19Z</time>
      </trkpt>
      <trkpt lat="46.57967" lon="5.48905">
        <ele>531.4</ele>
        <time>2022-05-28T13:22:20Z</time>
      </trkpt>
      <trkpt lat="46.57986" lon="5.48909">
        <ele>530.6</ele>
        <time>2022-05-28T13:22:22Z</time>
      </trkpt>
      <trkpt lat="46.57997" lon="5.48911">
        <ele>530.6</ele>
        <time>2022-05-28T13:22:23Z</time>
      </trkpt>
      <trkpt lat="46.58016" lon="5.48907">
        <ele>529</ele>
        <time>2022-05-28T13:22:25Z</time>
      </trkpt>
      <trkpt lat="46.58037" lon="5.48888">
        <ele>528.4</ele>
        <time>2022-05-28T13:22:27Z</time>
      </trkpt>
      <trkpt lat="46.58043" lon="5.48874">
        <ele>527.8</ele>
        <time>2022-05-28T13:22:28Z</time>
      </trkpt>
      <trkpt lat="46.58054" lon="5.48848">
        <ele>526.4</ele>
        <time>2022-05-28T13:22:30Z</time>
      </trkpt>
      <trkpt lat="46.5806" lon="5.48837">
        <ele>525.8</ele>
        <time>2022-05-28T13:22:31Z</time>
      </trkpt>
      <trkpt lat="46.58069" lon="5.48827">
        <ele>525.4</ele>
        <time>2022-05-28T13:22:32Z</time>
      </trkpt>
      <trkpt lat="46.58089" lon="5.48811">
        <ele>524.8</ele>
        <time>2022-05-28T13:22:34Z</time>
      </trkpt>
      <trkpt lat="46.58099" lon="5.48807">
        <ele>524.6</ele>
        <time>2022-05-28T13:22:35Z</time>
      </trkpt>
      <trkpt lat="46.58109" lon="5.48803">
        <ele>524.2</ele>
        <time>2022-05-28T13:22:36Z</time>
      </trkpt>
      <trkpt lat="46.58119" lon="5.48802">
        <ele>523.4</ele>
        <time>2022-05-28T13:22:37Z</time>
      </trkpt>
      <trkpt lat="46.5813" lon="5.48803">
        <ele>522.6</ele>
        <time>2022-05-28T13:22:38Z</time>
      </trkpt>
      <trkpt lat="46.58144" lon="5.48806">
        <ele>522</ele>
        <time>2022-05-28T13:22:39Z</time>
      </trkpt>
      <trkpt lat="46.58155" lon="5.48809">
        <ele>521.8</ele>
        <time>2022-05-28T13:22:40Z</time>
      </trkpt>
      <trkpt lat="46.58166" lon="5.48813">
        <ele>521.2</ele>
        <time>2022-05-28T13:22:41Z</time>
      </trkpt>
      <trkpt lat="46.58195" lon="5.48832">
        <ele>520</ele>
        <time>2022-05-28T13:22:44Z</time>
      </trkpt>
      <trkpt lat="46.58211" lon="5.48849">
        <ele>518.8</ele>
        <time>2022-05-28T13:22:46Z</time>
      </trkpt>
      <trkpt lat="46.58217" lon="5.48858">
        <ele>518.2</ele>
        <time>2022-05-28T13:22:47Z</time>
      </trkpt>
      <trkpt lat="46.5822" lon="5.48868">
        <ele>517.6</ele>
        <time>2022-05-28T13:22:48Z</time>
      </trkpt>
      <trkpt lat="46.58229" lon="5.48885">
        <ele>516.8</ele>
        <time>2022-05-28T13:22:50Z</time>
      </trkpt>
      <trkpt lat="46.58236" lon="5.48891">
        <ele>516.2</ele>
        <time>2022-05-28T13:22:52Z</time>
      </trkpt>
      <trkpt lat="46.58238" lon="5.48888">
        <ele>516</ele>
        <time>2022-05-28T13:22:53Z</time>
      </trkpt>
      <trkpt lat="46.5824" lon="5.48882">
        <ele>515.2</ele>
        <time>2022-05-28T13:22:54Z</time>
      </trkpt>
      <trkpt lat="46.58239" lon="5.48873">
        <ele>514.6</ele>
        <time>2022-05-28T13:22:55Z</time>
      </trkpt>
      <trkpt lat="46.58235" lon="5.48865">
        <ele>514.4</ele>
        <time>2022-05-28T13:22:56Z</time>
      </trkpt>
      <trkpt lat="46.58231" lon="5.48858">
        <ele>514</ele>
        <time>2022-05-28T13:22:57Z</time>
      </trkpt>
      <trkpt lat="46.58215" lon="5.48842">
        <ele>513.2</ele>
        <time>2022-05-28T13:23:00Z</time>
      </trkpt>
      <trkpt lat="46.58209" lon="5.48836">
        <ele>513</ele>
        <time>2022-05-28T13:23:01Z</time>
      </trkpt>
      <trkpt lat="46.58183" lon="5.48808">
        <ele>512.2</ele>
        <time>2022-05-28T13:23:06Z</time>
      </trkpt>
      <trkpt lat="46.58175" lon="5.48804">
        <ele>512</ele>
        <time>2022-05-28T13:23:07Z</time>
      </trkpt>
      <trkpt lat="46.58169" lon="5.48799">
        <ele>511.8</ele>
        <time>2022-05-28T13:23:08Z</time>
      </trkpt>
      <trkpt lat="46.58138" lon="5.48777">
        <ele>510.8</ele>
        <time>2022-05-28T13:23:12Z</time>
      </trkpt>
      <trkpt lat="46.58114" lon="5.4876">
        <ele>509.6</ele>
        <time>2022-05-28T13:23:15Z</time>
      </trkpt>
      <trkpt lat="46.58095" lon="5.48748">
        <ele>509</ele>
        <time>2022-05-28T13:23:17Z</time>
      </trkpt>
      <trkpt lat="46.58085" lon="5.48741">
        <ele>508.4</ele>
        <time>2022-05-28T13:23:18Z</time>
      </trkpt>
      <trkpt lat="46.58061" lon="5.48716">
        <ele>507.2</ele>
        <time>2022-05-28T13:23:21Z</time>
      </trkpt>
      <trkpt lat="46.58052" lon="5.48708">
        <ele>506.6</ele>
        <time>2022-05-28T13:23:22Z</time>
      </trkpt>
      <trkpt lat="46.58044" lon="5.48701">
        <ele>506.2</ele>
        <time>2022-05-28T13:23:23Z</time>
      </trkpt>
      <trkpt lat="46.58025" lon="5.48685">
        <ele>504.6</ele>
        <time>2022-05-28T13:23:25Z</time>
      </trkpt>
      <trkpt lat="46.58008" lon="5.48671">
        <ele>503.8</ele>
        <time>2022-05-28T13:23:27Z</time>
      </trkpt>
      <trkpt lat="46.57999" lon="5.48664">
        <ele>503.4</ele>
        <time>2022-05-28T13:23:28Z</time>
      </trkpt>
      <trkpt lat="46.5798" lon="5.48649">
        <ele>502.4</ele>
        <time>2022-05-28T13:23:30Z</time>
      </trkpt>
      <trkpt lat="46.5797" lon="5.48641">
        <ele>501.4</ele>
        <time>2022-05-28T13:23:31Z</time>
      </trkpt>
      <trkpt lat="46.57961" lon="5.48632">
        <ele>500</ele>
        <time>2022-05-28T13:23:32Z</time>
      </trkpt>
      <trkpt lat="46.57935" lon="5.48603">
        <ele>498.8</ele>
        <time>2022-05-28T13:23:35Z</time>
      </trkpt>
      <trkpt lat="46.57918" lon="5.48582">
        <ele>497.6</ele>
        <time>2022-05-28T13:23:37Z</time>
      </trkpt>
      <trkpt lat="46.57901" lon="5.48555">
        <ele>496.2</ele>
        <time>2022-05-28T13:23:39Z</time>
      </trkpt>
      <trkpt lat="46.57888" lon="5.48527">
        <ele>495</ele>
        <time>2022-05-28T13:23:41Z</time>
      </trkpt>
      <trkpt lat="46.57881" lon="5.48516">
        <ele>494.4</ele>
        <time>2022-05-28T13:23:42Z</time>
      </trkpt>
      <trkpt lat="46.57873" lon="5.48506">
        <ele>493.8</ele>
        <time>2022-05-28T13:23:43Z</time>
      </trkpt>
      <trkpt lat="46.57865" lon="5.48497">
        <ele>493.2</ele>
        <time>2022-05-28T13:23:44Z</time>
      </trkpt>
      <trkpt lat="46.57857" lon="5.4849">
        <ele>492.6</ele>
        <time>2022-05-28T13:23:45Z</time>
      </trkpt>
      <trkpt lat="46.57827" lon="5.48467">
        <ele>490.8</ele>
        <time>2022-05-28T13:23:48Z</time>
      </trkpt>
      <trkpt lat="46.5781" lon="5.48447">
        <ele>489.6</ele>
        <time>2022-05-28T13:23:50Z</time>
      </trkpt>
      <trkpt lat="46.57801" lon="5.48437">
        <ele>489.2</ele>
        <time>2022-05-28T13:23:51Z</time>
      </trkpt>
      <trkpt lat="46.57792" lon="5.48427">
        <ele>488.2</ele>
        <time>2022-05-28T13:23:52Z</time>
      </trkpt>
      <trkpt lat="46.57783" lon="5.48417">
        <ele>487.4</ele>
        <time>2022-05-28T13:23:53Z</time>
      </trkpt>
      <trkpt lat="46.57775" lon="5.48406">
        <ele>487</ele>
        <time>2022-05-28T13:23:54Z</time>
      </trkpt>
      <trkpt lat="46.57755" lon="5.48384">
        <ele>485.8</ele>
        <time>2022-05-28T13:23:56Z</time>
      </trkpt>
      <trkpt lat="46.57737" lon="5.48363">
        <ele>484.6</ele>
        <time>2022-05-28T13:23:58Z</time>
      </trkpt>
      <trkpt lat="46.57722" lon="5.48338">
        <ele>482.8</ele>
        <time>2022-05-28T13:24:00Z</time>
      </trkpt>
      <trkpt lat="46.57707" lon="5.48314">
        <ele>481.4</ele>
        <time>2022-05-28T13:24:02Z</time>
      </trkpt>
      <trkpt lat="46.57692" lon="5.4829">
        <ele>480.2</ele>
        <time>2022-05-28T13:24:04Z</time>
      </trkpt>
      <trkpt lat="46.57674" lon="5.48258">
        <ele>479.2</ele>
        <time>2022-05-28T13:24:07Z</time>
      </trkpt>
      <trkpt lat="46.5765" lon="5.48217">
        <ele>477.8</ele>
        <time>2022-05-28T13:24:11Z</time>
      </trkpt>
      <trkpt lat="46.57644" lon="5.48208">
        <ele>477.6</ele>
        <time>2022-05-28T13:24:12Z</time>
      </trkpt>
      <trkpt lat="46.57622" lon="5.48175">
        <ele>476.8</ele>
        <time>2022-05-28T13:24:16Z</time>
      </trkpt>
      <trkpt lat="46.57616" lon="5.48167">
        <ele>476.8</ele>
        <time>2022-05-28T13:24:17Z</time>
      </trkpt>
      <trkpt lat="46.57582" lon="5.48124">
        <ele>476</ele>
        <time>2022-05-28T13:24:23Z</time>
      </trkpt>
      <trkpt lat="46.57565" lon="5.48099">
        <ele>475.6</ele>
        <time>2022-05-28T13:24:26Z</time>
      </trkpt>
      <trkpt lat="46.57554" lon="5.48082">
        <ele>475.4</ele>
        <time>2022-05-28T13:24:28Z</time>
      </trkpt>
      <trkpt lat="46.57533" lon="5.48046">
        <ele>474.4</ele>
        <time>2022-05-28T13:24:32Z</time>
      </trkpt>
      <trkpt lat="46.57511" lon="5.48013">
        <ele>473.4</ele>
        <time>2022-05-28T13:24:36Z</time>
      </trkpt>
      <trkpt lat="46.57505" lon="5.48005">
        <ele>473.2</ele>
        <time>2022-05-28T13:24:37Z</time>
      </trkpt>
      <trkpt lat="46.575" lon="5.47997">
        <ele>473.2</ele>
        <time>2022-05-28T13:24:38Z</time>
      </trkpt>
      <trkpt lat="46.57489" lon="5.47983">
        <ele>473.2</ele>
        <time>2022-05-28T13:24:40Z</time>
      </trkpt>
      <trkpt lat="46.57477" lon="5.47971">
        <ele>473</ele>
        <time>2022-05-28T13:24:42Z</time>
      </trkpt>
      <trkpt lat="46.57463" lon="5.47963">
        <ele>472.6</ele>
        <time>2022-05-28T13:24:44Z</time>
      </trkpt>
      <trkpt lat="46.57456" lon="5.4796">
        <ele>472.6</ele>
        <time>2022-05-28T13:24:45Z</time>
      </trkpt>
      <trkpt lat="46.57437" lon="5.47949">
        <ele>472.2</ele>
        <time>2022-05-28T13:24:48Z</time>
      </trkpt>
      <trkpt lat="46.5743" lon="5.47946">
        <ele>472</ele>
        <time>2022-05-28T13:24:49Z</time>
      </trkpt>
      <trkpt lat="46.57396" lon="5.47925">
        <ele>471.8</ele>
        <time>2022-05-28T13:24:54Z</time>
      </trkpt>
      <trkpt lat="46.57368" lon="5.47905">
        <ele>471.2</ele>
        <time>2022-05-28T13:24:58Z</time>
      </trkpt>
      <trkpt lat="46.57354" lon="5.479">
        <ele>471.2</ele>
        <time>2022-05-28T13:25:00Z</time>
      </trkpt>
      <trkpt lat="46.57341" lon="5.47894">
        <ele>471</ele>
        <time>2022-05-28T13:25:02Z</time>
      </trkpt>
      <trkpt lat="46.57321" lon="5.47884">
        <ele>470.8</ele>
        <time>2022-05-28T13:25:05Z</time>
      </trkpt>
      <trkpt lat="46.57316" lon="5.47878">
        <ele>470.6</ele>
        <time>2022-05-28T13:25:06Z</time>
      </trkpt>
      <trkpt lat="46.57311" lon="5.47871">
        <ele>470.4</ele>
        <time>2022-05-28T13:25:07Z</time>
      </trkpt>
      <trkpt lat="46.57306" lon="5.47855">
        <ele>470.4</ele>
        <time>2022-05-28T13:25:09Z</time>
      </trkpt>
      <trkpt lat="46.57303" lon="5.47841">
        <ele>470.4</ele>
        <time>2022-05-28T13:25:11Z</time>
      </trkpt>
      <trkpt lat="46.57303" lon="5.47829">
        <ele>470.8</ele>
        <time>2022-05-28T13:25:13Z</time>
      </trkpt>
      <trkpt lat="46.57306" lon="5.4781">
        <ele>471.6</ele>
        <time>2022-05-28T13:25:17Z</time>
      </trkpt>
      <trkpt lat="46.57312" lon="5.47798">
        <ele>472.2</ele>
        <time>2022-05-28T13:25:20Z</time>
      </trkpt>
      <trkpt lat="46.57315" lon="5.47794">
        <ele>472.4</ele>
        <time>2022-05-28T13:25:21Z</time>
      </trkpt>
      <trkpt lat="46.57328" lon="5.47781">
        <ele>473.4</ele>
        <time>2022-05-28T13:25:26Z</time>
      </trkpt>
      <trkpt lat="46.57336" lon="5.47772">
        <ele>474</ele>
        <time>2022-05-28T13:25:28Z</time>
      </trkpt>
      <trkpt lat="46.57342" lon="5.47765">
        <ele>474.4</ele>
        <time>2022-05-28T13:25:30Z</time>
      </trkpt>
      <trkpt lat="46.57359" lon="5.47744">
        <ele>475.8</ele>
        <time>2022-05-28T13:25:35Z</time>
      </trkpt>
      <trkpt lat="46.57369" lon="5.47726">
        <ele>476.2</ele>
        <time>2022-05-28T13:25:38Z</time>
      </trkpt>
      <trkpt lat="46.57374" lon="5.47717">
        <ele>476.6</ele>
        <time>2022-05-28T13:25:40Z</time>
      </trkpt>
      <trkpt lat="46.57376" lon="5.47712">
        <ele>477</ele>
        <time>2022-05-28T13:25:41Z</time>
      </trkpt>
      <trkpt lat="46.57387" lon="5.4769">
        <ele>477.6</ele>
        <time>2022-05-28T13:25:45Z</time>
      </trkpt>
      <trkpt lat="46.5739" lon="5.47685">
        <ele>477.8</ele>
        <time>2022-05-28T13:25:46Z</time>
      </trkpt>
      <trkpt lat="46.57395" lon="5.47663">
        <ele>479</ele>
        <time>2022-05-28T13:25:50Z</time>
      </trkpt>
      <trkpt lat="46.57402" lon="5.47634">
        <ele>480.2</ele>
        <time>2022-05-28T13:25:55Z</time>
      </trkpt>
      <trkpt lat="46.57402" lon="5.47627">
        <ele>480.6</ele>
        <time>2022-05-28T13:25:56Z</time>
      </trkpt>
      <trkpt lat="46.57401" lon="5.47617">
        <ele>481.2</ele>
        <time>2022-05-28T13:25:58Z</time>
      </trkpt>
      <trkpt lat="46.57403" lon="5.47596">
        <ele>481.8</ele>
        <time>2022-05-28T13:26:02Z</time>
      </trkpt>
      <trkpt lat="46.57404" lon="5.47582">
        <ele>482.4</ele>
        <time>2022-05-28T13:26:05Z</time>
      </trkpt>
      <trkpt lat="46.57406" lon="5.47573">
        <ele>482.8</ele>
        <time>2022-05-28T13:26:07Z</time>
      </trkpt>
      <trkpt lat="46.57407" lon="5.4755">
        <ele>483.4</ele>
        <time>2022-05-28T13:26:11Z</time>
      </trkpt>
      <trkpt lat="46.57408" lon="5.47545">
        <ele>483.6</ele>
        <time>2022-05-28T13:26:12Z</time>
      </trkpt>
      <trkpt lat="46.57407" lon="5.47529">
        <ele>484</ele>
        <time>2022-05-28T13:26:15Z</time>
      </trkpt>
      <trkpt lat="46.57409" lon="5.47522">
        <ele>484.2</ele>
        <time>2022-05-28T13:26:17Z</time>
      </trkpt>
      <trkpt lat="46.57413" lon="5.47519">
        <ele>484.4</ele>
        <time>2022-05-28T13:26:18Z</time>
      </trkpt>
      <trkpt lat="46.57419" lon="5.47508">
        <ele>484.6</ele>
        <time>2022-05-28T13:26:21Z</time>
      </trkpt>
      <trkpt lat="46.57426" lon="5.47493">
        <ele>485.8</ele>
        <time>2022-05-28T13:26:26Z</time>
      </trkpt>
      <trkpt lat="46.57427" lon="5.47487">
        <ele>486</ele>
        <time>2022-05-28T13:26:28Z</time>
      </trkpt>
      <trkpt lat="46.57427" lon="5.47482">
        <ele>486.2</ele>
        <time>2022-05-28T13:26:29Z</time>
      </trkpt>
      <trkpt lat="46.57428" lon="5.47475">
        <ele>487</ele>
        <time>2022-05-28T13:26:31Z</time>
      </trkpt>
      <trkpt lat="46.57429" lon="5.47461">
        <ele>487.8</ele>
        <time>2022-05-28T13:26:34Z</time>
      </trkpt>
      <trkpt lat="46.57432" lon="5.47449">
        <ele>488</ele>
        <time>2022-05-28T13:26:36Z</time>
      </trkpt>
      <trkpt lat="46.57432" lon="5.47445">
        <ele>488.2</ele>
        <time>2022-05-28T13:26:37Z</time>
      </trkpt>
      <trkpt lat="46.57431" lon="5.47418">
        <ele>489.4</ele>
        <time>2022-05-28T13:26:42Z</time>
      </trkpt>
      <trkpt lat="46.57431" lon="5.47411">
        <ele>489.6</ele>
        <time>2022-05-28T13:26:43Z</time>
      </trkpt>
      <trkpt lat="46.57427" lon="5.47368">
        <ele>489.8</ele>
        <time>2022-05-28T13:26:49Z</time>
      </trkpt>
      <trkpt lat="46.57424" lon="5.47354">
        <ele>489.8</ele>
        <time>2022-05-28T13:26:51Z</time>
      </trkpt>
      <trkpt lat="46.57418" lon="5.47328">
        <ele>489.8</ele>
        <time>2022-05-28T13:26:55Z</time>
      </trkpt>
      <trkpt lat="46.57414" lon="5.47309">
        <ele>489.6</ele>
        <time>2022-05-28T13:26:58Z</time>
      </trkpt>
      <trkpt lat="46.5741" lon="5.47291">
        <ele>489.4</ele>
        <time>2022-05-28T13:27:01Z</time>
      </trkpt>
      <trkpt lat="46.574" lon="5.47256">
        <ele>489.6</ele>
        <time>2022-05-28T13:27:06Z</time>
      </trkpt>
      <trkpt lat="46.57382" lon="5.47213">
        <ele>489.4</ele>
        <time>2022-05-28T13:27:11Z</time>
      </trkpt>
      <trkpt lat="46.57358" lon="5.47166">
        <ele>487.8</ele>
        <time>2022-05-28T13:27:16Z</time>
      </trkpt>
      <trkpt lat="46.57334" lon="5.47126">
        <ele>486.8</ele>
        <time>2022-05-28T13:27:20Z</time>
      </trkpt>
      <trkpt lat="46.57326" lon="5.47117">
        <ele>486.2</ele>
        <time>2022-05-28T13:27:21Z</time>
      </trkpt>
      <trkpt lat="46.57319" lon="5.47108">
        <ele>485.8</ele>
        <time>2022-05-28T13:27:22Z</time>
      </trkpt>
      <trkpt lat="46.57302" lon="5.4709">
        <ele>484.2</ele>
        <time>2022-05-28T13:27:24Z</time>
      </trkpt>
      <trkpt lat="46.57284" lon="5.47073">
        <ele>483.2</ele>
        <time>2022-05-28T13:27:26Z</time>
      </trkpt>
      <trkpt lat="46.57275" lon="5.47065">
        <ele>483</ele>
        <time>2022-05-28T13:27:27Z</time>
      </trkpt>
      <trkpt lat="46.57257" lon="5.47049">
        <ele>482</ele>
        <time>2022-05-28T13:27:29Z</time>
      </trkpt>
      <trkpt lat="46.57249" lon="5.47039">
        <ele>481.2</ele>
        <time>2022-05-28T13:27:30Z</time>
      </trkpt>
      <trkpt lat="46.57241" lon="5.47028">
        <ele>480.4</ele>
        <time>2022-05-28T13:27:31Z</time>
      </trkpt>
      <trkpt lat="46.57233" lon="5.47016">
        <ele>480</ele>
        <time>2022-05-28T13:27:32Z</time>
      </trkpt>
      <trkpt lat="46.57217" lon="5.46991">
        <ele>479</ele>
        <time>2022-05-28T13:27:34Z</time>
      </trkpt>
      <trkpt lat="46.5721" lon="5.46977">
        <ele>478.2</ele>
        <time>2022-05-28T13:27:35Z</time>
      </trkpt>
      <trkpt lat="46.57204" lon="5.46963">
        <ele>477.4</ele>
        <time>2022-05-28T13:27:36Z</time>
      </trkpt>
      <trkpt lat="46.57198" lon="5.46948">
        <ele>476</ele>
        <time>2022-05-28T13:27:37Z</time>
      </trkpt>
      <trkpt lat="46.57187" lon="5.46918">
        <ele>474.8</ele>
        <time>2022-05-28T13:27:39Z</time>
      </trkpt>
      <trkpt lat="46.57181" lon="5.46905">
        <ele>473.8</ele>
        <time>2022-05-28T13:27:40Z</time>
      </trkpt>
      <trkpt lat="46.57174" lon="5.46891">
        <ele>473.4</ele>
        <time>2022-05-28T13:27:41Z</time>
      </trkpt>
      <trkpt lat="46.57166" lon="5.46877">
        <ele>472.8</ele>
        <time>2022-05-28T13:27:42Z</time>
      </trkpt>
      <trkpt lat="46.57151" lon="5.4685">
        <ele>472</ele>
        <time>2022-05-28T13:27:44Z</time>
      </trkpt>
      <trkpt lat="46.57145" lon="5.46835">
        <ele>471.2</ele>
        <time>2022-05-28T13:27:45Z</time>
      </trkpt>
      <trkpt lat="46.57139" lon="5.46818">
        <ele>471</ele>
        <time>2022-05-28T13:27:46Z</time>
      </trkpt>
      <trkpt lat="46.57135" lon="5.46801">
        <ele>470</ele>
        <time>2022-05-28T13:27:47Z</time>
      </trkpt>
      <trkpt lat="46.57129" lon="5.46768">
        <ele>468.4</ele>
        <time>2022-05-28T13:27:49Z</time>
      </trkpt>
      <trkpt lat="46.57125" lon="5.46734">
        <ele>467.2</ele>
        <time>2022-05-28T13:27:51Z</time>
      </trkpt>
      <trkpt lat="46.57124" lon="5.46722">
        <ele>466.8</ele>
        <time>2022-05-28T13:27:52Z</time>
      </trkpt>
      <trkpt lat="46.57124" lon="5.46707">
        <ele>465.8</ele>
        <time>2022-05-28T13:27:53Z</time>
      </trkpt>
      <trkpt lat="46.57123" lon="5.46678">
        <ele>465</ele>
        <time>2022-05-28T13:27:55Z</time>
      </trkpt>
      <trkpt lat="46.5712" lon="5.46665">
        <ele>464.6</ele>
        <time>2022-05-28T13:27:56Z</time>
      </trkpt>
      <trkpt lat="46.57116" lon="5.46654">
        <ele>464.4</ele>
        <time>2022-05-28T13:27:57Z</time>
      </trkpt>
      <trkpt lat="46.57103" lon="5.46636">
        <ele>463.4</ele>
        <time>2022-05-28T13:27:59Z</time>
      </trkpt>
      <trkpt lat="46.57088" lon="5.4662">
        <ele>462</ele>
        <time>2022-05-28T13:28:01Z</time>
      </trkpt>
      <trkpt lat="46.57064" lon="5.46592">
        <ele>461.2</ele>
        <time>2022-05-28T13:28:04Z</time>
      </trkpt>
      <trkpt lat="46.57057" lon="5.46579">
        <ele>460.6</ele>
        <time>2022-05-28T13:28:05Z</time>
      </trkpt>
      <trkpt lat="46.57054" lon="5.46565">
        <ele>460.4</ele>
        <time>2022-05-28T13:28:06Z</time>
      </trkpt>
      <trkpt lat="46.57052" lon="5.4655">
        <ele>459.8</ele>
        <time>2022-05-28T13:28:07Z</time>
      </trkpt>
      <trkpt lat="46.57051" lon="5.46534">
        <ele>458.8</ele>
        <time>2022-05-28T13:28:08Z</time>
      </trkpt>
      <trkpt lat="46.57052" lon="5.4649">
        <ele>457.8</ele>
        <time>2022-05-28T13:28:11Z</time>
      </trkpt>
      <trkpt lat="46.57052" lon="5.46475">
        <ele>457.2</ele>
        <time>2022-05-28T13:28:12Z</time>
      </trkpt>
      <trkpt lat="46.57051" lon="5.46461">
        <ele>457.2</ele>
        <time>2022-05-28T13:28:13Z</time>
      </trkpt>
      <trkpt lat="46.57049" lon="5.46446">
        <ele>456.4</ele>
        <time>2022-05-28T13:28:14Z</time>
      </trkpt>
      <trkpt lat="46.57046" lon="5.46433">
        <ele>455.8</ele>
        <time>2022-05-28T13:28:15Z</time>
      </trkpt>
      <trkpt lat="46.57042" lon="5.4642">
        <ele>455.4</ele>
        <time>2022-05-28T13:28:16Z</time>
      </trkpt>
      <trkpt lat="46.57037" lon="5.46408">
        <ele>454.8</ele>
        <time>2022-05-28T13:28:17Z</time>
      </trkpt>
      <trkpt lat="46.57024" lon="5.46386">
        <ele>454.4</ele>
        <time>2022-05-28T13:28:19Z</time>
      </trkpt>
      <trkpt lat="46.57008" lon="5.46365">
        <ele>453.6</ele>
        <time>2022-05-28T13:28:21Z</time>
      </trkpt>
      <trkpt lat="46.56993" lon="5.46346">
        <ele>452.4</ele>
        <time>2022-05-28T13:28:23Z</time>
      </trkpt>
      <trkpt lat="46.5697" lon="5.46317">
        <ele>451</ele>
        <time>2022-05-28T13:28:26Z</time>
      </trkpt>
      <trkpt lat="46.56962" lon="5.46307">
        <ele>450.4</ele>
        <time>2022-05-28T13:28:27Z</time>
      </trkpt>
      <trkpt lat="46.56955" lon="5.46296">
        <ele>449</ele>
        <time>2022-05-28T13:28:28Z</time>
      </trkpt>
      <trkpt lat="46.56948" lon="5.46285">
        <ele>447.6</ele>
        <time>2022-05-28T13:28:29Z</time>
      </trkpt>
      <trkpt lat="46.56935" lon="5.46262">
        <ele>446.2</ele>
        <time>2022-05-28T13:28:31Z</time>
      </trkpt>
      <trkpt lat="46.56929" lon="5.4625">
        <ele>445.8</ele>
        <time>2022-05-28T13:28:32Z</time>
      </trkpt>
      <trkpt lat="46.56923" lon="5.46238">
        <ele>445</ele>
        <time>2022-05-28T13:28:33Z</time>
      </trkpt>
      <trkpt lat="46.56896" lon="5.46194">
        <ele>443.8</ele>
        <time>2022-05-28T13:28:37Z</time>
      </trkpt>
      <trkpt lat="46.56888" lon="5.46184">
        <ele>443.4</ele>
        <time>2022-05-28T13:28:38Z</time>
      </trkpt>
      <trkpt lat="46.56873" lon="5.46163">
        <ele>442.8</ele>
        <time>2022-05-28T13:28:40Z</time>
      </trkpt>
      <trkpt lat="46.56866" lon="5.46152">
        <ele>442.4</ele>
        <time>2022-05-28T13:28:41Z</time>
      </trkpt>
      <trkpt lat="46.56854" lon="5.46125">
        <ele>441.8</ele>
        <time>2022-05-28T13:28:43Z</time>
      </trkpt>
      <trkpt lat="46.56849" lon="5.46111">
        <ele>441.2</ele>
        <time>2022-05-28T13:28:44Z</time>
      </trkpt>
      <trkpt lat="46.56839" lon="5.46084">
        <ele>440.2</ele>
        <time>2022-05-28T13:28:46Z</time>
      </trkpt>
      <trkpt lat="46.56827" lon="5.46057">
        <ele>439.2</ele>
        <time>2022-05-28T13:28:48Z</time>
      </trkpt>
      <trkpt lat="46.56821" lon="5.46045">
        <ele>438.4</ele>
        <time>2022-05-28T13:28:49Z</time>
      </trkpt>
      <trkpt lat="46.56806" lon="5.46021">
        <ele>436.8</ele>
        <time>2022-05-28T13:28:51Z</time>
      </trkpt>
      <trkpt lat="46.56798" lon="5.46011">
        <ele>436.2</ele>
        <time>2022-05-28T13:28:52Z</time>
      </trkpt>
      <trkpt lat="46.56781" lon="5.45989">
        <ele>435</ele>
        <time>2022-05-28T13:28:54Z</time>
      </trkpt>
      <trkpt lat="46.56765" lon="5.45967">
        <ele>433.6</ele>
        <time>2022-05-28T13:28:56Z</time>
      </trkpt>
      <trkpt lat="46.56758" lon="5.45957">
        <ele>433.2</ele>
        <time>2022-05-28T13:28:57Z</time>
      </trkpt>
      <trkpt lat="46.56742" lon="5.4594">
        <ele>432.4</ele>
        <time>2022-05-28T13:28:59Z</time>
      </trkpt>
      <trkpt lat="46.56733" lon="5.45934">
        <ele>432</ele>
        <time>2022-05-28T13:29:00Z</time>
      </trkpt>
      <trkpt lat="46.56724" lon="5.45929">
        <ele>431.2</ele>
        <time>2022-05-28T13:29:01Z</time>
      </trkpt>
      <trkpt lat="46.5671" lon="5.45915">
        <ele>430.6</ele>
        <time>2022-05-28T13:29:03Z</time>
      </trkpt>
      <trkpt lat="46.56685" lon="5.45895">
        <ele>430.2</ele>
        <time>2022-05-28T13:29:07Z</time>
      </trkpt>
      <trkpt lat="46.56678" lon="5.45891">
        <ele>430.2</ele>
        <time>2022-05-28T13:29:08Z</time>
      </trkpt>
      <trkpt lat="46.5666" lon="5.45886">
        <ele>430.8</ele>
        <time>2022-05-28T13:29:11Z</time>
      </trkpt>
      <trkpt lat="46.56639" lon="5.45882">
        <ele>432.4</ele>
        <time>2022-05-28T13:29:15Z</time>
      </trkpt>
      <trkpt lat="46.56629" lon="5.45881">
        <ele>432.8</ele>
        <time>2022-05-28T13:29:17Z</time>
      </trkpt>
      <trkpt lat="46.5662" lon="5.4588">
        <ele>433.6</ele>
        <time>2022-05-28T13:29:19Z</time>
      </trkpt>
      <trkpt lat="46.56612" lon="5.45879">
        <ele>434.2</ele>
        <time>2022-05-28T13:29:21Z</time>
      </trkpt>
      <trkpt lat="46.56604" lon="5.45878">
        <ele>434.4</ele>
        <time>2022-05-28T13:29:23Z</time>
      </trkpt>
      <trkpt lat="46.566" lon="5.45878">
        <ele>434.6</ele>
        <time>2022-05-28T13:29:24Z</time>
      </trkpt>
      <trkpt lat="46.5657" lon="5.45875">
        <ele>435.8</ele>
        <time>2022-05-28T13:29:31Z</time>
      </trkpt>
      <trkpt lat="46.56566" lon="5.45875">
        <ele>435.8</ele>
        <time>2022-05-28T13:29:32Z</time>
      </trkpt>
      <trkpt lat="46.56539" lon="5.4587">
        <ele>436.4</ele>
        <time>2022-05-28T13:29:39Z</time>
      </trkpt>
      <trkpt lat="46.56532" lon="5.45868">
        <ele>436.8</ele>
        <time>2022-05-28T13:29:41Z</time>
      </trkpt>
      <trkpt lat="46.56511" lon="5.45859">
        <ele>437.8</ele>
        <time>2022-05-28T13:29:47Z</time>
      </trkpt>
      <trkpt lat="46.56503" lon="5.45854">
        <ele>438</ele>
        <time>2022-05-28T13:29:49Z</time>
      </trkpt>
      <trkpt lat="46.56485" lon="5.45835">
        <ele>438.8</ele>
        <time>2022-05-28T13:29:55Z</time>
      </trkpt>
      <trkpt lat="46.5648" lon="5.45827">
        <ele>439.4</ele>
        <time>2022-05-28T13:29:57Z</time>
      </trkpt>
      <trkpt lat="46.56469" lon="5.45813">
        <ele>440</ele>
        <time>2022-05-28T13:30:01Z</time>
      </trkpt>
      <trkpt lat="46.56457" lon="5.45794">
        <ele>440.8</ele>
        <time>2022-05-28T13:30:06Z</time>
      </trkpt>
      <trkpt lat="46.56454" lon="5.45791">
        <ele>441</ele>
        <time>2022-05-28T13:30:07Z</time>
      </trkpt>
      <trkpt lat="46.5644" lon="5.45767">
        <ele>442</ele>
        <time>2022-05-28T13:30:13Z</time>
      </trkpt>
      <trkpt lat="46.56438" lon="5.45762">
        <ele>442.2</ele>
        <time>2022-05-28T13:30:14Z</time>
      </trkpt>
      <trkpt lat="46.56431" lon="5.45749">
        <ele>442.8</ele>
        <time>2022-05-28T13:30:17Z</time>
      </trkpt>
      <trkpt lat="46.56426" lon="5.45735">
        <ele>443.2</ele>
        <time>2022-05-28T13:30:20Z</time>
      </trkpt>
      <trkpt lat="46.56421" lon="5.45716">
        <ele>444</ele>
        <time>2022-05-28T13:30:24Z</time>
      </trkpt>
      <trkpt lat="46.5642" lon="5.45711">
        <ele>444.4</ele>
        <time>2022-05-28T13:30:25Z</time>
      </trkpt>
      <trkpt lat="46.56409" lon="5.45671">
        <ele>445.4</ele>
        <time>2022-05-28T13:30:33Z</time>
      </trkpt>
      <trkpt lat="46.56408" lon="5.45666">
        <ele>445.6</ele>
        <time>2022-05-28T13:30:34Z</time>
      </trkpt>
      <trkpt lat="46.564" lon="5.45636">
        <ele>446.8</ele>
        <time>2022-05-28T13:30:40Z</time>
      </trkpt>
      <trkpt lat="46.56396" lon="5.45622">
        <ele>447.4</ele>
        <time>2022-05-28T13:30:43Z</time>
      </trkpt>
      <trkpt lat="46.56391" lon="5.45607">
        <ele>447.8</ele>
        <time>2022-05-28T13:30:46Z</time>
      </trkpt>
      <trkpt lat="46.56388" lon="5.45597">
        <ele>448.4</ele>
        <time>2022-05-28T13:30:48Z</time>
      </trkpt>
      <trkpt lat="46.56385" lon="5.45588">
        <ele>448.8</ele>
        <time>2022-05-28T13:30:50Z</time>
      </trkpt>
      <trkpt lat="46.56383" lon="5.45579">
        <ele>449</ele>
        <time>2022-05-28T13:30:52Z</time>
      </trkpt>
      <trkpt lat="46.56378" lon="5.4556">
        <ele>450.4</ele>
        <time>2022-05-28T13:30:56Z</time>
      </trkpt>
      <trkpt lat="46.56372" lon="5.45543">
        <ele>451.6</ele>
        <time>2022-05-28T13:31:00Z</time>
      </trkpt>
      <trkpt lat="46.56369" lon="5.45533">
        <ele>452</ele>
        <time>2022-05-28T13:31:02Z</time>
      </trkpt>
      <trkpt lat="46.56362" lon="5.45519">
        <ele>452.6</ele>
        <time>2022-05-28T13:31:06Z</time>
      </trkpt>
      <trkpt lat="46.56359" lon="5.45513">
        <ele>453</ele>
        <time>2022-05-28T13:31:08Z</time>
      </trkpt>
      <trkpt lat="46.5635" lon="5.45493">
        <ele>453.8</ele>
        <time>2022-05-28T13:31:13Z</time>
      </trkpt>
      <trkpt lat="46.56348" lon="5.45489">
        <ele>454</ele>
        <time>2022-05-28T13:31:14Z</time>
      </trkpt>
      <trkpt lat="46.56342" lon="5.45477">
        <ele>455</ele>
        <time>2022-05-28T13:31:17Z</time>
      </trkpt>
      <trkpt lat="46.56336" lon="5.45466">
        <ele>456</ele>
        <time>2022-05-28T13:31:20Z</time>
      </trkpt>
      <trkpt lat="46.5633" lon="5.45454">
        <ele>456.2</ele>
        <time>2022-05-28T13:31:23Z</time>
      </trkpt>
      <trkpt lat="46.56322" lon="5.45437">
        <ele>457.2</ele>
        <time>2022-05-28T13:31:27Z</time>
      </trkpt>
      <trkpt lat="46.56319" lon="5.45428">
        <ele>457.6</ele>
        <time>2022-05-28T13:31:29Z</time>
      </trkpt>
      <trkpt lat="46.56312" lon="5.4541">
        <ele>458.2</ele>
        <time>2022-05-28T13:31:33Z</time>
      </trkpt>
      <trkpt lat="46.56306" lon="5.45392">
        <ele>459.2</ele>
        <time>2022-05-28T13:31:37Z</time>
      </trkpt>
      <trkpt lat="46.56304" lon="5.45386">
        <ele>459.4</ele>
        <time>2022-05-28T13:31:38Z</time>
      </trkpt>
      <trkpt lat="46.56295" lon="5.45358">
        <ele>460.2</ele>
        <time>2022-05-28T13:31:44Z</time>
      </trkpt>
      <trkpt lat="46.56294" lon="5.45353">
        <ele>460.6</ele>
        <time>2022-05-28T13:31:45Z</time>
      </trkpt>
      <trkpt lat="46.56284" lon="5.45332">
        <ele>461.6</ele>
        <time>2022-05-28T13:31:50Z</time>
      </trkpt>
      <trkpt lat="46.56281" lon="5.45323">
        <ele>462</ele>
        <time>2022-05-28T13:31:52Z</time>
      </trkpt>
      <trkpt lat="46.56274" lon="5.45301">
        <ele>462.8</ele>
        <time>2022-05-28T13:31:57Z</time>
      </trkpt>
      <trkpt lat="46.56272" lon="5.45292">
        <ele>463.2</ele>
        <time>2022-05-28T13:31:59Z</time>
      </trkpt>
      <trkpt lat="46.56271" lon="5.45272">
        <ele>464</ele>
        <time>2022-05-28T13:32:03Z</time>
      </trkpt>
      <trkpt lat="46.5627" lon="5.45257">
        <ele>464.6</ele>
        <time>2022-05-28T13:32:06Z</time>
      </trkpt>
      <trkpt lat="46.5627" lon="5.45238">
        <ele>465.4</ele>
        <time>2022-05-28T13:32:10Z</time>
      </trkpt>
      <trkpt lat="46.56268" lon="5.45225">
        <ele>466.4</ele>
        <time>2022-05-28T13:32:13Z</time>
      </trkpt>
      <trkpt lat="46.56265" lon="5.45212">
        <ele>467.2</ele>
        <time>2022-05-28T13:32:16Z</time>
      </trkpt>
      <trkpt lat="46.56263" lon="5.45208">
        <ele>467.6</ele>
        <time>2022-05-28T13:32:17Z</time>
      </trkpt>
      <trkpt lat="46.56255" lon="5.45188">
        <ele>468.6</ele>
        <time>2022-05-28T13:32:22Z</time>
      </trkpt>
      <trkpt lat="46.56251" lon="5.45179">
        <ele>468.6</ele>
        <time>2022-05-28T13:32:24Z</time>
      </trkpt>
      <trkpt lat="46.56244" lon="5.45159">
        <ele>469.8</ele>
        <time>2022-05-28T13:32:29Z</time>
      </trkpt>
      <trkpt lat="46.5624" lon="5.45145">
        <ele>470.6</ele>
        <time>2022-05-28T13:32:32Z</time>
      </trkpt>
      <trkpt lat="46.56238" lon="5.45137">
        <ele>471</ele>
        <time>2022-05-28T13:32:34Z</time>
      </trkpt>
      <trkpt lat="46.56234" lon="5.45107">
        <ele>472.2</ele>
        <time>2022-05-28T13:32:40Z</time>
      </trkpt>
      <trkpt lat="46.56228" lon="5.45074">
        <ele>472.8</ele>
        <time>2022-05-28T13:32:45Z</time>
      </trkpt>
      <trkpt lat="46.56226" lon="5.45065">
        <ele>472.8</ele>
        <time>2022-05-28T13:32:46Z</time>
      </trkpt>
      <trkpt lat="46.5622" lon="5.4505">
        <ele>472.8</ele>
        <time>2022-05-28T13:32:48Z</time>
      </trkpt>
      <trkpt lat="46.56214" lon="5.45041">
        <ele>472.6</ele>
        <time>2022-05-28T13:32:49Z</time>
      </trkpt>
      <trkpt lat="46.56185" lon="5.45003">
        <ele>471.6</ele>
        <time>2022-05-28T13:32:54Z</time>
      </trkpt>
      <trkpt lat="46.56179" lon="5.44994">
        <ele>470.8</ele>
        <time>2022-05-28T13:32:55Z</time>
      </trkpt>
      <trkpt lat="46.56168" lon="5.4498">
        <ele>470.2</ele>
        <time>2022-05-28T13:32:57Z</time>
      </trkpt>
      <trkpt lat="46.56156" lon="5.44972">
        <ele>470</ele>
        <time>2022-05-28T13:32:59Z</time>
      </trkpt>
      <trkpt lat="46.56143" lon="5.44967">
        <ele>470</ele>
        <time>2022-05-28T13:33:01Z</time>
      </trkpt>
      <trkpt lat="46.56124" lon="5.44966">
        <ele>469.8</ele>
        <time>2022-05-28T13:33:04Z</time>
      </trkpt>
      <trkpt lat="46.56101" lon="5.44969">
        <ele>470</ele>
        <time>2022-05-28T13:33:08Z</time>
      </trkpt>
      <trkpt lat="46.56095" lon="5.44967">
        <ele>470.2</ele>
        <time>2022-05-28T13:33:09Z</time>
      </trkpt>
      <trkpt lat="46.56089" lon="5.44965">
        <ele>470.4</ele>
        <time>2022-05-28T13:33:10Z</time>
      </trkpt>
      <trkpt lat="46.56074" lon="5.44953">
        <ele>470.8</ele>
        <time>2022-05-28T13:33:13Z</time>
      </trkpt>
      <trkpt lat="46.5606" lon="5.44938">
        <ele>471.8</ele>
        <time>2022-05-28T13:33:17Z</time>
      </trkpt>
      <trkpt lat="46.56057" lon="5.44934">
        <ele>472.2</ele>
        <time>2022-05-28T13:33:18Z</time>
      </trkpt>
      <trkpt lat="46.56049" lon="5.44922">
        <ele>472.8</ele>
        <time>2022-05-28T13:33:21Z</time>
      </trkpt>
      <trkpt lat="46.56044" lon="5.44912">
        <ele>473.4</ele>
        <time>2022-05-28T13:33:23Z</time>
      </trkpt>
      <trkpt lat="46.56041" lon="5.44903">
        <ele>474</ele>
        <time>2022-05-28T13:33:25Z</time>
      </trkpt>
      <trkpt lat="46.56033" lon="5.44885">
        <ele>475.2</ele>
        <time>2022-05-28T13:33:29Z</time>
      </trkpt>
      <trkpt lat="46.56031" lon="5.44881">
        <ele>476</ele>
        <time>2022-05-28T13:33:30Z</time>
      </trkpt>
      <trkpt lat="46.56026" lon="5.44872">
        <ele>476.6</ele>
        <time>2022-05-28T13:33:32Z</time>
      </trkpt>
      <trkpt lat="46.56018" lon="5.44857">
        <ele>477.6</ele>
        <time>2022-05-28T13:33:36Z</time>
      </trkpt>
      <trkpt lat="46.56014" lon="5.4485">
        <ele>478.2</ele>
        <time>2022-05-28T13:33:38Z</time>
      </trkpt>
      <trkpt lat="46.56013" lon="5.44846">
        <ele>478.8</ele>
        <time>2022-05-28T13:33:39Z</time>
      </trkpt>
      <trkpt lat="46.56001" lon="5.44827">
        <ele>480</ele>
        <time>2022-05-28T13:33:44Z</time>
      </trkpt>
      <trkpt lat="46.55997" lon="5.44821">
        <ele>480.6</ele>
        <time>2022-05-28T13:33:46Z</time>
      </trkpt>
      <trkpt lat="46.55989" lon="5.4481">
        <ele>481.2</ele>
        <time>2022-05-28T13:33:49Z</time>
      </trkpt>
      <trkpt lat="46.55982" lon="5.44801">
        <ele>481.8</ele>
        <time>2022-05-28T13:33:52Z</time>
      </trkpt>
      <trkpt lat="46.5597" lon="5.44787">
        <ele>482.4</ele>
        <time>2022-05-28T13:33:56Z</time>
      </trkpt>
      <trkpt lat="46.55957" lon="5.44775">
        <ele>483.6</ele>
        <time>2022-05-28T13:34:00Z</time>
      </trkpt>
      <trkpt lat="46.55952" lon="5.44769">
        <ele>483.8</ele>
        <time>2022-05-28T13:34:02Z</time>
      </trkpt>
      <trkpt lat="46.55941" lon="5.44758">
        <ele>484.4</ele>
        <time>2022-05-28T13:34:05Z</time>
      </trkpt>
      <trkpt lat="46.55937" lon="5.44752">
        <ele>484.6</ele>
        <time>2022-05-28T13:34:06Z</time>
      </trkpt>
      <trkpt lat="46.55933" lon="5.44748">
        <ele>484.6</ele>
        <time>2022-05-28T13:34:07Z</time>
      </trkpt>
      <trkpt lat="46.55929" lon="5.44744">
        <ele>484.8</ele>
        <time>2022-05-28T13:34:08Z</time>
      </trkpt>
      <trkpt lat="46.55914" lon="5.44728">
        <ele>485.6</ele>
        <time>2022-05-28T13:34:12Z</time>
      </trkpt>
      <trkpt lat="46.5591" lon="5.44723">
        <ele>485.8</ele>
        <time>2022-05-28T13:34:13Z</time>
      </trkpt>
      <trkpt lat="46.55884" lon="5.44694">
        <ele>486.6</ele>
        <time>2022-05-28T13:34:20Z</time>
      </trkpt>
      <trkpt lat="46.55881" lon="5.44689">
        <ele>487</ele>
        <time>2022-05-28T13:34:21Z</time>
      </trkpt>
      <trkpt lat="46.55878" lon="5.44686">
        <ele>487</ele>
        <time>2022-05-28T13:34:22Z</time>
      </trkpt>
      <trkpt lat="46.55872" lon="5.44676">
        <ele>487.4</ele>
        <time>2022-05-28T13:34:24Z</time>
      </trkpt>
      <trkpt lat="46.55865" lon="5.4467">
        <ele>488</ele>
        <time>2022-05-28T13:34:26Z</time>
      </trkpt>
      <trkpt lat="46.55857" lon="5.44664">
        <ele>489</ele>
        <time>2022-05-28T13:34:28Z</time>
      </trkpt>
      <trkpt lat="46.55852" lon="5.44661">
        <ele>489.2</ele>
        <time>2022-05-28T13:34:29Z</time>
      </trkpt>
      <trkpt lat="46.55838" lon="5.44653">
        <ele>490.2</ele>
        <time>2022-05-28T13:34:32Z</time>
      </trkpt>
      <trkpt lat="46.5582" lon="5.44639">
        <ele>490.6</ele>
        <time>2022-05-28T13:34:36Z</time>
      </trkpt>
      <trkpt lat="46.55803" lon="5.44617">
        <ele>491.4</ele>
        <time>2022-05-28T13:34:41Z</time>
      </trkpt>
      <trkpt lat="46.5579" lon="5.44602">
        <ele>491.8</ele>
        <time>2022-05-28T13:34:44Z</time>
      </trkpt>
      <trkpt lat="46.55781" lon="5.44593">
        <ele>491.8</ele>
        <time>2022-05-28T13:34:46Z</time>
      </trkpt>
      <trkpt lat="46.55769" lon="5.44588">
        <ele>491.8</ele>
        <time>2022-05-28T13:34:48Z</time>
      </trkpt>
      <trkpt lat="46.5575" lon="5.44592">
        <ele>492</ele>
        <time>2022-05-28T13:34:51Z</time>
      </trkpt>
      <trkpt lat="46.55736" lon="5.44586">
        <ele>491.4</ele>
        <time>2022-05-28T13:34:53Z</time>
      </trkpt>
      <trkpt lat="46.5571" lon="5.44556">
        <ele>491</ele>
        <time>2022-05-28T13:34:57Z</time>
      </trkpt>
      <trkpt lat="46.5567" lon="5.44508">
        <ele>490.4</ele>
        <time>2022-05-28T13:35:02Z</time>
      </trkpt>
      <trkpt lat="46.55661" lon="5.44498">
        <ele>489.6</ele>
        <time>2022-05-28T13:35:03Z</time>
      </trkpt>
      <trkpt lat="46.55642" lon="5.4448">
        <ele>488.6</ele>
        <time>2022-05-28T13:35:05Z</time>
      </trkpt>
      <trkpt lat="46.55619" lon="5.44461">
        <ele>487.2</ele>
        <time>2022-05-28T13:35:07Z</time>
      </trkpt>
      <trkpt lat="46.55599" lon="5.44442">
        <ele>485.8</ele>
        <time>2022-05-28T13:35:09Z</time>
      </trkpt>
      <trkpt lat="46.55576" lon="5.4442">
        <ele>483.6</ele>
        <time>2022-05-28T13:35:11Z</time>
      </trkpt>
      <trkpt lat="46.55565" lon="5.44408">
        <ele>482.2</ele>
        <time>2022-05-28T13:35:12Z</time>
      </trkpt>
      <trkpt lat="46.55542" lon="5.44384">
        <ele>480.8</ele>
        <time>2022-05-28T13:35:14Z</time>
      </trkpt>
      <trkpt lat="46.5552" lon="5.44359">
        <ele>478.4</ele>
        <time>2022-05-28T13:35:16Z</time>
      </trkpt>
      <trkpt lat="46.55509" lon="5.44346">
        <ele>477.4</ele>
        <time>2022-05-28T13:35:17Z</time>
      </trkpt>
      <trkpt lat="46.55498" lon="5.44334">
        <ele>476.6</ele>
        <time>2022-05-28T13:35:18Z</time>
      </trkpt>
      <trkpt lat="46.55466" lon="5.44296">
        <ele>474.4</ele>
        <time>2022-05-28T13:35:21Z</time>
      </trkpt>
      <trkpt lat="46.55446" lon="5.44271">
        <ele>473</ele>
        <time>2022-05-28T13:35:23Z</time>
      </trkpt>
      <trkpt lat="46.55436" lon="5.44261">
        <ele>472.6</ele>
        <time>2022-05-28T13:35:24Z</time>
      </trkpt>
      <trkpt lat="46.55424" lon="5.44253">
        <ele>471.8</ele>
        <time>2022-05-28T13:35:25Z</time>
      </trkpt>
      <trkpt lat="46.55391" lon="5.44233">
        <ele>471.2</ele>
        <time>2022-05-28T13:35:28Z</time>
      </trkpt>
      <trkpt lat="46.55372" lon="5.44218">
        <ele>471</ele>
        <time>2022-05-28T13:35:30Z</time>
      </trkpt>
      <trkpt lat="46.55358" lon="5.44198">
        <ele>471.2</ele>
        <time>2022-05-28T13:35:32Z</time>
      </trkpt>
      <trkpt lat="46.55354" lon="5.44173">
        <ele>471.2</ele>
        <time>2022-05-28T13:35:34Z</time>
      </trkpt>
      <trkpt lat="46.55355" lon="5.44162">
        <ele>471.4</ele>
        <time>2022-05-28T13:35:35Z</time>
      </trkpt>
      <trkpt lat="46.55354" lon="5.44141">
        <ele>471.6</ele>
        <time>2022-05-28T13:35:37Z</time>
      </trkpt>
      <trkpt lat="46.55353" lon="5.44131">
        <ele>471.6</ele>
        <time>2022-05-28T13:35:38Z</time>
      </trkpt>
      <trkpt lat="46.5535" lon="5.44122">
        <ele>472</ele>
        <time>2022-05-28T13:35:39Z</time>
      </trkpt>
      <trkpt lat="46.5534" lon="5.44098">
        <ele>473</ele>
        <time>2022-05-28T13:35:42Z</time>
      </trkpt>
      <trkpt lat="46.55332" lon="5.44082">
        <ele>474</ele>
        <time>2022-05-28T13:35:44Z</time>
      </trkpt>
      <trkpt lat="46.55322" lon="5.4406">
        <ele>475.2</ele>
        <time>2022-05-28T13:35:47Z</time>
      </trkpt>
      <trkpt lat="46.55316" lon="5.44045">
        <ele>476</ele>
        <time>2022-05-28T13:35:49Z</time>
      </trkpt>
      <trkpt lat="46.5531" lon="5.44032">
        <ele>476.2</ele>
        <time>2022-05-28T13:35:51Z</time>
      </trkpt>
      <trkpt lat="46.553" lon="5.44013">
        <ele>476.4</ele>
        <time>2022-05-28T13:35:54Z</time>
      </trkpt>
      <trkpt lat="46.55265" lon="5.43959">
        <ele>476.8</ele>
        <time>2022-05-28T13:36:03Z</time>
      </trkpt>
      <trkpt lat="46.55239" lon="5.43922">
        <ele>477.4</ele>
        <time>2022-05-28T13:36:09Z</time>
      </trkpt>
      <trkpt lat="46.5521" lon="5.43882">
        <ele>477.2</ele>
        <time>2022-05-28T13:36:15Z</time>
      </trkpt>
      <trkpt lat="46.55185" lon="5.43852">
        <ele>476.8</ele>
        <time>2022-05-28T13:36:20Z</time>
      </trkpt>
      <trkpt lat="46.55165" lon="5.4382">
        <ele>476.4</ele>
        <time>2022-05-28T13:36:25Z</time>
      </trkpt>
      <trkpt lat="46.5515" lon="5.43788">
        <ele>475.8</ele>
        <time>2022-05-28T13:36:29Z</time>
      </trkpt>
      <trkpt lat="46.55128" lon="5.43732">
        <ele>475.4</ele>
        <time>2022-05-28T13:36:36Z</time>
      </trkpt>
      <trkpt lat="46.55125" lon="5.43724">
        <ele>475.2</ele>
        <time>2022-05-28T13:36:37Z</time>
      </trkpt>
      <trkpt lat="46.5511" lon="5.43688">
        <ele>474.8</ele>
        <time>2022-05-28T13:36:41Z</time>
      </trkpt>
      <trkpt lat="46.55101" lon="5.43668">
        <ele>474.2</ele>
        <time>2022-05-28T13:36:43Z</time>
      </trkpt>
      <trkpt lat="46.55087" lon="5.43638">
        <ele>473.6</ele>
        <time>2022-05-28T13:36:46Z</time>
      </trkpt>
      <trkpt lat="46.55082" lon="5.43628">
        <ele>473.2</ele>
        <time>2022-05-28T13:36:47Z</time>
      </trkpt>
      <trkpt lat="46.55066" lon="5.43596">
        <ele>471.8</ele>
        <time>2022-05-28T13:36:50Z</time>
      </trkpt>
      <trkpt lat="46.55054" lon="5.43574">
        <ele>470.4</ele>
        <time>2022-05-28T13:36:52Z</time>
      </trkpt>
      <trkpt lat="46.55048" lon="5.43564">
        <ele>470.4</ele>
        <time>2022-05-28T13:36:53Z</time>
      </trkpt>
      <trkpt lat="46.55042" lon="5.43554">
        <ele>470.2</ele>
        <time>2022-05-28T13:36:54Z</time>
      </trkpt>
      <trkpt lat="46.55028" lon="5.43536">
        <ele>469.2</ele>
        <time>2022-05-28T13:36:56Z</time>
      </trkpt>
      <trkpt lat="46.55021" lon="5.43526">
        <ele>468.4</ele>
        <time>2022-05-28T13:36:57Z</time>
      </trkpt>
      <trkpt lat="46.55013" lon="5.43516">
        <ele>467.6</ele>
        <time>2022-05-28T13:36:58Z</time>
      </trkpt>
      <trkpt lat="46.54997" lon="5.43493">
        <ele>466.6</ele>
        <time>2022-05-28T13:37:00Z</time>
      </trkpt>
      <trkpt lat="46.54991" lon="5.43485">
        <ele>465.6</ele>
        <time>2022-05-28T13:37:01Z</time>
      </trkpt>
      <trkpt lat="46.54981" lon="5.43472">
        <ele>465.2</ele>
        <time>2022-05-28T13:37:02Z</time>
      </trkpt>
      <trkpt lat="46.54966" lon="5.43454">
        <ele>464.2</ele>
        <time>2022-05-28T13:37:04Z</time>
      </trkpt>
      <trkpt lat="46.54948" lon="5.43434">
        <ele>462.2</ele>
        <time>2022-05-28T13:37:06Z</time>
      </trkpt>
      <trkpt lat="46.54939" lon="5.43426">
        <ele>461.6</ele>
        <time>2022-05-28T13:37:07Z</time>
      </trkpt>
      <trkpt lat="46.5493" lon="5.43418">
        <ele>460.6</ele>
        <time>2022-05-28T13:37:08Z</time>
      </trkpt>
      <trkpt lat="46.54913" lon="5.43406">
        <ele>459.6</ele>
        <time>2022-05-28T13:37:10Z</time>
      </trkpt>
      <trkpt lat="46.54906" lon="5.434">
        <ele>459.4</ele>
        <time>2022-05-28T13:37:11Z</time>
      </trkpt>
      <trkpt lat="46.549" lon="5.43393">
        <ele>458.2</ele>
        <time>2022-05-28T13:37:12Z</time>
      </trkpt>
      <trkpt lat="46.54895" lon="5.43385">
        <ele>457.2</ele>
        <time>2022-05-28T13:37:13Z</time>
      </trkpt>
      <trkpt lat="46.54891" lon="5.43375">
        <ele>456.6</ele>
        <time>2022-05-28T13:37:14Z</time>
      </trkpt>
      <trkpt lat="46.54888" lon="5.43364">
        <ele>455.6</ele>
        <time>2022-05-28T13:37:15Z</time>
      </trkpt>
      <trkpt lat="46.54885" lon="5.43355">
        <ele>455</ele>
        <time>2022-05-28T13:37:16Z</time>
      </trkpt>
      <trkpt lat="46.5488" lon="5.43346">
        <ele>454</ele>
        <time>2022-05-28T13:37:17Z</time>
      </trkpt>
      <trkpt lat="46.54876" lon="5.43337">
        <ele>453.2</ele>
        <time>2022-05-28T13:37:18Z</time>
      </trkpt>
      <trkpt lat="46.54873" lon="5.43328">
        <ele>452.4</ele>
        <time>2022-05-28T13:37:19Z</time>
      </trkpt>
      <trkpt lat="46.54871" lon="5.43318">
        <ele>452</ele>
        <time>2022-05-28T13:37:20Z</time>
      </trkpt>
      <trkpt lat="46.5487" lon="5.43307">
        <ele>451.8</ele>
        <time>2022-05-28T13:37:21Z</time>
      </trkpt>
      <trkpt lat="46.5487" lon="5.43297">
        <ele>451.2</ele>
        <time>2022-05-28T13:37:22Z</time>
      </trkpt>
      <trkpt lat="46.54868" lon="5.43264">
        <ele>450</ele>
        <time>2022-05-28T13:37:25Z</time>
      </trkpt>
      <trkpt lat="46.54865" lon="5.43243">
        <ele>449</ele>
        <time>2022-05-28T13:37:27Z</time>
      </trkpt>
      <trkpt lat="46.54862" lon="5.43234">
        <ele>448.8</ele>
        <time>2022-05-28T13:37:28Z</time>
      </trkpt>
      <trkpt lat="46.54846" lon="5.43193">
        <ele>448</ele>
        <time>2022-05-28T13:37:33Z</time>
      </trkpt>
      <trkpt lat="46.5484" lon="5.43178">
        <ele>448</ele>
        <time>2022-05-28T13:37:35Z</time>
      </trkpt>
      <trkpt lat="46.54831" lon="5.4316">
        <ele>447.8</ele>
        <time>2022-05-28T13:37:38Z</time>
      </trkpt>
      <trkpt lat="46.54824" lon="5.43143">
        <ele>447.8</ele>
        <time>2022-05-28T13:37:41Z</time>
      </trkpt>
      <trkpt lat="46.5482" lon="5.43131">
        <ele>448</ele>
        <time>2022-05-28T13:37:43Z</time>
      </trkpt>
      <trkpt lat="46.54818" lon="5.43125">
        <ele>448</ele>
        <time>2022-05-28T13:37:44Z</time>
      </trkpt>
      <trkpt lat="46.54804" lon="5.43091">
        <ele>448</ele>
        <time>2022-05-28T13:37:50Z</time>
      </trkpt>
      <trkpt lat="46.54788" lon="5.43061">
        <ele>447.6</ele>
        <time>2022-05-28T13:37:55Z</time>
      </trkpt>
      <trkpt lat="46.54754" lon="5.43002">
        <ele>447</ele>
        <time>2022-05-28T13:38:04Z</time>
      </trkpt>
      <trkpt lat="46.54729" lon="5.42963">
        <ele>446.8</ele>
        <time>2022-05-28T13:38:10Z</time>
      </trkpt>
      <trkpt lat="46.54706" lon="5.42932">
        <ele>446</ele>
        <time>2022-05-28T13:38:15Z</time>
      </trkpt>
      <trkpt lat="46.54697" lon="5.42917">
        <ele>445.4</ele>
        <time>2022-05-28T13:38:17Z</time>
      </trkpt>
      <trkpt lat="46.54678" lon="5.42878">
        <ele>445</ele>
        <time>2022-05-28T13:38:21Z</time>
      </trkpt>
      <trkpt lat="46.54674" lon="5.42867">
        <ele>444.4</ele>
        <time>2022-05-28T13:38:22Z</time>
      </trkpt>
      <trkpt lat="46.54671" lon="5.42854">
        <ele>444.2</ele>
        <time>2022-05-28T13:38:23Z</time>
      </trkpt>
      <trkpt lat="46.54668" lon="5.42842">
        <ele>443.2</ele>
        <time>2022-05-28T13:38:24Z</time>
      </trkpt>
      <trkpt lat="46.54666" lon="5.42829">
        <ele>442</ele>
        <time>2022-05-28T13:38:25Z</time>
      </trkpt>
      <trkpt lat="46.54659" lon="5.42771">
        <ele>441</ele>
        <time>2022-05-28T13:38:29Z</time>
      </trkpt>
      <trkpt lat="46.54657" lon="5.42756">
        <ele>440.8</ele>
        <time>2022-05-28T13:38:30Z</time>
      </trkpt>
      <trkpt lat="46.54653" lon="5.42724">
        <ele>439.8</ele>
        <time>2022-05-28T13:38:32Z</time>
      </trkpt>
      <trkpt lat="46.54649" lon="5.42691">
        <ele>438</ele>
        <time>2022-05-28T13:38:34Z</time>
      </trkpt>
      <trkpt lat="46.54643" lon="5.42659">
        <ele>435.2</ele>
        <time>2022-05-28T13:38:36Z</time>
      </trkpt>
      <trkpt lat="46.54639" lon="5.42643">
        <ele>434.6</ele>
        <time>2022-05-28T13:38:37Z</time>
      </trkpt>
      <trkpt lat="46.54635" lon="5.42627">
        <ele>434</ele>
        <time>2022-05-28T13:38:38Z</time>
      </trkpt>
      <trkpt lat="46.54626" lon="5.42598">
        <ele>432.8</ele>
        <time>2022-05-28T13:38:40Z</time>
      </trkpt>
      <trkpt lat="46.54617" lon="5.42571">
        <ele>431.8</ele>
        <time>2022-05-28T13:38:42Z</time>
      </trkpt>
      <trkpt lat="46.54604" lon="5.42535">
        <ele>430.2</ele>
        <time>2022-05-28T13:38:45Z</time>
      </trkpt>
      <trkpt lat="46.546" lon="5.42522">
        <ele>429.8</ele>
        <time>2022-05-28T13:38:46Z</time>
      </trkpt>
      <trkpt lat="46.54595" lon="5.4251">
        <ele>428.6</ele>
        <time>2022-05-28T13:38:47Z</time>
      </trkpt>
      <trkpt lat="46.54588" lon="5.42484">
        <ele>427.4</ele>
        <time>2022-05-28T13:38:49Z</time>
      </trkpt>
      <trkpt lat="46.54584" lon="5.42458">
        <ele>426.4</ele>
        <time>2022-05-28T13:38:51Z</time>
      </trkpt>
      <trkpt lat="46.54583" lon="5.42447">
        <ele>426</ele>
        <time>2022-05-28T13:38:52Z</time>
      </trkpt>
      <trkpt lat="46.54582" lon="5.4242">
        <ele>424.6</ele>
        <time>2022-05-28T13:38:55Z</time>
      </trkpt>
      <trkpt lat="46.54582" lon="5.42408">
        <ele>423</ele>
        <time>2022-05-28T13:38:57Z</time>
      </trkpt>
      <trkpt lat="46.54583" lon="5.42404">
        <ele>422.6</ele>
        <time>2022-05-28T13:38:58Z</time>
      </trkpt>
      <trkpt lat="46.54583" lon="5.424">
        <ele>421.8</ele>
        <time>2022-05-28T13:38:59Z</time>
      </trkpt>
      <trkpt lat="46.54583" lon="5.4239">
        <ele>420.6</ele>
        <time>2022-05-28T13:39:01Z</time>
      </trkpt>
      <trkpt lat="46.5458" lon="5.42379">
        <ele>419.4</ele>
        <time>2022-05-28T13:39:04Z</time>
      </trkpt>
      <trkpt lat="46.54575" lon="5.42374">
        <ele>418.4</ele>
        <time>2022-05-28T13:39:08Z</time>
      </trkpt>
      <trkpt lat="46.54574" lon="5.42373">
        <ele>418.2</ele>
        <time>2022-05-28T13:39:09Z</time>
      </trkpt>
      <trkpt lat="46.54564" lon="5.42366">
        <ele>418.4</ele>
        <time>2022-05-28T13:39:16Z</time>
      </trkpt>
      <trkpt lat="46.54563" lon="5.42366">
        <ele>418.4</ele>
        <time>2022-05-28T13:39:17Z</time>
      </trkpt>
      <trkpt lat="46.5456" lon="5.42365">
        <ele>418.4</ele>
        <time>2022-05-28T13:39:19Z</time>
      </trkpt>
      <trkpt lat="46.54559" lon="5.42364">
        <ele>418.6</ele>
        <time>2022-05-28T13:39:20Z</time>
      </trkpt>
      <trkpt lat="46.54559" lon="5.42363">
        <ele>418.6</ele>
        <time>2022-05-28T13:39:23Z</time>
      </trkpt>
      <trkpt lat="46.54555" lon="5.42365">
        <ele>420.2</ele>
        <time>2022-05-28T13:41:15Z</time>
      </trkpt>
      <trkpt lat="46.5454" lon="5.42362">
        <ele>420.2</ele>
        <time>2022-05-28T13:41:22Z</time>
      </trkpt>
      <trkpt lat="46.54525" lon="5.42369">
        <ele>420.6</ele>
        <time>2022-05-28T13:41:28Z</time>
      </trkpt>
      <trkpt lat="46.54515" lon="5.42376">
        <ele>421.4</ele>
        <time>2022-05-28T13:41:32Z</time>
      </trkpt>
      <trkpt lat="46.54507" lon="5.42382">
        <ele>422</ele>
        <time>2022-05-28T13:41:35Z</time>
      </trkpt>
      <trkpt lat="46.54497" lon="5.4239">
        <ele>422.4</ele>
        <time>2022-05-28T13:41:39Z</time>
      </trkpt>
      <trkpt lat="46.54481" lon="5.42399">
        <ele>423.2</ele>
        <time>2022-05-28T13:41:45Z</time>
      </trkpt>
      <trkpt lat="46.54479" lon="5.424">
        <ele>423.6</ele>
        <time>2022-05-28T13:41:46Z</time>
      </trkpt>
      <trkpt lat="46.54463" lon="5.42403">
        <ele>424.6</ele>
        <time>2022-05-28T13:41:52Z</time>
      </trkpt>
      <trkpt lat="46.5445" lon="5.424">
        <ele>425.6</ele>
        <time>2022-05-28T13:41:57Z</time>
      </trkpt>
      <trkpt lat="46.54447" lon="5.42398">
        <ele>425.8</ele>
        <time>2022-05-28T13:41:58Z</time>
      </trkpt>
      <trkpt lat="46.54441" lon="5.42394">
        <ele>426.2</ele>
        <time>2022-05-28T13:42:00Z</time>
      </trkpt>
      <trkpt lat="46.54427" lon="5.42382">
        <ele>427.2</ele>
        <time>2022-05-28T13:42:05Z</time>
      </trkpt>
      <trkpt lat="46.54422" lon="5.42376">
        <ele>427.6</ele>
        <time>2022-05-28T13:42:07Z</time>
      </trkpt>
      <trkpt lat="46.54414" lon="5.42367">
        <ele>428.4</ele>
        <time>2022-05-28T13:42:10Z</time>
      </trkpt>
      <trkpt lat="46.544" lon="5.42352">
        <ele>429.6</ele>
        <time>2022-05-28T13:42:15Z</time>
      </trkpt>
      <trkpt lat="46.54398" lon="5.42349">
        <ele>429.8</ele>
        <time>2022-05-28T13:42:16Z</time>
      </trkpt>
      <trkpt lat="46.54386" lon="5.42337">
        <ele>430.8</ele>
        <time>2022-05-28T13:42:21Z</time>
      </trkpt>
      <trkpt lat="46.54385" lon="5.42335">
        <ele>431.2</ele>
        <time>2022-05-28T13:42:22Z</time>
      </trkpt>
      <trkpt lat="46.54376" lon="5.42325">
        <ele>432.2</ele>
        <time>2022-05-28T13:42:26Z</time>
      </trkpt>
      <trkpt lat="46.54374" lon="5.42323">
        <ele>432.2</ele>
        <time>2022-05-28T13:42:27Z</time>
      </trkpt>
      <trkpt lat="46.54361" lon="5.42307">
        <ele>433.2</ele>
        <time>2022-05-28T13:42:32Z</time>
      </trkpt>
      <trkpt lat="46.54358" lon="5.42305">
        <ele>433.4</ele>
        <time>2022-05-28T13:42:33Z</time>
      </trkpt>
      <trkpt lat="46.54343" lon="5.42294">
        <ele>434.2</ele>
        <time>2022-05-28T13:42:38Z</time>
      </trkpt>
      <trkpt lat="46.54334" lon="5.42289">
        <ele>434.6</ele>
        <time>2022-05-28T13:42:41Z</time>
      </trkpt>
      <trkpt lat="46.5432" lon="5.42283">
        <ele>435.4</ele>
        <time>2022-05-28T13:42:46Z</time>
      </trkpt>
      <trkpt lat="46.54314" lon="5.42283">
        <ele>435.8</ele>
        <time>2022-05-28T13:42:48Z</time>
      </trkpt>
      <trkpt lat="46.543" lon="5.4228">
        <ele>436.6</ele>
        <time>2022-05-28T13:42:53Z</time>
      </trkpt>
      <trkpt lat="46.54294" lon="5.42279">
        <ele>436.8</ele>
        <time>2022-05-28T13:42:55Z</time>
      </trkpt>
      <trkpt lat="46.54272" lon="5.42274">
        <ele>437.6</ele>
        <time>2022-05-28T13:43:02Z</time>
      </trkpt>
      <trkpt lat="46.54264" lon="5.4227">
        <ele>438.8</ele>
        <time>2022-05-28T13:43:05Z</time>
      </trkpt>
      <trkpt lat="46.54256" lon="5.42267">
        <ele>440</ele>
        <time>2022-05-28T13:43:08Z</time>
      </trkpt>
      <trkpt lat="46.54254" lon="5.42266">
        <ele>440.4</ele>
        <time>2022-05-28T13:43:09Z</time>
      </trkpt>
      <trkpt lat="46.54246" lon="5.42264">
        <ele>441</ele>
        <time>2022-05-28T13:43:12Z</time>
      </trkpt>
      <trkpt lat="46.54236" lon="5.42263">
        <ele>442</ele>
        <time>2022-05-28T13:43:15Z</time>
      </trkpt>
      <trkpt lat="46.5423" lon="5.42262">
        <ele>442.2</ele>
        <time>2022-05-28T13:43:17Z</time>
      </trkpt>
      <trkpt lat="46.54219" lon="5.42258">
        <ele>442.8</ele>
        <time>2022-05-28T13:43:20Z</time>
      </trkpt>
      <trkpt lat="46.54213" lon="5.42256">
        <ele>443.4</ele>
        <time>2022-05-28T13:43:22Z</time>
      </trkpt>
      <trkpt lat="46.54204" lon="5.42253">
        <ele>443.8</ele>
        <time>2022-05-28T13:43:25Z</time>
      </trkpt>
      <trkpt lat="46.54191" lon="5.42245">
        <ele>444.8</ele>
        <time>2022-05-28T13:43:29Z</time>
      </trkpt>
      <trkpt lat="46.54188" lon="5.42242">
        <ele>445</ele>
        <time>2022-05-28T13:43:30Z</time>
      </trkpt>
      <trkpt lat="46.5418" lon="5.42233">
        <ele>446</ele>
        <time>2022-05-28T13:43:33Z</time>
      </trkpt>
      <trkpt lat="46.54175" lon="5.42227">
        <ele>446.4</ele>
        <time>2022-05-28T13:43:35Z</time>
      </trkpt>
      <trkpt lat="46.54168" lon="5.42212">
        <ele>447</ele>
        <time>2022-05-28T13:43:39Z</time>
      </trkpt>
      <trkpt lat="46.54164" lon="5.42206">
        <ele>447.4</ele>
        <time>2022-05-28T13:43:41Z</time>
      </trkpt>
      <trkpt lat="46.54157" lon="5.42191">
        <ele>448.4</ele>
        <time>2022-05-28T13:43:45Z</time>
      </trkpt>
      <trkpt lat="46.54147" lon="5.4217">
        <ele>449.4</ele>
        <time>2022-05-28T13:43:50Z</time>
      </trkpt>
      <trkpt lat="46.54131" lon="5.42143">
        <ele>450.2</ele>
        <time>2022-05-28T13:43:57Z</time>
      </trkpt>
      <trkpt lat="46.54129" lon="5.42139">
        <ele>450.4</ele>
        <time>2022-05-28T13:43:58Z</time>
      </trkpt>
      <trkpt lat="46.54118" lon="5.42123">
        <ele>451.2</ele>
        <time>2022-05-28T13:44:03Z</time>
      </trkpt>
      <trkpt lat="46.54116" lon="5.42119">
        <ele>451.6</ele>
        <time>2022-05-28T13:44:04Z</time>
      </trkpt>
      <trkpt lat="46.541" lon="5.42105">
        <ele>452.4</ele>
        <time>2022-05-28T13:44:09Z</time>
      </trkpt>
      <trkpt lat="46.54093" lon="5.421">
        <ele>452.6</ele>
        <time>2022-05-28T13:44:11Z</time>
      </trkpt>
      <trkpt lat="46.54077" lon="5.42087">
        <ele>453.2</ele>
        <time>2022-05-28T13:44:16Z</time>
      </trkpt>
      <trkpt lat="46.54065" lon="5.42077">
        <ele>453.6</ele>
        <time>2022-05-28T13:44:20Z</time>
      </trkpt>
      <trkpt lat="46.54056" lon="5.4207">
        <ele>454</ele>
        <time>2022-05-28T13:44:23Z</time>
      </trkpt>
      <trkpt lat="46.54038" lon="5.42058">
        <ele>455.2</ele>
        <time>2022-05-28T13:44:29Z</time>
      </trkpt>
      <trkpt lat="46.54014" lon="5.42042">
        <ele>456.4</ele>
        <time>2022-05-28T13:44:37Z</time>
      </trkpt>
      <trkpt lat="46.53996" lon="5.42029">
        <ele>457.4</ele>
        <time>2022-05-28T13:44:43Z</time>
      </trkpt>
      <trkpt lat="46.53975" lon="5.42024">
        <ele>458.4</ele>
        <time>2022-05-28T13:44:49Z</time>
      </trkpt>
      <trkpt lat="46.53972" lon="5.42025">
        <ele>458.6</ele>
        <time>2022-05-28T13:44:50Z</time>
      </trkpt>
      <trkpt lat="46.53952" lon="5.42036">
        <ele>459.4</ele>
        <time>2022-05-28T13:44:56Z</time>
      </trkpt>
      <trkpt lat="46.53946" lon="5.4204">
        <ele>459.6</ele>
        <time>2022-05-28T13:44:58Z</time>
      </trkpt>
      <trkpt lat="46.53929" lon="5.42047">
        <ele>460.6</ele>
        <time>2022-05-28T13:45:03Z</time>
      </trkpt>
      <trkpt lat="46.53914" lon="5.42047">
        <ele>461.8</ele>
        <time>2022-05-28T13:45:08Z</time>
      </trkpt>
      <trkpt lat="46.53911" lon="5.42047">
        <ele>462</ele>
        <time>2022-05-28T13:45:09Z</time>
      </trkpt>
      <trkpt lat="46.53897" lon="5.42045">
        <ele>462.8</ele>
        <time>2022-05-28T13:45:14Z</time>
      </trkpt>
      <trkpt lat="46.53891" lon="5.42044">
        <ele>463.2</ele>
        <time>2022-05-28T13:45:16Z</time>
      </trkpt>
      <trkpt lat="46.53882" lon="5.42043">
        <ele>463.8</ele>
        <time>2022-05-28T13:45:19Z</time>
      </trkpt>
      <trkpt lat="46.53877" lon="5.42042">
        <ele>464.4</ele>
        <time>2022-05-28T13:45:21Z</time>
      </trkpt>
      <trkpt lat="46.53868" lon="5.4204">
        <ele>465.2</ele>
        <time>2022-05-28T13:45:24Z</time>
      </trkpt>
      <trkpt lat="46.5386" lon="5.42041">
        <ele>466.4</ele>
        <time>2022-05-28T13:45:27Z</time>
      </trkpt>
      <trkpt lat="46.53854" lon="5.42053">
        <ele>467.4</ele>
        <time>2022-05-28T13:45:31Z</time>
      </trkpt>
      <trkpt lat="46.53852" lon="5.42071">
        <ele>468.6</ele>
        <time>2022-05-28T13:45:36Z</time>
      </trkpt>
      <trkpt lat="46.53852" lon="5.42084">
        <ele>469</ele>
        <time>2022-05-28T13:45:39Z</time>
      </trkpt>
      <trkpt lat="46.53852" lon="5.42096">
        <ele>469.6</ele>
        <time>2022-05-28T13:45:42Z</time>
      </trkpt>
      <trkpt lat="46.53852" lon="5.42111">
        <ele>471</ele>
        <time>2022-05-28T13:45:46Z</time>
      </trkpt>
      <trkpt lat="46.53852" lon="5.42119">
        <ele>471.4</ele>
        <time>2022-05-28T13:45:48Z</time>
      </trkpt>
      <trkpt lat="46.5385" lon="5.42135">
        <ele>472</ele>
        <time>2022-05-28T13:45:52Z</time>
      </trkpt>
      <trkpt lat="46.53846" lon="5.42148">
        <ele>472.6</ele>
        <time>2022-05-28T13:45:56Z</time>
      </trkpt>
      <trkpt lat="46.5384" lon="5.42155">
        <ele>473.4</ele>
        <time>2022-05-28T13:45:59Z</time>
      </trkpt>
      <trkpt lat="46.53832" lon="5.42158">
        <ele>474.4</ele>
        <time>2022-05-28T13:46:02Z</time>
      </trkpt>
      <trkpt lat="46.53829" lon="5.42159">
        <ele>474.6</ele>
        <time>2022-05-28T13:46:03Z</time>
      </trkpt>
      <trkpt lat="46.53811" lon="5.42157">
        <ele>475.4</ele>
        <time>2022-05-28T13:46:09Z</time>
      </trkpt>
      <trkpt lat="46.53802" lon="5.42155">
        <ele>475.8</ele>
        <time>2022-05-28T13:46:12Z</time>
      </trkpt>
      <trkpt lat="46.5378" lon="5.42145">
        <ele>476.2</ele>
        <time>2022-05-28T13:46:19Z</time>
      </trkpt>
      <trkpt lat="46.53771" lon="5.4214">
        <ele>476.8</ele>
        <time>2022-05-28T13:46:22Z</time>
      </trkpt>
      <trkpt lat="46.53757" lon="5.4213">
        <ele>477.6</ele>
        <time>2022-05-28T13:46:27Z</time>
      </trkpt>
      <trkpt lat="46.53752" lon="5.42127">
        <ele>478</ele>
        <time>2022-05-28T13:46:29Z</time>
      </trkpt>
      <trkpt lat="46.53737" lon="5.42119">
        <ele>479</ele>
        <time>2022-05-28T13:46:34Z</time>
      </trkpt>
      <trkpt lat="46.53732" lon="5.42118">
        <ele>479.4</ele>
        <time>2022-05-28T13:46:36Z</time>
      </trkpt>
      <trkpt lat="46.5372" lon="5.42123">
        <ele>480</ele>
        <time>2022-05-28T13:46:40Z</time>
      </trkpt>
      <trkpt lat="46.53718" lon="5.4213">
        <ele>480.4</ele>
        <time>2022-05-28T13:46:42Z</time>
      </trkpt>
      <trkpt lat="46.5372" lon="5.42138">
        <ele>481</ele>
        <time>2022-05-28T13:46:44Z</time>
      </trkpt>
      <trkpt lat="46.53723" lon="5.42144">
        <ele>481.6</ele>
        <time>2022-05-28T13:46:46Z</time>
      </trkpt>
      <trkpt lat="46.53729" lon="5.42154">
        <ele>482.8</ele>
        <time>2022-05-28T13:46:49Z</time>
      </trkpt>
      <trkpt lat="46.53734" lon="5.42161">
        <ele>483.6</ele>
        <time>2022-05-28T13:46:51Z</time>
      </trkpt>
      <trkpt lat="46.53737" lon="5.42165">
        <ele>484</ele>
        <time>2022-05-28T13:46:52Z</time>
      </trkpt>
      <trkpt lat="46.53747" lon="5.4218">
        <ele>485</ele>
        <time>2022-05-28T13:46:56Z</time>
      </trkpt>
      <trkpt lat="46.53752" lon="5.42188">
        <ele>485.6</ele>
        <time>2022-05-28T13:46:58Z</time>
      </trkpt>
      <trkpt lat="46.53759" lon="5.42204">
        <ele>486</ele>
        <time>2022-05-28T13:47:02Z</time>
      </trkpt>
      <trkpt lat="46.53763" lon="5.42211">
        <ele>486.2</ele>
        <time>2022-05-28T13:47:04Z</time>
      </trkpt>
      <trkpt lat="46.53773" lon="5.42228">
        <ele>487.2</ele>
        <time>2022-05-28T13:47:09Z</time>
      </trkpt>
      <trkpt lat="46.5378" lon="5.42242">
        <ele>488</ele>
        <time>2022-05-28T13:47:13Z</time>
      </trkpt>
      <trkpt lat="46.53782" lon="5.42246">
        <ele>488.2</ele>
        <time>2022-05-28T13:47:14Z</time>
      </trkpt>
      <trkpt lat="46.53794" lon="5.42269">
        <ele>489.4</ele>
        <time>2022-05-28T13:47:21Z</time>
      </trkpt>
      <trkpt lat="46.53796" lon="5.42273">
        <ele>489.6</ele>
        <time>2022-05-28T13:47:22Z</time>
      </trkpt>
      <trkpt lat="46.53805" lon="5.42291">
        <ele>490.6</ele>
        <time>2022-05-28T13:47:27Z</time>
      </trkpt>
      <trkpt lat="46.5381" lon="5.423">
        <ele>491.6</ele>
        <time>2022-05-28T13:47:30Z</time>
      </trkpt>
      <trkpt lat="46.53813" lon="5.42308">
        <ele>491.8</ele>
        <time>2022-05-28T13:47:32Z</time>
      </trkpt>
      <trkpt lat="46.5382" lon="5.42322">
        <ele>492.8</ele>
        <time>2022-05-28T13:47:36Z</time>
      </trkpt>
      <trkpt lat="46.53835" lon="5.42352">
        <ele>494</ele>
        <time>2022-05-28T13:47:44Z</time>
      </trkpt>
      <trkpt lat="46.53843" lon="5.4238">
        <ele>494.6</ele>
        <time>2022-05-28T13:47:51Z</time>
      </trkpt>
      <trkpt lat="46.53842" lon="5.42391">
        <ele>495.2</ele>
        <time>2022-05-28T13:47:54Z</time>
      </trkpt>
      <trkpt lat="46.5384" lon="5.42398">
        <ele>496.2</ele>
        <time>2022-05-28T13:47:56Z</time>
      </trkpt>
      <trkpt lat="46.53836" lon="5.42405">
        <ele>497.2</ele>
        <time>2022-05-28T13:47:58Z</time>
      </trkpt>
      <trkpt lat="46.53834" lon="5.42407">
        <ele>497.6</ele>
        <time>2022-05-28T13:47:59Z</time>
      </trkpt>
      <trkpt lat="46.53831" lon="5.42408">
        <ele>498</ele>
        <time>2022-05-28T13:48:00Z</time>
      </trkpt>
      <trkpt lat="46.53828" lon="5.42408">
        <ele>498.2</ele>
        <time>2022-05-28T13:48:01Z</time>
      </trkpt>
      <trkpt lat="46.53825" lon="5.42407">
        <ele>498.4</ele>
        <time>2022-05-28T13:48:02Z</time>
      </trkpt>
      <trkpt lat="46.53813" lon="5.42397">
        <ele>498.8</ele>
        <time>2022-05-28T13:48:06Z</time>
      </trkpt>
      <trkpt lat="46.53809" lon="5.42394">
        <ele>498.8</ele>
        <time>2022-05-28T13:48:07Z</time>
      </trkpt>
      <trkpt lat="46.53791" lon="5.42375">
        <ele>499</ele>
        <time>2022-05-28T13:48:11Z</time>
      </trkpt>
      <trkpt lat="46.53786" lon="5.42371">
        <ele>499</ele>
        <time>2022-05-28T13:48:12Z</time>
      </trkpt>
      <trkpt lat="46.53775" lon="5.42365">
        <ele>498.8</ele>
        <time>2022-05-28T13:48:14Z</time>
      </trkpt>
      <trkpt lat="46.53769" lon="5.42364">
        <ele>498.8</ele>
        <time>2022-05-28T13:48:15Z</time>
      </trkpt>
      <trkpt lat="46.53763" lon="5.42365">
        <ele>498</ele>
        <time>2022-05-28T13:48:16Z</time>
      </trkpt>
      <trkpt lat="46.5375" lon="5.42366">
        <ele>497.2</ele>
        <time>2022-05-28T13:48:18Z</time>
      </trkpt>
      <trkpt lat="46.53745" lon="5.42369">
        <ele>496.4</ele>
        <time>2022-05-28T13:48:19Z</time>
      </trkpt>
      <trkpt lat="46.5374" lon="5.42374">
        <ele>496</ele>
        <time>2022-05-28T13:48:20Z</time>
      </trkpt>
      <trkpt lat="46.5373" lon="5.42387">
        <ele>495.4</ele>
        <time>2022-05-28T13:48:22Z</time>
      </trkpt>
      <trkpt lat="46.53728" lon="5.42397">
        <ele>495</ele>
        <time>2022-05-28T13:48:23Z</time>
      </trkpt>
      <trkpt lat="46.53727" lon="5.42407">
        <ele>494.8</ele>
        <time>2022-05-28T13:48:24Z</time>
      </trkpt>
      <trkpt lat="46.53731" lon="5.4243">
        <ele>493.6</ele>
        <time>2022-05-28T13:48:26Z</time>
      </trkpt>
      <trkpt lat="46.53737" lon="5.42452">
        <ele>491.8</ele>
        <time>2022-05-28T13:48:28Z</time>
      </trkpt>
      <trkpt lat="46.53742" lon="5.42471">
        <ele>490.6</ele>
        <time>2022-05-28T13:48:30Z</time>
      </trkpt>
      <trkpt lat="46.53744" lon="5.42486">
        <ele>489.8</ele>
        <time>2022-05-28T13:48:32Z</time>
      </trkpt>
      <trkpt lat="46.53742" lon="5.42492">
        <ele>489.2</ele>
        <time>2022-05-28T13:48:33Z</time>
      </trkpt>
      <trkpt lat="46.53739" lon="5.42496">
        <ele>488.8</ele>
        <time>2022-05-28T13:48:34Z</time>
      </trkpt>
      <trkpt lat="46.53737" lon="5.42498">
        <ele>487.8</ele>
        <time>2022-05-28T13:48:35Z</time>
      </trkpt>
      <trkpt lat="46.53735" lon="5.42497">
        <ele>487.4</ele>
        <time>2022-05-28T13:48:36Z</time>
      </trkpt>
      <trkpt lat="46.53732" lon="5.42493">
        <ele>486.6</ele>
        <time>2022-05-28T13:48:37Z</time>
      </trkpt>
      <trkpt lat="46.53731" lon="5.42486">
        <ele>485.8</ele>
        <time>2022-05-28T13:48:38Z</time>
      </trkpt>
      <trkpt lat="46.53729" lon="5.42477">
        <ele>484.6</ele>
        <time>2022-05-28T13:48:39Z</time>
      </trkpt>
      <trkpt lat="46.53721" lon="5.42465">
        <ele>483.6</ele>
        <time>2022-05-28T13:48:40Z</time>
      </trkpt>
      <trkpt lat="46.53711" lon="5.42455">
        <ele>483.4</ele>
        <time>2022-05-28T13:48:41Z</time>
      </trkpt>
      <trkpt lat="46.53701" lon="5.42446">
        <ele>482.8</ele>
        <time>2022-05-28T13:48:42Z</time>
      </trkpt>
      <trkpt lat="46.53684" lon="5.42427">
        <ele>482.2</ele>
        <time>2022-05-28T13:48:44Z</time>
      </trkpt>
      <trkpt lat="46.5366" lon="5.42402">
        <ele>480.6</ele>
        <time>2022-05-28T13:48:47Z</time>
      </trkpt>
      <trkpt lat="46.53642" lon="5.42388">
        <ele>479.4</ele>
        <time>2022-05-28T13:48:49Z</time>
      </trkpt>
      <trkpt lat="46.53615" lon="5.42367">
        <ele>477.8</ele>
        <time>2022-05-28T13:48:52Z</time>
      </trkpt>
      <trkpt lat="46.53596" lon="5.42353">
        <ele>476.4</ele>
        <time>2022-05-28T13:48:54Z</time>
      </trkpt>
      <trkpt lat="46.53576" lon="5.42339">
        <ele>475.4</ele>
        <time>2022-05-28T13:48:56Z</time>
      </trkpt>
      <trkpt lat="46.53555" lon="5.42325">
        <ele>474.4</ele>
        <time>2022-05-28T13:48:58Z</time>
      </trkpt>
      <trkpt lat="46.53544" lon="5.42319">
        <ele>473.6</ele>
        <time>2022-05-28T13:48:59Z</time>
      </trkpt>
      <trkpt lat="46.53534" lon="5.42312">
        <ele>472.4</ele>
        <time>2022-05-28T13:49:00Z</time>
      </trkpt>
      <trkpt lat="46.53516" lon="5.42301">
        <ele>470.8</ele>
        <time>2022-05-28T13:49:02Z</time>
      </trkpt>
      <trkpt lat="46.53509" lon="5.42297">
        <ele>469.4</ele>
        <time>2022-05-28T13:49:03Z</time>
      </trkpt>
      <trkpt lat="46.53498" lon="5.4229">
        <ele>468.2</ele>
        <time>2022-05-28T13:49:05Z</time>
      </trkpt>
      <trkpt lat="46.53493" lon="5.42287">
        <ele>467.8</ele>
        <time>2022-05-28T13:49:06Z</time>
      </trkpt>
      <trkpt lat="46.53489" lon="5.42285">
        <ele>467</ele>
        <time>2022-05-28T13:49:07Z</time>
      </trkpt>
      <trkpt lat="46.5348" lon="5.4228">
        <ele>465.8</ele>
        <time>2022-05-28T13:49:09Z</time>
      </trkpt>
      <trkpt lat="46.53471" lon="5.42274">
        <ele>464.8</ele>
        <time>2022-05-28T13:49:11Z</time>
      </trkpt>
      <trkpt lat="46.53467" lon="5.42272">
        <ele>464.2</ele>
        <time>2022-05-28T13:49:12Z</time>
      </trkpt>
      <trkpt lat="46.53457" lon="5.42265">
        <ele>462.8</ele>
        <time>2022-05-28T13:49:15Z</time>
      </trkpt>
      <trkpt lat="46.53454" lon="5.42262">
        <ele>462.4</ele>
        <time>2022-05-28T13:49:16Z</time>
      </trkpt>
      <trkpt lat="46.53447" lon="5.42257">
        <ele>461.8</ele>
        <time>2022-05-28T13:49:18Z</time>
      </trkpt>
      <trkpt lat="46.53433" lon="5.42244">
        <ele>460.8</ele>
        <time>2022-05-28T13:49:22Z</time>
      </trkpt>
      <trkpt lat="46.53426" lon="5.42236">
        <ele>460</ele>
        <time>2022-05-28T13:49:24Z</time>
      </trkpt>
      <trkpt lat="46.53421" lon="5.42232">
        <ele>459.8</ele>
        <time>2022-05-28T13:49:25Z</time>
      </trkpt>
      <trkpt lat="46.53417" lon="5.42228">
        <ele>459.2</ele>
        <time>2022-05-28T13:49:26Z</time>
      </trkpt>
      <trkpt lat="46.53405" lon="5.42225">
        <ele>458.8</ele>
        <time>2022-05-28T13:49:28Z</time>
      </trkpt>
      <trkpt lat="46.53402" lon="5.42229">
        <ele>458.6</ele>
        <time>2022-05-28T13:49:29Z</time>
      </trkpt>
      <trkpt lat="46.534" lon="5.42235">
        <ele>458</ele>
        <time>2022-05-28T13:49:30Z</time>
      </trkpt>
      <trkpt lat="46.534" lon="5.42245">
        <ele>457.2</ele>
        <time>2022-05-28T13:49:31Z</time>
      </trkpt>
      <trkpt lat="46.53403" lon="5.42256">
        <ele>457</ele>
        <time>2022-05-28T13:49:32Z</time>
      </trkpt>
      <trkpt lat="46.53414" lon="5.42287">
        <ele>455.4</ele>
        <time>2022-05-28T13:49:35Z</time>
      </trkpt>
      <trkpt lat="46.53424" lon="5.42307">
        <ele>454.8</ele>
        <time>2022-05-28T13:49:37Z</time>
      </trkpt>
      <trkpt lat="46.53429" lon="5.42317">
        <ele>454.4</ele>
        <time>2022-05-28T13:49:38Z</time>
      </trkpt>
      <trkpt lat="46.53455" lon="5.42371">
        <ele>453.4</ele>
        <time>2022-05-28T13:49:43Z</time>
      </trkpt>
      <trkpt lat="46.5346" lon="5.42382">
        <ele>453</ele>
        <time>2022-05-28T13:49:44Z</time>
      </trkpt>
      <trkpt lat="46.53476" lon="5.42414">
        <ele>452</ele>
        <time>2022-05-28T13:49:47Z</time>
      </trkpt>
      <trkpt lat="46.53495" lon="5.42444">
        <ele>451.2</ele>
        <time>2022-05-28T13:49:50Z</time>
      </trkpt>
      <trkpt lat="46.53502" lon="5.42453">
        <ele>450.8</ele>
        <time>2022-05-28T13:49:51Z</time>
      </trkpt>
      <trkpt lat="46.5352" lon="5.42484">
        <ele>449.8</ele>
        <time>2022-05-28T13:49:54Z</time>
      </trkpt>
      <trkpt lat="46.53525" lon="5.42495">
        <ele>449.6</ele>
        <time>2022-05-28T13:49:55Z</time>
      </trkpt>
      <trkpt lat="46.53529" lon="5.42507">
        <ele>448.8</ele>
        <time>2022-05-28T13:49:56Z</time>
      </trkpt>
      <trkpt lat="46.53537" lon="5.42536">
        <ele>447.8</ele>
        <time>2022-05-28T13:49:58Z</time>
      </trkpt>
      <trkpt lat="46.53539" lon="5.42547">
        <ele>447</ele>
        <time>2022-05-28T13:49:59Z</time>
      </trkpt>
      <trkpt lat="46.5354" lon="5.42562">
        <ele>446.6</ele>
        <time>2022-05-28T13:50:00Z</time>
      </trkpt>
      <trkpt lat="46.53539" lon="5.42577">
        <ele>446.2</ele>
        <time>2022-05-28T13:50:01Z</time>
      </trkpt>
      <trkpt lat="46.53536" lon="5.42596">
        <ele>446</ele>
        <time>2022-05-28T13:50:02Z</time>
      </trkpt>
      <trkpt lat="46.53532" lon="5.42612">
        <ele>444.8</ele>
        <time>2022-05-28T13:50:03Z</time>
      </trkpt>
      <trkpt lat="46.53523" lon="5.42641">
        <ele>443.6</ele>
        <time>2022-05-28T13:50:05Z</time>
      </trkpt>
      <trkpt lat="46.53517" lon="5.4266">
        <ele>442</ele>
        <time>2022-05-28T13:50:06Z</time>
      </trkpt>
      <trkpt lat="46.53508" lon="5.42687">
        <ele>440.4</ele>
        <time>2022-05-28T13:50:08Z</time>
      </trkpt>
      <trkpt lat="46.53494" lon="5.42715">
        <ele>438.6</ele>
        <time>2022-05-28T13:50:10Z</time>
      </trkpt>
      <trkpt lat="46.53483" lon="5.42733">
        <ele>436.2</ele>
        <time>2022-05-28T13:50:12Z</time>
      </trkpt>
      <trkpt lat="46.53479" lon="5.42739">
        <ele>435.6</ele>
        <time>2022-05-28T13:50:13Z</time>
      </trkpt>
      <trkpt lat="46.53473" lon="5.42746">
        <ele>434.2</ele>
        <time>2022-05-28T13:50:14Z</time>
      </trkpt>
      <trkpt lat="46.53469" lon="5.42751">
        <ele>432.2</ele>
        <time>2022-05-28T13:50:15Z</time>
      </trkpt>
      <trkpt lat="46.53465" lon="5.42754">
        <ele>431.4</ele>
        <time>2022-05-28T13:50:16Z</time>
      </trkpt>
      <trkpt lat="46.53459" lon="5.42754">
        <ele>429.6</ele>
        <time>2022-05-28T13:50:17Z</time>
      </trkpt>
      <trkpt lat="46.53455" lon="5.42752">
        <ele>429</ele>
        <time>2022-05-28T13:50:18Z</time>
      </trkpt>
      <trkpt lat="46.5345" lon="5.42748">
        <ele>428</ele>
        <time>2022-05-28T13:50:19Z</time>
      </trkpt>
      <trkpt lat="46.53446" lon="5.42746">
        <ele>427.6</ele>
        <time>2022-05-28T13:50:20Z</time>
      </trkpt>
      <trkpt lat="46.53443" lon="5.42742">
        <ele>426.2</ele>
        <time>2022-05-28T13:50:22Z</time>
      </trkpt>
      <trkpt lat="46.53443" lon="5.42741">
        <ele>424.6</ele>
        <time>2022-05-28T13:50:24Z</time>
      </trkpt>
      <trkpt lat="46.53443" lon="5.42741">
        <ele>424.2</ele>
        <time>2022-05-28T13:50:25Z</time>
      </trkpt>
      <trkpt lat="46.5344" lon="5.42733">
        <ele>422.8</ele>
        <time>2022-05-28T13:50:33Z</time>
      </trkpt>
      <trkpt lat="46.5344" lon="5.42729">
        <ele>422.8</ele>
        <time>2022-05-28T13:50:34Z</time>
      </trkpt>
      <trkpt lat="46.5344" lon="5.42713">
        <ele>422.6</ele>
        <time>2022-05-28T13:50:37Z</time>
      </trkpt>
      <trkpt lat="46.53439" lon="5.42706">
        <ele>422.6</ele>
        <time>2022-05-28T13:50:38Z</time>
      </trkpt>
      <trkpt lat="46.53437" lon="5.42693">
        <ele>422.4</ele>
        <time>2022-05-28T13:50:40Z</time>
      </trkpt>
      <trkpt lat="46.53435" lon="5.4268">
        <ele>422.4</ele>
        <time>2022-05-28T13:50:42Z</time>
      </trkpt>
      <trkpt lat="46.53428" lon="5.42659">
        <ele>422</ele>
        <time>2022-05-28T13:50:45Z</time>
      </trkpt>
      <trkpt lat="46.53421" lon="5.42643">
        <ele>421.8</ele>
        <time>2022-05-28T13:50:47Z</time>
      </trkpt>
      <trkpt lat="46.53418" lon="5.42636">
        <ele>421.8</ele>
        <time>2022-05-28T13:50:48Z</time>
      </trkpt>
      <trkpt lat="46.53396" lon="5.42597">
        <ele>421</ele>
        <time>2022-05-28T13:50:53Z</time>
      </trkpt>
      <trkpt lat="46.53374" lon="5.42563">
        <ele>420</ele>
        <time>2022-05-28T13:50:57Z</time>
      </trkpt>
      <trkpt lat="46.53369" lon="5.42553">
        <ele>420</ele>
        <time>2022-05-28T13:50:58Z</time>
      </trkpt>
      <trkpt lat="46.53363" lon="5.42542">
        <ele>419.6</ele>
        <time>2022-05-28T13:50:59Z</time>
      </trkpt>
      <trkpt lat="46.53348" lon="5.42506">
        <ele>418.4</ele>
        <time>2022-05-28T13:51:02Z</time>
      </trkpt>
      <trkpt lat="46.53334" lon="5.42466">
        <ele>417</ele>
        <time>2022-05-28T13:51:05Z</time>
      </trkpt>
      <trkpt lat="46.53325" lon="5.42438">
        <ele>416.2</ele>
        <time>2022-05-28T13:51:07Z</time>
      </trkpt>
      <trkpt lat="46.53321" lon="5.42424">
        <ele>415.6</ele>
        <time>2022-05-28T13:51:08Z</time>
      </trkpt>
      <trkpt lat="46.53306" lon="5.42382">
        <ele>414.4</ele>
        <time>2022-05-28T13:51:11Z</time>
      </trkpt>
      <trkpt lat="46.53295" lon="5.42355">
        <ele>413.4</ele>
        <time>2022-05-28T13:51:13Z</time>
      </trkpt>
      <trkpt lat="46.5329" lon="5.42342">
        <ele>413.2</ele>
        <time>2022-05-28T13:51:14Z</time>
      </trkpt>
      <trkpt lat="46.53278" lon="5.42301">
        <ele>411.6</ele>
        <time>2022-05-28T13:51:17Z</time>
      </trkpt>
      <trkpt lat="46.53275" lon="5.42287">
        <ele>411.2</ele>
        <time>2022-05-28T13:51:18Z</time>
      </trkpt>
      <trkpt lat="46.5327" lon="5.4226">
        <ele>410.2</ele>
        <time>2022-05-28T13:51:20Z</time>
      </trkpt>
      <trkpt lat="46.53267" lon="5.42247">
        <ele>410</ele>
        <time>2022-05-28T13:51:21Z</time>
      </trkpt>
      <trkpt lat="46.53261" lon="5.42235">
        <ele>409.6</ele>
        <time>2022-05-28T13:51:22Z</time>
      </trkpt>
      <trkpt lat="46.53248" lon="5.42213">
        <ele>409</ele>
        <time>2022-05-28T13:51:24Z</time>
      </trkpt>
      <trkpt lat="46.53237" lon="5.42189">
        <ele>408.2</ele>
        <time>2022-05-28T13:51:26Z</time>
      </trkpt>
      <trkpt lat="46.53233" lon="5.42175">
        <ele>407.6</ele>
        <time>2022-05-28T13:51:27Z</time>
      </trkpt>
      <trkpt lat="46.5323" lon="5.42161">
        <ele>407.4</ele>
        <time>2022-05-28T13:51:28Z</time>
      </trkpt>
      <trkpt lat="46.53225" lon="5.42133">
        <ele>406.8</ele>
        <time>2022-05-28T13:51:30Z</time>
      </trkpt>
      <trkpt lat="46.53221" lon="5.42121">
        <ele>406.2</ele>
        <time>2022-05-28T13:51:31Z</time>
      </trkpt>
      <trkpt lat="46.53208" lon="5.42085">
        <ele>404.6</ele>
        <time>2022-05-28T13:51:34Z</time>
      </trkpt>
      <trkpt lat="46.53206" lon="5.42069">
        <ele>403.2</ele>
        <time>2022-05-28T13:51:36Z</time>
      </trkpt>
      <trkpt lat="46.53201" lon="5.42055">
        <ele>402</ele>
        <time>2022-05-28T13:51:38Z</time>
      </trkpt>
      <trkpt lat="46.532" lon="5.42038">
        <ele>401</ele>
        <time>2022-05-28T13:51:40Z</time>
      </trkpt>
      <trkpt lat="46.53202" lon="5.42028">
        <ele>400.6</ele>
        <time>2022-05-28T13:51:41Z</time>
      </trkpt>
      <trkpt lat="46.53206" lon="5.42007">
        <ele>399.8</ele>
        <time>2022-05-28T13:51:43Z</time>
      </trkpt>
      <trkpt lat="46.53209" lon="5.41996">
        <ele>399.4</ele>
        <time>2022-05-28T13:51:44Z</time>
      </trkpt>
      <trkpt lat="46.53216" lon="5.41973">
        <ele>397.8</ele>
        <time>2022-05-28T13:51:46Z</time>
      </trkpt>
      <trkpt lat="46.5322" lon="5.41961">
        <ele>396.8</ele>
        <time>2022-05-28T13:51:47Z</time>
      </trkpt>
      <trkpt lat="46.53224" lon="5.41949">
        <ele>396.2</ele>
        <time>2022-05-28T13:51:48Z</time>
      </trkpt>
      <trkpt lat="46.53231" lon="5.41924">
        <ele>395</ele>
        <time>2022-05-28T13:51:50Z</time>
      </trkpt>
      <trkpt lat="46.53237" lon="5.41895">
        <ele>393.4</ele>
        <time>2022-05-28T13:51:52Z</time>
      </trkpt>
      <trkpt lat="46.53241" lon="5.41865">
        <ele>393</ele>
        <time>2022-05-28T13:51:54Z</time>
      </trkpt>
      <trkpt lat="46.53241" lon="5.41849">
        <ele>392.4</ele>
        <time>2022-05-28T13:51:55Z</time>
      </trkpt>
      <trkpt lat="46.5324" lon="5.41834">
        <ele>392</ele>
        <time>2022-05-28T13:51:56Z</time>
      </trkpt>
      <trkpt lat="46.53236" lon="5.41809">
        <ele>391</ele>
        <time>2022-05-28T13:51:58Z</time>
      </trkpt>
      <trkpt lat="46.53234" lon="5.41798">
        <ele>390</ele>
        <time>2022-05-28T13:51:59Z</time>
      </trkpt>
      <trkpt lat="46.53229" lon="5.4178">
        <ele>388.4</ele>
        <time>2022-05-28T13:52:01Z</time>
      </trkpt>
      <trkpt lat="46.53224" lon="5.41774">
        <ele>387.6</ele>
        <time>2022-05-28T13:52:02Z</time>
      </trkpt>
      <trkpt lat="46.53219" lon="5.41769">
        <ele>386.8</ele>
        <time>2022-05-28T13:52:03Z</time>
      </trkpt>
      <trkpt lat="46.53207" lon="5.4177">
        <ele>386</ele>
        <time>2022-05-28T13:52:05Z</time>
      </trkpt>
      <trkpt lat="46.53203" lon="5.41774">
        <ele>384.8</ele>
        <time>2022-05-28T13:52:06Z</time>
      </trkpt>
      <trkpt lat="46.53198" lon="5.41781">
        <ele>384.4</ele>
        <time>2022-05-28T13:52:07Z</time>
      </trkpt>
      <trkpt lat="46.53194" lon="5.41789">
        <ele>383.8</ele>
        <time>2022-05-28T13:52:08Z</time>
      </trkpt>
      <trkpt lat="46.53193" lon="5.41797">
        <ele>383.4</ele>
        <time>2022-05-28T13:52:09Z</time>
      </trkpt>
      <trkpt lat="46.53192" lon="5.41807">
        <ele>382.6</ele>
        <time>2022-05-28T13:52:10Z</time>
      </trkpt>
      <trkpt lat="46.53194" lon="5.41816">
        <ele>382</ele>
        <time>2022-05-28T13:52:11Z</time>
      </trkpt>
      <trkpt lat="46.53201" lon="5.41835">
        <ele>381.6</ele>
        <time>2022-05-28T13:52:13Z</time>
      </trkpt>
      <trkpt lat="46.53205" lon="5.41844">
        <ele>381.2</ele>
        <time>2022-05-28T13:52:14Z</time>
      </trkpt>
      <trkpt lat="46.53214" lon="5.41874">
        <ele>380.8</ele>
        <time>2022-05-28T13:52:17Z</time>
      </trkpt>
      <trkpt lat="46.53215" lon="5.41885">
        <ele>380.6</ele>
        <time>2022-05-28T13:52:18Z</time>
      </trkpt>
      <trkpt lat="46.53214" lon="5.41895">
        <ele>380.4</ele>
        <time>2022-05-28T13:52:19Z</time>
      </trkpt>
      <trkpt lat="46.53208" lon="5.41921">
        <ele>380</ele>
        <time>2022-05-28T13:52:22Z</time>
      </trkpt>
      <trkpt lat="46.53195" lon="5.41959">
        <ele>379.2</ele>
        <time>2022-05-28T13:52:27Z</time>
      </trkpt>
      <trkpt lat="46.53191" lon="5.41967">
        <ele>379.2</ele>
        <time>2022-05-28T13:52:28Z</time>
      </trkpt>
      <trkpt lat="46.53179" lon="5.41991">
        <ele>378.8</ele>
        <time>2022-05-28T13:52:31Z</time>
      </trkpt>
      <trkpt lat="46.53156" lon="5.42032">
        <ele>378.2</ele>
        <time>2022-05-28T13:52:36Z</time>
      </trkpt>
      <trkpt lat="46.53154" lon="5.4204">
        <ele>378</ele>
        <time>2022-05-28T13:52:37Z</time>
      </trkpt>
      <trkpt lat="46.53147" lon="5.42055">
        <ele>377.6</ele>
        <time>2022-05-28T13:52:39Z</time>
      </trkpt>
      <trkpt lat="46.53145" lon="5.42069">
        <ele>377.2</ele>
        <time>2022-05-28T13:52:41Z</time>
      </trkpt>
      <trkpt lat="46.53145" lon="5.42076">
        <ele>377.2</ele>
        <time>2022-05-28T13:52:42Z</time>
      </trkpt>
      <trkpt lat="46.53146" lon="5.42084">
        <ele>376.8</ele>
        <time>2022-05-28T13:52:43Z</time>
      </trkpt>
      <trkpt lat="46.53148" lon="5.42115">
        <ele>376.4</ele>
        <time>2022-05-28T13:52:46Z</time>
      </trkpt>
      <trkpt lat="46.53151" lon="5.42137">
        <ele>376</ele>
        <time>2022-05-28T13:52:48Z</time>
      </trkpt>
      <trkpt lat="46.53153" lon="5.42163">
        <ele>375.6</ele>
        <time>2022-05-28T13:52:50Z</time>
      </trkpt>
      <trkpt lat="46.53148" lon="5.42197">
        <ele>374.6</ele>
        <time>2022-05-28T13:52:53Z</time>
      </trkpt>
      <trkpt lat="46.53146" lon="5.42221">
        <ele>374.2</ele>
        <time>2022-05-28T13:52:55Z</time>
      </trkpt>
      <trkpt lat="46.53145" lon="5.42254">
        <ele>373.6</ele>
        <time>2022-05-28T13:52:58Z</time>
      </trkpt>
      <trkpt lat="46.53145" lon="5.42263">
        <ele>373.4</ele>
        <time>2022-05-28T13:52:59Z</time>
      </trkpt>
      <trkpt lat="46.53144" lon="5.42288">
        <ele>372.8</ele>
        <time>2022-05-28T13:53:01Z</time>
      </trkpt>
      <trkpt lat="46.53145" lon="5.423">
        <ele>372</ele>
        <time>2022-05-28T13:53:02Z</time>
      </trkpt>
      <trkpt lat="46.53146" lon="5.42312">
        <ele>371.6</ele>
        <time>2022-05-28T13:53:03Z</time>
      </trkpt>
      <trkpt lat="46.53148" lon="5.42323">
        <ele>371</ele>
        <time>2022-05-28T13:53:04Z</time>
      </trkpt>
      <trkpt lat="46.53151" lon="5.42334">
        <ele>370.6</ele>
        <time>2022-05-28T13:53:05Z</time>
      </trkpt>
      <trkpt lat="46.5316" lon="5.42352">
        <ele>370</ele>
        <time>2022-05-28T13:53:07Z</time>
      </trkpt>
      <trkpt lat="46.53165" lon="5.42361">
        <ele>369.6</ele>
        <time>2022-05-28T13:53:08Z</time>
      </trkpt>
      <trkpt lat="46.53172" lon="5.42368">
        <ele>369.4</ele>
        <time>2022-05-28T13:53:09Z</time>
      </trkpt>
      <trkpt lat="46.53193" lon="5.42385">
        <ele>369</ele>
        <time>2022-05-28T13:53:12Z</time>
      </trkpt>
      <trkpt lat="46.53199" lon="5.4239">
        <ele>369</ele>
        <time>2022-05-28T13:53:13Z</time>
      </trkpt>
      <trkpt lat="46.53212" lon="5.42399">
        <ele>368.6</ele>
        <time>2022-05-28T13:53:15Z</time>
      </trkpt>
      <trkpt lat="46.53224" lon="5.42411">
        <ele>368.4</ele>
        <time>2022-05-28T13:53:17Z</time>
      </trkpt>
      <trkpt lat="46.53239" lon="5.42435">
        <ele>367.6</ele>
        <time>2022-05-28T13:53:20Z</time>
      </trkpt>
      <trkpt lat="46.53244" lon="5.42443">
        <ele>367.4</ele>
        <time>2022-05-28T13:53:21Z</time>
      </trkpt>
      <trkpt lat="46.53253" lon="5.42459">
        <ele>366.2</ele>
        <time>2022-05-28T13:53:23Z</time>
      </trkpt>
      <trkpt lat="46.53258" lon="5.42476">
        <ele>365.6</ele>
        <time>2022-05-28T13:53:25Z</time>
      </trkpt>
      <trkpt lat="46.53256" lon="5.42489">
        <ele>365.2</ele>
        <time>2022-05-28T13:53:27Z</time>
      </trkpt>
      <trkpt lat="46.53253" lon="5.42492">
        <ele>365.2</ele>
        <time>2022-05-28T13:53:28Z</time>
      </trkpt>
      <trkpt lat="46.53248" lon="5.42491">
        <ele>364.6</ele>
        <time>2022-05-28T13:53:29Z</time>
      </trkpt>
      <trkpt lat="46.53245" lon="5.42487">
        <ele>363.8</ele>
        <time>2022-05-28T13:53:30Z</time>
      </trkpt>
      <trkpt lat="46.53242" lon="5.42481">
        <ele>363.6</ele>
        <time>2022-05-28T13:53:31Z</time>
      </trkpt>
      <trkpt lat="46.53241" lon="5.42476">
        <ele>362.8</ele>
        <time>2022-05-28T13:53:32Z</time>
      </trkpt>
      <trkpt lat="46.5324" lon="5.4247">
        <ele>362.4</ele>
        <time>2022-05-28T13:53:33Z</time>
      </trkpt>
      <trkpt lat="46.53239" lon="5.42462">
        <ele>361.8</ele>
        <time>2022-05-28T13:53:35Z</time>
      </trkpt>
      <trkpt lat="46.5324" lon="5.42459">
        <ele>361.2</ele>
        <time>2022-05-28T13:53:36Z</time>
      </trkpt>
      <trkpt lat="46.5324" lon="5.42454">
        <ele>360.6</ele>
        <time>2022-05-28T13:53:38Z</time>
      </trkpt>
      <trkpt lat="46.5324" lon="5.42452">
        <ele>360.4</ele>
        <time>2022-05-28T13:53:39Z</time>
      </trkpt>
      <trkpt lat="46.5324" lon="5.42447">
        <ele>360.2</ele>
        <time>2022-05-28T13:53:41Z</time>
      </trkpt>
      <trkpt lat="46.53238" lon="5.42442">
        <ele>359.8</ele>
        <time>2022-05-28T13:53:44Z</time>
      </trkpt>
      <trkpt lat="46.53236" lon="5.42439">
        <ele>359.6</ele>
        <time>2022-05-28T13:53:45Z</time>
      </trkpt>
      <trkpt lat="46.53225" lon="5.42427">
        <ele>359.4</ele>
        <time>2022-05-28T13:53:48Z</time>
      </trkpt>
      <trkpt lat="46.5321" lon="5.42416">
        <ele>359.2</ele>
        <time>2022-05-28T13:53:51Z</time>
      </trkpt>
      <trkpt lat="46.53206" lon="5.42412">
        <ele>359</ele>
        <time>2022-05-28T13:53:52Z</time>
      </trkpt>
      <trkpt lat="46.53196" lon="5.42404">
        <ele>358.6</ele>
        <time>2022-05-28T13:53:54Z</time>
      </trkpt>
      <trkpt lat="46.53186" lon="5.42397">
        <ele>358.4</ele>
        <time>2022-05-28T13:53:56Z</time>
      </trkpt>
      <trkpt lat="46.5318" lon="5.42394">
        <ele>358.4</ele>
        <time>2022-05-28T13:53:57Z</time>
      </trkpt>
      <trkpt lat="46.53149" lon="5.42378">
        <ele>357.8</ele>
        <time>2022-05-28T13:54:02Z</time>
      </trkpt>
      <trkpt lat="46.53143" lon="5.42373">
        <ele>357.6</ele>
        <time>2022-05-28T13:54:03Z</time>
      </trkpt>
      <trkpt lat="46.53137" lon="5.42368">
        <ele>357.6</ele>
        <time>2022-05-28T13:54:04Z</time>
      </trkpt>
      <trkpt lat="46.53131" lon="5.42361">
        <ele>357.4</ele>
        <time>2022-05-28T13:54:05Z</time>
      </trkpt>
      <trkpt lat="46.53121" lon="5.42346">
        <ele>356.4</ele>
        <time>2022-05-28T13:54:07Z</time>
      </trkpt>
      <trkpt lat="46.53113" lon="5.4233">
        <ele>355.6</ele>
        <time>2022-05-28T13:54:09Z</time>
      </trkpt>
      <trkpt lat="46.5311" lon="5.42323">
        <ele>355.4</ele>
        <time>2022-05-28T13:54:10Z</time>
      </trkpt>
      <trkpt lat="46.53107" lon="5.42315">
        <ele>355.2</ele>
        <time>2022-05-28T13:54:11Z</time>
      </trkpt>
      <trkpt lat="46.53106" lon="5.42292">
        <ele>354.4</ele>
        <time>2022-05-28T13:54:13Z</time>
      </trkpt>
      <trkpt lat="46.53107" lon="5.42279">
        <ele>353.8</ele>
        <time>2022-05-28T13:54:14Z</time>
      </trkpt>
      <trkpt lat="46.53105" lon="5.42228">
        <ele>352.4</ele>
        <time>2022-05-28T13:54:18Z</time>
      </trkpt>
      <trkpt lat="46.53104" lon="5.42189">
        <ele>350.8</ele>
        <time>2022-05-28T13:54:21Z</time>
      </trkpt>
      <trkpt lat="46.53101" lon="5.42167">
        <ele>350.2</ele>
        <time>2022-05-28T13:54:23Z</time>
      </trkpt>
      <trkpt lat="46.53093" lon="5.42145">
        <ele>349.4</ele>
        <time>2022-05-28T13:54:25Z</time>
      </trkpt>
      <trkpt lat="46.53086" lon="5.42134">
        <ele>349</ele>
        <time>2022-05-28T13:54:26Z</time>
      </trkpt>
      <trkpt lat="46.53081" lon="5.42125">
        <ele>348.2</ele>
        <time>2022-05-28T13:54:27Z</time>
      </trkpt>
      <trkpt lat="46.53078" lon="5.42116">
        <ele>347.6</ele>
        <time>2022-05-28T13:54:28Z</time>
      </trkpt>
      <trkpt lat="46.53076" lon="5.42096">
        <ele>346.8</ele>
        <time>2022-05-28T13:54:30Z</time>
      </trkpt>
      <trkpt lat="46.53082" lon="5.42066">
        <ele>346.2</ele>
        <time>2022-05-28T13:54:33Z</time>
      </trkpt>
      <trkpt lat="46.53083" lon="5.42057">
        <ele>345.6</ele>
        <time>2022-05-28T13:54:34Z</time>
      </trkpt>
      <trkpt lat="46.5308" lon="5.42047">
        <ele>344.8</ele>
        <time>2022-05-28T13:54:35Z</time>
      </trkpt>
      <trkpt lat="46.53076" lon="5.42039">
        <ele>344.6</ele>
        <time>2022-05-28T13:54:36Z</time>
      </trkpt>
      <trkpt lat="46.5307" lon="5.42032">
        <ele>344.2</ele>
        <time>2022-05-28T13:54:37Z</time>
      </trkpt>
      <trkpt lat="46.53055" lon="5.42024">
        <ele>343.8</ele>
        <time>2022-05-28T13:54:39Z</time>
      </trkpt>
      <trkpt lat="46.53048" lon="5.42023">
        <ele>343.4</ele>
        <time>2022-05-28T13:54:40Z</time>
      </trkpt>
      <trkpt lat="46.53042" lon="5.42023">
        <ele>343</ele>
        <time>2022-05-28T13:54:41Z</time>
      </trkpt>
      <trkpt lat="46.53028" lon="5.42025">
        <ele>342.2</ele>
        <time>2022-05-28T13:54:43Z</time>
      </trkpt>
      <trkpt lat="46.53021" lon="5.42026">
        <ele>341.6</ele>
        <time>2022-05-28T13:54:44Z</time>
      </trkpt>
      <trkpt lat="46.5301" lon="5.42019">
        <ele>341</ele>
        <time>2022-05-28T13:54:46Z</time>
      </trkpt>
      <trkpt lat="46.53005" lon="5.42001">
        <ele>340</ele>
        <time>2022-05-28T13:54:48Z</time>
      </trkpt>
      <trkpt lat="46.53005" lon="5.41991">
        <ele>339.4</ele>
        <time>2022-05-28T13:54:49Z</time>
      </trkpt>
      <trkpt lat="46.53006" lon="5.41981">
        <ele>339.2</ele>
        <time>2022-05-28T13:54:50Z</time>
      </trkpt>
      <trkpt lat="46.53008" lon="5.41962">
        <ele>338.8</ele>
        <time>2022-05-28T13:54:52Z</time>
      </trkpt>
      <trkpt lat="46.53009" lon="5.41953">
        <ele>338.4</ele>
        <time>2022-05-28T13:54:53Z</time>
      </trkpt>
      <trkpt lat="46.53013" lon="5.41896">
        <ele>337.4</ele>
        <time>2022-05-28T13:54:59Z</time>
      </trkpt>
      <trkpt lat="46.53014" lon="5.41886">
        <ele>337.2</ele>
        <time>2022-05-28T13:55:00Z</time>
      </trkpt>
      <trkpt lat="46.53015" lon="5.41865">
        <ele>337</ele>
        <time>2022-05-28T13:55:02Z</time>
      </trkpt>
      <trkpt lat="46.53015" lon="5.41844">
        <ele>336.4</ele>
        <time>2022-05-28T13:55:04Z</time>
      </trkpt>
      <trkpt lat="46.5301" lon="5.41813">
        <ele>335.8</ele>
        <time>2022-05-28T13:55:07Z</time>
      </trkpt>
      <trkpt lat="46.53003" lon="5.41782">
        <ele>335</ele>
        <time>2022-05-28T13:55:10Z</time>
      </trkpt>
      <trkpt lat="46.53001" lon="5.4177">
        <ele>334.6</ele>
        <time>2022-05-28T13:55:11Z</time>
      </trkpt>
      <trkpt lat="46.52999" lon="5.4176">
        <ele>333.8</ele>
        <time>2022-05-28T13:55:12Z</time>
      </trkpt>
      <trkpt lat="46.53001" lon="5.41741">
        <ele>333</ele>
        <time>2022-05-28T13:55:14Z</time>
      </trkpt>
      <trkpt lat="46.53011" lon="5.41707">
        <ele>331.8</ele>
        <time>2022-05-28T13:55:17Z</time>
      </trkpt>
      <trkpt lat="46.53014" lon="5.41697">
        <ele>331.4</ele>
        <time>2022-05-28T13:55:18Z</time>
      </trkpt>
      <trkpt lat="46.53019" lon="5.41687">
        <ele>330.8</ele>
        <time>2022-05-28T13:55:19Z</time>
      </trkpt>
      <trkpt lat="46.5303" lon="5.41669">
        <ele>330.6</ele>
        <time>2022-05-28T13:55:21Z</time>
      </trkpt>
      <trkpt lat="46.53037" lon="5.41663">
        <ele>330.2</ele>
        <time>2022-05-28T13:55:22Z</time>
      </trkpt>
      <trkpt lat="46.53052" lon="5.41653">
        <ele>329.8</ele>
        <time>2022-05-28T13:55:24Z</time>
      </trkpt>
      <trkpt lat="46.53084" lon="5.41635">
        <ele>328.8</ele>
        <time>2022-05-28T13:55:28Z</time>
      </trkpt>
      <trkpt lat="46.53092" lon="5.41631">
        <ele>328.6</ele>
        <time>2022-05-28T13:55:29Z</time>
      </trkpt>
      <trkpt lat="46.53109" lon="5.41621">
        <ele>327.6</ele>
        <time>2022-05-28T13:55:31Z</time>
      </trkpt>
      <trkpt lat="46.53126" lon="5.4161">
        <ele>326.8</ele>
        <time>2022-05-28T13:55:33Z</time>
      </trkpt>
      <trkpt lat="46.53143" lon="5.41598">
        <ele>326.6</ele>
        <time>2022-05-28T13:55:35Z</time>
      </trkpt>
      <trkpt lat="46.53161" lon="5.41587">
        <ele>326.4</ele>
        <time>2022-05-28T13:55:37Z</time>
      </trkpt>
      <trkpt lat="46.53196" lon="5.41565">
        <ele>325</ele>
        <time>2022-05-28T13:55:41Z</time>
      </trkpt>
      <trkpt lat="46.53205" lon="5.41559">
        <ele>324.4</ele>
        <time>2022-05-28T13:55:42Z</time>
      </trkpt>
      <trkpt lat="46.53214" lon="5.41553">
        <ele>323.8</ele>
        <time>2022-05-28T13:55:43Z</time>
      </trkpt>
      <trkpt lat="46.53231" lon="5.41539">
        <ele>322.8</ele>
        <time>2022-05-28T13:55:45Z</time>
      </trkpt>
      <trkpt lat="46.53245" lon="5.4152">
        <ele>322</ele>
        <time>2022-05-28T13:55:47Z</time>
      </trkpt>
      <trkpt lat="46.53252" lon="5.41509">
        <ele>321.4</ele>
        <time>2022-05-28T13:55:48Z</time>
      </trkpt>
      <trkpt lat="46.53274" lon="5.41465">
        <ele>320.4</ele>
        <time>2022-05-28T13:55:52Z</time>
      </trkpt>
      <trkpt lat="46.53278" lon="5.41454">
        <ele>320</ele>
        <time>2022-05-28T13:55:53Z</time>
      </trkpt>
      <trkpt lat="46.53281" lon="5.41443">
        <ele>319.8</ele>
        <time>2022-05-28T13:55:54Z</time>
      </trkpt>
      <trkpt lat="46.53285" lon="5.4142">
        <ele>319.6</ele>
        <time>2022-05-28T13:55:56Z</time>
      </trkpt>
      <trkpt lat="46.53285" lon="5.4141">
        <ele>319</ele>
        <time>2022-05-28T13:55:57Z</time>
      </trkpt>
      <trkpt lat="46.53285" lon="5.41393">
        <ele>317.8</ele>
        <time>2022-05-28T13:55:59Z</time>
      </trkpt>
      <trkpt lat="46.53284" lon="5.41386">
        <ele>317.2</ele>
        <time>2022-05-28T13:56:00Z</time>
      </trkpt>
      <trkpt lat="46.53283" lon="5.41373">
        <ele>316.4</ele>
        <time>2022-05-28T13:56:02Z</time>
      </trkpt>
      <trkpt lat="46.53282" lon="5.41356">
        <ele>315.8</ele>
        <time>2022-05-28T13:56:05Z</time>
      </trkpt>
      <trkpt lat="46.53281" lon="5.41347">
        <ele>315.4</ele>
        <time>2022-05-28T13:56:07Z</time>
      </trkpt>
      <trkpt lat="46.5328" lon="5.41342">
        <ele>315.2</ele>
        <time>2022-05-28T13:56:09Z</time>
      </trkpt>
      <trkpt lat="46.5328" lon="5.41342">
        <ele>314.6</ele>
        <time>2022-05-28T13:56:12Z</time>
      </trkpt>
      <trkpt lat="46.53281" lon="5.41335">
        <ele>312.6</ele>
        <time>2022-05-28T13:58:28Z</time>
      </trkpt>
      <trkpt lat="46.53281" lon="5.41307">
        <ele>312.6</ele>
        <time>2022-05-28T13:58:33Z</time>
      </trkpt>
      <trkpt lat="46.5328" lon="5.41263">
        <ele>312.4</ele>
        <time>2022-05-28T13:58:39Z</time>
      </trkpt>
      <trkpt lat="46.53278" lon="5.41204">
        <ele>311.6</ele>
        <time>2022-05-28T13:58:46Z</time>
      </trkpt>
      <trkpt lat="46.53278" lon="5.41197">
        <ele>311.4</ele>
        <time>2022-05-28T13:58:47Z</time>
      </trkpt>
      <trkpt lat="46.53275" lon="5.4117">
        <ele>310.4</ele>
        <time>2022-05-28T13:58:50Z</time>
      </trkpt>
      <trkpt lat="46.53273" lon="5.41162">
        <ele>310.2</ele>
        <time>2022-05-28T13:58:51Z</time>
      </trkpt>
      <trkpt lat="46.5327" lon="5.41156">
        <ele>310</ele>
        <time>2022-05-28T13:58:52Z</time>
      </trkpt>
      <trkpt lat="46.53267" lon="5.41151">
        <ele>309.8</ele>
        <time>2022-05-28T13:58:53Z</time>
      </trkpt>
      <trkpt lat="46.53259" lon="5.41144">
        <ele>309.4</ele>
        <time>2022-05-28T13:58:55Z</time>
      </trkpt>
      <trkpt lat="46.53254" lon="5.41141">
        <ele>309.4</ele>
        <time>2022-05-28T13:58:56Z</time>
      </trkpt>
      <trkpt lat="46.53225" lon="5.4113">
        <ele>308.6</ele>
        <time>2022-05-28T13:59:01Z</time>
      </trkpt>
      <trkpt lat="46.53219" lon="5.41129">
        <ele>308.2</ele>
        <time>2022-05-28T13:59:02Z</time>
      </trkpt>
      <trkpt lat="46.53213" lon="5.41129">
        <ele>308.2</ele>
        <time>2022-05-28T13:59:03Z</time>
      </trkpt>
      <trkpt lat="46.53186" lon="5.41136">
        <ele>307.4</ele>
        <time>2022-05-28T13:59:07Z</time>
      </trkpt>
      <trkpt lat="46.53181" lon="5.41138">
        <ele>307.4</ele>
        <time>2022-05-28T13:59:08Z</time>
      </trkpt>
      <trkpt lat="46.53161" lon="5.41142">
        <ele>307.4</ele>
        <time>2022-05-28T13:59:11Z</time>
      </trkpt>
      <trkpt lat="46.53154" lon="5.41142">
        <ele>307.2</ele>
        <time>2022-05-28T13:59:12Z</time>
      </trkpt>
      <trkpt lat="46.53141" lon="5.41139">
        <ele>306.8</ele>
        <time>2022-05-28T13:59:14Z</time>
      </trkpt>
      <trkpt lat="46.53123" lon="5.4113">
        <ele>306.4</ele>
        <time>2022-05-28T13:59:17Z</time>
      </trkpt>
      <trkpt lat="46.53089" lon="5.41115">
        <ele>305.2</ele>
        <time>2022-05-28T13:59:22Z</time>
      </trkpt>
      <trkpt lat="46.53074" lon="5.41109">
        <ele>305</ele>
        <time>2022-05-28T13:59:24Z</time>
      </trkpt>
      <trkpt lat="46.53069" lon="5.41108">
        <ele>304.8</ele>
        <time>2022-05-28T13:59:25Z</time>
      </trkpt>
      <trkpt lat="46.53063" lon="5.4111">
        <ele>304.6</ele>
        <time>2022-05-28T13:59:26Z</time>
      </trkpt>
      <trkpt lat="46.53053" lon="5.41119">
        <ele>304.4</ele>
        <time>2022-05-28T13:59:28Z</time>
      </trkpt>
      <trkpt lat="46.53052" lon="5.41124">
        <ele>304</ele>
        <time>2022-05-28T13:59:29Z</time>
      </trkpt>
      <trkpt lat="46.53052" lon="5.4113">
        <ele>303.8</ele>
        <time>2022-05-28T13:59:30Z</time>
      </trkpt>
      <trkpt lat="46.53054" lon="5.41139">
        <ele>303.6</ele>
        <time>2022-05-28T13:59:31Z</time>
      </trkpt>
      <trkpt lat="46.53058" lon="5.41143">
        <ele>303.2</ele>
        <time>2022-05-28T13:59:32Z</time>
      </trkpt>
      <trkpt lat="46.53071" lon="5.4115">
        <ele>302</ele>
        <time>2022-05-28T13:59:34Z</time>
      </trkpt>
      <trkpt lat="46.5311" lon="5.41162">
        <ele>300.8</ele>
        <time>2022-05-28T13:59:39Z</time>
      </trkpt>
      <trkpt lat="46.53119" lon="5.41166">
        <ele>300.8</ele>
        <time>2022-05-28T13:59:40Z</time>
      </trkpt>
      <trkpt lat="46.53141" lon="5.41178">
        <ele>299.4</ele>
        <time>2022-05-28T13:59:43Z</time>
      </trkpt>
      <trkpt lat="46.53158" lon="5.4119">
        <ele>298.8</ele>
        <time>2022-05-28T13:59:45Z</time>
      </trkpt>
      <trkpt lat="46.53172" lon="5.412">
        <ele>298.2</ele>
        <time>2022-05-28T13:59:47Z</time>
      </trkpt>
      <trkpt lat="46.53178" lon="5.41206">
        <ele>297.8</ele>
        <time>2022-05-28T13:59:48Z</time>
      </trkpt>
      <trkpt lat="46.53188" lon="5.41223">
        <ele>297.4</ele>
        <time>2022-05-28T13:59:50Z</time>
      </trkpt>
      <trkpt lat="46.53189" lon="5.41233">
        <ele>297</ele>
        <time>2022-05-28T13:59:51Z</time>
      </trkpt>
      <trkpt lat="46.53188" lon="5.41241">
        <ele>296.6</ele>
        <time>2022-05-28T13:59:52Z</time>
      </trkpt>
      <trkpt lat="46.53184" lon="5.41252">
        <ele>296.4</ele>
        <time>2022-05-28T13:59:53Z</time>
      </trkpt>
      <trkpt lat="46.53177" lon="5.41259">
        <ele>296</ele>
        <time>2022-05-28T13:59:54Z</time>
      </trkpt>
      <trkpt lat="46.5317" lon="5.41265">
        <ele>295.4</ele>
        <time>2022-05-28T13:59:55Z</time>
      </trkpt>
      <trkpt lat="46.53163" lon="5.4127">
        <ele>295</ele>
        <time>2022-05-28T13:59:56Z</time>
      </trkpt>
      <trkpt lat="46.53144" lon="5.41285">
        <ele>294.2</ele>
        <time>2022-05-28T13:59:59Z</time>
      </trkpt>
      <trkpt lat="46.53133" lon="5.41294">
        <ele>293.6</ele>
        <time>2022-05-28T14:00:01Z</time>
      </trkpt>
      <trkpt lat="46.53129" lon="5.413">
        <ele>293</ele>
        <time>2022-05-28T14:00:02Z</time>
      </trkpt>
      <trkpt lat="46.53126" lon="5.41308">
        <ele>293</ele>
        <time>2022-05-28T14:00:03Z</time>
      </trkpt>
      <trkpt lat="46.53125" lon="5.41326">
        <ele>292.4</ele>
        <time>2022-05-28T14:00:05Z</time>
      </trkpt>
      <trkpt lat="46.53126" lon="5.41336">
        <ele>292</ele>
        <time>2022-05-28T14:00:06Z</time>
      </trkpt>
      <trkpt lat="46.53133" lon="5.41369">
        <ele>291.4</ele>
        <time>2022-05-28T14:00:09Z</time>
      </trkpt>
      <trkpt lat="46.53131" lon="5.41391">
        <ele>290.8</ele>
        <time>2022-05-28T14:00:11Z</time>
      </trkpt>
      <trkpt lat="46.53128" lon="5.41401">
        <ele>290.8</ele>
        <time>2022-05-28T14:00:12Z</time>
      </trkpt>
      <trkpt lat="46.53123" lon="5.4141">
        <ele>290.6</ele>
        <time>2022-05-28T14:00:13Z</time>
      </trkpt>
      <trkpt lat="46.5311" lon="5.41426">
        <ele>290.2</ele>
        <time>2022-05-28T14:00:15Z</time>
      </trkpt>
      <trkpt lat="46.53104" lon="5.41433">
        <ele>289.6</ele>
        <time>2022-05-28T14:00:16Z</time>
      </trkpt>
      <trkpt lat="46.53098" lon="5.41441">
        <ele>289.6</ele>
        <time>2022-05-28T14:00:17Z</time>
      </trkpt>
      <trkpt lat="46.5308" lon="5.41463">
        <ele>288.4</ele>
        <time>2022-05-28T14:00:20Z</time>
      </trkpt>
      <trkpt lat="46.53053" lon="5.41469">
        <ele>287</ele>
        <time>2022-05-28T14:00:23Z</time>
      </trkpt>
      <trkpt lat="46.53037" lon="5.41473">
        <ele>286.2</ele>
        <time>2022-05-28T14:00:25Z</time>
      </trkpt>
      <trkpt lat="46.53029" lon="5.41477">
        <ele>285.8</ele>
        <time>2022-05-28T14:00:26Z</time>
      </trkpt>
      <trkpt lat="46.53022" lon="5.41482">
        <ele>285.4</ele>
        <time>2022-05-28T14:00:27Z</time>
      </trkpt>
      <trkpt lat="46.52999" lon="5.41499">
        <ele>284.2</ele>
        <time>2022-05-28T14:00:30Z</time>
      </trkpt>
      <trkpt lat="46.52976" lon="5.41515">
        <ele>282.8</ele>
        <time>2022-05-28T14:00:33Z</time>
      </trkpt>
      <trkpt lat="46.52969" lon="5.41521">
        <ele>282.4</ele>
        <time>2022-05-28T14:00:34Z</time>
      </trkpt>
      <trkpt lat="46.52956" lon="5.41532">
        <ele>281.8</ele>
        <time>2022-05-28T14:00:36Z</time>
      </trkpt>
      <trkpt lat="46.52943" lon="5.41545">
        <ele>281.2</ele>
        <time>2022-05-28T14:00:38Z</time>
      </trkpt>
      <trkpt lat="46.52937" lon="5.41553">
        <ele>280.8</ele>
        <time>2022-05-28T14:00:39Z</time>
      </trkpt>
      <trkpt lat="46.52921" lon="5.4158">
        <ele>279.6</ele>
        <time>2022-05-28T14:00:42Z</time>
      </trkpt>
      <trkpt lat="46.52901" lon="5.41623">
        <ele>278.2</ele>
        <time>2022-05-28T14:00:46Z</time>
      </trkpt>
      <trkpt lat="46.52884" lon="5.41666">
        <ele>277.2</ele>
        <time>2022-05-28T14:00:50Z</time>
      </trkpt>
      <trkpt lat="46.5286" lon="5.41727">
        <ele>275.8</ele>
        <time>2022-05-28T14:00:55Z</time>
      </trkpt>
      <trkpt lat="46.52851" lon="5.41752">
        <ele>275.2</ele>
        <time>2022-05-28T14:00:57Z</time>
      </trkpt>
      <trkpt lat="46.52846" lon="5.41778">
        <ele>275</ele>
        <time>2022-05-28T14:00:59Z</time>
      </trkpt>
      <trkpt lat="46.52844" lon="5.41791">
        <ele>274.6</ele>
        <time>2022-05-28T14:01:00Z</time>
      </trkpt>
      <trkpt lat="46.5284" lon="5.41841">
        <ele>273.2</ele>
        <time>2022-05-28T14:01:04Z</time>
      </trkpt>
      <trkpt lat="46.52838" lon="5.41878">
        <ele>271.4</ele>
        <time>2022-05-28T14:01:07Z</time>
      </trkpt>
      <trkpt lat="46.52837" lon="5.41902">
        <ele>270.4</ele>
        <time>2022-05-28T14:01:09Z</time>
      </trkpt>
      <trkpt lat="46.52833" lon="5.41936">
        <ele>269.6</ele>
        <time>2022-05-28T14:01:12Z</time>
      </trkpt>
      <trkpt lat="46.52832" lon="5.41948">
        <ele>269.2</ele>
        <time>2022-05-28T14:01:13Z</time>
      </trkpt>
      <trkpt lat="46.52831" lon="5.41967">
        <ele>268.4</ele>
        <time>2022-05-28T14:01:15Z</time>
      </trkpt>
      <trkpt lat="46.52831" lon="5.41979">
        <ele>268</ele>
        <time>2022-05-28T14:01:16Z</time>
      </trkpt>
      <trkpt lat="46.52832" lon="5.4199">
        <ele>268</ele>
        <time>2022-05-28T14:01:17Z</time>
      </trkpt>
      <trkpt lat="46.52835" lon="5.42011">
        <ele>267.2</ele>
        <time>2022-05-28T14:01:19Z</time>
      </trkpt>
      <trkpt lat="46.5284" lon="5.42049">
        <ele>266.2</ele>
        <time>2022-05-28T14:01:23Z</time>
      </trkpt>
      <trkpt lat="46.5284" lon="5.42065">
        <ele>265.4</ele>
        <time>2022-05-28T14:01:25Z</time>
      </trkpt>
      <trkpt lat="46.52838" lon="5.4207">
        <ele>265.2</ele>
        <time>2022-05-28T14:01:26Z</time>
      </trkpt>
      <trkpt lat="46.52836" lon="5.42078">
        <ele>265.2</ele>
        <time>2022-05-28T14:01:27Z</time>
      </trkpt>
      <trkpt lat="46.52821" lon="5.42117">
        <ele>264</ele>
        <time>2022-05-28T14:01:32Z</time>
      </trkpt>
      <trkpt lat="46.52819" lon="5.42124">
        <ele>263.6</ele>
        <time>2022-05-28T14:01:33Z</time>
      </trkpt>
      <trkpt lat="46.52816" lon="5.4213">
        <ele>263.4</ele>
        <time>2022-05-28T14:01:34Z</time>
      </trkpt>
      <trkpt lat="46.52811" lon="5.42135">
        <ele>263.2</ele>
        <time>2022-05-28T14:01:36Z</time>
      </trkpt>
      <trkpt lat="46.52808" lon="5.42134">
        <ele>263</ele>
        <time>2022-05-28T14:01:37Z</time>
      </trkpt>
      <trkpt lat="46.52798" lon="5.42127">
        <ele>262.8</ele>
        <time>2022-05-28T14:01:40Z</time>
      </trkpt>
      <trkpt lat="46.52778" lon="5.42111">
        <ele>261.8</ele>
        <time>2022-05-28T14:01:46Z</time>
      </trkpt>
      <trkpt lat="46.52764" lon="5.42087">
        <ele>260.8</ele>
        <time>2022-05-28T14:01:51Z</time>
      </trkpt>
      <trkpt lat="46.52759" lon="5.42078">
        <ele>260.8</ele>
        <time>2022-05-28T14:01:53Z</time>
      </trkpt>
      <trkpt lat="46.52744" lon="5.42049">
        <ele>260.8</ele>
        <time>2022-05-28T14:02:00Z</time>
      </trkpt>
      <trkpt lat="46.52739" lon="5.42034">
        <ele>261.4</ele>
        <time>2022-05-28T14:02:05Z</time>
      </trkpt>
      <trkpt lat="46.52737" lon="5.42032">
        <ele>261.6</ele>
        <time>2022-05-28T14:02:06Z</time>
      </trkpt>
      <trkpt lat="46.52735" lon="5.42026">
        <ele>262.2</ele>
        <time>2022-05-28T14:02:08Z</time>
      </trkpt>
      <trkpt lat="46.52734" lon="5.42022">
        <ele>262.4</ele>
        <time>2022-05-28T14:02:09Z</time>
      </trkpt>
      <trkpt lat="46.52727" lon="5.41999">
        <ele>263</ele>
        <time>2022-05-28T14:02:14Z</time>
      </trkpt>
      <trkpt lat="46.52726" lon="5.41994">
        <ele>263.2</ele>
        <time>2022-05-28T14:02:15Z</time>
      </trkpt>
      <trkpt lat="46.52727" lon="5.41964">
        <ele>263.6</ele>
        <time>2022-05-28T14:02:20Z</time>
      </trkpt>
      <trkpt lat="46.52729" lon="5.41953">
        <ele>264.2</ele>
        <time>2022-05-28T14:02:22Z</time>
      </trkpt>
      <trkpt lat="46.52731" lon="5.41923">
        <ele>264.6</ele>
        <time>2022-05-28T14:02:27Z</time>
      </trkpt>
      <trkpt lat="46.52731" lon="5.41905">
        <ele>264.6</ele>
        <time>2022-05-28T14:02:30Z</time>
      </trkpt>
      <trkpt lat="46.52732" lon="5.41883">
        <ele>264.6</ele>
        <time>2022-05-28T14:02:33Z</time>
      </trkpt>
      <trkpt lat="46.52731" lon="5.41868">
        <ele>264.6</ele>
        <time>2022-05-28T14:02:35Z</time>
      </trkpt>
      <trkpt lat="46.52728" lon="5.41844">
        <ele>264.6</ele>
        <time>2022-05-28T14:02:38Z</time>
      </trkpt>
      <trkpt lat="46.52722" lon="5.41817">
        <ele>264</ele>
        <time>2022-05-28T14:02:41Z</time>
      </trkpt>
      <trkpt lat="46.52722" lon="5.41797">
        <ele>263.4</ele>
        <time>2022-05-28T14:02:43Z</time>
      </trkpt>
      <trkpt lat="46.52723" lon="5.41788">
        <ele>263.2</ele>
        <time>2022-05-28T14:02:44Z</time>
      </trkpt>
      <trkpt lat="46.52726" lon="5.4178">
        <ele>262.8</ele>
        <time>2022-05-28T14:02:45Z</time>
      </trkpt>
      <trkpt lat="46.5273" lon="5.41773">
        <ele>262.6</ele>
        <time>2022-05-28T14:02:46Z</time>
      </trkpt>
      <trkpt lat="46.5274" lon="5.4176">
        <ele>261.8</ele>
        <time>2022-05-28T14:02:48Z</time>
      </trkpt>
      <trkpt lat="46.52753" lon="5.41751">
        <ele>260.6</ele>
        <time>2022-05-28T14:02:50Z</time>
      </trkpt>
      <trkpt lat="46.52762" lon="5.41735">
        <ele>259.8</ele>
        <time>2022-05-28T14:02:52Z</time>
      </trkpt>
      <trkpt lat="46.52765" lon="5.41726">
        <ele>259.6</ele>
        <time>2022-05-28T14:02:53Z</time>
      </trkpt>
      <trkpt lat="46.52767" lon="5.41715">
        <ele>259</ele>
        <time>2022-05-28T14:02:54Z</time>
      </trkpt>
      <trkpt lat="46.52769" lon="5.41691">
        <ele>258.2</ele>
        <time>2022-05-28T14:02:56Z</time>
      </trkpt>
      <trkpt lat="46.5277" lon="5.4168">
        <ele>257.4</ele>
        <time>2022-05-28T14:02:57Z</time>
      </trkpt>
      <trkpt lat="46.52776" lon="5.41658">
        <ele>256.8</ele>
        <time>2022-05-28T14:02:59Z</time>
      </trkpt>
      <trkpt lat="46.52782" lon="5.41637">
        <ele>256.4</ele>
        <time>2022-05-28T14:03:01Z</time>
      </trkpt>
      <trkpt lat="46.52783" lon="5.41627">
        <ele>256.2</ele>
        <time>2022-05-28T14:03:02Z</time>
      </trkpt>
      <trkpt lat="46.52781" lon="5.41607">
        <ele>255.4</ele>
        <time>2022-05-28T14:03:04Z</time>
      </trkpt>
      <trkpt lat="46.52779" lon="5.41599">
        <ele>255</ele>
        <time>2022-05-28T14:03:05Z</time>
      </trkpt>
      <trkpt lat="46.52775" lon="5.41578">
        <ele>254.6</ele>
        <time>2022-05-28T14:03:07Z</time>
      </trkpt>
      <trkpt lat="46.52775" lon="5.4157">
        <ele>253.8</ele>
        <time>2022-05-28T14:03:08Z</time>
      </trkpt>
      <trkpt lat="46.52773" lon="5.41553">
        <ele>253.4</ele>
        <time>2022-05-28T14:03:10Z</time>
      </trkpt>
      <trkpt lat="46.5277" lon="5.41526">
        <ele>253</ele>
        <time>2022-05-28T14:03:13Z</time>
      </trkpt>
      <trkpt lat="46.52769" lon="5.41507">
        <ele>253</ele>
        <time>2022-05-28T14:03:15Z</time>
      </trkpt>
      <trkpt lat="46.52767" lon="5.41462">
        <ele>252.8</ele>
        <time>2022-05-28T14:03:20Z</time>
      </trkpt>
      <trkpt lat="46.52768" lon="5.41453">
        <ele>252.6</ele>
        <time>2022-05-28T14:03:21Z</time>
      </trkpt>
      <trkpt lat="46.52766" lon="5.41389">
        <ele>251.8</ele>
        <time>2022-05-28T14:03:28Z</time>
      </trkpt>
      <trkpt lat="46.52766" lon="5.41373">
        <ele>251.8</ele>
        <time>2022-05-28T14:03:30Z</time>
      </trkpt>
      <trkpt lat="46.52768" lon="5.41367">
        <ele>251.6</ele>
        <time>2022-05-28T14:03:31Z</time>
      </trkpt>
      <trkpt lat="46.52779" lon="5.41314">
        <ele>250.6</ele>
        <time>2022-05-28T14:03:38Z</time>
      </trkpt>
      <trkpt lat="46.52781" lon="5.41297">
        <ele>250.6</ele>
        <time>2022-05-28T14:03:40Z</time>
      </trkpt>
      <trkpt lat="46.52782" lon="5.41264">
        <ele>250.4</ele>
        <time>2022-05-28T14:03:44Z</time>
      </trkpt>
      <trkpt lat="46.52783" lon="5.41198">
        <ele>249.6</ele>
        <time>2022-05-28T14:03:52Z</time>
      </trkpt>
      <trkpt lat="46.52782" lon="5.41174">
        <ele>249.4</ele>
        <time>2022-05-28T14:03:55Z</time>
      </trkpt>
      <trkpt lat="46.52778" lon="5.41149">
        <ele>249.2</ele>
        <time>2022-05-28T14:03:58Z</time>
      </trkpt>
      <trkpt lat="46.52775" lon="5.41122">
        <ele>249.2</ele>
        <time>2022-05-28T14:04:01Z</time>
      </trkpt>
      <trkpt lat="46.52776" lon="5.41113">
        <ele>249.2</ele>
        <time>2022-05-28T14:04:02Z</time>
      </trkpt>
      <trkpt lat="46.52779" lon="5.41085">
        <ele>249</ele>
        <time>2022-05-28T14:04:05Z</time>
      </trkpt>
      <trkpt lat="46.52778" lon="5.41058">
        <ele>249</ele>
        <time>2022-05-28T14:04:08Z</time>
      </trkpt>
      <trkpt lat="46.52776" lon="5.41039">
        <ele>248.8</ele>
        <time>2022-05-28T14:04:10Z</time>
      </trkpt>
      <trkpt lat="46.52773" lon="5.41013">
        <ele>248.6</ele>
        <time>2022-05-28T14:04:13Z</time>
      </trkpt>
      <trkpt lat="46.52773" lon="5.41005">
        <ele>248.6</ele>
        <time>2022-05-28T14:04:14Z</time>
      </trkpt>
      <trkpt lat="46.52772" lon="5.40988">
        <ele>248.6</ele>
        <time>2022-05-28T14:04:16Z</time>
      </trkpt>
      <trkpt lat="46.52772" lon="5.40971">
        <ele>248.6</ele>
        <time>2022-05-28T14:04:18Z</time>
      </trkpt>
      <trkpt lat="46.52774" lon="5.40945">
        <ele>248.4</ele>
        <time>2022-05-28T14:04:21Z</time>
      </trkpt>
      <trkpt lat="46.52778" lon="5.40929">
        <ele>248.6</ele>
        <time>2022-05-28T14:04:23Z</time>
      </trkpt>
      <trkpt lat="46.52781" lon="5.40921">
        <ele>248.6</ele>
        <time>2022-05-28T14:04:24Z</time>
      </trkpt>
      <trkpt lat="46.52802" lon="5.40871">
        <ele>248.8</ele>
        <time>2022-05-28T14:04:31Z</time>
      </trkpt>
      <trkpt lat="46.52814" lon="5.40844">
        <ele>249</ele>
        <time>2022-05-28T14:04:35Z</time>
      </trkpt>
      <trkpt lat="46.52823" lon="5.40833">
        <ele>249.2</ele>
        <time>2022-05-28T14:04:37Z</time>
      </trkpt>
      <trkpt lat="46.52833" lon="5.40827">
        <ele>249.2</ele>
        <time>2022-05-28T14:04:39Z</time>
      </trkpt>
      <trkpt lat="46.52851" lon="5.40822">
        <ele>249.2</ele>
        <time>2022-05-28T14:04:42Z</time>
      </trkpt>
      <trkpt lat="46.52881" lon="5.40808">
        <ele>248.8</ele>
        <time>2022-05-28T14:04:47Z</time>
      </trkpt>
      <trkpt lat="46.52892" lon="5.40797">
        <ele>248.6</ele>
        <time>2022-05-28T14:04:49Z</time>
      </trkpt>
      <trkpt lat="46.52902" lon="5.4078">
        <ele>248.4</ele>
        <time>2022-05-28T14:04:51Z</time>
      </trkpt>
      <trkpt lat="46.52919" lon="5.40731">
        <ele>248.4</ele>
        <time>2022-05-28T14:04:57Z</time>
      </trkpt>
      <trkpt lat="46.52942" lon="5.4067">
        <ele>248.8</ele>
        <time>2022-05-28T14:05:05Z</time>
      </trkpt>
      <trkpt lat="46.52963" lon="5.40613">
        <ele>249.6</ele>
        <time>2022-05-28T14:05:13Z</time>
      </trkpt>
      <trkpt lat="46.52966" lon="5.40601">
        <ele>249.6</ele>
        <time>2022-05-28T14:05:15Z</time>
      </trkpt>
      <trkpt lat="46.52966" lon="5.40595">
        <ele>250</ele>
        <time>2022-05-28T14:05:16Z</time>
      </trkpt>
      <trkpt lat="46.52967" lon="5.4059">
        <ele>250</ele>
        <time>2022-05-28T14:05:17Z</time>
      </trkpt>
      <trkpt lat="46.52963" lon="5.4057">
        <ele>250</ele>
        <time>2022-05-28T14:05:20Z</time>
      </trkpt>
      <trkpt lat="46.52954" lon="5.40529">
        <ele>250</ele>
        <time>2022-05-28T14:05:25Z</time>
      </trkpt>
      <trkpt lat="46.5294" lon="5.40445">
        <ele>249.4</ele>
        <time>2022-05-28T14:05:34Z</time>
      </trkpt>
      <trkpt lat="46.52936" lon="5.40413">
        <ele>248.8</ele>
        <time>2022-05-28T14:05:37Z</time>
      </trkpt>
      <trkpt lat="46.52936" lon="5.40391">
        <ele>248.6</ele>
        <time>2022-05-28T14:05:39Z</time>
      </trkpt>
      <trkpt lat="46.52937" lon="5.4038">
        <ele>248.6</ele>
        <time>2022-05-28T14:05:40Z</time>
      </trkpt>
      <trkpt lat="46.52943" lon="5.40349">
        <ele>248.6</ele>
        <time>2022-05-28T14:05:43Z</time>
      </trkpt>
      <trkpt lat="46.52947" lon="5.40318">
        <ele>248.4</ele>
        <time>2022-05-28T14:05:46Z</time>
      </trkpt>
      <trkpt lat="46.52948" lon="5.40296">
        <ele>247.8</ele>
        <time>2022-05-28T14:05:48Z</time>
      </trkpt>
      <trkpt lat="46.52954" lon="5.40241">
        <ele>246.8</ele>
        <time>2022-05-28T14:05:53Z</time>
      </trkpt>
      <trkpt lat="46.52956" lon="5.4023">
        <ele>246.6</ele>
        <time>2022-05-28T14:05:54Z</time>
      </trkpt>
      <trkpt lat="46.5296" lon="5.40209">
        <ele>246.2</ele>
        <time>2022-05-28T14:05:56Z</time>
      </trkpt>
      <trkpt lat="46.52961" lon="5.40188">
        <ele>245.8</ele>
        <time>2022-05-28T14:05:58Z</time>
      </trkpt>
      <trkpt lat="46.52962" lon="5.40169">
        <ele>245.6</ele>
        <time>2022-05-28T14:06:00Z</time>
      </trkpt>
      <trkpt lat="46.52964" lon="5.40148">
        <ele>245.4</ele>
        <time>2022-05-28T14:06:02Z</time>
      </trkpt>
      <trkpt lat="46.52965" lon="5.40107">
        <ele>245</ele>
        <time>2022-05-28T14:06:06Z</time>
      </trkpt>
      <trkpt lat="46.52964" lon="5.40096">
        <ele>244.8</ele>
        <time>2022-05-28T14:06:07Z</time>
      </trkpt>
      <trkpt lat="46.52951" lon="5.40048">
        <ele>244.6</ele>
        <time>2022-05-28T14:06:12Z</time>
      </trkpt>
      <trkpt lat="46.52938" lon="5.40022">
        <ele>244.4</ele>
        <time>2022-05-28T14:06:15Z</time>
      </trkpt>
      <trkpt lat="46.52934" lon="5.40004">
        <ele>244.4</ele>
        <time>2022-05-28T14:06:17Z</time>
      </trkpt>
      <trkpt lat="46.52936" lon="5.39986">
        <ele>244.4</ele>
        <time>2022-05-28T14:06:19Z</time>
      </trkpt>
      <trkpt lat="46.52938" lon="5.39977">
        <ele>244.4</ele>
        <time>2022-05-28T14:06:20Z</time>
      </trkpt>
      <trkpt lat="46.52946" lon="5.3995">
        <ele>244.4</ele>
        <time>2022-05-28T14:06:23Z</time>
      </trkpt>
      <trkpt lat="46.52949" lon="5.39932">
        <ele>244.2</ele>
        <time>2022-05-28T14:06:25Z</time>
      </trkpt>
      <trkpt lat="46.52951" lon="5.39923">
        <ele>244.2</ele>
        <time>2022-05-28T14:06:26Z</time>
      </trkpt>
      <trkpt lat="46.52955" lon="5.39887">
        <ele>244.6</ele>
        <time>2022-05-28T14:06:30Z</time>
      </trkpt>
      <trkpt lat="46.52954" lon="5.39869">
        <ele>244.6</ele>
        <time>2022-05-28T14:06:32Z</time>
      </trkpt>
      <trkpt lat="46.52951" lon="5.39855">
        <ele>244.6</ele>
        <time>2022-05-28T14:06:34Z</time>
      </trkpt>
      <trkpt lat="46.52949" lon="5.39845">
        <ele>244.6</ele>
        <time>2022-05-28T14:06:35Z</time>
      </trkpt>
      <trkpt lat="46.52943" lon="5.39831">
        <ele>244.8</ele>
        <time>2022-05-28T14:06:37Z</time>
      </trkpt>
      <trkpt lat="46.52939" lon="5.39825">
        <ele>245</ele>
        <time>2022-05-28T14:06:38Z</time>
      </trkpt>
      <trkpt lat="46.52913" lon="5.39783">
        <ele>245.2</ele>
        <time>2022-05-28T14:06:45Z</time>
      </trkpt>
      <trkpt lat="46.52906" lon="5.39772">
        <ele>244.8</ele>
        <time>2022-05-28T14:06:47Z</time>
      </trkpt>
      <trkpt lat="46.52886" lon="5.39736">
        <ele>243.4</ele>
        <time>2022-05-28T14:06:53Z</time>
      </trkpt>
      <trkpt lat="46.52864" lon="5.39684">
        <ele>242.8</ele>
        <time>2022-05-28T14:07:01Z</time>
      </trkpt>
      <trkpt lat="46.52853" lon="5.39632">
        <ele>243.2</ele>
        <time>2022-05-28T14:07:08Z</time>
      </trkpt>
      <trkpt lat="46.52853" lon="5.39624">
        <ele>243.4</ele>
        <time>2022-05-28T14:07:09Z</time>
      </trkpt>
      <trkpt lat="46.52853" lon="5.39617">
        <ele>243.4</ele>
        <time>2022-05-28T14:07:10Z</time>
      </trkpt>
      <trkpt lat="46.52854" lon="5.39604">
        <ele>243.8</ele>
        <time>2022-05-28T14:07:12Z</time>
      </trkpt>
      <trkpt lat="46.52856" lon="5.3959">
        <ele>244.2</ele>
        <time>2022-05-28T14:07:14Z</time>
      </trkpt>
      <trkpt lat="46.52858" lon="5.39576">
        <ele>244.6</ele>
        <time>2022-05-28T14:07:16Z</time>
      </trkpt>
      <trkpt lat="46.5286" lon="5.39551">
        <ele>245.2</ele>
        <time>2022-05-28T14:07:19Z</time>
      </trkpt>
      <trkpt lat="46.5286" lon="5.39543">
        <ele>245.2</ele>
        <time>2022-05-28T14:07:20Z</time>
      </trkpt>
      <trkpt lat="46.52865" lon="5.39515">
        <ele>245.6</ele>
        <time>2022-05-28T14:07:24Z</time>
      </trkpt>
      <trkpt lat="46.52871" lon="5.39478">
        <ele>245.8</ele>
        <time>2022-05-28T14:07:29Z</time>
      </trkpt>
      <trkpt lat="46.52876" lon="5.39448">
        <ele>246</ele>
        <time>2022-05-28T14:07:33Z</time>
      </trkpt>
      <trkpt lat="46.52881" lon="5.39425">
        <ele>246.2</ele>
        <time>2022-05-28T14:07:36Z</time>
      </trkpt>
      <trkpt lat="46.5289" lon="5.39371">
        <ele>246.2</ele>
        <time>2022-05-28T14:07:42Z</time>
      </trkpt>
      <trkpt lat="46.52896" lon="5.39297">
        <ele>245.4</ele>
        <time>2022-05-28T14:07:49Z</time>
      </trkpt>
      <trkpt lat="46.52903" lon="5.39218">
        <ele>244.6</ele>
        <time>2022-05-28T14:07:57Z</time>
      </trkpt>
      <trkpt lat="46.52907" lon="5.39176">
        <ele>244.8</ele>
        <time>2022-05-28T14:08:02Z</time>
      </trkpt>
      <trkpt lat="46.52911" lon="5.39146">
        <ele>245</ele>
        <time>2022-05-28T14:08:07Z</time>
      </trkpt>
      <trkpt lat="46.52911" lon="5.39135">
        <ele>245.4</ele>
        <time>2022-05-28T14:08:11Z</time>
      </trkpt>
      <trkpt lat="46.5291" lon="5.39134">
        <ele>245.6</ele>
        <time>2022-05-28T14:08:12Z</time>
      </trkpt>
      <trkpt lat="46.52908" lon="5.39132">
        <ele>245.6</ele>
        <time>2022-05-28T14:08:13Z</time>
      </trkpt>
      <trkpt lat="46.52901" lon="5.39135">
        <ele>245.6</ele>
        <time>2022-05-28T14:08:15Z</time>
      </trkpt>
      <trkpt lat="46.52893" lon="5.39137">
        <ele>245.6</ele>
        <time>2022-05-28T14:08:17Z</time>
      </trkpt>
      <trkpt lat="46.52877" lon="5.39141">
        <ele>245.4</ele>
        <time>2022-05-28T14:08:20Z</time>
      </trkpt>
      <trkpt lat="46.52845" lon="5.39154">
        <ele>244.4</ele>
        <time>2022-05-28T14:08:25Z</time>
      </trkpt>
      <trkpt lat="46.5283" lon="5.39159">
        <ele>243.6</ele>
        <time>2022-05-28T14:08:27Z</time>
      </trkpt>
      <trkpt lat="46.52797" lon="5.39169">
        <ele>242.6</ele>
        <time>2022-05-28T14:08:31Z</time>
      </trkpt>
      <trkpt lat="46.52788" lon="5.39171">
        <ele>242.2</ele>
        <time>2022-05-28T14:08:32Z</time>
      </trkpt>
      <trkpt lat="46.52778" lon="5.39171">
        <ele>241.4</ele>
        <time>2022-05-28T14:08:33Z</time>
      </trkpt>
      <trkpt lat="46.52763" lon="5.39169">
        <ele>240.2</ele>
        <time>2022-05-28T14:08:35Z</time>
      </trkpt>
      <trkpt lat="46.52726" lon="5.39157">
        <ele>240</ele>
        <time>2022-05-28T14:08:40Z</time>
      </trkpt>
      <trkpt lat="46.527" lon="5.39143">
        <ele>240.8</ele>
        <time>2022-05-28T14:08:45Z</time>
      </trkpt>
      <trkpt lat="46.52686" lon="5.39134">
        <ele>241.4</ele>
        <time>2022-05-28T14:08:48Z</time>
      </trkpt>
      <trkpt lat="46.52678" lon="5.39128">
        <ele>242</ele>
        <time>2022-05-28T14:08:50Z</time>
      </trkpt>
      <trkpt lat="46.5267" lon="5.39122">
        <ele>242.6</ele>
        <time>2022-05-28T14:08:52Z</time>
      </trkpt>
      <trkpt lat="46.52667" lon="5.39119">
        <ele>242.8</ele>
        <time>2022-05-28T14:08:53Z</time>
      </trkpt>
      <trkpt lat="46.52644" lon="5.39101">
        <ele>243.6</ele>
        <time>2022-05-28T14:08:59Z</time>
      </trkpt>
      <trkpt lat="46.5264" lon="5.39097">
        <ele>243.8</ele>
        <time>2022-05-28T14:09:00Z</time>
      </trkpt>
      <trkpt lat="46.52628" lon="5.39085">
        <ele>244.4</ele>
        <time>2022-05-28T14:09:03Z</time>
      </trkpt>
      <trkpt lat="46.52616" lon="5.39075">
        <ele>245</ele>
        <time>2022-05-28T14:09:06Z</time>
      </trkpt>
      <trkpt lat="46.52598" lon="5.39059">
        <ele>246.2</ele>
        <time>2022-05-28T14:09:11Z</time>
      </trkpt>
      <trkpt lat="46.52582" lon="5.39045">
        <ele>246.8</ele>
        <time>2022-05-28T14:09:15Z</time>
      </trkpt>
      <trkpt lat="46.52569" lon="5.39036">
        <ele>247.4</ele>
        <time>2022-05-28T14:09:18Z</time>
      </trkpt>
      <trkpt lat="46.52541" lon="5.39015">
        <ele>248.6</ele>
        <time>2022-05-28T14:09:25Z</time>
      </trkpt>
      <trkpt lat="46.52512" lon="5.38997">
        <ele>249.6</ele>
        <time>2022-05-28T14:09:32Z</time>
      </trkpt>
      <trkpt lat="46.525" lon="5.3899">
        <ele>250</ele>
        <time>2022-05-28T14:09:35Z</time>
      </trkpt>
      <trkpt lat="46.52473" lon="5.38976">
        <ele>250.6</ele>
        <time>2022-05-28T14:09:41Z</time>
      </trkpt>
      <trkpt lat="46.52464" lon="5.38972">
        <ele>251</ele>
        <time>2022-05-28T14:09:43Z</time>
      </trkpt>
      <trkpt lat="46.5244" lon="5.3896">
        <ele>251.8</ele>
        <time>2022-05-28T14:09:48Z</time>
      </trkpt>
      <trkpt lat="46.52415" lon="5.38949">
        <ele>252.2</ele>
        <time>2022-05-28T14:09:53Z</time>
      </trkpt>
      <trkpt lat="46.52388" lon="5.38936">
        <ele>253</ele>
        <time>2022-05-28T14:09:58Z</time>
      </trkpt>
      <trkpt lat="46.52378" lon="5.38931">
        <ele>253.4</ele>
        <time>2022-05-28T14:10:00Z</time>
      </trkpt>
      <trkpt lat="46.52353" lon="5.3892">
        <ele>254</ele>
        <time>2022-05-28T14:10:04Z</time>
      </trkpt>
      <trkpt lat="46.5231" lon="5.389">
        <ele>255</ele>
        <time>2022-05-28T14:10:11Z</time>
      </trkpt>
      <trkpt lat="46.52304" lon="5.38897">
        <ele>255.2</ele>
        <time>2022-05-28T14:10:12Z</time>
      </trkpt>
      <trkpt lat="46.52262" lon="5.38877">
        <ele>256.2</ele>
        <time>2022-05-28T14:10:19Z</time>
      </trkpt>
      <trkpt lat="46.52209" lon="5.38852">
        <ele>256.8</ele>
        <time>2022-05-28T14:10:28Z</time>
      </trkpt>
      <trkpt lat="46.52166" lon="5.38838">
        <ele>257.2</ele>
        <time>2022-05-28T14:10:35Z</time>
      </trkpt>
      <trkpt lat="46.52155" lon="5.38837">
        <ele>257.6</ele>
        <time>2022-05-28T14:10:37Z</time>
      </trkpt>
      <trkpt lat="46.52105" lon="5.38834">
        <ele>257.6</ele>
        <time>2022-05-28T14:10:45Z</time>
      </trkpt>
      <trkpt lat="46.52052" lon="5.38829">
        <ele>257.8</ele>
        <time>2022-05-28T14:10:54Z</time>
      </trkpt>
      <trkpt lat="46.52046" lon="5.38828">
        <ele>258</ele>
        <time>2022-05-28T14:10:55Z</time>
      </trkpt>
      <trkpt lat="46.52024" lon="5.38824">
        <ele>258.4</ele>
        <time>2022-05-28T14:10:59Z</time>
      </trkpt>
      <trkpt lat="46.52009" lon="5.38821">
        <ele>259.2</ele>
        <time>2022-05-28T14:11:02Z</time>
      </trkpt>
      <trkpt lat="46.52" lon="5.3882">
        <ele>259.6</ele>
        <time>2022-05-28T14:11:04Z</time>
      </trkpt>
      <trkpt lat="46.51979" lon="5.38819">
        <ele>260.6</ele>
        <time>2022-05-28T14:11:08Z</time>
      </trkpt>
      <trkpt lat="46.51974" lon="5.38819">
        <ele>261</ele>
        <time>2022-05-28T14:11:09Z</time>
      </trkpt>
      <trkpt lat="46.51965" lon="5.3882">
        <ele>261.8</ele>
        <time>2022-05-28T14:11:11Z</time>
      </trkpt>
      <trkpt lat="46.51939" lon="5.38821">
        <ele>262.8</ele>
        <time>2022-05-28T14:11:16Z</time>
      </trkpt>
      <trkpt lat="46.51928" lon="5.3882">
        <ele>263.6</ele>
        <time>2022-05-28T14:11:18Z</time>
      </trkpt>
      <trkpt lat="46.51924" lon="5.3882">
        <ele>264</ele>
        <time>2022-05-28T14:11:19Z</time>
      </trkpt>
      <trkpt lat="46.51903" lon="5.38819">
        <ele>265.2</ele>
        <time>2022-05-28T14:11:23Z</time>
      </trkpt>
      <trkpt lat="46.51882" lon="5.38818">
        <ele>266.2</ele>
        <time>2022-05-28T14:11:27Z</time>
      </trkpt>
      <trkpt lat="46.51876" lon="5.38818">
        <ele>266.8</ele>
        <time>2022-05-28T14:11:28Z</time>
      </trkpt>
      <trkpt lat="46.51867" lon="5.38818">
        <ele>267.4</ele>
        <time>2022-05-28T14:11:30Z</time>
      </trkpt>
      <trkpt lat="46.51843" lon="5.38818">
        <ele>269</ele>
        <time>2022-05-28T14:11:35Z</time>
      </trkpt>
      <trkpt lat="46.51831" lon="5.38817">
        <ele>269.8</ele>
        <time>2022-05-28T14:11:38Z</time>
      </trkpt>
      <trkpt lat="46.51822" lon="5.38817">
        <ele>270.2</ele>
        <time>2022-05-28T14:11:40Z</time>
      </trkpt>
      <trkpt lat="46.51805" lon="5.38817">
        <ele>271.4</ele>
        <time>2022-05-28T14:11:44Z</time>
      </trkpt>
      <trkpt lat="46.5179" lon="5.38816">
        <ele>272.6</ele>
        <time>2022-05-28T14:11:47Z</time>
      </trkpt>
      <trkpt lat="46.51787" lon="5.38816">
        <ele>272.8</ele>
        <time>2022-05-28T14:11:48Z</time>
      </trkpt>
      <trkpt lat="46.51773" lon="5.38816">
        <ele>273.8</ele>
        <time>2022-05-28T14:11:51Z</time>
      </trkpt>
      <trkpt lat="46.51759" lon="5.38815">
        <ele>275.2</ele>
        <time>2022-05-28T14:11:54Z</time>
      </trkpt>
      <trkpt lat="46.51754" lon="5.38815">
        <ele>275.4</ele>
        <time>2022-05-28T14:11:55Z</time>
      </trkpt>
      <trkpt lat="46.51726" lon="5.38813">
        <ele>276.4</ele>
        <time>2022-05-28T14:12:01Z</time>
      </trkpt>
      <trkpt lat="46.51723" lon="5.38812">
        <ele>277.2</ele>
        <time>2022-05-28T14:12:02Z</time>
      </trkpt>
      <trkpt lat="46.51719" lon="5.3881">
        <ele>277.4</ele>
        <time>2022-05-28T14:12:03Z</time>
      </trkpt>
      <trkpt lat="46.51706" lon="5.38801">
        <ele>277.6</ele>
        <time>2022-05-28T14:12:06Z</time>
      </trkpt>
      <trkpt lat="46.51703" lon="5.38798">
        <ele>277.8</ele>
        <time>2022-05-28T14:12:07Z</time>
      </trkpt>
      <trkpt lat="46.517" lon="5.38794">
        <ele>277.8</ele>
        <time>2022-05-28T14:12:08Z</time>
      </trkpt>
      <trkpt lat="46.51697" lon="5.3879">
        <ele>277.8</ele>
        <time>2022-05-28T14:12:09Z</time>
      </trkpt>
      <trkpt lat="46.51693" lon="5.38783">
        <ele>277.6</ele>
        <time>2022-05-28T14:12:12Z</time>
      </trkpt>
      <trkpt lat="46.51691" lon="5.38781">
        <ele>277.6</ele>
        <time>2022-05-28T14:12:13Z</time>
      </trkpt>
      <trkpt lat="46.51684" lon="5.3878">
        <ele>277.6</ele>
        <time>2022-05-28T14:12:15Z</time>
      </trkpt>
      <trkpt lat="46.51672" lon="5.38779">
        <ele>277.2</ele>
        <time>2022-05-28T14:12:18Z</time>
      </trkpt>
      <trkpt lat="46.51656" lon="5.38782">
        <ele>277</ele>
        <time>2022-05-28T14:12:21Z</time>
      </trkpt>
      <trkpt lat="46.51637" lon="5.38787">
        <ele>276.6</ele>
        <time>2022-05-28T14:12:24Z</time>
      </trkpt>
      <trkpt lat="46.51617" lon="5.38793">
        <ele>276.4</ele>
        <time>2022-05-28T14:12:27Z</time>
      </trkpt>
      <trkpt lat="46.51593" lon="5.38798">
        <ele>275.6</ele>
        <time>2022-05-28T14:12:30Z</time>
      </trkpt>
      <trkpt lat="46.51576" lon="5.38802">
        <ele>274.4</ele>
        <time>2022-05-28T14:12:32Z</time>
      </trkpt>
      <trkpt lat="46.51568" lon="5.38804">
        <ele>274.2</ele>
        <time>2022-05-28T14:12:33Z</time>
      </trkpt>
      <trkpt lat="46.5154" lon="5.38807">
        <ele>273.4</ele>
        <time>2022-05-28T14:12:36Z</time>
      </trkpt>
      <trkpt lat="46.51512" lon="5.38806">
        <ele>272.4</ele>
        <time>2022-05-28T14:12:39Z</time>
      </trkpt>
      <trkpt lat="46.51453" lon="5.38804">
        <ele>270.8</ele>
        <time>2022-05-28T14:12:45Z</time>
      </trkpt>
      <trkpt lat="46.51444" lon="5.38805">
        <ele>270.6</ele>
        <time>2022-05-28T14:12:46Z</time>
      </trkpt>
      <trkpt lat="46.51395" lon="5.38811">
        <ele>271</ele>
        <time>2022-05-28T14:12:52Z</time>
      </trkpt>
      <trkpt lat="46.51379" lon="5.3881">
        <ele>271.8</ele>
        <time>2022-05-28T14:12:54Z</time>
      </trkpt>
      <trkpt lat="46.51363" lon="5.38808">
        <ele>273.4</ele>
        <time>2022-05-28T14:12:56Z</time>
      </trkpt>
      <trkpt lat="46.51346" lon="5.38806">
        <ele>274.6</ele>
        <time>2022-05-28T14:12:58Z</time>
      </trkpt>
      <trkpt lat="46.51334" lon="5.38805">
        <ele>275.8</ele>
        <time>2022-05-28T14:13:00Z</time>
      </trkpt>
      <trkpt lat="46.51326" lon="5.38805">
        <ele>276.2</ele>
        <time>2022-05-28T14:13:01Z</time>
      </trkpt>
      <trkpt lat="46.5132" lon="5.38805">
        <ele>276.4</ele>
        <time>2022-05-28T14:13:02Z</time>
      </trkpt>
      <trkpt lat="46.51313" lon="5.38805">
        <ele>276.8</ele>
        <time>2022-05-28T14:13:03Z</time>
      </trkpt>
      <trkpt lat="46.51285" lon="5.38804">
        <ele>277.6</ele>
        <time>2022-05-28T14:13:08Z</time>
      </trkpt>
      <trkpt lat="46.51272" lon="5.38803">
        <ele>278</ele>
        <time>2022-05-28T14:13:10Z</time>
      </trkpt>
      <trkpt lat="46.5125" lon="5.38802">
        <ele>278.4</ele>
        <time>2022-05-28T14:13:14Z</time>
      </trkpt>
      <trkpt lat="46.51245" lon="5.38801">
        <ele>278.6</ele>
        <time>2022-05-28T14:13:15Z</time>
      </trkpt>
      <trkpt lat="46.51224" lon="5.388">
        <ele>278.8</ele>
        <time>2022-05-28T14:13:19Z</time>
      </trkpt>
      <trkpt lat="46.51219" lon="5.38801">
        <ele>279</ele>
        <time>2022-05-28T14:13:20Z</time>
      </trkpt>
      <trkpt lat="46.51214" lon="5.388">
        <ele>279</ele>
        <time>2022-05-28T14:13:21Z</time>
      </trkpt>
      <trkpt lat="46.51175" lon="5.38797">
        <ele>279</ele>
        <time>2022-05-28T14:13:28Z</time>
      </trkpt>
      <trkpt lat="46.51156" lon="5.38797">
        <ele>279</ele>
        <time>2022-05-28T14:13:31Z</time>
      </trkpt>
      <trkpt lat="46.51141" lon="5.38795">
        <ele>278.8</ele>
        <time>2022-05-28T14:13:33Z</time>
      </trkpt>
      <trkpt lat="46.51099" lon="5.3879">
        <ele>277.6</ele>
        <time>2022-05-28T14:13:38Z</time>
      </trkpt>
      <trkpt lat="46.51061" lon="5.38783">
        <ele>276.6</ele>
        <time>2022-05-28T14:13:42Z</time>
      </trkpt>
      <trkpt lat="46.51041" lon="5.38778">
        <ele>276</ele>
        <time>2022-05-28T14:13:44Z</time>
      </trkpt>
      <trkpt lat="46.51029" lon="5.38775">
        <ele>275.4</ele>
        <time>2022-05-28T14:13:45Z</time>
      </trkpt>
      <trkpt lat="46.5099" lon="5.38767">
        <ele>274</ele>
        <time>2022-05-28T14:13:49Z</time>
      </trkpt>
      <trkpt lat="46.50978" lon="5.38764">
        <ele>273.6</ele>
        <time>2022-05-28T14:13:50Z</time>
      </trkpt>
      <trkpt lat="46.50941" lon="5.38756">
        <ele>272.8</ele>
        <time>2022-05-28T14:13:54Z</time>
      </trkpt>
      <trkpt lat="46.50903" lon="5.38748">
        <ele>272.6</ele>
        <time>2022-05-28T14:13:58Z</time>
      </trkpt>
      <trkpt lat="46.50849" lon="5.38734">
        <ele>272.2</ele>
        <time>2022-05-28T14:14:04Z</time>
      </trkpt>
      <trkpt lat="46.5084" lon="5.38732">
        <ele>272.2</ele>
        <time>2022-05-28T14:14:05Z</time>
      </trkpt>
      <trkpt lat="46.50778" lon="5.38719">
        <ele>272</ele>
        <time>2022-05-28T14:14:12Z</time>
      </trkpt>
      <trkpt lat="46.5074" lon="5.38712">
        <ele>272.4</ele>
        <time>2022-05-28T14:14:17Z</time>
      </trkpt>
      <trkpt lat="46.50693" lon="5.38697">
        <ele>273.2</ele>
        <time>2022-05-28T14:14:23Z</time>
      </trkpt>
      <trkpt lat="46.50647" lon="5.38677">
        <ele>272.6</ele>
        <time>2022-05-28T14:14:28Z</time>
      </trkpt>
      <trkpt lat="46.50637" lon="5.38673">
        <ele>271.8</ele>
        <time>2022-05-28T14:14:29Z</time>
      </trkpt>
      <trkpt lat="46.50606" lon="5.38664">
        <ele>270</ele>
        <time>2022-05-28T14:14:32Z</time>
      </trkpt>
      <trkpt lat="46.50595" lon="5.38662">
        <ele>269.6</ele>
        <time>2022-05-28T14:14:33Z</time>
      </trkpt>
      <trkpt lat="46.50576" lon="5.38659">
        <ele>268.8</ele>
        <time>2022-05-28T14:14:35Z</time>
      </trkpt>
      <trkpt lat="46.50549" lon="5.38652">
        <ele>268.6</ele>
        <time>2022-05-28T14:14:38Z</time>
      </trkpt>
      <trkpt lat="46.505" lon="5.38638">
        <ele>269.4</ele>
        <time>2022-05-28T14:14:44Z</time>
      </trkpt>
      <trkpt lat="46.50484" lon="5.38631">
        <ele>270.2</ele>
        <time>2022-05-28T14:14:46Z</time>
      </trkpt>
      <trkpt lat="46.5046" lon="5.38619">
        <ele>271.4</ele>
        <time>2022-05-28T14:14:49Z</time>
      </trkpt>
      <trkpt lat="46.50455" lon="5.38616">
        <ele>272</ele>
        <time>2022-05-28T14:14:50Z</time>
      </trkpt>
      <trkpt lat="46.50449" lon="5.38611">
        <ele>272.6</ele>
        <time>2022-05-28T14:14:51Z</time>
      </trkpt>
      <trkpt lat="46.50439" lon="5.38603">
        <ele>274.2</ele>
        <time>2022-05-28T14:14:53Z</time>
      </trkpt>
      <trkpt lat="46.50436" lon="5.386">
        <ele>274.6</ele>
        <time>2022-05-28T14:14:54Z</time>
      </trkpt>
      <trkpt lat="46.50432" lon="5.38597">
        <ele>275.6</ele>
        <time>2022-05-28T14:14:55Z</time>
      </trkpt>
      <trkpt lat="46.50425" lon="5.3859">
        <ele>277.4</ele>
        <time>2022-05-28T14:14:57Z</time>
      </trkpt>
      <trkpt lat="46.50416" lon="5.38583">
        <ele>278.6</ele>
        <time>2022-05-28T14:14:59Z</time>
      </trkpt>
      <trkpt lat="46.50408" lon="5.38576">
        <ele>279.6</ele>
        <time>2022-05-28T14:15:01Z</time>
      </trkpt>
      <trkpt lat="46.50403" lon="5.38572">
        <ele>280</ele>
        <time>2022-05-28T14:15:02Z</time>
      </trkpt>
      <trkpt lat="46.50386" lon="5.38559">
        <ele>281.2</ele>
        <time>2022-05-28T14:15:06Z</time>
      </trkpt>
      <trkpt lat="46.50377" lon="5.38553">
        <ele>281.4</ele>
        <time>2022-05-28T14:15:08Z</time>
      </trkpt>
      <trkpt lat="46.50369" lon="5.38548">
        <ele>281.6</ele>
        <time>2022-05-28T14:15:10Z</time>
      </trkpt>
      <trkpt lat="46.50358" lon="5.38541">
        <ele>282.2</ele>
        <time>2022-05-28T14:15:13Z</time>
      </trkpt>
      <trkpt lat="46.50337" lon="5.38519">
        <ele>282.6</ele>
        <time>2022-05-28T14:15:19Z</time>
      </trkpt>
      <trkpt lat="46.50326" lon="5.38504">
        <ele>282.6</ele>
        <time>2022-05-28T14:15:22Z</time>
      </trkpt>
      <trkpt lat="46.50314" lon="5.38487">
        <ele>282.4</ele>
        <time>2022-05-28T14:15:25Z</time>
      </trkpt>
      <trkpt lat="46.50293" lon="5.38458">
        <ele>281.6</ele>
        <time>2022-05-28T14:15:30Z</time>
      </trkpt>
      <trkpt lat="46.50289" lon="5.38452">
        <ele>281.4</ele>
        <time>2022-05-28T14:15:31Z</time>
      </trkpt>
      <trkpt lat="46.50284" lon="5.38446">
        <ele>281.4</ele>
        <time>2022-05-28T14:15:32Z</time>
      </trkpt>
      <trkpt lat="46.50279" lon="5.38441">
        <ele>281.2</ele>
        <time>2022-05-28T14:15:33Z</time>
      </trkpt>
      <trkpt lat="46.50263" lon="5.38426">
        <ele>280.6</ele>
        <time>2022-05-28T14:15:36Z</time>
      </trkpt>
      <trkpt lat="46.50258" lon="5.38421">
        <ele>280</ele>
        <time>2022-05-28T14:15:37Z</time>
      </trkpt>
      <trkpt lat="46.50233" lon="5.38394">
        <ele>279</ele>
        <time>2022-05-28T14:15:43Z</time>
      </trkpt>
      <trkpt lat="46.50224" lon="5.38378">
        <ele>279.2</ele>
        <time>2022-05-28T14:15:48Z</time>
      </trkpt>
      <trkpt lat="46.5022" lon="5.38372">
        <ele>279.2</ele>
        <time>2022-05-28T14:15:51Z</time>
      </trkpt>
      <trkpt lat="46.50218" lon="5.38372">
        <ele>279.2</ele>
        <time>2022-05-28T14:15:52Z</time>
      </trkpt>
      <trkpt lat="46.50216" lon="5.38375">
        <ele>279.2</ele>
        <time>2022-05-28T14:15:53Z</time>
      </trkpt>
      <trkpt lat="46.50213" lon="5.38382">
        <ele>279.2</ele>
        <time>2022-05-28T14:15:55Z</time>
      </trkpt>
      <trkpt lat="46.50206" lon="5.38403">
        <ele>279.4</ele>
        <time>2022-05-28T14:16:00Z</time>
      </trkpt>
      <trkpt lat="46.50196" lon="5.38435">
        <ele>280.8</ele>
        <time>2022-05-28T14:16:07Z</time>
      </trkpt>
      <trkpt lat="46.50192" lon="5.38449">
        <ele>281.4</ele>
        <time>2022-05-28T14:16:10Z</time>
      </trkpt>
      <trkpt lat="46.50184" lon="5.38476">
        <ele>282.6</ele>
        <time>2022-05-28T14:16:15Z</time>
      </trkpt>
      <trkpt lat="46.5017" lon="5.38519">
        <ele>283.6</ele>
        <time>2022-05-28T14:16:23Z</time>
      </trkpt>
      <trkpt lat="46.50168" lon="5.38524">
        <ele>283.6</ele>
        <time>2022-05-28T14:16:24Z</time>
      </trkpt>
      <trkpt lat="46.50158" lon="5.38557">
        <ele>284.8</ele>
        <time>2022-05-28T14:16:30Z</time>
      </trkpt>
      <trkpt lat="46.50156" lon="5.38563">
        <ele>285</ele>
        <time>2022-05-28T14:16:31Z</time>
      </trkpt>
      <trkpt lat="46.5015" lon="5.3858">
        <ele>285.8</ele>
        <time>2022-05-28T14:16:34Z</time>
      </trkpt>
      <trkpt lat="46.50148" lon="5.38585">
        <ele>286</ele>
        <time>2022-05-28T14:16:35Z</time>
      </trkpt>
      <trkpt lat="46.50137" lon="5.38623">
        <ele>287.2</ele>
        <time>2022-05-28T14:16:42Z</time>
      </trkpt>
      <trkpt lat="46.50136" lon="5.38629">
        <ele>287.4</ele>
        <time>2022-05-28T14:16:43Z</time>
      </trkpt>
      <trkpt lat="46.50133" lon="5.38651">
        <ele>288.4</ele>
        <time>2022-05-28T14:16:47Z</time>
      </trkpt>
      <trkpt lat="46.50127" lon="5.38672">
        <ele>289.6</ele>
        <time>2022-05-28T14:16:51Z</time>
      </trkpt>
      <trkpt lat="46.50115" lon="5.38689">
        <ele>290.2</ele>
        <time>2022-05-28T14:16:55Z</time>
      </trkpt>
      <trkpt lat="46.5011" lon="5.38691">
        <ele>290.2</ele>
        <time>2022-05-28T14:16:56Z</time>
      </trkpt>
      <trkpt lat="46.50081" lon="5.38699">
        <ele>290.2</ele>
        <time>2022-05-28T14:17:01Z</time>
      </trkpt>
      <trkpt lat="46.50026" lon="5.38709">
        <ele>290.2</ele>
        <time>2022-05-28T14:17:10Z</time>
      </trkpt>
      <trkpt lat="46.50002" lon="5.38714">
        <ele>290.8</ele>
        <time>2022-05-28T14:17:14Z</time>
      </trkpt>
      <trkpt lat="46.49985" lon="5.38717">
        <ele>291.4</ele>
        <time>2022-05-28T14:17:17Z</time>
      </trkpt>
      <trkpt lat="46.49961" lon="5.38723">
        <ele>292.2</ele>
        <time>2022-05-28T14:17:21Z</time>
      </trkpt>
      <trkpt lat="46.49932" lon="5.38728">
        <ele>293.2</ele>
        <time>2022-05-28T14:17:26Z</time>
      </trkpt>
      <trkpt lat="46.49909" lon="5.38731">
        <ele>294</ele>
        <time>2022-05-28T14:17:30Z</time>
      </trkpt>
      <trkpt lat="46.49896" lon="5.38732">
        <ele>294.2</ele>
        <time>2022-05-28T14:17:32Z</time>
      </trkpt>
      <trkpt lat="46.49857" lon="5.38738">
        <ele>295</ele>
        <time>2022-05-28T14:17:38Z</time>
      </trkpt>
      <trkpt lat="46.49798" lon="5.38748">
        <ele>294.8</ele>
        <time>2022-05-28T14:17:46Z</time>
      </trkpt>
      <trkpt lat="46.49742" lon="5.38759">
        <ele>293.6</ele>
        <time>2022-05-28T14:17:53Z</time>
      </trkpt>
      <trkpt lat="46.49734" lon="5.38761">
        <ele>293.4</ele>
        <time>2022-05-28T14:17:54Z</time>
      </trkpt>
      <trkpt lat="46.49718" lon="5.38764">
        <ele>293</ele>
        <time>2022-05-28T14:17:56Z</time>
      </trkpt>
      <trkpt lat="46.49665" lon="5.38776">
        <ele>292.2</ele>
        <time>2022-05-28T14:18:03Z</time>
      </trkpt>
      <trkpt lat="46.4962" lon="5.38784">
        <ele>292.4</ele>
        <time>2022-05-28T14:18:10Z</time>
      </trkpt>
      <trkpt lat="46.49596" lon="5.38788">
        <ele>292.8</ele>
        <time>2022-05-28T14:18:14Z</time>
      </trkpt>
      <trkpt lat="46.49586" lon="5.38792">
        <ele>293</ele>
        <time>2022-05-28T14:18:16Z</time>
      </trkpt>
      <trkpt lat="46.49569" lon="5.38793">
        <ele>293.6</ele>
        <time>2022-05-28T14:18:19Z</time>
      </trkpt>
      <trkpt lat="46.49558" lon="5.38792">
        <ele>293.8</ele>
        <time>2022-05-28T14:18:21Z</time>
      </trkpt>
      <trkpt lat="46.49547" lon="5.3879">
        <ele>294.2</ele>
        <time>2022-05-28T14:18:23Z</time>
      </trkpt>
      <trkpt lat="46.4952" lon="5.38785">
        <ele>295</ele>
        <time>2022-05-28T14:18:28Z</time>
      </trkpt>
      <trkpt lat="46.49509" lon="5.38782">
        <ele>295.2</ele>
        <time>2022-05-28T14:18:30Z</time>
      </trkpt>
      <trkpt lat="46.49473" lon="5.38776">
        <ele>295.8</ele>
        <time>2022-05-28T14:18:36Z</time>
      </trkpt>
      <trkpt lat="46.49463" lon="5.38775">
        <ele>296</ele>
        <time>2022-05-28T14:18:38Z</time>
      </trkpt>
      <trkpt lat="46.49447" lon="5.38774">
        <ele>296</ele>
        <time>2022-05-28T14:18:41Z</time>
      </trkpt>
      <trkpt lat="46.49434" lon="5.38772">
        <ele>296.2</ele>
        <time>2022-05-28T14:18:44Z</time>
      </trkpt>
      <trkpt lat="46.49423" lon="5.38771">
        <ele>296.2</ele>
        <time>2022-05-28T14:18:46Z</time>
      </trkpt>
      <trkpt lat="46.49418" lon="5.38769">
        <ele>296</ele>
        <time>2022-05-28T14:18:47Z</time>
      </trkpt>
      <trkpt lat="46.49386" lon="5.38757">
        <ele>295.8</ele>
        <time>2022-05-28T14:18:52Z</time>
      </trkpt>
      <trkpt lat="46.49343" lon="5.38745">
        <ele>295</ele>
        <time>2022-05-28T14:18:58Z</time>
      </trkpt>
      <trkpt lat="46.49287" lon="5.38727">
        <ele>294.2</ele>
        <time>2022-05-28T14:19:05Z</time>
      </trkpt>
      <trkpt lat="46.49254" lon="5.38713">
        <ele>293.4</ele>
        <time>2022-05-28T14:19:09Z</time>
      </trkpt>
      <trkpt lat="46.49238" lon="5.38705">
        <ele>293</ele>
        <time>2022-05-28T14:19:11Z</time>
      </trkpt>
      <trkpt lat="46.49231" lon="5.387">
        <ele>293</ele>
        <time>2022-05-28T14:19:12Z</time>
      </trkpt>
      <trkpt lat="46.49218" lon="5.38685">
        <ele>292.6</ele>
        <time>2022-05-28T14:19:14Z</time>
      </trkpt>
      <trkpt lat="46.4921" lon="5.38666">
        <ele>292.4</ele>
        <time>2022-05-28T14:19:16Z</time>
      </trkpt>
      <trkpt lat="46.49207" lon="5.38652">
        <ele>292.4</ele>
        <time>2022-05-28T14:19:17Z</time>
      </trkpt>
      <trkpt lat="46.49206" lon="5.38642">
        <ele>292</ele>
        <time>2022-05-28T14:19:18Z</time>
      </trkpt>
      <trkpt lat="46.49205" lon="5.38617">
        <ele>291</ele>
        <time>2022-05-28T14:19:20Z</time>
      </trkpt>
      <trkpt lat="46.49202" lon="5.38607">
        <ele>290.8</ele>
        <time>2022-05-28T14:19:21Z</time>
      </trkpt>
      <trkpt lat="46.49197" lon="5.38599">
        <ele>290.4</ele>
        <time>2022-05-28T14:19:22Z</time>
      </trkpt>
      <trkpt lat="46.49189" lon="5.38582">
        <ele>289.8</ele>
        <time>2022-05-28T14:19:24Z</time>
      </trkpt>
      <trkpt lat="46.49186" lon="5.38571">
        <ele>289.6</ele>
        <time>2022-05-28T14:19:25Z</time>
      </trkpt>
      <trkpt lat="46.49175" lon="5.38538">
        <ele>288.6</ele>
        <time>2022-05-28T14:19:28Z</time>
      </trkpt>
      <trkpt lat="46.49168" lon="5.38513">
        <ele>287.2</ele>
        <time>2022-05-28T14:19:30Z</time>
      </trkpt>
      <trkpt lat="46.49156" lon="5.38475">
        <ele>286</ele>
        <time>2022-05-28T14:19:33Z</time>
      </trkpt>
      <trkpt lat="46.49152" lon="5.38462">
        <ele>285.4</ele>
        <time>2022-05-28T14:19:34Z</time>
      </trkpt>
      <trkpt lat="46.49145" lon="5.38437">
        <ele>284.2</ele>
        <time>2022-05-28T14:19:36Z</time>
      </trkpt>
      <trkpt lat="46.49129" lon="5.38386">
        <ele>282.8</ele>
        <time>2022-05-28T14:19:40Z</time>
      </trkpt>
      <trkpt lat="46.49122" lon="5.38362">
        <ele>282</ele>
        <time>2022-05-28T14:19:42Z</time>
      </trkpt>
      <trkpt lat="46.49118" lon="5.3835">
        <ele>281.6</ele>
        <time>2022-05-28T14:19:43Z</time>
      </trkpt>
      <trkpt lat="46.49099" lon="5.38289">
        <ele>280.2</ele>
        <time>2022-05-28T14:19:48Z</time>
      </trkpt>
      <trkpt lat="46.49092" lon="5.38264">
        <ele>279</ele>
        <time>2022-05-28T14:19:50Z</time>
      </trkpt>
      <trkpt lat="46.49084" lon="5.38238">
        <ele>277.8</ele>
        <time>2022-05-28T14:19:52Z</time>
      </trkpt>
      <trkpt lat="46.49075" lon="5.38211">
        <ele>276.4</ele>
        <time>2022-05-28T14:19:54Z</time>
      </trkpt>
      <trkpt lat="46.49064" lon="5.38172">
        <ele>275.2</ele>
        <time>2022-05-28T14:19:57Z</time>
      </trkpt>
      <trkpt lat="46.4906" lon="5.38158">
        <ele>274.8</ele>
        <time>2022-05-28T14:19:58Z</time>
      </trkpt>
      <trkpt lat="46.49047" lon="5.38118">
        <ele>274.4</ele>
        <time>2022-05-28T14:20:01Z</time>
      </trkpt>
      <trkpt lat="46.49035" lon="5.38077">
        <ele>273</ele>
        <time>2022-05-28T14:20:04Z</time>
      </trkpt>
      <trkpt lat="46.49022" lon="5.38037">
        <ele>272</ele>
        <time>2022-05-28T14:20:07Z</time>
      </trkpt>
      <trkpt lat="46.49019" lon="5.38024">
        <ele>272</ele>
        <time>2022-05-28T14:20:08Z</time>
      </trkpt>
      <trkpt lat="46.49011" lon="5.37998">
        <ele>271</ele>
        <time>2022-05-28T14:20:10Z</time>
      </trkpt>
      <trkpt lat="46.48999" lon="5.3796">
        <ele>269.8</ele>
        <time>2022-05-28T14:20:13Z</time>
      </trkpt>
      <trkpt lat="46.48991" lon="5.37935">
        <ele>269.6</ele>
        <time>2022-05-28T14:20:15Z</time>
      </trkpt>
      <trkpt lat="46.48983" lon="5.37911">
        <ele>268.8</ele>
        <time>2022-05-28T14:20:17Z</time>
      </trkpt>
      <trkpt lat="46.48972" lon="5.37875">
        <ele>267.4</ele>
        <time>2022-05-28T14:20:20Z</time>
      </trkpt>
      <trkpt lat="46.48961" lon="5.3784">
        <ele>267</ele>
        <time>2022-05-28T14:20:23Z</time>
      </trkpt>
      <trkpt lat="46.48936" lon="5.3776">
        <ele>266.4</ele>
        <time>2022-05-28T14:20:30Z</time>
      </trkpt>
      <trkpt lat="46.48929" lon="5.37738">
        <ele>265.8</ele>
        <time>2022-05-28T14:20:32Z</time>
      </trkpt>
      <trkpt lat="46.48923" lon="5.37715">
        <ele>265.2</ele>
        <time>2022-05-28T14:20:34Z</time>
      </trkpt>
      <trkpt lat="46.48907" lon="5.37665">
        <ele>265</ele>
        <time>2022-05-28T14:20:39Z</time>
      </trkpt>
      <trkpt lat="46.48898" lon="5.3764">
        <ele>265.4</ele>
        <time>2022-05-28T14:20:42Z</time>
      </trkpt>
      <trkpt lat="46.48894" lon="5.37633">
        <ele>265.4</ele>
        <time>2022-05-28T14:20:43Z</time>
      </trkpt>
      <trkpt lat="46.48887" lon="5.37629">
        <ele>265.4</ele>
        <time>2022-05-28T14:20:44Z</time>
      </trkpt>
      <trkpt lat="46.48881" lon="5.37627">
        <ele>265.6</ele>
        <time>2022-05-28T14:20:45Z</time>
      </trkpt>
      <trkpt lat="46.48869" lon="5.37627">
        <ele>266</ele>
        <time>2022-05-28T14:20:47Z</time>
      </trkpt>
      <trkpt lat="46.48865" lon="5.37625">
        <ele>266.2</ele>
        <time>2022-05-28T14:20:48Z</time>
      </trkpt>
      <trkpt lat="46.48861" lon="5.37621">
        <ele>266.6</ele>
        <time>2022-05-28T14:20:49Z</time>
      </trkpt>
      <trkpt lat="46.48859" lon="5.37606">
        <ele>266.8</ele>
        <time>2022-05-28T14:20:51Z</time>
      </trkpt>
      <trkpt lat="46.48853" lon="5.37575">
        <ele>267.6</ele>
        <time>2022-05-28T14:20:55Z</time>
      </trkpt>
      <trkpt lat="46.48851" lon="5.37567">
        <ele>267.8</ele>
        <time>2022-05-28T14:20:56Z</time>
      </trkpt>
      <trkpt lat="46.48848" lon="5.3756">
        <ele>268.2</ele>
        <time>2022-05-28T14:20:57Z</time>
      </trkpt>
      <trkpt lat="46.48845" lon="5.37554">
        <ele>268.8</ele>
        <time>2022-05-28T14:20:58Z</time>
      </trkpt>
      <trkpt lat="46.48836" lon="5.37533">
        <ele>269.2</ele>
        <time>2022-05-28T14:21:01Z</time>
      </trkpt>
      <trkpt lat="46.4883" lon="5.37521">
        <ele>269.6</ele>
        <time>2022-05-28T14:21:03Z</time>
      </trkpt>
      <trkpt lat="46.48826" lon="5.37515">
        <ele>269.8</ele>
        <time>2022-05-28T14:21:04Z</time>
      </trkpt>
      <trkpt lat="46.48812" lon="5.37496">
        <ele>270.2</ele>
        <time>2022-05-28T14:21:08Z</time>
      </trkpt>
      <trkpt lat="46.48805" lon="5.37485">
        <ele>270.8</ele>
        <time>2022-05-28T14:21:10Z</time>
      </trkpt>
      <trkpt lat="46.48801" lon="5.37481">
        <ele>271.2</ele>
        <time>2022-05-28T14:21:11Z</time>
      </trkpt>
      <trkpt lat="46.4879" lon="5.37465">
        <ele>271.8</ele>
        <time>2022-05-28T14:21:14Z</time>
      </trkpt>
      <trkpt lat="46.48773" lon="5.37442">
        <ele>272.2</ele>
        <time>2022-05-28T14:21:18Z</time>
      </trkpt>
      <trkpt lat="46.48746" lon="5.37402">
        <ele>272</ele>
        <time>2022-05-28T14:21:24Z</time>
      </trkpt>
      <trkpt lat="46.48722" lon="5.37367">
        <ele>271.4</ele>
        <time>2022-05-28T14:21:29Z</time>
      </trkpt>
      <trkpt lat="46.48703" lon="5.37341">
        <ele>270.8</ele>
        <time>2022-05-28T14:21:33Z</time>
      </trkpt>
      <trkpt lat="46.48698" lon="5.37334">
        <ele>270.6</ele>
        <time>2022-05-28T14:21:34Z</time>
      </trkpt>
      <trkpt lat="46.48678" lon="5.37307">
        <ele>270.2</ele>
        <time>2022-05-28T14:21:38Z</time>
      </trkpt>
      <trkpt lat="46.48673" lon="5.37301">
        <ele>270</ele>
        <time>2022-05-28T14:21:39Z</time>
      </trkpt>
    </trkseg>
  </trk>
</gpx>